<?xml version="1.0" encoding="UTF-8" standalone="no" ?>
<gpx xmlns="http://www.topografix.com/GPX/1/1" xmlns:xsi="http://www.w3.org/2001/XMLSchema-instance" xsi:schemaLocation="http://www.topografix.com/GPX/1/1 http://www.topografix.com/GPX/1/1/gpx.xsd" version="1.1" creator="VisuGPX - https://www.visugpx.com">
  <metadata>
    <name>Dame Blanche variante</name>
  </metadata>
  <trk>
    <name><![CDATA[Dame Blanche variante_1]]></name>
    <extensions>
      <line xmlns="http://www.topografix.com/GPX/gpx_style/0/2">
        <color>0000FF</color>
        <width>4</width>
      </line>
    </extensions>
    <trkseg>
      <trkpt lat="47.24677" lon="6.02522">
        <ele>268.8</ele>
      </trkpt>
      <trkpt lat="47.24706" lon="6.02486">
        <ele>271.2</ele>
      </trkpt>
      <trkpt lat="47.2474" lon="6.02541">
        <ele>268.5</ele>
      </trkpt>
      <trkpt lat="47.24786" lon="6.02498">
        <ele>273.6</ele>
      </trkpt>
      <trkpt lat="47.2482" lon="6.02606">
        <ele>272.3</ele>
      </trkpt>
      <trkpt lat="47.24844" lon="6.02707">
        <ele>272.2</ele>
      </trkpt>
      <trkpt lat="47.24858" lon="6.02747">
        <ele>272.8</ele>
      </trkpt>
      <trkpt lat="47.24877" lon="6.02776">
        <ele>273.2</ele>
      </trkpt>
      <trkpt lat="47.24861" lon="6.02807">
        <ele>270.7</ele>
      </trkpt>
      <trkpt lat="47.24924" lon="6.02841">
        <ele>267.8</ele>
        <time>2021-10-13T08:43:01Z</time>
      </trkpt>
      <trkpt lat="47.24924" lon="6.02841">
        <ele>267.8</ele>
        <time>2021-10-13T08:43:01Z</time>
      </trkpt>
      <trkpt lat="47.24927" lon="6.02843">
        <ele>283.8</ele>
        <time>2021-10-13T08:43:02Z</time>
      </trkpt>
      <trkpt lat="47.24929" lon="6.02845">
        <ele>285</ele>
        <time>2021-10-13T08:43:03Z</time>
      </trkpt>
      <trkpt lat="47.24931" lon="6.02846">
        <ele>285.8</ele>
        <time>2021-10-13T08:43:04Z</time>
      </trkpt>
      <trkpt lat="47.24934" lon="6.02847">
        <ele>286.2</ele>
        <time>2021-10-13T08:43:05Z</time>
      </trkpt>
      <trkpt lat="47.24937" lon="6.02849">
        <ele>286.4</ele>
        <time>2021-10-13T08:43:06Z</time>
      </trkpt>
      <trkpt lat="47.24939" lon="6.02851">
        <ele>286.6</ele>
        <time>2021-10-13T08:43:07Z</time>
      </trkpt>
      <trkpt lat="47.24942" lon="6.02854">
        <ele>286.4</ele>
        <time>2021-10-13T08:43:08Z</time>
      </trkpt>
      <trkpt lat="47.24945" lon="6.02857">
        <ele>286.4</ele>
        <time>2021-10-13T08:43:09Z</time>
      </trkpt>
      <trkpt lat="47.24948" lon="6.02859">
        <ele>286.4</ele>
        <time>2021-10-13T08:43:10Z</time>
      </trkpt>
      <trkpt lat="47.24951" lon="6.02861">
        <ele>286.6</ele>
        <time>2021-10-13T08:43:11Z</time>
      </trkpt>
      <trkpt lat="47.24954" lon="6.02863">
        <ele>286.8</ele>
        <time>2021-10-13T08:43:12Z</time>
      </trkpt>
      <trkpt lat="47.24957" lon="6.02866">
        <ele>286.6</ele>
        <time>2021-10-13T08:43:13Z</time>
      </trkpt>
      <trkpt lat="47.2496" lon="6.02868">
        <ele>286.6</ele>
        <time>2021-10-13T08:43:14Z</time>
      </trkpt>
      <trkpt lat="47.24963" lon="6.0287">
        <ele>286.6</ele>
        <time>2021-10-13T08:43:15Z</time>
      </trkpt>
      <trkpt lat="47.24966" lon="6.02871">
        <ele>286.6</ele>
        <time>2021-10-13T08:43:16Z</time>
      </trkpt>
      <trkpt lat="47.24969" lon="6.02873">
        <ele>286.8</ele>
        <time>2021-10-13T08:43:17Z</time>
      </trkpt>
      <trkpt lat="47.24971" lon="6.02875">
        <ele>286.8</ele>
        <time>2021-10-13T08:43:18Z</time>
      </trkpt>
      <trkpt lat="47.24974" lon="6.02878">
        <ele>286.8</ele>
        <time>2021-10-13T08:43:19Z</time>
      </trkpt>
      <trkpt lat="47.24977" lon="6.0288">
        <ele>287</ele>
        <time>2021-10-13T08:43:20Z</time>
      </trkpt>
      <trkpt lat="47.2498" lon="6.02882">
        <ele>287</ele>
        <time>2021-10-13T08:43:21Z</time>
      </trkpt>
      <trkpt lat="47.24983" lon="6.02884">
        <ele>287.2</ele>
        <time>2021-10-13T08:43:22Z</time>
      </trkpt>
      <trkpt lat="47.24985" lon="6.02886">
        <ele>287.2</ele>
        <time>2021-10-13T08:43:23Z</time>
      </trkpt>
      <trkpt lat="47.24988" lon="6.02889">
        <ele>287.4</ele>
        <time>2021-10-13T08:43:24Z</time>
      </trkpt>
      <trkpt lat="47.2499" lon="6.02892">
        <ele>287.4</ele>
        <time>2021-10-13T08:43:25Z</time>
      </trkpt>
      <trkpt lat="47.24992" lon="6.02894">
        <ele>287.6</ele>
        <time>2021-10-13T08:43:26Z</time>
      </trkpt>
      <trkpt lat="47.24994" lon="6.02896">
        <ele>287.6</ele>
        <time>2021-10-13T08:43:27Z</time>
      </trkpt>
      <trkpt lat="47.24997" lon="6.02898">
        <ele>287.6</ele>
        <time>2021-10-13T08:43:28Z</time>
      </trkpt>
      <trkpt lat="47.25" lon="6.029">
        <ele>287.8</ele>
        <time>2021-10-13T08:43:29Z</time>
      </trkpt>
      <trkpt lat="47.25002" lon="6.02901">
        <ele>287.8</ele>
        <time>2021-10-13T08:43:30Z</time>
      </trkpt>
      <trkpt lat="47.25004" lon="6.02904">
        <ele>288</ele>
        <time>2021-10-13T08:43:31Z</time>
      </trkpt>
      <trkpt lat="47.25007" lon="6.02906">
        <ele>288</ele>
        <time>2021-10-13T08:43:32Z</time>
      </trkpt>
      <trkpt lat="47.25009" lon="6.02908">
        <ele>288.2</ele>
        <time>2021-10-13T08:43:33Z</time>
      </trkpt>
      <trkpt lat="47.25012" lon="6.0291">
        <ele>288.2</ele>
        <time>2021-10-13T08:43:34Z</time>
      </trkpt>
      <trkpt lat="47.25014" lon="6.02912">
        <ele>288.4</ele>
        <time>2021-10-13T08:43:35Z</time>
      </trkpt>
      <trkpt lat="47.25017" lon="6.02914">
        <ele>288.6</ele>
        <time>2021-10-13T08:43:36Z</time>
      </trkpt>
      <trkpt lat="47.2502" lon="6.02916">
        <ele>288.6</ele>
        <time>2021-10-13T08:43:37Z</time>
      </trkpt>
      <trkpt lat="47.25022" lon="6.02918">
        <ele>288.6</ele>
        <time>2021-10-13T08:43:38Z</time>
      </trkpt>
      <trkpt lat="47.25024" lon="6.0292">
        <ele>288.8</ele>
        <time>2021-10-13T08:43:39Z</time>
      </trkpt>
      <trkpt lat="47.25026" lon="6.02922">
        <ele>288.8</ele>
        <time>2021-10-13T08:43:40Z</time>
      </trkpt>
      <trkpt lat="47.25029" lon="6.02924">
        <ele>289</ele>
        <time>2021-10-13T08:43:41Z</time>
      </trkpt>
      <trkpt lat="47.25031" lon="6.02926">
        <ele>289</ele>
        <time>2021-10-13T08:43:42Z</time>
      </trkpt>
      <trkpt lat="47.25033" lon="6.02928">
        <ele>289.2</ele>
        <time>2021-10-13T08:43:43Z</time>
      </trkpt>
      <trkpt lat="47.25035" lon="6.02931">
        <ele>289.4</ele>
        <time>2021-10-13T08:43:44Z</time>
      </trkpt>
      <trkpt lat="47.25036" lon="6.02934">
        <ele>289.6</ele>
        <time>2021-10-13T08:43:45Z</time>
      </trkpt>
      <trkpt lat="47.25037" lon="6.02937">
        <ele>289.8</ele>
        <time>2021-10-13T08:43:46Z</time>
      </trkpt>
      <trkpt lat="47.25039" lon="6.0294">
        <ele>290</ele>
        <time>2021-10-13T08:43:47Z</time>
      </trkpt>
      <trkpt lat="47.2504" lon="6.02943">
        <ele>290.2</ele>
        <time>2021-10-13T08:43:48Z</time>
      </trkpt>
      <trkpt lat="47.25041" lon="6.02946">
        <ele>290.4</ele>
        <time>2021-10-13T08:43:49Z</time>
      </trkpt>
      <trkpt lat="47.25042" lon="6.0295">
        <ele>290.6</ele>
        <time>2021-10-13T08:43:50Z</time>
      </trkpt>
      <trkpt lat="47.25043" lon="6.02953">
        <ele>290.8</ele>
        <time>2021-10-13T08:43:51Z</time>
      </trkpt>
      <trkpt lat="47.25044" lon="6.02956">
        <ele>290.8</ele>
        <time>2021-10-13T08:43:52Z</time>
      </trkpt>
      <trkpt lat="47.25045" lon="6.02959">
        <ele>291</ele>
        <time>2021-10-13T08:43:53Z</time>
      </trkpt>
      <trkpt lat="47.25047" lon="6.02962">
        <ele>291</ele>
        <time>2021-10-13T08:43:54Z</time>
      </trkpt>
      <trkpt lat="47.25048" lon="6.02965">
        <ele>291.2</ele>
        <time>2021-10-13T08:43:55Z</time>
      </trkpt>
      <trkpt lat="47.25049" lon="6.02969">
        <ele>291.2</ele>
        <time>2021-10-13T08:43:56Z</time>
      </trkpt>
      <trkpt lat="47.2505" lon="6.02973">
        <ele>291.4</ele>
        <time>2021-10-13T08:43:57Z</time>
      </trkpt>
      <trkpt lat="47.2505" lon="6.02976">
        <ele>291.4</ele>
        <time>2021-10-13T08:43:58Z</time>
      </trkpt>
      <trkpt lat="47.25051" lon="6.0298">
        <ele>291.6</ele>
        <time>2021-10-13T08:43:59Z</time>
      </trkpt>
      <trkpt lat="47.25053" lon="6.02983">
        <ele>291.6</ele>
        <time>2021-10-13T08:44:00Z</time>
      </trkpt>
      <trkpt lat="47.25055" lon="6.02986">
        <ele>291.6</ele>
        <time>2021-10-13T08:44:01Z</time>
      </trkpt>
      <trkpt lat="47.25056" lon="6.0299">
        <ele>291.8</ele>
        <time>2021-10-13T08:44:02Z</time>
      </trkpt>
      <trkpt lat="47.25058" lon="6.02993">
        <ele>291.8</ele>
        <time>2021-10-13T08:44:03Z</time>
      </trkpt>
      <trkpt lat="47.2506" lon="6.02996">
        <ele>292</ele>
        <time>2021-10-13T08:44:04Z</time>
      </trkpt>
      <trkpt lat="47.25061" lon="6.03">
        <ele>292.2</ele>
        <time>2021-10-13T08:44:05Z</time>
      </trkpt>
      <trkpt lat="47.25063" lon="6.03003">
        <ele>292.2</ele>
        <time>2021-10-13T08:44:06Z</time>
      </trkpt>
      <trkpt lat="47.25064" lon="6.03006">
        <ele>292.4</ele>
        <time>2021-10-13T08:44:07Z</time>
      </trkpt>
      <trkpt lat="47.25066" lon="6.0301">
        <ele>292.6</ele>
        <time>2021-10-13T08:44:08Z</time>
      </trkpt>
      <trkpt lat="47.25067" lon="6.03013">
        <ele>292.8</ele>
        <time>2021-10-13T08:44:09Z</time>
      </trkpt>
      <trkpt lat="47.25068" lon="6.03016">
        <ele>293</ele>
        <time>2021-10-13T08:44:10Z</time>
      </trkpt>
      <trkpt lat="47.2507" lon="6.0302">
        <ele>293.2</ele>
        <time>2021-10-13T08:44:11Z</time>
      </trkpt>
      <trkpt lat="47.25071" lon="6.03023">
        <ele>293.2</ele>
        <time>2021-10-13T08:44:12Z</time>
      </trkpt>
      <trkpt lat="47.25073" lon="6.03026">
        <ele>293.4</ele>
        <time>2021-10-13T08:44:13Z</time>
      </trkpt>
      <trkpt lat="47.25075" lon="6.03028">
        <ele>293.6</ele>
        <time>2021-10-13T08:44:14Z</time>
      </trkpt>
      <trkpt lat="47.25077" lon="6.03031">
        <ele>293.8</ele>
        <time>2021-10-13T08:44:15Z</time>
      </trkpt>
      <trkpt lat="47.25079" lon="6.03033">
        <ele>294</ele>
        <time>2021-10-13T08:44:16Z</time>
      </trkpt>
      <trkpt lat="47.25081" lon="6.03035">
        <ele>294.2</ele>
        <time>2021-10-13T08:44:17Z</time>
      </trkpt>
      <trkpt lat="47.25083" lon="6.03037">
        <ele>294.4</ele>
        <time>2021-10-13T08:44:18Z</time>
      </trkpt>
      <trkpt lat="47.25086" lon="6.03038">
        <ele>294.4</ele>
        <time>2021-10-13T08:44:19Z</time>
      </trkpt>
      <trkpt lat="47.25088" lon="6.0304">
        <ele>294.6</ele>
        <time>2021-10-13T08:44:20Z</time>
      </trkpt>
      <trkpt lat="47.25091" lon="6.03041">
        <ele>294.8</ele>
        <time>2021-10-13T08:44:21Z</time>
      </trkpt>
      <trkpt lat="47.25093" lon="6.03042">
        <ele>294.8</ele>
        <time>2021-10-13T08:44:22Z</time>
      </trkpt>
      <trkpt lat="47.25095" lon="6.03043">
        <ele>295</ele>
        <time>2021-10-13T08:44:23Z</time>
      </trkpt>
      <trkpt lat="47.25098" lon="6.03043">
        <ele>295</ele>
        <time>2021-10-13T08:44:24Z</time>
      </trkpt>
      <trkpt lat="47.25101" lon="6.03044">
        <ele>295.4</ele>
        <time>2021-10-13T08:44:25Z</time>
      </trkpt>
      <trkpt lat="47.25103" lon="6.03044">
        <ele>295.4</ele>
        <time>2021-10-13T08:44:26Z</time>
      </trkpt>
      <trkpt lat="47.25106" lon="6.03044">
        <ele>295.2</ele>
        <time>2021-10-13T08:44:27Z</time>
      </trkpt>
      <trkpt lat="47.25109" lon="6.03044">
        <ele>295.4</ele>
        <time>2021-10-13T08:44:28Z</time>
      </trkpt>
      <trkpt lat="47.25111" lon="6.03044">
        <ele>295.6</ele>
        <time>2021-10-13T08:44:29Z</time>
      </trkpt>
      <trkpt lat="47.25114" lon="6.03043">
        <ele>295.6</ele>
        <time>2021-10-13T08:44:30Z</time>
      </trkpt>
      <trkpt lat="47.25117" lon="6.03043">
        <ele>295.8</ele>
        <time>2021-10-13T08:44:31Z</time>
      </trkpt>
      <trkpt lat="47.2512" lon="6.03042">
        <ele>296</ele>
        <time>2021-10-13T08:44:32Z</time>
      </trkpt>
      <trkpt lat="47.25123" lon="6.03042">
        <ele>296</ele>
        <time>2021-10-13T08:44:33Z</time>
      </trkpt>
      <trkpt lat="47.25126" lon="6.03041">
        <ele>296.4</ele>
        <time>2021-10-13T08:44:34Z</time>
      </trkpt>
      <trkpt lat="47.25129" lon="6.0304">
        <ele>296.6</ele>
        <time>2021-10-13T08:44:35Z</time>
      </trkpt>
      <trkpt lat="47.25131" lon="6.03038">
        <ele>296.6</ele>
        <time>2021-10-13T08:44:36Z</time>
      </trkpt>
      <trkpt lat="47.25134" lon="6.03036">
        <ele>296.8</ele>
        <time>2021-10-13T08:44:37Z</time>
      </trkpt>
      <trkpt lat="47.25136" lon="6.03035">
        <ele>297.2</ele>
        <time>2021-10-13T08:44:38Z</time>
      </trkpt>
      <trkpt lat="47.25138" lon="6.03033">
        <ele>297.2</ele>
        <time>2021-10-13T08:44:39Z</time>
      </trkpt>
      <trkpt lat="47.25141" lon="6.03032">
        <ele>297.4</ele>
        <time>2021-10-13T08:44:40Z</time>
      </trkpt>
      <trkpt lat="47.25143" lon="6.0303">
        <ele>297.4</ele>
        <time>2021-10-13T08:44:41Z</time>
      </trkpt>
      <trkpt lat="47.25145" lon="6.03029">
        <ele>297.6</ele>
        <time>2021-10-13T08:44:42Z</time>
      </trkpt>
      <trkpt lat="47.25148" lon="6.03028">
        <ele>297.8</ele>
        <time>2021-10-13T08:44:43Z</time>
      </trkpt>
      <trkpt lat="47.2515" lon="6.03026">
        <ele>297.8</ele>
        <time>2021-10-13T08:44:44Z</time>
      </trkpt>
      <trkpt lat="47.25153" lon="6.03025">
        <ele>298.2</ele>
        <time>2021-10-13T08:44:45Z</time>
      </trkpt>
      <trkpt lat="47.25155" lon="6.03024">
        <ele>298.4</ele>
        <time>2021-10-13T08:44:46Z</time>
      </trkpt>
      <trkpt lat="47.25157" lon="6.03022">
        <ele>298.4</ele>
        <time>2021-10-13T08:44:47Z</time>
      </trkpt>
      <trkpt lat="47.2516" lon="6.03021">
        <ele>298.6</ele>
        <time>2021-10-13T08:44:48Z</time>
      </trkpt>
      <trkpt lat="47.25162" lon="6.0302">
        <ele>298.8</ele>
        <time>2021-10-13T08:44:49Z</time>
      </trkpt>
      <trkpt lat="47.25165" lon="6.03019">
        <ele>299</ele>
        <time>2021-10-13T08:44:50Z</time>
      </trkpt>
      <trkpt lat="47.25168" lon="6.03018">
        <ele>299</ele>
        <time>2021-10-13T08:44:51Z</time>
      </trkpt>
      <trkpt lat="47.25171" lon="6.03017">
        <ele>299.4</ele>
        <time>2021-10-13T08:44:52Z</time>
      </trkpt>
      <trkpt lat="47.25174" lon="6.03017">
        <ele>299.4</ele>
        <time>2021-10-13T08:44:53Z</time>
      </trkpt>
      <trkpt lat="47.25177" lon="6.03016">
        <ele>299.6</ele>
        <time>2021-10-13T08:44:54Z</time>
      </trkpt>
      <trkpt lat="47.2518" lon="6.03016">
        <ele>299.8</ele>
        <time>2021-10-13T08:44:55Z</time>
      </trkpt>
      <trkpt lat="47.25183" lon="6.03016">
        <ele>299.8</ele>
        <time>2021-10-13T08:44:56Z</time>
      </trkpt>
      <trkpt lat="47.25186" lon="6.03017">
        <ele>300</ele>
        <time>2021-10-13T08:44:57Z</time>
      </trkpt>
      <trkpt lat="47.2519" lon="6.03017">
        <ele>300</ele>
        <time>2021-10-13T08:44:58Z</time>
      </trkpt>
      <trkpt lat="47.25193" lon="6.03018">
        <ele>300.2</ele>
        <time>2021-10-13T08:44:59Z</time>
      </trkpt>
      <trkpt lat="47.25196" lon="6.03019">
        <ele>300.2</ele>
        <time>2021-10-13T08:45:00Z</time>
      </trkpt>
      <trkpt lat="47.25199" lon="6.0302">
        <ele>300.2</ele>
        <time>2021-10-13T08:45:01Z</time>
      </trkpt>
      <trkpt lat="47.25202" lon="6.03022">
        <ele>300.2</ele>
        <time>2021-10-13T08:45:02Z</time>
      </trkpt>
      <trkpt lat="47.25205" lon="6.03024">
        <ele>300.4</ele>
        <time>2021-10-13T08:45:03Z</time>
      </trkpt>
      <trkpt lat="47.25207" lon="6.03025">
        <ele>300.4</ele>
        <time>2021-10-13T08:45:04Z</time>
      </trkpt>
      <trkpt lat="47.2521" lon="6.03027">
        <ele>300.4</ele>
        <time>2021-10-13T08:45:05Z</time>
      </trkpt>
      <trkpt lat="47.25213" lon="6.03029">
        <ele>300.4</ele>
        <time>2021-10-13T08:45:06Z</time>
      </trkpt>
      <trkpt lat="47.25216" lon="6.03031">
        <ele>300.6</ele>
        <time>2021-10-13T08:45:07Z</time>
      </trkpt>
      <trkpt lat="47.25219" lon="6.03033">
        <ele>300.6</ele>
        <time>2021-10-13T08:45:08Z</time>
      </trkpt>
      <trkpt lat="47.25221" lon="6.03034">
        <ele>300.6</ele>
        <time>2021-10-13T08:45:10Z</time>
      </trkpt>
      <trkpt lat="47.25224" lon="6.03036">
        <ele>300.8</ele>
        <time>2021-10-13T08:45:11Z</time>
      </trkpt>
      <trkpt lat="47.25226" lon="6.03037">
        <ele>300.8</ele>
        <time>2021-10-13T08:45:12Z</time>
      </trkpt>
      <trkpt lat="47.25229" lon="6.03039">
        <ele>300.8</ele>
        <time>2021-10-13T08:45:13Z</time>
      </trkpt>
      <trkpt lat="47.25231" lon="6.03041">
        <ele>300.8</ele>
        <time>2021-10-13T08:45:14Z</time>
      </trkpt>
      <trkpt lat="47.25234" lon="6.03042">
        <ele>301</ele>
        <time>2021-10-13T08:45:15Z</time>
      </trkpt>
      <trkpt lat="47.25236" lon="6.03043">
        <ele>301.2</ele>
        <time>2021-10-13T08:45:16Z</time>
      </trkpt>
      <trkpt lat="47.25239" lon="6.03045">
        <ele>301.4</ele>
        <time>2021-10-13T08:45:17Z</time>
      </trkpt>
      <trkpt lat="47.25241" lon="6.03046">
        <ele>301.6</ele>
        <time>2021-10-13T08:45:18Z</time>
      </trkpt>
      <trkpt lat="47.25243" lon="6.03048">
        <ele>301.6</ele>
        <time>2021-10-13T08:45:19Z</time>
      </trkpt>
      <trkpt lat="47.25245" lon="6.03049">
        <ele>301.8</ele>
        <time>2021-10-13T08:45:20Z</time>
      </trkpt>
      <trkpt lat="47.25248" lon="6.0305">
        <ele>302</ele>
        <time>2021-10-13T08:45:21Z</time>
      </trkpt>
      <trkpt lat="47.2525" lon="6.03052">
        <ele>302</ele>
        <time>2021-10-13T08:45:22Z</time>
      </trkpt>
      <trkpt lat="47.25253" lon="6.03053">
        <ele>302.2</ele>
        <time>2021-10-13T08:45:23Z</time>
      </trkpt>
      <trkpt lat="47.25262" lon="6.03058">
        <ele>302.6</ele>
        <time>2021-10-13T08:45:27Z</time>
      </trkpt>
      <trkpt lat="47.25264" lon="6.03059">
        <ele>302.8</ele>
        <time>2021-10-13T08:45:28Z</time>
      </trkpt>
      <trkpt lat="47.25266" lon="6.03061">
        <ele>303</ele>
        <time>2021-10-13T08:45:29Z</time>
      </trkpt>
      <trkpt lat="47.25267" lon="6.03063">
        <ele>303</ele>
        <time>2021-10-13T08:45:30Z</time>
      </trkpt>
      <trkpt lat="47.25269" lon="6.03064">
        <ele>303.2</ele>
        <time>2021-10-13T08:45:31Z</time>
      </trkpt>
      <trkpt lat="47.25271" lon="6.03065">
        <ele>303.2</ele>
        <time>2021-10-13T08:45:32Z</time>
      </trkpt>
      <trkpt lat="47.25273" lon="6.03066">
        <ele>303.4</ele>
        <time>2021-10-13T08:45:33Z</time>
      </trkpt>
      <trkpt lat="47.25276" lon="6.03067">
        <ele>303.4</ele>
        <time>2021-10-13T08:45:34Z</time>
      </trkpt>
      <trkpt lat="47.25278" lon="6.03068">
        <ele>303.6</ele>
        <time>2021-10-13T08:45:35Z</time>
      </trkpt>
      <trkpt lat="47.25281" lon="6.0307">
        <ele>303.6</ele>
        <time>2021-10-13T08:45:36Z</time>
      </trkpt>
      <trkpt lat="47.25284" lon="6.03071">
        <ele>304</ele>
        <time>2021-10-13T08:45:37Z</time>
      </trkpt>
      <trkpt lat="47.25286" lon="6.03072">
        <ele>304.2</ele>
        <time>2021-10-13T08:45:38Z</time>
      </trkpt>
      <trkpt lat="47.25289" lon="6.03074">
        <ele>304.2</ele>
        <time>2021-10-13T08:45:39Z</time>
      </trkpt>
      <trkpt lat="47.25291" lon="6.03075">
        <ele>304.4</ele>
        <time>2021-10-13T08:45:40Z</time>
      </trkpt>
      <trkpt lat="47.25294" lon="6.03077">
        <ele>304.4</ele>
        <time>2021-10-13T08:45:41Z</time>
      </trkpt>
      <trkpt lat="47.25297" lon="6.03078">
        <ele>304.6</ele>
        <time>2021-10-13T08:45:42Z</time>
      </trkpt>
      <trkpt lat="47.25299" lon="6.0308">
        <ele>304.8</ele>
        <time>2021-10-13T08:45:43Z</time>
      </trkpt>
      <trkpt lat="47.25302" lon="6.03081">
        <ele>304.8</ele>
        <time>2021-10-13T08:45:44Z</time>
      </trkpt>
      <trkpt lat="47.25305" lon="6.03083">
        <ele>305</ele>
        <time>2021-10-13T08:45:45Z</time>
      </trkpt>
      <trkpt lat="47.25307" lon="6.03084">
        <ele>305.4</ele>
        <time>2021-10-13T08:45:46Z</time>
      </trkpt>
      <trkpt lat="47.25309" lon="6.03085">
        <ele>305.6</ele>
        <time>2021-10-13T08:45:47Z</time>
      </trkpt>
      <trkpt lat="47.25312" lon="6.03086">
        <ele>305.8</ele>
        <time>2021-10-13T08:45:48Z</time>
      </trkpt>
      <trkpt lat="47.25315" lon="6.03087">
        <ele>306</ele>
        <time>2021-10-13T08:45:49Z</time>
      </trkpt>
      <trkpt lat="47.25318" lon="6.03088">
        <ele>306.2</ele>
        <time>2021-10-13T08:45:50Z</time>
      </trkpt>
      <trkpt lat="47.25321" lon="6.03089">
        <ele>306.2</ele>
        <time>2021-10-13T08:45:51Z</time>
      </trkpt>
      <trkpt lat="47.25323" lon="6.0309">
        <ele>306.2</ele>
        <time>2021-10-13T08:45:52Z</time>
      </trkpt>
      <trkpt lat="47.25326" lon="6.03092">
        <ele>306.4</ele>
        <time>2021-10-13T08:45:53Z</time>
      </trkpt>
      <trkpt lat="47.25329" lon="6.03094">
        <ele>306.4</ele>
        <time>2021-10-13T08:45:54Z</time>
      </trkpt>
      <trkpt lat="47.25331" lon="6.03096">
        <ele>306.6</ele>
        <time>2021-10-13T08:45:55Z</time>
      </trkpt>
      <trkpt lat="47.25333" lon="6.03097">
        <ele>306.8</ele>
        <time>2021-10-13T08:45:56Z</time>
      </trkpt>
      <trkpt lat="47.25336" lon="6.03098">
        <ele>307</ele>
        <time>2021-10-13T08:45:57Z</time>
      </trkpt>
      <trkpt lat="47.25338" lon="6.031">
        <ele>307</ele>
        <time>2021-10-13T08:45:58Z</time>
      </trkpt>
      <trkpt lat="47.2534" lon="6.03102">
        <ele>307</ele>
        <time>2021-10-13T08:45:59Z</time>
      </trkpt>
      <trkpt lat="47.25343" lon="6.03104">
        <ele>307.2</ele>
        <time>2021-10-13T08:46:00Z</time>
      </trkpt>
      <trkpt lat="47.25345" lon="6.03106">
        <ele>307.2</ele>
        <time>2021-10-13T08:46:01Z</time>
      </trkpt>
      <trkpt lat="47.25348" lon="6.03108">
        <ele>307.4</ele>
        <time>2021-10-13T08:46:02Z</time>
      </trkpt>
      <trkpt lat="47.2535" lon="6.0311">
        <ele>307.6</ele>
        <time>2021-10-13T08:46:03Z</time>
      </trkpt>
      <trkpt lat="47.25352" lon="6.03112">
        <ele>307.8</ele>
        <time>2021-10-13T08:46:04Z</time>
      </trkpt>
      <trkpt lat="47.25354" lon="6.03114">
        <ele>308.2</ele>
        <time>2021-10-13T08:46:05Z</time>
      </trkpt>
      <trkpt lat="47.25357" lon="6.03115">
        <ele>308.4</ele>
        <time>2021-10-13T08:46:06Z</time>
      </trkpt>
      <trkpt lat="47.25359" lon="6.03117">
        <ele>308.4</ele>
        <time>2021-10-13T08:46:07Z</time>
      </trkpt>
      <trkpt lat="47.25362" lon="6.03119">
        <ele>308.6</ele>
        <time>2021-10-13T08:46:08Z</time>
      </trkpt>
      <trkpt lat="47.25364" lon="6.03121">
        <ele>308.8</ele>
        <time>2021-10-13T08:46:09Z</time>
      </trkpt>
      <trkpt lat="47.25367" lon="6.03123">
        <ele>308.8</ele>
        <time>2021-10-13T08:46:10Z</time>
      </trkpt>
      <trkpt lat="47.25369" lon="6.03126">
        <ele>309</ele>
        <time>2021-10-13T08:46:11Z</time>
      </trkpt>
      <trkpt lat="47.25371" lon="6.03128">
        <ele>309</ele>
        <time>2021-10-13T08:46:12Z</time>
      </trkpt>
      <trkpt lat="47.25373" lon="6.03129">
        <ele>309.2</ele>
        <time>2021-10-13T08:46:13Z</time>
      </trkpt>
      <trkpt lat="47.25375" lon="6.03131">
        <ele>309.2</ele>
        <time>2021-10-13T08:46:14Z</time>
      </trkpt>
      <trkpt lat="47.25376" lon="6.03132">
        <ele>309.4</ele>
        <time>2021-10-13T08:46:15Z</time>
      </trkpt>
      <trkpt lat="47.25378" lon="6.03133">
        <ele>309.4</ele>
        <time>2021-10-13T08:46:16Z</time>
      </trkpt>
      <trkpt lat="47.25379" lon="6.03133">
        <ele>309.6</ele>
        <time>2021-10-13T08:46:17Z</time>
      </trkpt>
      <trkpt lat="47.25381" lon="6.03132">
        <ele>309.8</ele>
        <time>2021-10-13T08:46:18Z</time>
      </trkpt>
      <trkpt lat="47.25382" lon="6.0313">
        <ele>310</ele>
        <time>2021-10-13T08:46:19Z</time>
      </trkpt>
      <trkpt lat="47.25384" lon="6.03126">
        <ele>310.2</ele>
        <time>2021-10-13T08:46:20Z</time>
      </trkpt>
      <trkpt lat="47.25385" lon="6.03123">
        <ele>310.2</ele>
        <time>2021-10-13T08:46:21Z</time>
      </trkpt>
      <trkpt lat="47.25387" lon="6.03121">
        <ele>310.4</ele>
        <time>2021-10-13T08:46:22Z</time>
      </trkpt>
      <trkpt lat="47.2539" lon="6.03118">
        <ele>310.4</ele>
        <time>2021-10-13T08:46:23Z</time>
      </trkpt>
      <trkpt lat="47.25393" lon="6.03115">
        <ele>310.6</ele>
        <time>2021-10-13T08:46:24Z</time>
      </trkpt>
      <trkpt lat="47.25395" lon="6.03113">
        <ele>310.6</ele>
        <time>2021-10-13T08:46:25Z</time>
      </trkpt>
      <trkpt lat="47.25398" lon="6.0311">
        <ele>310.8</ele>
        <time>2021-10-13T08:46:26Z</time>
      </trkpt>
      <trkpt lat="47.254" lon="6.03108">
        <ele>310.8</ele>
        <time>2021-10-13T08:46:27Z</time>
      </trkpt>
      <trkpt lat="47.254" lon="6.03108">
        <ele>310.8</ele>
        <time>2021-10-13T08:46:28Z</time>
      </trkpt>
      <trkpt lat="47.25405" lon="6.03102">
        <ele>311</ele>
        <time>2021-10-13T08:46:29Z</time>
      </trkpt>
      <trkpt lat="47.25407" lon="6.031">
        <ele>311.2</ele>
        <time>2021-10-13T08:46:30Z</time>
      </trkpt>
      <trkpt lat="47.25409" lon="6.03097">
        <ele>311.4</ele>
        <time>2021-10-13T08:46:31Z</time>
      </trkpt>
      <trkpt lat="47.25411" lon="6.03096">
        <ele>311.4</ele>
        <time>2021-10-13T08:46:32Z</time>
      </trkpt>
      <trkpt lat="47.25414" lon="6.03094">
        <ele>311.6</ele>
        <time>2021-10-13T08:46:33Z</time>
      </trkpt>
      <trkpt lat="47.25416" lon="6.03092">
        <ele>311.6</ele>
        <time>2021-10-13T08:46:34Z</time>
      </trkpt>
      <trkpt lat="47.25418" lon="6.03089">
        <ele>312</ele>
        <time>2021-10-13T08:46:35Z</time>
      </trkpt>
      <trkpt lat="47.2542" lon="6.03087">
        <ele>312</ele>
        <time>2021-10-13T08:46:36Z</time>
      </trkpt>
      <trkpt lat="47.25422" lon="6.03085">
        <ele>312.2</ele>
        <time>2021-10-13T08:46:37Z</time>
      </trkpt>
      <trkpt lat="47.25425" lon="6.03082">
        <ele>312.4</ele>
        <time>2021-10-13T08:46:38Z</time>
      </trkpt>
      <trkpt lat="47.25427" lon="6.0308">
        <ele>312.4</ele>
        <time>2021-10-13T08:46:39Z</time>
      </trkpt>
      <trkpt lat="47.25429" lon="6.03078">
        <ele>312.8</ele>
        <time>2021-10-13T08:46:40Z</time>
      </trkpt>
      <trkpt lat="47.25432" lon="6.03075">
        <ele>312.8</ele>
        <time>2021-10-13T08:46:41Z</time>
      </trkpt>
      <trkpt lat="47.25434" lon="6.03073">
        <ele>313</ele>
        <time>2021-10-13T08:46:42Z</time>
      </trkpt>
      <trkpt lat="47.25436" lon="6.03071">
        <ele>313.2</ele>
        <time>2021-10-13T08:46:43Z</time>
      </trkpt>
      <trkpt lat="47.25439" lon="6.03068">
        <ele>313.4</ele>
        <time>2021-10-13T08:46:44Z</time>
      </trkpt>
      <trkpt lat="47.25441" lon="6.03066">
        <ele>313.4</ele>
        <time>2021-10-13T08:46:45Z</time>
      </trkpt>
      <trkpt lat="47.25443" lon="6.03064">
        <ele>313.8</ele>
        <time>2021-10-13T08:46:46Z</time>
      </trkpt>
      <trkpt lat="47.25445" lon="6.03061">
        <ele>313.8</ele>
        <time>2021-10-13T08:46:47Z</time>
      </trkpt>
      <trkpt lat="47.25447" lon="6.03059">
        <ele>314.2</ele>
        <time>2021-10-13T08:46:48Z</time>
      </trkpt>
      <trkpt lat="47.25449" lon="6.03057">
        <ele>314.4</ele>
        <time>2021-10-13T08:46:49Z</time>
      </trkpt>
      <trkpt lat="47.25451" lon="6.03055">
        <ele>314.6</ele>
        <time>2021-10-13T08:46:50Z</time>
      </trkpt>
      <trkpt lat="47.25453" lon="6.03052">
        <ele>315</ele>
        <time>2021-10-13T08:46:51Z</time>
      </trkpt>
      <trkpt lat="47.25455" lon="6.0305">
        <ele>315.2</ele>
        <time>2021-10-13T08:46:52Z</time>
      </trkpt>
      <trkpt lat="47.25457" lon="6.03047">
        <ele>315.4</ele>
        <time>2021-10-13T08:46:53Z</time>
      </trkpt>
      <trkpt lat="47.25459" lon="6.03045">
        <ele>315.6</ele>
        <time>2021-10-13T08:46:54Z</time>
      </trkpt>
      <trkpt lat="47.25461" lon="6.03043">
        <ele>315.8</ele>
        <time>2021-10-13T08:46:55Z</time>
      </trkpt>
      <trkpt lat="47.25463" lon="6.03041">
        <ele>315.8</ele>
        <time>2021-10-13T08:46:56Z</time>
      </trkpt>
      <trkpt lat="47.25466" lon="6.03039">
        <ele>316</ele>
        <time>2021-10-13T08:46:57Z</time>
      </trkpt>
      <trkpt lat="47.25468" lon="6.03036">
        <ele>316.4</ele>
        <time>2021-10-13T08:46:58Z</time>
      </trkpt>
      <trkpt lat="47.2547" lon="6.03034">
        <ele>316.4</ele>
        <time>2021-10-13T08:46:59Z</time>
      </trkpt>
      <trkpt lat="47.25472" lon="6.03032">
        <ele>316.6</ele>
        <time>2021-10-13T08:47:00Z</time>
      </trkpt>
      <trkpt lat="47.25474" lon="6.03029">
        <ele>316.8</ele>
        <time>2021-10-13T08:47:01Z</time>
      </trkpt>
      <trkpt lat="47.25476" lon="6.03027">
        <ele>317.2</ele>
        <time>2021-10-13T08:47:02Z</time>
      </trkpt>
      <trkpt lat="47.25479" lon="6.03025">
        <ele>317.2</ele>
        <time>2021-10-13T08:47:03Z</time>
      </trkpt>
      <trkpt lat="47.25481" lon="6.03023">
        <ele>317.4</ele>
        <time>2021-10-13T08:47:04Z</time>
      </trkpt>
      <trkpt lat="47.25483" lon="6.03021">
        <ele>317.6</ele>
        <time>2021-10-13T08:47:05Z</time>
      </trkpt>
      <trkpt lat="47.25485" lon="6.03018">
        <ele>317.8</ele>
        <time>2021-10-13T08:47:06Z</time>
      </trkpt>
      <trkpt lat="47.25487" lon="6.03016">
        <ele>318</ele>
        <time>2021-10-13T08:47:07Z</time>
      </trkpt>
      <trkpt lat="47.25489" lon="6.03014">
        <ele>318.2</ele>
        <time>2021-10-13T08:47:08Z</time>
      </trkpt>
      <trkpt lat="47.25491" lon="6.03012">
        <ele>318.4</ele>
        <time>2021-10-13T08:47:09Z</time>
      </trkpt>
      <trkpt lat="47.25493" lon="6.0301">
        <ele>318.6</ele>
        <time>2021-10-13T08:47:10Z</time>
      </trkpt>
      <trkpt lat="47.25495" lon="6.03007">
        <ele>318.8</ele>
        <time>2021-10-13T08:47:11Z</time>
      </trkpt>
      <trkpt lat="47.25497" lon="6.03005">
        <ele>318.8</ele>
        <time>2021-10-13T08:47:12Z</time>
      </trkpt>
      <trkpt lat="47.255" lon="6.03002">
        <ele>319</ele>
        <time>2021-10-13T08:47:13Z</time>
      </trkpt>
      <trkpt lat="47.25502" lon="6.03">
        <ele>319.2</ele>
        <time>2021-10-13T08:47:14Z</time>
      </trkpt>
      <trkpt lat="47.25504" lon="6.02998">
        <ele>319.4</ele>
        <time>2021-10-13T08:47:15Z</time>
      </trkpt>
      <trkpt lat="47.25506" lon="6.02996">
        <ele>319.6</ele>
        <time>2021-10-13T08:47:16Z</time>
      </trkpt>
      <trkpt lat="47.25508" lon="6.02993">
        <ele>320</ele>
        <time>2021-10-13T08:47:17Z</time>
      </trkpt>
      <trkpt lat="47.2551" lon="6.02991">
        <ele>320.2</ele>
        <time>2021-10-13T08:47:18Z</time>
      </trkpt>
      <trkpt lat="47.25512" lon="6.02989">
        <ele>320.2</ele>
        <time>2021-10-13T08:47:19Z</time>
      </trkpt>
      <trkpt lat="47.25515" lon="6.02988">
        <ele>320.4</ele>
        <time>2021-10-13T08:47:20Z</time>
      </trkpt>
      <trkpt lat="47.25517" lon="6.02987">
        <ele>320.4</ele>
        <time>2021-10-13T08:47:21Z</time>
      </trkpt>
      <trkpt lat="47.2552" lon="6.02988">
        <ele>320.4</ele>
        <time>2021-10-13T08:47:22Z</time>
      </trkpt>
      <trkpt lat="47.25523" lon="6.02989">
        <ele>320.6</ele>
        <time>2021-10-13T08:47:23Z</time>
      </trkpt>
      <trkpt lat="47.25526" lon="6.0299">
        <ele>320.6</ele>
        <time>2021-10-13T08:47:24Z</time>
      </trkpt>
      <trkpt lat="47.25529" lon="6.02992">
        <ele>320.8</ele>
        <time>2021-10-13T08:47:25Z</time>
      </trkpt>
      <trkpt lat="47.25532" lon="6.02993">
        <ele>321</ele>
        <time>2021-10-13T08:47:26Z</time>
      </trkpt>
      <trkpt lat="47.25536" lon="6.02993">
        <ele>321</ele>
        <time>2021-10-13T08:47:27Z</time>
      </trkpt>
      <trkpt lat="47.25539" lon="6.02993">
        <ele>321</ele>
        <time>2021-10-13T08:47:28Z</time>
      </trkpt>
      <trkpt lat="47.25542" lon="6.02993">
        <ele>321.2</ele>
        <time>2021-10-13T08:47:29Z</time>
      </trkpt>
      <trkpt lat="47.25546" lon="6.02993">
        <ele>321.2</ele>
        <time>2021-10-13T08:47:30Z</time>
      </trkpt>
      <trkpt lat="47.25549" lon="6.02993">
        <ele>321.2</ele>
        <time>2021-10-13T08:47:31Z</time>
      </trkpt>
      <trkpt lat="47.25552" lon="6.02994">
        <ele>321.2</ele>
        <time>2021-10-13T08:47:32Z</time>
      </trkpt>
      <trkpt lat="47.25555" lon="6.02994">
        <ele>321.2</ele>
        <time>2021-10-13T08:47:33Z</time>
      </trkpt>
      <trkpt lat="47.25559" lon="6.02995">
        <ele>321.2</ele>
        <time>2021-10-13T08:47:34Z</time>
      </trkpt>
      <trkpt lat="47.25562" lon="6.02996">
        <ele>321.2</ele>
        <time>2021-10-13T08:47:35Z</time>
      </trkpt>
      <trkpt lat="47.25565" lon="6.02996">
        <ele>321.2</ele>
        <time>2021-10-13T08:47:36Z</time>
      </trkpt>
      <trkpt lat="47.25568" lon="6.02996">
        <ele>321.2</ele>
        <time>2021-10-13T08:47:37Z</time>
      </trkpt>
      <trkpt lat="47.25572" lon="6.02996">
        <ele>321.2</ele>
        <time>2021-10-13T08:47:38Z</time>
      </trkpt>
      <trkpt lat="47.25575" lon="6.02997">
        <ele>321.2</ele>
        <time>2021-10-13T08:47:39Z</time>
      </trkpt>
      <trkpt lat="47.25592" lon="6.02999">
        <ele>321.4</ele>
        <time>2021-10-13T08:47:44Z</time>
      </trkpt>
      <trkpt lat="47.25602" lon="6.03002">
        <ele>321.6</ele>
        <time>2021-10-13T08:47:47Z</time>
      </trkpt>
      <trkpt lat="47.25618" lon="6.03006">
        <ele>321.8</ele>
        <time>2021-10-13T08:47:52Z</time>
      </trkpt>
      <trkpt lat="47.25621" lon="6.03008">
        <ele>322</ele>
        <time>2021-10-13T08:47:53Z</time>
      </trkpt>
      <trkpt lat="47.25624" lon="6.03011">
        <ele>322</ele>
        <time>2021-10-13T08:47:54Z</time>
      </trkpt>
      <trkpt lat="47.25626" lon="6.03014">
        <ele>322.2</ele>
        <time>2021-10-13T08:47:55Z</time>
      </trkpt>
      <trkpt lat="47.25628" lon="6.03018">
        <ele>322.2</ele>
        <time>2021-10-13T08:47:56Z</time>
      </trkpt>
      <trkpt lat="47.2563" lon="6.03022">
        <ele>322.4</ele>
        <time>2021-10-13T08:47:57Z</time>
      </trkpt>
      <trkpt lat="47.25632" lon="6.03027">
        <ele>322.4</ele>
        <time>2021-10-13T08:47:58Z</time>
      </trkpt>
      <trkpt lat="47.25636" lon="6.03035">
        <ele>322.4</ele>
        <time>2021-10-13T08:48:00Z</time>
      </trkpt>
      <trkpt lat="47.25655" lon="6.03069">
        <ele>322.8</ele>
        <time>2021-10-13T08:48:08Z</time>
      </trkpt>
      <trkpt lat="47.25677" lon="6.03107">
        <ele>323.6</ele>
        <time>2021-10-13T08:48:17Z</time>
      </trkpt>
      <trkpt lat="47.25702" lon="6.03144">
        <ele>323.4</ele>
        <time>2021-10-13T08:48:26Z</time>
      </trkpt>
      <trkpt lat="47.25705" lon="6.03148">
        <ele>323.4</ele>
        <time>2021-10-13T08:48:27Z</time>
      </trkpt>
      <trkpt lat="47.2571" lon="6.03155">
        <ele>323.4</ele>
        <time>2021-10-13T08:48:29Z</time>
      </trkpt>
      <trkpt lat="47.25716" lon="6.03161">
        <ele>323.4</ele>
        <time>2021-10-13T08:48:31Z</time>
      </trkpt>
      <trkpt lat="47.25718" lon="6.03164">
        <ele>323.6</ele>
        <time>2021-10-13T08:48:32Z</time>
      </trkpt>
      <trkpt lat="47.25721" lon="6.03167">
        <ele>323.6</ele>
        <time>2021-10-13T08:48:33Z</time>
      </trkpt>
      <trkpt lat="47.25721" lon="6.03167">
        <ele>323.6</ele>
        <time>2021-10-13T08:48:34Z</time>
      </trkpt>
      <trkpt lat="47.25726" lon="6.03174">
        <ele>324</ele>
        <time>2021-10-13T08:48:35Z</time>
      </trkpt>
      <trkpt lat="47.25729" lon="6.03177">
        <ele>324</ele>
        <time>2021-10-13T08:48:36Z</time>
      </trkpt>
      <trkpt lat="47.25731" lon="6.0318">
        <ele>324.2</ele>
        <time>2021-10-13T08:48:37Z</time>
      </trkpt>
      <trkpt lat="47.25739" lon="6.03189">
        <ele>324.8</ele>
        <time>2021-10-13T08:48:40Z</time>
      </trkpt>
      <trkpt lat="47.25741" lon="6.03191">
        <ele>325</ele>
        <time>2021-10-13T08:48:41Z</time>
      </trkpt>
      <trkpt lat="47.25742" lon="6.03193">
        <ele>325.2</ele>
        <time>2021-10-13T08:48:42Z</time>
      </trkpt>
      <trkpt lat="47.25744" lon="6.03194">
        <ele>325.4</ele>
        <time>2021-10-13T08:48:43Z</time>
      </trkpt>
      <trkpt lat="47.25746" lon="6.03196">
        <ele>325.4</ele>
        <time>2021-10-13T08:48:44Z</time>
      </trkpt>
      <trkpt lat="47.25747" lon="6.03198">
        <ele>325.6</ele>
        <time>2021-10-13T08:48:45Z</time>
      </trkpt>
      <trkpt lat="47.25749" lon="6.032">
        <ele>325.8</ele>
        <time>2021-10-13T08:48:46Z</time>
      </trkpt>
      <trkpt lat="47.25756" lon="6.0321">
        <ele>326</ele>
        <time>2021-10-13T08:48:50Z</time>
      </trkpt>
      <trkpt lat="47.25766" lon="6.03222">
        <ele>326.4</ele>
        <time>2021-10-13T08:48:55Z</time>
      </trkpt>
      <trkpt lat="47.25776" lon="6.03235">
        <ele>326.8</ele>
        <time>2021-10-13T08:49:00Z</time>
      </trkpt>
      <trkpt lat="47.25784" lon="6.03247">
        <ele>327.2</ele>
        <time>2021-10-13T08:49:05Z</time>
      </trkpt>
      <trkpt lat="47.25786" lon="6.03247">
        <ele>327.2</ele>
        <time>2021-10-13T08:49:06Z</time>
      </trkpt>
      <trkpt lat="47.25787" lon="6.03248">
        <ele>327.2</ele>
        <time>2021-10-13T08:49:07Z</time>
      </trkpt>
      <trkpt lat="47.25789" lon="6.03248">
        <ele>327.4</ele>
        <time>2021-10-13T08:49:08Z</time>
      </trkpt>
      <trkpt lat="47.25791" lon="6.03247">
        <ele>327.6</ele>
        <time>2021-10-13T08:49:09Z</time>
      </trkpt>
      <trkpt lat="47.25794" lon="6.03245">
        <ele>327.8</ele>
        <time>2021-10-13T08:49:10Z</time>
      </trkpt>
      <trkpt lat="47.25796" lon="6.03242">
        <ele>328</ele>
        <time>2021-10-13T08:49:11Z</time>
      </trkpt>
      <trkpt lat="47.25799" lon="6.03239">
        <ele>328.2</ele>
        <time>2021-10-13T08:49:12Z</time>
      </trkpt>
      <trkpt lat="47.25801" lon="6.03236">
        <ele>328.2</ele>
        <time>2021-10-13T08:49:13Z</time>
      </trkpt>
      <trkpt lat="47.25803" lon="6.03234">
        <ele>328.6</ele>
        <time>2021-10-13T08:49:14Z</time>
      </trkpt>
      <trkpt lat="47.25806" lon="6.03231">
        <ele>328.8</ele>
        <time>2021-10-13T08:49:15Z</time>
      </trkpt>
      <trkpt lat="47.25808" lon="6.03228">
        <ele>329</ele>
        <time>2021-10-13T08:49:16Z</time>
      </trkpt>
      <trkpt lat="47.2581" lon="6.03225">
        <ele>329</ele>
        <time>2021-10-13T08:49:17Z</time>
      </trkpt>
      <trkpt lat="47.25812" lon="6.03223">
        <ele>329.2</ele>
        <time>2021-10-13T08:49:18Z</time>
      </trkpt>
      <trkpt lat="47.25814" lon="6.0322">
        <ele>329.4</ele>
        <time>2021-10-13T08:49:19Z</time>
      </trkpt>
      <trkpt lat="47.25816" lon="6.03217">
        <ele>329.6</ele>
        <time>2021-10-13T08:49:20Z</time>
      </trkpt>
      <trkpt lat="47.25818" lon="6.03214">
        <ele>329.8</ele>
        <time>2021-10-13T08:49:21Z</time>
      </trkpt>
      <trkpt lat="47.2582" lon="6.03211">
        <ele>330</ele>
        <time>2021-10-13T08:49:22Z</time>
      </trkpt>
      <trkpt lat="47.25822" lon="6.03208">
        <ele>330.6</ele>
        <time>2021-10-13T08:49:23Z</time>
      </trkpt>
      <trkpt lat="47.25824" lon="6.03205">
        <ele>330.6</ele>
        <time>2021-10-13T08:49:24Z</time>
      </trkpt>
      <trkpt lat="47.25825" lon="6.03202">
        <ele>330.8</ele>
        <time>2021-10-13T08:49:25Z</time>
      </trkpt>
      <trkpt lat="47.25827" lon="6.03199">
        <ele>331.2</ele>
        <time>2021-10-13T08:49:26Z</time>
      </trkpt>
      <trkpt lat="47.25829" lon="6.03197">
        <ele>331.4</ele>
        <time>2021-10-13T08:49:27Z</time>
      </trkpt>
      <trkpt lat="47.25831" lon="6.03195">
        <ele>331.6</ele>
        <time>2021-10-13T08:49:28Z</time>
      </trkpt>
      <trkpt lat="47.25833" lon="6.03191">
        <ele>331.6</ele>
        <time>2021-10-13T08:49:29Z</time>
      </trkpt>
      <trkpt lat="47.25834" lon="6.03188">
        <ele>331.6</ele>
        <time>2021-10-13T08:49:30Z</time>
      </trkpt>
      <trkpt lat="47.25836" lon="6.03185">
        <ele>331.6</ele>
        <time>2021-10-13T08:49:31Z</time>
      </trkpt>
      <trkpt lat="47.25838" lon="6.03181">
        <ele>331.6</ele>
        <time>2021-10-13T08:49:32Z</time>
      </trkpt>
      <trkpt lat="47.25839" lon="6.03179">
        <ele>331.8</ele>
        <time>2021-10-13T08:49:33Z</time>
      </trkpt>
      <trkpt lat="47.25841" lon="6.03177">
        <ele>331.8</ele>
        <time>2021-10-13T08:49:34Z</time>
      </trkpt>
      <trkpt lat="47.25844" lon="6.03175">
        <ele>331.8</ele>
        <time>2021-10-13T08:49:35Z</time>
      </trkpt>
      <trkpt lat="47.25847" lon="6.03174">
        <ele>331.8</ele>
        <time>2021-10-13T08:49:36Z</time>
      </trkpt>
      <trkpt lat="47.25849" lon="6.03173">
        <ele>331.8</ele>
        <time>2021-10-13T08:49:37Z</time>
      </trkpt>
      <trkpt lat="47.25853" lon="6.03172">
        <ele>331.8</ele>
        <time>2021-10-13T08:49:38Z</time>
      </trkpt>
      <trkpt lat="47.25856" lon="6.03172">
        <ele>331.8</ele>
        <time>2021-10-13T08:49:39Z</time>
      </trkpt>
      <trkpt lat="47.25858" lon="6.03173">
        <ele>331.8</ele>
        <time>2021-10-13T08:49:40Z</time>
      </trkpt>
      <trkpt lat="47.25861" lon="6.03175">
        <ele>331.8</ele>
        <time>2021-10-13T08:49:41Z</time>
      </trkpt>
      <trkpt lat="47.25863" lon="6.03177">
        <ele>331.8</ele>
        <time>2021-10-13T08:49:42Z</time>
      </trkpt>
      <trkpt lat="47.25865" lon="6.0318">
        <ele>331.8</ele>
        <time>2021-10-13T08:49:43Z</time>
      </trkpt>
      <trkpt lat="47.25867" lon="6.03182">
        <ele>331.8</ele>
        <time>2021-10-13T08:49:44Z</time>
      </trkpt>
      <trkpt lat="47.2587" lon="6.03184">
        <ele>331.8</ele>
        <time>2021-10-13T08:49:45Z</time>
      </trkpt>
      <trkpt lat="47.25882" lon="6.03195">
        <ele>332.4</ele>
        <time>2021-10-13T08:49:50Z</time>
      </trkpt>
      <trkpt lat="47.25885" lon="6.03197">
        <ele>332.6</ele>
        <time>2021-10-13T08:49:51Z</time>
      </trkpt>
      <trkpt lat="47.25892" lon="6.03203">
        <ele>332.8</ele>
        <time>2021-10-13T08:49:54Z</time>
      </trkpt>
      <trkpt lat="47.25894" lon="6.03205">
        <ele>332.8</ele>
        <time>2021-10-13T08:49:55Z</time>
      </trkpt>
      <trkpt lat="47.25897" lon="6.03208">
        <ele>332.8</ele>
        <time>2021-10-13T08:49:56Z</time>
      </trkpt>
      <trkpt lat="47.25899" lon="6.03211">
        <ele>332.8</ele>
        <time>2021-10-13T08:49:57Z</time>
      </trkpt>
      <trkpt lat="47.25907" lon="6.03222">
        <ele>333.6</ele>
        <time>2021-10-13T08:50:01Z</time>
      </trkpt>
      <trkpt lat="47.25909" lon="6.03224">
        <ele>333.8</ele>
        <time>2021-10-13T08:50:02Z</time>
      </trkpt>
      <trkpt lat="47.25911" lon="6.03226">
        <ele>334</ele>
        <time>2021-10-13T08:50:03Z</time>
      </trkpt>
      <trkpt lat="47.25914" lon="6.03228">
        <ele>334.2</ele>
        <time>2021-10-13T08:50:04Z</time>
      </trkpt>
      <trkpt lat="47.25917" lon="6.03231">
        <ele>334.6</ele>
        <time>2021-10-13T08:50:06Z</time>
      </trkpt>
      <trkpt lat="47.25918" lon="6.03233">
        <ele>334.8</ele>
        <time>2021-10-13T08:50:07Z</time>
      </trkpt>
      <trkpt lat="47.25919" lon="6.03234">
        <ele>334.8</ele>
        <time>2021-10-13T08:50:08Z</time>
      </trkpt>
      <trkpt lat="47.2592" lon="6.03236">
        <ele>335</ele>
        <time>2021-10-13T08:50:09Z</time>
      </trkpt>
      <trkpt lat="47.25922" lon="6.03238">
        <ele>335</ele>
        <time>2021-10-13T08:50:10Z</time>
      </trkpt>
      <trkpt lat="47.25923" lon="6.0324">
        <ele>335</ele>
        <time>2021-10-13T08:50:11Z</time>
      </trkpt>
      <trkpt lat="47.25925" lon="6.03242">
        <ele>335.2</ele>
        <time>2021-10-13T08:50:12Z</time>
      </trkpt>
      <trkpt lat="47.25927" lon="6.03245">
        <ele>335.2</ele>
        <time>2021-10-13T08:50:13Z</time>
      </trkpt>
      <trkpt lat="47.25929" lon="6.03248">
        <ele>335.2</ele>
        <time>2021-10-13T08:50:14Z</time>
      </trkpt>
      <trkpt lat="47.25931" lon="6.03252">
        <ele>335.2</ele>
        <time>2021-10-13T08:50:15Z</time>
      </trkpt>
      <trkpt lat="47.25933" lon="6.03255">
        <ele>335.2</ele>
        <time>2021-10-13T08:50:16Z</time>
      </trkpt>
      <trkpt lat="47.25934" lon="6.03259">
        <ele>335.2</ele>
        <time>2021-10-13T08:50:17Z</time>
      </trkpt>
      <trkpt lat="47.25936" lon="6.03262">
        <ele>335.2</ele>
        <time>2021-10-13T08:50:18Z</time>
      </trkpt>
      <trkpt lat="47.25938" lon="6.03266">
        <ele>335.2</ele>
        <time>2021-10-13T08:50:19Z</time>
      </trkpt>
      <trkpt lat="47.2594" lon="6.03269">
        <ele>335.4</ele>
        <time>2021-10-13T08:50:20Z</time>
      </trkpt>
      <trkpt lat="47.25942" lon="6.03272">
        <ele>335.4</ele>
        <time>2021-10-13T08:50:21Z</time>
      </trkpt>
      <trkpt lat="47.25958" lon="6.033">
        <ele>336</ele>
        <time>2021-10-13T08:50:29Z</time>
      </trkpt>
      <trkpt lat="47.2597" lon="6.0332">
        <ele>337.2</ele>
        <time>2021-10-13T08:50:35Z</time>
      </trkpt>
      <trkpt lat="47.25979" lon="6.03337">
        <ele>337.8</ele>
        <time>2021-10-13T08:50:40Z</time>
      </trkpt>
      <trkpt lat="47.25981" lon="6.03341">
        <ele>338</ele>
        <time>2021-10-13T08:50:41Z</time>
      </trkpt>
      <trkpt lat="47.25983" lon="6.03344">
        <ele>338.2</ele>
        <time>2021-10-13T08:50:42Z</time>
      </trkpt>
      <trkpt lat="47.25984" lon="6.03348">
        <ele>338.2</ele>
        <time>2021-10-13T08:50:43Z</time>
      </trkpt>
      <trkpt lat="47.25986" lon="6.03351">
        <ele>338.4</ele>
        <time>2021-10-13T08:50:44Z</time>
      </trkpt>
      <trkpt lat="47.25988" lon="6.03355">
        <ele>338.4</ele>
        <time>2021-10-13T08:50:45Z</time>
      </trkpt>
      <trkpt lat="47.25989" lon="6.03358">
        <ele>338.4</ele>
        <time>2021-10-13T08:50:46Z</time>
      </trkpt>
      <trkpt lat="47.25991" lon="6.03362">
        <ele>338.6</ele>
        <time>2021-10-13T08:50:47Z</time>
      </trkpt>
      <trkpt lat="47.25993" lon="6.03365">
        <ele>338.8</ele>
        <time>2021-10-13T08:50:48Z</time>
      </trkpt>
      <trkpt lat="47.25995" lon="6.03369">
        <ele>338.8</ele>
        <time>2021-10-13T08:50:49Z</time>
      </trkpt>
      <trkpt lat="47.25997" lon="6.03372">
        <ele>339</ele>
        <time>2021-10-13T08:50:50Z</time>
      </trkpt>
      <trkpt lat="47.25999" lon="6.03375">
        <ele>339</ele>
        <time>2021-10-13T08:50:51Z</time>
      </trkpt>
      <trkpt lat="47.26" lon="6.03379">
        <ele>339.2</ele>
        <time>2021-10-13T08:50:52Z</time>
      </trkpt>
      <trkpt lat="47.26002" lon="6.03382">
        <ele>339.2</ele>
        <time>2021-10-13T08:50:53Z</time>
      </trkpt>
      <trkpt lat="47.26004" lon="6.03386">
        <ele>339.4</ele>
        <time>2021-10-13T08:50:54Z</time>
      </trkpt>
      <trkpt lat="47.26005" lon="6.03389">
        <ele>339.4</ele>
        <time>2021-10-13T08:50:55Z</time>
      </trkpt>
      <trkpt lat="47.26007" lon="6.03393">
        <ele>339.6</ele>
        <time>2021-10-13T08:50:56Z</time>
      </trkpt>
      <trkpt lat="47.26008" lon="6.03396">
        <ele>339.6</ele>
        <time>2021-10-13T08:50:57Z</time>
      </trkpt>
      <trkpt lat="47.2601" lon="6.034">
        <ele>339.8</ele>
        <time>2021-10-13T08:50:58Z</time>
      </trkpt>
      <trkpt lat="47.26012" lon="6.03403">
        <ele>339.8</ele>
        <time>2021-10-13T08:50:59Z</time>
      </trkpt>
      <trkpt lat="47.26014" lon="6.03406">
        <ele>340</ele>
        <time>2021-10-13T08:51:00Z</time>
      </trkpt>
      <trkpt lat="47.26016" lon="6.03409">
        <ele>340.2</ele>
        <time>2021-10-13T08:51:01Z</time>
      </trkpt>
      <trkpt lat="47.26017" lon="6.03413">
        <ele>340.2</ele>
        <time>2021-10-13T08:51:02Z</time>
      </trkpt>
      <trkpt lat="47.26019" lon="6.03416">
        <ele>340.4</ele>
        <time>2021-10-13T08:51:03Z</time>
      </trkpt>
      <trkpt lat="47.26021" lon="6.03419">
        <ele>340.8</ele>
        <time>2021-10-13T08:51:04Z</time>
      </trkpt>
      <trkpt lat="47.26023" lon="6.03423">
        <ele>340.8</ele>
        <time>2021-10-13T08:51:05Z</time>
      </trkpt>
      <trkpt lat="47.26025" lon="6.03426">
        <ele>341</ele>
        <time>2021-10-13T08:51:06Z</time>
      </trkpt>
      <trkpt lat="47.26027" lon="6.03428">
        <ele>341</ele>
        <time>2021-10-13T08:51:07Z</time>
      </trkpt>
      <trkpt lat="47.26029" lon="6.03431">
        <ele>341</ele>
        <time>2021-10-13T08:51:08Z</time>
      </trkpt>
      <trkpt lat="47.26031" lon="6.03434">
        <ele>341.2</ele>
        <time>2021-10-13T08:51:09Z</time>
      </trkpt>
      <trkpt lat="47.26033" lon="6.03437">
        <ele>341.2</ele>
        <time>2021-10-13T08:51:10Z</time>
      </trkpt>
      <trkpt lat="47.26035" lon="6.0344">
        <ele>341.4</ele>
        <time>2021-10-13T08:51:11Z</time>
      </trkpt>
      <trkpt lat="47.26037" lon="6.03442">
        <ele>341.6</ele>
        <time>2021-10-13T08:51:12Z</time>
      </trkpt>
      <trkpt lat="47.26039" lon="6.03445">
        <ele>341.8</ele>
        <time>2021-10-13T08:51:13Z</time>
      </trkpt>
      <trkpt lat="47.26041" lon="6.03447">
        <ele>341.8</ele>
        <time>2021-10-13T08:51:14Z</time>
      </trkpt>
      <trkpt lat="47.26043" lon="6.0345">
        <ele>341.8</ele>
        <time>2021-10-13T08:51:15Z</time>
      </trkpt>
      <trkpt lat="47.26045" lon="6.03453">
        <ele>342</ele>
        <time>2021-10-13T08:51:16Z</time>
      </trkpt>
      <trkpt lat="47.26047" lon="6.03456">
        <ele>342</ele>
        <time>2021-10-13T08:51:17Z</time>
      </trkpt>
      <trkpt lat="47.26049" lon="6.0346">
        <ele>342.2</ele>
        <time>2021-10-13T08:51:18Z</time>
      </trkpt>
      <trkpt lat="47.2605" lon="6.03463">
        <ele>342.2</ele>
        <time>2021-10-13T08:51:19Z</time>
      </trkpt>
      <trkpt lat="47.26052" lon="6.03467">
        <ele>342.4</ele>
        <time>2021-10-13T08:51:20Z</time>
      </trkpt>
      <trkpt lat="47.26053" lon="6.0347">
        <ele>342.4</ele>
        <time>2021-10-13T08:51:21Z</time>
      </trkpt>
      <trkpt lat="47.26055" lon="6.03474">
        <ele>342.4</ele>
        <time>2021-10-13T08:51:22Z</time>
      </trkpt>
      <trkpt lat="47.26056" lon="6.03478">
        <ele>342.4</ele>
        <time>2021-10-13T08:51:23Z</time>
      </trkpt>
      <trkpt lat="47.26057" lon="6.03482">
        <ele>342.6</ele>
        <time>2021-10-13T08:51:24Z</time>
      </trkpt>
      <trkpt lat="47.26058" lon="6.03486">
        <ele>342.6</ele>
        <time>2021-10-13T08:51:25Z</time>
      </trkpt>
      <trkpt lat="47.26059" lon="6.0349">
        <ele>342.6</ele>
        <time>2021-10-13T08:51:26Z</time>
      </trkpt>
      <trkpt lat="47.26061" lon="6.03494">
        <ele>342.8</ele>
        <time>2021-10-13T08:51:27Z</time>
      </trkpt>
      <trkpt lat="47.26067" lon="6.03512">
        <ele>343.2</ele>
        <time>2021-10-13T08:51:32Z</time>
      </trkpt>
      <trkpt lat="47.26069" lon="6.03516">
        <ele>343.2</ele>
        <time>2021-10-13T08:51:33Z</time>
      </trkpt>
      <trkpt lat="47.2607" lon="6.03519">
        <ele>343.2</ele>
        <time>2021-10-13T08:51:34Z</time>
      </trkpt>
      <trkpt lat="47.26071" lon="6.03523">
        <ele>343.4</ele>
        <time>2021-10-13T08:51:35Z</time>
      </trkpt>
      <trkpt lat="47.26075" lon="6.03534">
        <ele>343.6</ele>
        <time>2021-10-13T08:51:38Z</time>
      </trkpt>
      <trkpt lat="47.26076" lon="6.03537">
        <ele>343.6</ele>
        <time>2021-10-13T08:51:39Z</time>
      </trkpt>
      <trkpt lat="47.26077" lon="6.0354">
        <ele>343.6</ele>
        <time>2021-10-13T08:51:40Z</time>
      </trkpt>
      <trkpt lat="47.26078" lon="6.03543">
        <ele>343.6</ele>
        <time>2021-10-13T08:51:41Z</time>
      </trkpt>
      <trkpt lat="47.26078" lon="6.03546">
        <ele>343.6</ele>
        <time>2021-10-13T08:51:42Z</time>
      </trkpt>
      <trkpt lat="47.26077" lon="6.0355">
        <ele>343.6</ele>
        <time>2021-10-13T08:51:43Z</time>
      </trkpt>
      <trkpt lat="47.26076" lon="6.03553">
        <ele>343.6</ele>
        <time>2021-10-13T08:51:44Z</time>
      </trkpt>
      <trkpt lat="47.26075" lon="6.03556">
        <ele>343.6</ele>
        <time>2021-10-13T08:51:45Z</time>
      </trkpt>
      <trkpt lat="47.26073" lon="6.03559">
        <ele>343.6</ele>
        <time>2021-10-13T08:51:46Z</time>
      </trkpt>
      <trkpt lat="47.26071" lon="6.03563">
        <ele>343.6</ele>
        <time>2021-10-13T08:51:47Z</time>
      </trkpt>
      <trkpt lat="47.26071" lon="6.03583">
        <ele>343.4</ele>
        <time>2021-10-13T08:51:51Z</time>
      </trkpt>
      <trkpt lat="47.26073" lon="6.03592">
        <ele>342.8</ele>
        <time>2021-10-13T08:51:53Z</time>
      </trkpt>
      <trkpt lat="47.26074" lon="6.03597">
        <ele>342.8</ele>
        <time>2021-10-13T08:51:54Z</time>
      </trkpt>
      <trkpt lat="47.26082" lon="6.03623">
        <ele>342.2</ele>
        <time>2021-10-13T08:51:59Z</time>
      </trkpt>
      <trkpt lat="47.26086" lon="6.03649">
        <ele>342</ele>
        <time>2021-10-13T08:52:04Z</time>
      </trkpt>
      <trkpt lat="47.26091" lon="6.03671">
        <ele>341.8</ele>
        <time>2021-10-13T08:52:08Z</time>
      </trkpt>
      <trkpt lat="47.261" lon="6.037">
        <ele>341.8</ele>
        <time>2021-10-13T08:52:13Z</time>
      </trkpt>
      <trkpt lat="47.26104" lon="6.03722">
        <ele>342</ele>
        <time>2021-10-13T08:52:17Z</time>
      </trkpt>
      <trkpt lat="47.26106" lon="6.03738">
        <ele>342</ele>
        <time>2021-10-13T08:52:20Z</time>
      </trkpt>
      <trkpt lat="47.26106" lon="6.03744">
        <ele>341.8</ele>
        <time>2021-10-13T08:52:21Z</time>
      </trkpt>
      <trkpt lat="47.26109" lon="6.03754">
        <ele>341.8</ele>
        <time>2021-10-13T08:52:23Z</time>
      </trkpt>
      <trkpt lat="47.26111" lon="6.03759">
        <ele>341.8</ele>
        <time>2021-10-13T08:52:24Z</time>
      </trkpt>
      <trkpt lat="47.26112" lon="6.03763">
        <ele>341.8</ele>
        <time>2021-10-13T08:52:25Z</time>
      </trkpt>
      <trkpt lat="47.26114" lon="6.03768">
        <ele>341.8</ele>
        <time>2021-10-13T08:52:26Z</time>
      </trkpt>
      <trkpt lat="47.26115" lon="6.03773">
        <ele>341.8</ele>
        <time>2021-10-13T08:52:27Z</time>
      </trkpt>
      <trkpt lat="47.26116" lon="6.03777">
        <ele>341.8</ele>
        <time>2021-10-13T08:52:28Z</time>
      </trkpt>
      <trkpt lat="47.26117" lon="6.03782">
        <ele>341.8</ele>
        <time>2021-10-13T08:52:29Z</time>
      </trkpt>
      <trkpt lat="47.26118" lon="6.03786">
        <ele>341.8</ele>
        <time>2021-10-13T08:52:30Z</time>
      </trkpt>
      <trkpt lat="47.26119" lon="6.03791">
        <ele>341.6</ele>
        <time>2021-10-13T08:52:31Z</time>
      </trkpt>
      <trkpt lat="47.26121" lon="6.03796">
        <ele>341.6</ele>
        <time>2021-10-13T08:52:32Z</time>
      </trkpt>
      <trkpt lat="47.26136" lon="6.03824">
        <ele>341.4</ele>
        <time>2021-10-13T08:52:38Z</time>
      </trkpt>
      <trkpt lat="47.26147" lon="6.03857">
        <ele>341.8</ele>
        <time>2021-10-13T08:52:45Z</time>
      </trkpt>
      <trkpt lat="47.26148" lon="6.03862">
        <ele>341.8</ele>
        <time>2021-10-13T08:52:46Z</time>
      </trkpt>
      <trkpt lat="47.2615" lon="6.03866">
        <ele>342</ele>
        <time>2021-10-13T08:52:47Z</time>
      </trkpt>
      <trkpt lat="47.26151" lon="6.03871">
        <ele>342</ele>
        <time>2021-10-13T08:52:48Z</time>
      </trkpt>
      <trkpt lat="47.26153" lon="6.03875">
        <ele>342.2</ele>
        <time>2021-10-13T08:52:49Z</time>
      </trkpt>
      <trkpt lat="47.26154" lon="6.0388">
        <ele>342.2</ele>
        <time>2021-10-13T08:52:50Z</time>
      </trkpt>
      <trkpt lat="47.26156" lon="6.03884">
        <ele>342.2</ele>
        <time>2021-10-13T08:52:51Z</time>
      </trkpt>
      <trkpt lat="47.26169" lon="6.03916">
        <ele>342.8</ele>
        <time>2021-10-13T08:52:58Z</time>
      </trkpt>
      <trkpt lat="47.26182" lon="6.03946">
        <ele>343</ele>
        <time>2021-10-13T08:53:05Z</time>
      </trkpt>
      <trkpt lat="47.26186" lon="6.03955">
        <ele>343.2</ele>
        <time>2021-10-13T08:53:07Z</time>
      </trkpt>
      <trkpt lat="47.26192" lon="6.0398">
        <ele>343.4</ele>
        <time>2021-10-13T08:53:12Z</time>
      </trkpt>
      <trkpt lat="47.26198" lon="6.04014">
        <ele>343.6</ele>
        <time>2021-10-13T08:53:19Z</time>
      </trkpt>
      <trkpt lat="47.26199" lon="6.04018">
        <ele>343.6</ele>
        <time>2021-10-13T08:53:20Z</time>
      </trkpt>
      <trkpt lat="47.26199" lon="6.04022">
        <ele>343.6</ele>
        <time>2021-10-13T08:53:21Z</time>
      </trkpt>
      <trkpt lat="47.262" lon="6.04026">
        <ele>343.8</ele>
        <time>2021-10-13T08:53:22Z</time>
      </trkpt>
      <trkpt lat="47.262" lon="6.04029">
        <ele>343.8</ele>
        <time>2021-10-13T08:53:23Z</time>
      </trkpt>
      <trkpt lat="47.26201" lon="6.04032">
        <ele>343.8</ele>
        <time>2021-10-13T08:53:24Z</time>
      </trkpt>
      <trkpt lat="47.26201" lon="6.04035">
        <ele>343.8</ele>
        <time>2021-10-13T08:53:25Z</time>
      </trkpt>
      <trkpt lat="47.26202" lon="6.04038">
        <ele>343.8</ele>
        <time>2021-10-13T08:53:26Z</time>
      </trkpt>
      <trkpt lat="47.26206" lon="6.04044">
        <ele>343.6</ele>
        <time>2021-10-13T08:53:28Z</time>
      </trkpt>
      <trkpt lat="47.26209" lon="6.04046">
        <ele>343.6</ele>
        <time>2021-10-13T08:53:29Z</time>
      </trkpt>
      <trkpt lat="47.26212" lon="6.04046">
        <ele>343.6</ele>
        <time>2021-10-13T08:53:30Z</time>
      </trkpt>
      <trkpt lat="47.26219" lon="6.04044">
        <ele>343.6</ele>
        <time>2021-10-13T08:53:32Z</time>
      </trkpt>
      <trkpt lat="47.26225" lon="6.0404">
        <ele>343.6</ele>
        <time>2021-10-13T08:53:34Z</time>
      </trkpt>
      <trkpt lat="47.26227" lon="6.04037">
        <ele>343.6</ele>
        <time>2021-10-13T08:53:35Z</time>
      </trkpt>
      <trkpt lat="47.26229" lon="6.04035">
        <ele>343.8</ele>
        <time>2021-10-13T08:53:36Z</time>
      </trkpt>
      <trkpt lat="47.26239" lon="6.04026">
        <ele>344.4</ele>
        <time>2021-10-13T08:53:40Z</time>
      </trkpt>
      <trkpt lat="47.26245" lon="6.04021">
        <ele>344.6</ele>
        <time>2021-10-13T08:53:42Z</time>
      </trkpt>
      <trkpt lat="47.26255" lon="6.04014">
        <ele>345</ele>
        <time>2021-10-13T08:53:45Z</time>
      </trkpt>
      <trkpt lat="47.26266" lon="6.04002">
        <ele>345.6</ele>
        <time>2021-10-13T08:53:49Z</time>
      </trkpt>
      <trkpt lat="47.26269" lon="6.04">
        <ele>345.8</ele>
        <time>2021-10-13T08:53:50Z</time>
      </trkpt>
      <trkpt lat="47.26279" lon="6.0399">
        <ele>346.4</ele>
        <time>2021-10-13T08:53:54Z</time>
      </trkpt>
      <trkpt lat="47.26281" lon="6.03988">
        <ele>346.4</ele>
        <time>2021-10-13T08:53:55Z</time>
      </trkpt>
      <trkpt lat="47.26284" lon="6.03986">
        <ele>346.6</ele>
        <time>2021-10-13T08:53:56Z</time>
      </trkpt>
      <trkpt lat="47.26286" lon="6.03983">
        <ele>346.8</ele>
        <time>2021-10-13T08:53:57Z</time>
      </trkpt>
      <trkpt lat="47.26288" lon="6.03981">
        <ele>347</ele>
        <time>2021-10-13T08:53:58Z</time>
      </trkpt>
      <trkpt lat="47.26291" lon="6.03979">
        <ele>347.2</ele>
        <time>2021-10-13T08:53:59Z</time>
      </trkpt>
      <trkpt lat="47.26293" lon="6.03977">
        <ele>347.4</ele>
        <time>2021-10-13T08:54:00Z</time>
      </trkpt>
      <trkpt lat="47.26296" lon="6.03976">
        <ele>347.6</ele>
        <time>2021-10-13T08:54:01Z</time>
      </trkpt>
      <trkpt lat="47.26298" lon="6.03974">
        <ele>348</ele>
        <time>2021-10-13T08:54:02Z</time>
      </trkpt>
      <trkpt lat="47.263" lon="6.03972">
        <ele>348</ele>
        <time>2021-10-13T08:54:03Z</time>
      </trkpt>
      <trkpt lat="47.26303" lon="6.03971">
        <ele>348.4</ele>
        <time>2021-10-13T08:54:04Z</time>
      </trkpt>
      <trkpt lat="47.26305" lon="6.03969">
        <ele>348.6</ele>
        <time>2021-10-13T08:54:05Z</time>
      </trkpt>
      <trkpt lat="47.26307" lon="6.03967">
        <ele>348.8</ele>
        <time>2021-10-13T08:54:06Z</time>
      </trkpt>
      <trkpt lat="47.26309" lon="6.03965">
        <ele>349.2</ele>
        <time>2021-10-13T08:54:07Z</time>
      </trkpt>
      <trkpt lat="47.26311" lon="6.03963">
        <ele>349.2</ele>
        <time>2021-10-13T08:54:08Z</time>
      </trkpt>
      <trkpt lat="47.26313" lon="6.03961">
        <ele>349.6</ele>
        <time>2021-10-13T08:54:09Z</time>
      </trkpt>
      <trkpt lat="47.26315" lon="6.0396">
        <ele>349.8</ele>
        <time>2021-10-13T08:54:10Z</time>
      </trkpt>
      <trkpt lat="47.26317" lon="6.03958">
        <ele>350.2</ele>
        <time>2021-10-13T08:54:11Z</time>
      </trkpt>
      <trkpt lat="47.2632" lon="6.03956">
        <ele>350.4</ele>
        <time>2021-10-13T08:54:12Z</time>
      </trkpt>
      <trkpt lat="47.26322" lon="6.03955">
        <ele>350.6</ele>
        <time>2021-10-13T08:54:13Z</time>
      </trkpt>
      <trkpt lat="47.26324" lon="6.03953">
        <ele>350.8</ele>
        <time>2021-10-13T08:54:14Z</time>
      </trkpt>
      <trkpt lat="47.26326" lon="6.03952">
        <ele>351.2</ele>
        <time>2021-10-13T08:54:15Z</time>
      </trkpt>
      <trkpt lat="47.26328" lon="6.0395">
        <ele>351.4</ele>
        <time>2021-10-13T08:54:16Z</time>
      </trkpt>
      <trkpt lat="47.2633" lon="6.03948">
        <ele>351.6</ele>
        <time>2021-10-13T08:54:17Z</time>
      </trkpt>
      <trkpt lat="47.26332" lon="6.03947">
        <ele>351.8</ele>
        <time>2021-10-13T08:54:18Z</time>
      </trkpt>
      <trkpt lat="47.26334" lon="6.03945">
        <ele>351.8</ele>
        <time>2021-10-13T08:54:19Z</time>
      </trkpt>
      <trkpt lat="47.26336" lon="6.03944">
        <ele>352</ele>
        <time>2021-10-13T08:54:20Z</time>
      </trkpt>
      <trkpt lat="47.26338" lon="6.03942">
        <ele>352.2</ele>
        <time>2021-10-13T08:54:21Z</time>
      </trkpt>
      <trkpt lat="47.26339" lon="6.0394">
        <ele>352.4</ele>
        <time>2021-10-13T08:54:22Z</time>
      </trkpt>
      <trkpt lat="47.26341" lon="6.03939">
        <ele>352.6</ele>
        <time>2021-10-13T08:54:23Z</time>
      </trkpt>
      <trkpt lat="47.26343" lon="6.03937">
        <ele>352.6</ele>
        <time>2021-10-13T08:54:24Z</time>
      </trkpt>
      <trkpt lat="47.26345" lon="6.03935">
        <ele>352.8</ele>
        <time>2021-10-13T08:54:25Z</time>
      </trkpt>
      <trkpt lat="47.26347" lon="6.03934">
        <ele>353</ele>
        <time>2021-10-13T08:54:26Z</time>
      </trkpt>
      <trkpt lat="47.26348" lon="6.03933">
        <ele>353.2</ele>
        <time>2021-10-13T08:54:27Z</time>
      </trkpt>
      <trkpt lat="47.2635" lon="6.03932">
        <ele>353.4</ele>
        <time>2021-10-13T08:54:28Z</time>
      </trkpt>
      <trkpt lat="47.26352" lon="6.03932">
        <ele>353.6</ele>
        <time>2021-10-13T08:54:29Z</time>
      </trkpt>
      <trkpt lat="47.26354" lon="6.03932">
        <ele>353.8</ele>
        <time>2021-10-13T08:54:30Z</time>
      </trkpt>
      <trkpt lat="47.26356" lon="6.03933">
        <ele>354</ele>
        <time>2021-10-13T08:54:31Z</time>
      </trkpt>
      <trkpt lat="47.26357" lon="6.03934">
        <ele>354</ele>
        <time>2021-10-13T08:54:32Z</time>
      </trkpt>
      <trkpt lat="47.2636" lon="6.03935">
        <ele>354.2</ele>
        <time>2021-10-13T08:54:33Z</time>
      </trkpt>
      <trkpt lat="47.26362" lon="6.03936">
        <ele>354.2</ele>
        <time>2021-10-13T08:54:34Z</time>
      </trkpt>
      <trkpt lat="47.26364" lon="6.03937">
        <ele>354.4</ele>
        <time>2021-10-13T08:54:35Z</time>
      </trkpt>
      <trkpt lat="47.26367" lon="6.03937">
        <ele>354.6</ele>
        <time>2021-10-13T08:54:36Z</time>
      </trkpt>
      <trkpt lat="47.26369" lon="6.03937">
        <ele>354.8</ele>
        <time>2021-10-13T08:54:37Z</time>
      </trkpt>
      <trkpt lat="47.26371" lon="6.03936">
        <ele>354.8</ele>
        <time>2021-10-13T08:54:38Z</time>
      </trkpt>
      <trkpt lat="47.26374" lon="6.03935">
        <ele>354.8</ele>
        <time>2021-10-13T08:54:39Z</time>
      </trkpt>
      <trkpt lat="47.26376" lon="6.03933">
        <ele>355</ele>
        <time>2021-10-13T08:54:40Z</time>
      </trkpt>
      <trkpt lat="47.26378" lon="6.03932">
        <ele>355</ele>
        <time>2021-10-13T08:54:41Z</time>
      </trkpt>
      <trkpt lat="47.2638" lon="6.03932">
        <ele>355</ele>
        <time>2021-10-13T08:54:42Z</time>
      </trkpt>
      <trkpt lat="47.26382" lon="6.03932">
        <ele>355</ele>
        <time>2021-10-13T08:54:43Z</time>
      </trkpt>
      <trkpt lat="47.26384" lon="6.03934">
        <ele>355.2</ele>
        <time>2021-10-13T08:54:44Z</time>
      </trkpt>
      <trkpt lat="47.26385" lon="6.03936">
        <ele>355.2</ele>
        <time>2021-10-13T08:54:45Z</time>
      </trkpt>
      <trkpt lat="47.26386" lon="6.03939">
        <ele>355.2</ele>
        <time>2021-10-13T08:54:46Z</time>
      </trkpt>
      <trkpt lat="47.26388" lon="6.03942">
        <ele>355.2</ele>
        <time>2021-10-13T08:54:47Z</time>
      </trkpt>
      <trkpt lat="47.26389" lon="6.03945">
        <ele>355.2</ele>
        <time>2021-10-13T08:54:48Z</time>
      </trkpt>
      <trkpt lat="47.2639" lon="6.03948">
        <ele>355.2</ele>
        <time>2021-10-13T08:54:49Z</time>
      </trkpt>
      <trkpt lat="47.26391" lon="6.03951">
        <ele>355.2</ele>
        <time>2021-10-13T08:54:50Z</time>
      </trkpt>
      <trkpt lat="47.26393" lon="6.03955">
        <ele>355.2</ele>
        <time>2021-10-13T08:54:51Z</time>
      </trkpt>
      <trkpt lat="47.26394" lon="6.03958">
        <ele>355.4</ele>
        <time>2021-10-13T08:54:52Z</time>
      </trkpt>
      <trkpt lat="47.26395" lon="6.03962">
        <ele>355.6</ele>
        <time>2021-10-13T08:54:53Z</time>
      </trkpt>
      <trkpt lat="47.26396" lon="6.03965">
        <ele>355.6</ele>
        <time>2021-10-13T08:54:54Z</time>
      </trkpt>
      <trkpt lat="47.26401" lon="6.03981">
        <ele>355.6</ele>
        <time>2021-10-13T08:54:58Z</time>
      </trkpt>
      <trkpt lat="47.26414" lon="6.04012">
        <ele>355.4</ele>
        <time>2021-10-13T08:55:06Z</time>
      </trkpt>
      <trkpt lat="47.26425" lon="6.0404">
        <ele>355.4</ele>
        <time>2021-10-13T08:55:13Z</time>
      </trkpt>
      <trkpt lat="47.26427" lon="6.04049">
        <ele>355.6</ele>
        <time>2021-10-13T08:55:15Z</time>
      </trkpt>
      <trkpt lat="47.26433" lon="6.04073">
        <ele>355.6</ele>
        <time>2021-10-13T08:55:21Z</time>
      </trkpt>
      <trkpt lat="47.26434" lon="6.04076">
        <ele>355.6</ele>
        <time>2021-10-13T08:55:22Z</time>
      </trkpt>
      <trkpt lat="47.26436" lon="6.0408">
        <ele>355.6</ele>
        <time>2021-10-13T08:55:23Z</time>
      </trkpt>
      <trkpt lat="47.26438" lon="6.04083">
        <ele>355.6</ele>
        <time>2021-10-13T08:55:24Z</time>
      </trkpt>
      <trkpt lat="47.2644" lon="6.04086">
        <ele>355.6</ele>
        <time>2021-10-13T08:55:25Z</time>
      </trkpt>
      <trkpt lat="47.26442" lon="6.0409">
        <ele>355.6</ele>
        <time>2021-10-13T08:55:26Z</time>
      </trkpt>
      <trkpt lat="47.26451" lon="6.04105">
        <ele>355.6</ele>
        <time>2021-10-13T08:55:30Z</time>
      </trkpt>
      <trkpt lat="47.26468" lon="6.04134">
        <ele>355.6</ele>
        <time>2021-10-13T08:55:38Z</time>
      </trkpt>
      <trkpt lat="47.26474" lon="6.04145">
        <ele>355.6</ele>
        <time>2021-10-13T08:55:41Z</time>
      </trkpt>
      <trkpt lat="47.26493" lon="6.04176">
        <ele>355.6</ele>
        <time>2021-10-13T08:55:49Z</time>
      </trkpt>
      <trkpt lat="47.26518" lon="6.04216">
        <ele>355.6</ele>
        <time>2021-10-13T08:55:59Z</time>
      </trkpt>
      <trkpt lat="47.26526" lon="6.04222">
        <ele>355.6</ele>
        <time>2021-10-13T08:56:02Z</time>
      </trkpt>
      <trkpt lat="47.26528" lon="6.04223">
        <ele>355.6</ele>
        <time>2021-10-13T08:56:03Z</time>
      </trkpt>
      <trkpt lat="47.26531" lon="6.04224">
        <ele>355.6</ele>
        <time>2021-10-13T08:56:04Z</time>
      </trkpt>
      <trkpt lat="47.26532" lon="6.04225">
        <ele>355.6</ele>
        <time>2021-10-13T08:56:05Z</time>
      </trkpt>
      <trkpt lat="47.26534" lon="6.04227">
        <ele>355.6</ele>
        <time>2021-10-13T08:56:06Z</time>
      </trkpt>
      <trkpt lat="47.26536" lon="6.0423">
        <ele>355.6</ele>
        <time>2021-10-13T08:56:07Z</time>
      </trkpt>
      <trkpt lat="47.26538" lon="6.04232">
        <ele>355.6</ele>
        <time>2021-10-13T08:56:08Z</time>
      </trkpt>
      <trkpt lat="47.2654" lon="6.04236">
        <ele>355.8</ele>
        <time>2021-10-13T08:56:09Z</time>
      </trkpt>
      <trkpt lat="47.26549" lon="6.0425">
        <ele>356</ele>
        <time>2021-10-13T08:56:13Z</time>
      </trkpt>
      <trkpt lat="47.26551" lon="6.04254">
        <ele>356</ele>
        <time>2021-10-13T08:56:14Z</time>
      </trkpt>
      <trkpt lat="47.26569" lon="6.04282">
        <ele>356</ele>
        <time>2021-10-13T08:56:21Z</time>
      </trkpt>
      <trkpt lat="47.26594" lon="6.04321">
        <ele>355.6</ele>
        <time>2021-10-13T08:56:30Z</time>
      </trkpt>
      <trkpt lat="47.26606" lon="6.04337">
        <ele>355.4</ele>
        <time>2021-10-13T08:56:34Z</time>
      </trkpt>
      <trkpt lat="47.26609" lon="6.04341">
        <ele>355.4</ele>
        <time>2021-10-13T08:56:35Z</time>
      </trkpt>
      <trkpt lat="47.26616" lon="6.04353">
        <ele>355.2</ele>
        <time>2021-10-13T08:56:38Z</time>
      </trkpt>
      <trkpt lat="47.26619" lon="6.04356">
        <ele>355.2</ele>
        <time>2021-10-13T08:56:39Z</time>
      </trkpt>
      <trkpt lat="47.26622" lon="6.0436">
        <ele>355</ele>
        <time>2021-10-13T08:56:40Z</time>
      </trkpt>
      <trkpt lat="47.26624" lon="6.04363">
        <ele>355</ele>
        <time>2021-10-13T08:56:41Z</time>
      </trkpt>
      <trkpt lat="47.26626" lon="6.04367">
        <ele>355</ele>
        <time>2021-10-13T08:56:42Z</time>
      </trkpt>
      <trkpt lat="47.26629" lon="6.0437">
        <ele>354.8</ele>
        <time>2021-10-13T08:56:43Z</time>
      </trkpt>
      <trkpt lat="47.26631" lon="6.04375">
        <ele>354.8</ele>
        <time>2021-10-13T08:56:44Z</time>
      </trkpt>
      <trkpt lat="47.26634" lon="6.0438">
        <ele>354.6</ele>
        <time>2021-10-13T08:56:45Z</time>
      </trkpt>
      <trkpt lat="47.26635" lon="6.04383">
        <ele>354.6</ele>
        <time>2021-10-13T08:56:46Z</time>
      </trkpt>
      <trkpt lat="47.26638" lon="6.04387">
        <ele>354.4</ele>
        <time>2021-10-13T08:56:47Z</time>
      </trkpt>
      <trkpt lat="47.2664" lon="6.04393">
        <ele>354.4</ele>
        <time>2021-10-13T08:56:48Z</time>
      </trkpt>
      <trkpt lat="47.26656" lon="6.04429">
        <ele>354.2</ele>
        <time>2021-10-13T08:56:55Z</time>
      </trkpt>
      <trkpt lat="47.26675" lon="6.04471">
        <ele>353.8</ele>
        <time>2021-10-13T08:57:03Z</time>
      </trkpt>
      <trkpt lat="47.26677" lon="6.04476">
        <ele>353.6</ele>
        <time>2021-10-13T08:57:04Z</time>
      </trkpt>
      <trkpt lat="47.26679" lon="6.0448">
        <ele>353.6</ele>
        <time>2021-10-13T08:57:05Z</time>
      </trkpt>
      <trkpt lat="47.26681" lon="6.04485">
        <ele>353.6</ele>
        <time>2021-10-13T08:57:06Z</time>
      </trkpt>
      <trkpt lat="47.26683" lon="6.04489">
        <ele>353.4</ele>
        <time>2021-10-13T08:57:07Z</time>
      </trkpt>
      <trkpt lat="47.26685" lon="6.04493">
        <ele>353.4</ele>
        <time>2021-10-13T08:57:08Z</time>
      </trkpt>
      <trkpt lat="47.26687" lon="6.04498">
        <ele>353.4</ele>
        <time>2021-10-13T08:57:09Z</time>
      </trkpt>
      <trkpt lat="47.26689" lon="6.04503">
        <ele>353.4</ele>
        <time>2021-10-13T08:57:10Z</time>
      </trkpt>
      <trkpt lat="47.26691" lon="6.04508">
        <ele>353.2</ele>
        <time>2021-10-13T08:57:11Z</time>
      </trkpt>
      <trkpt lat="47.26711" lon="6.04532">
        <ele>353</ele>
        <time>2021-10-13T08:57:17Z</time>
      </trkpt>
      <trkpt lat="47.26732" lon="6.04549">
        <ele>352.4</ele>
        <time>2021-10-13T08:57:23Z</time>
      </trkpt>
      <trkpt lat="47.2674" lon="6.0456">
        <ele>352</ele>
        <time>2021-10-13T08:57:26Z</time>
      </trkpt>
      <trkpt lat="47.26742" lon="6.04564">
        <ele>352</ele>
        <time>2021-10-13T08:57:27Z</time>
      </trkpt>
      <trkpt lat="47.26744" lon="6.04568">
        <ele>351.8</ele>
        <time>2021-10-13T08:57:28Z</time>
      </trkpt>
      <trkpt lat="47.26746" lon="6.04572">
        <ele>351.8</ele>
        <time>2021-10-13T08:57:29Z</time>
      </trkpt>
      <trkpt lat="47.26748" lon="6.04577">
        <ele>351.8</ele>
        <time>2021-10-13T08:57:30Z</time>
      </trkpt>
      <trkpt lat="47.2675" lon="6.04581">
        <ele>351.8</ele>
        <time>2021-10-13T08:57:31Z</time>
      </trkpt>
      <trkpt lat="47.26752" lon="6.04585">
        <ele>351.8</ele>
        <time>2021-10-13T08:57:32Z</time>
      </trkpt>
      <trkpt lat="47.26754" lon="6.04589">
        <ele>351.8</ele>
        <time>2021-10-13T08:57:33Z</time>
      </trkpt>
      <trkpt lat="47.26756" lon="6.04594">
        <ele>352</ele>
        <time>2021-10-13T08:57:34Z</time>
      </trkpt>
      <trkpt lat="47.26758" lon="6.04598">
        <ele>352</ele>
        <time>2021-10-13T08:57:35Z</time>
      </trkpt>
      <trkpt lat="47.26759" lon="6.04603">
        <ele>352</ele>
        <time>2021-10-13T08:57:36Z</time>
      </trkpt>
      <trkpt lat="47.26759" lon="6.04608">
        <ele>352</ele>
        <time>2021-10-13T08:57:37Z</time>
      </trkpt>
      <trkpt lat="47.26759" lon="6.04613">
        <ele>352.2</ele>
        <time>2021-10-13T08:57:38Z</time>
      </trkpt>
      <trkpt lat="47.26758" lon="6.04617">
        <ele>352.2</ele>
        <time>2021-10-13T08:57:39Z</time>
      </trkpt>
      <trkpt lat="47.26757" lon="6.04622">
        <ele>352.4</ele>
        <time>2021-10-13T08:57:40Z</time>
      </trkpt>
      <trkpt lat="47.26755" lon="6.04625">
        <ele>352.6</ele>
        <time>2021-10-13T08:57:41Z</time>
      </trkpt>
      <trkpt lat="47.26749" lon="6.04631">
        <ele>352.8</ele>
        <time>2021-10-13T08:57:43Z</time>
      </trkpt>
      <trkpt lat="47.26746" lon="6.04633">
        <ele>353</ele>
        <time>2021-10-13T08:57:44Z</time>
      </trkpt>
      <trkpt lat="47.26742" lon="6.04636">
        <ele>353</ele>
        <time>2021-10-13T08:57:45Z</time>
      </trkpt>
      <trkpt lat="47.26717" lon="6.04656">
        <ele>353.2</ele>
        <time>2021-10-13T08:57:53Z</time>
      </trkpt>
      <trkpt lat="47.26702" lon="6.04667">
        <ele>353.4</ele>
        <time>2021-10-13T08:57:58Z</time>
      </trkpt>
      <trkpt lat="47.26699" lon="6.0467">
        <ele>353.4</ele>
        <time>2021-10-13T08:57:59Z</time>
      </trkpt>
      <trkpt lat="47.26695" lon="6.04673">
        <ele>353.4</ele>
        <time>2021-10-13T08:58:00Z</time>
      </trkpt>
      <trkpt lat="47.26692" lon="6.04676">
        <ele>353.4</ele>
        <time>2021-10-13T08:58:01Z</time>
      </trkpt>
      <trkpt lat="47.26688" lon="6.04682">
        <ele>353.4</ele>
        <time>2021-10-13T08:58:03Z</time>
      </trkpt>
      <trkpt lat="47.26687" lon="6.04685">
        <ele>353.4</ele>
        <time>2021-10-13T08:58:04Z</time>
      </trkpt>
      <trkpt lat="47.26688" lon="6.04689">
        <ele>353.4</ele>
        <time>2021-10-13T08:58:05Z</time>
      </trkpt>
      <trkpt lat="47.26689" lon="6.04693">
        <ele>353.4</ele>
        <time>2021-10-13T08:58:06Z</time>
      </trkpt>
      <trkpt lat="47.26691" lon="6.04696">
        <ele>353.2</ele>
        <time>2021-10-13T08:58:07Z</time>
      </trkpt>
      <trkpt lat="47.26693" lon="6.04699">
        <ele>353.2</ele>
        <time>2021-10-13T08:58:08Z</time>
      </trkpt>
      <trkpt lat="47.26696" lon="6.04701">
        <ele>353</ele>
        <time>2021-10-13T08:58:09Z</time>
      </trkpt>
      <trkpt lat="47.26698" lon="6.04704">
        <ele>353</ele>
        <time>2021-10-13T08:58:10Z</time>
      </trkpt>
      <trkpt lat="47.26715" lon="6.04718">
        <ele>352.8</ele>
        <time>2021-10-13T08:58:15Z</time>
      </trkpt>
      <trkpt lat="47.26741" lon="6.04739">
        <ele>352.8</ele>
        <time>2021-10-13T08:58:22Z</time>
      </trkpt>
      <trkpt lat="47.26757" lon="6.04753">
        <ele>352.8</ele>
        <time>2021-10-13T08:58:26Z</time>
      </trkpt>
      <trkpt lat="47.26767" lon="6.04768">
        <ele>352.6</ele>
        <time>2021-10-13T08:58:29Z</time>
      </trkpt>
      <trkpt lat="47.26789" lon="6.04803">
        <ele>351.2</ele>
        <time>2021-10-13T08:58:36Z</time>
      </trkpt>
      <trkpt lat="47.26791" lon="6.04808">
        <ele>351.2</ele>
        <time>2021-10-13T08:58:37Z</time>
      </trkpt>
      <trkpt lat="47.26793" lon="6.04811">
        <ele>351</ele>
        <time>2021-10-13T08:58:38Z</time>
      </trkpt>
      <trkpt lat="47.26795" lon="6.04815">
        <ele>350.8</ele>
        <time>2021-10-13T08:58:39Z</time>
      </trkpt>
      <trkpt lat="47.26796" lon="6.04818">
        <ele>350.8</ele>
        <time>2021-10-13T08:58:40Z</time>
      </trkpt>
      <trkpt lat="47.26797" lon="6.0482">
        <ele>350.8</ele>
        <time>2021-10-13T08:58:41Z</time>
      </trkpt>
      <trkpt lat="47.26799" lon="6.04822">
        <ele>350.8</ele>
        <time>2021-10-13T08:58:42Z</time>
      </trkpt>
      <trkpt lat="47.268" lon="6.04823">
        <ele>350.8</ele>
        <time>2021-10-13T08:58:43Z</time>
      </trkpt>
      <trkpt lat="47.26802" lon="6.04825">
        <ele>351</ele>
        <time>2021-10-13T08:58:44Z</time>
      </trkpt>
      <trkpt lat="47.26804" lon="6.04826">
        <ele>351</ele>
        <time>2021-10-13T08:58:45Z</time>
      </trkpt>
      <trkpt lat="47.26807" lon="6.04825">
        <ele>351.2</ele>
        <time>2021-10-13T08:58:46Z</time>
      </trkpt>
      <trkpt lat="47.2681" lon="6.04824">
        <ele>351.2</ele>
        <time>2021-10-13T08:58:47Z</time>
      </trkpt>
      <trkpt lat="47.2682" lon="6.04815">
        <ele>351.2</ele>
        <time>2021-10-13T08:58:50Z</time>
      </trkpt>
      <trkpt lat="47.26824" lon="6.0481">
        <ele>351.2</ele>
        <time>2021-10-13T08:58:51Z</time>
      </trkpt>
      <trkpt lat="47.2684" lon="6.04789">
        <ele>351</ele>
        <time>2021-10-13T08:58:55Z</time>
      </trkpt>
      <trkpt lat="47.26852" lon="6.04772">
        <ele>350.4</ele>
        <time>2021-10-13T08:58:58Z</time>
      </trkpt>
      <trkpt lat="47.26862" lon="6.0476">
        <ele>350.2</ele>
        <time>2021-10-13T08:59:00Z</time>
      </trkpt>
      <trkpt lat="47.26867" lon="6.04755">
        <ele>350</ele>
        <time>2021-10-13T08:59:01Z</time>
      </trkpt>
      <trkpt lat="47.26872" lon="6.04751">
        <ele>349.8</ele>
        <time>2021-10-13T08:59:02Z</time>
      </trkpt>
      <trkpt lat="47.26888" lon="6.0474">
        <ele>349.4</ele>
        <time>2021-10-13T08:59:05Z</time>
      </trkpt>
      <trkpt lat="47.26902" lon="6.0473">
        <ele>349</ele>
        <time>2021-10-13T08:59:08Z</time>
      </trkpt>
      <trkpt lat="47.26907" lon="6.04728">
        <ele>349</ele>
        <time>2021-10-13T08:59:09Z</time>
      </trkpt>
      <trkpt lat="47.26911" lon="6.04725">
        <ele>349</ele>
        <time>2021-10-13T08:59:10Z</time>
      </trkpt>
      <trkpt lat="47.26914" lon="6.04723">
        <ele>349</ele>
        <time>2021-10-13T08:59:11Z</time>
      </trkpt>
      <trkpt lat="47.26919" lon="6.0472">
        <ele>349</ele>
        <time>2021-10-13T08:59:12Z</time>
      </trkpt>
      <trkpt lat="47.26923" lon="6.04718">
        <ele>348.8</ele>
        <time>2021-10-13T08:59:13Z</time>
      </trkpt>
      <trkpt lat="47.26926" lon="6.04715">
        <ele>348.8</ele>
        <time>2021-10-13T08:59:14Z</time>
      </trkpt>
      <trkpt lat="47.26934" lon="6.04711">
        <ele>348.8</ele>
        <time>2021-10-13T08:59:16Z</time>
      </trkpt>
      <trkpt lat="47.26938" lon="6.04709">
        <ele>348.8</ele>
        <time>2021-10-13T08:59:17Z</time>
      </trkpt>
      <trkpt lat="47.26942" lon="6.04708">
        <ele>348.8</ele>
        <time>2021-10-13T08:59:18Z</time>
      </trkpt>
      <trkpt lat="47.26945" lon="6.04706">
        <ele>348.6</ele>
        <time>2021-10-13T08:59:19Z</time>
      </trkpt>
      <trkpt lat="47.26948" lon="6.04705">
        <ele>348.6</ele>
        <time>2021-10-13T08:59:20Z</time>
      </trkpt>
      <trkpt lat="47.26953" lon="6.04703">
        <ele>348.6</ele>
        <time>2021-10-13T08:59:21Z</time>
      </trkpt>
      <trkpt lat="47.26957" lon="6.04701">
        <ele>348.4</ele>
        <time>2021-10-13T08:59:22Z</time>
      </trkpt>
      <trkpt lat="47.26961" lon="6.04699">
        <ele>348.4</ele>
        <time>2021-10-13T08:59:23Z</time>
      </trkpt>
      <trkpt lat="47.26974" lon="6.04694">
        <ele>347.8</ele>
        <time>2021-10-13T08:59:26Z</time>
      </trkpt>
      <trkpt lat="47.26989" lon="6.04688">
        <ele>347.6</ele>
        <time>2021-10-13T08:59:29Z</time>
      </trkpt>
      <trkpt lat="47.27" lon="6.04684">
        <ele>347.2</ele>
        <time>2021-10-13T08:59:31Z</time>
      </trkpt>
      <trkpt lat="47.27009" lon="6.04677">
        <ele>346.2</ele>
        <time>2021-10-13T08:59:33Z</time>
      </trkpt>
      <trkpt lat="47.27013" lon="6.04674">
        <ele>346</ele>
        <time>2021-10-13T08:59:34Z</time>
      </trkpt>
      <trkpt lat="47.27017" lon="6.04671">
        <ele>345.6</ele>
        <time>2021-10-13T08:59:35Z</time>
      </trkpt>
      <trkpt lat="47.27023" lon="6.04669">
        <ele>345.2</ele>
        <time>2021-10-13T08:59:36Z</time>
      </trkpt>
      <trkpt lat="47.27027" lon="6.04669">
        <ele>344.6</ele>
        <time>2021-10-13T08:59:37Z</time>
      </trkpt>
      <trkpt lat="47.27032" lon="6.04668">
        <ele>344.4</ele>
        <time>2021-10-13T08:59:38Z</time>
      </trkpt>
      <trkpt lat="47.27037" lon="6.04667">
        <ele>344</ele>
        <time>2021-10-13T08:59:39Z</time>
      </trkpt>
      <trkpt lat="47.27042" lon="6.04664">
        <ele>343.8</ele>
        <time>2021-10-13T08:59:40Z</time>
      </trkpt>
      <trkpt lat="47.27048" lon="6.0466">
        <ele>343.2</ele>
        <time>2021-10-13T08:59:41Z</time>
      </trkpt>
      <trkpt lat="47.27053" lon="6.04655">
        <ele>342.8</ele>
        <time>2021-10-13T08:59:42Z</time>
      </trkpt>
      <trkpt lat="47.27064" lon="6.04644">
        <ele>341.2</ele>
        <time>2021-10-13T08:59:44Z</time>
      </trkpt>
      <trkpt lat="47.27069" lon="6.04638">
        <ele>340.8</ele>
        <time>2021-10-13T08:59:45Z</time>
      </trkpt>
      <trkpt lat="47.27074" lon="6.04632">
        <ele>340.4</ele>
        <time>2021-10-13T08:59:46Z</time>
      </trkpt>
      <trkpt lat="47.2708" lon="6.04626">
        <ele>340</ele>
        <time>2021-10-13T08:59:47Z</time>
      </trkpt>
      <trkpt lat="47.27086" lon="6.04621">
        <ele>339.2</ele>
        <time>2021-10-13T08:59:48Z</time>
      </trkpt>
      <trkpt lat="47.27099" lon="6.04612">
        <ele>338.4</ele>
        <time>2021-10-13T08:59:50Z</time>
      </trkpt>
      <trkpt lat="47.27107" lon="6.04608">
        <ele>338</ele>
        <time>2021-10-13T08:59:51Z</time>
      </trkpt>
      <trkpt lat="47.2712" lon="6.046">
        <ele>336.8</ele>
        <time>2021-10-13T08:59:53Z</time>
      </trkpt>
      <trkpt lat="47.27126" lon="6.04596">
        <ele>336</ele>
        <time>2021-10-13T08:59:54Z</time>
      </trkpt>
      <trkpt lat="47.27132" lon="6.04591">
        <ele>335.6</ele>
        <time>2021-10-13T08:59:55Z</time>
      </trkpt>
      <trkpt lat="47.27136" lon="6.04585">
        <ele>335.2</ele>
        <time>2021-10-13T08:59:56Z</time>
      </trkpt>
      <trkpt lat="47.2714" lon="6.0458">
        <ele>334.8</ele>
        <time>2021-10-13T08:59:57Z</time>
      </trkpt>
      <trkpt lat="47.27143" lon="6.04576">
        <ele>334.8</ele>
        <time>2021-10-13T08:59:58Z</time>
      </trkpt>
      <trkpt lat="47.27146" lon="6.04572">
        <ele>334.8</ele>
        <time>2021-10-13T08:59:59Z</time>
      </trkpt>
      <trkpt lat="47.27148" lon="6.0457">
        <ele>334.8</ele>
        <time>2021-10-13T09:00:00Z</time>
      </trkpt>
      <trkpt lat="47.2715" lon="6.04568">
        <ele>334.8</ele>
        <time>2021-10-13T09:00:01Z</time>
      </trkpt>
      <trkpt lat="47.27151" lon="6.04565">
        <ele>334.8</ele>
        <time>2021-10-13T09:00:02Z</time>
      </trkpt>
      <trkpt lat="47.27153" lon="6.04563">
        <ele>335.2</ele>
        <time>2021-10-13T09:00:03Z</time>
      </trkpt>
      <trkpt lat="47.27154" lon="6.0456">
        <ele>335.4</ele>
        <time>2021-10-13T09:00:04Z</time>
      </trkpt>
      <trkpt lat="47.27155" lon="6.04558">
        <ele>335.8</ele>
        <time>2021-10-13T09:00:05Z</time>
      </trkpt>
      <trkpt lat="47.27157" lon="6.04556">
        <ele>336</ele>
        <time>2021-10-13T09:00:06Z</time>
      </trkpt>
      <trkpt lat="47.27158" lon="6.04553">
        <ele>336.4</ele>
        <time>2021-10-13T09:00:07Z</time>
      </trkpt>
      <trkpt lat="47.27161" lon="6.04549">
        <ele>336.8</ele>
        <time>2021-10-13T09:00:09Z</time>
      </trkpt>
      <trkpt lat="47.27162" lon="6.04547">
        <ele>337</ele>
        <time>2021-10-13T09:00:10Z</time>
      </trkpt>
      <trkpt lat="47.27162" lon="6.04545">
        <ele>337.2</ele>
        <time>2021-10-13T09:00:11Z</time>
      </trkpt>
      <trkpt lat="47.27163" lon="6.04544">
        <ele>337.6</ele>
        <time>2021-10-13T09:00:12Z</time>
      </trkpt>
      <trkpt lat="47.27163" lon="6.04542">
        <ele>337.8</ele>
        <time>2021-10-13T09:00:13Z</time>
      </trkpt>
      <trkpt lat="47.27163" lon="6.0454">
        <ele>338.2</ele>
        <time>2021-10-13T09:00:14Z</time>
      </trkpt>
      <trkpt lat="47.27164" lon="6.04537">
        <ele>338.6</ele>
        <time>2021-10-13T09:00:16Z</time>
      </trkpt>
      <trkpt lat="47.27165" lon="6.04536">
        <ele>339</ele>
        <time>2021-10-13T09:00:17Z</time>
      </trkpt>
      <trkpt lat="47.27166" lon="6.04534">
        <ele>339.2</ele>
        <time>2021-10-13T09:00:18Z</time>
      </trkpt>
      <trkpt lat="47.27167" lon="6.04531">
        <ele>339.4</ele>
        <time>2021-10-13T09:00:19Z</time>
      </trkpt>
      <trkpt lat="47.27168" lon="6.04529">
        <ele>339.6</ele>
        <time>2021-10-13T09:00:20Z</time>
      </trkpt>
      <trkpt lat="47.27168" lon="6.04527">
        <ele>339.8</ele>
        <time>2021-10-13T09:00:21Z</time>
      </trkpt>
      <trkpt lat="47.27167" lon="6.04523">
        <ele>340.2</ele>
        <time>2021-10-13T09:00:23Z</time>
      </trkpt>
      <trkpt lat="47.27167" lon="6.0452">
        <ele>340.2</ele>
        <time>2021-10-13T09:00:24Z</time>
      </trkpt>
      <trkpt lat="47.27166" lon="6.04517">
        <ele>340.2</ele>
        <time>2021-10-13T09:00:25Z</time>
      </trkpt>
      <trkpt lat="47.27165" lon="6.04513">
        <ele>340.4</ele>
        <time>2021-10-13T09:00:26Z</time>
      </trkpt>
      <trkpt lat="47.27164" lon="6.0451">
        <ele>340.6</ele>
        <time>2021-10-13T09:00:27Z</time>
      </trkpt>
      <trkpt lat="47.27164" lon="6.04505">
        <ele>340.6</ele>
        <time>2021-10-13T09:00:28Z</time>
      </trkpt>
      <trkpt lat="47.27164" lon="6.04502">
        <ele>340.8</ele>
        <time>2021-10-13T09:00:29Z</time>
      </trkpt>
      <trkpt lat="47.27165" lon="6.04498">
        <ele>340.8</ele>
        <time>2021-10-13T09:00:30Z</time>
      </trkpt>
      <trkpt lat="47.27165" lon="6.04495">
        <ele>341</ele>
        <time>2021-10-13T09:00:31Z</time>
      </trkpt>
      <trkpt lat="47.27166" lon="6.04491">
        <ele>341</ele>
        <time>2021-10-13T09:00:32Z</time>
      </trkpt>
      <trkpt lat="47.27166" lon="6.04487">
        <ele>341</ele>
        <time>2021-10-13T09:00:33Z</time>
      </trkpt>
      <trkpt lat="47.27166" lon="6.04484">
        <ele>341.4</ele>
        <time>2021-10-13T09:00:34Z</time>
      </trkpt>
      <trkpt lat="47.27166" lon="6.04479">
        <ele>341.6</ele>
        <time>2021-10-13T09:00:35Z</time>
      </trkpt>
      <trkpt lat="47.27167" lon="6.04476">
        <ele>341.6</ele>
        <time>2021-10-13T09:00:36Z</time>
      </trkpt>
      <trkpt lat="47.27167" lon="6.04472">
        <ele>341.8</ele>
        <time>2021-10-13T09:00:37Z</time>
      </trkpt>
      <trkpt lat="47.27168" lon="6.04468">
        <ele>342</ele>
        <time>2021-10-13T09:00:38Z</time>
      </trkpt>
      <trkpt lat="47.27168" lon="6.04464">
        <ele>342.2</ele>
        <time>2021-10-13T09:00:39Z</time>
      </trkpt>
      <trkpt lat="47.27169" lon="6.0446">
        <ele>342.2</ele>
        <time>2021-10-13T09:00:40Z</time>
      </trkpt>
      <trkpt lat="47.27169" lon="6.04457">
        <ele>342.2</ele>
        <time>2021-10-13T09:00:41Z</time>
      </trkpt>
      <trkpt lat="47.2717" lon="6.04454">
        <ele>342.4</ele>
        <time>2021-10-13T09:00:42Z</time>
      </trkpt>
      <trkpt lat="47.27171" lon="6.04451">
        <ele>342.4</ele>
        <time>2021-10-13T09:00:43Z</time>
      </trkpt>
      <trkpt lat="47.27172" lon="6.04448">
        <ele>342.6</ele>
        <time>2021-10-13T09:00:44Z</time>
      </trkpt>
      <trkpt lat="47.27173" lon="6.04445">
        <ele>342.6</ele>
        <time>2021-10-13T09:00:45Z</time>
      </trkpt>
      <trkpt lat="47.27175" lon="6.04442">
        <ele>342.8</ele>
        <time>2021-10-13T09:00:46Z</time>
      </trkpt>
      <trkpt lat="47.27176" lon="6.0444">
        <ele>342.8</ele>
        <time>2021-10-13T09:00:47Z</time>
      </trkpt>
      <trkpt lat="47.27177" lon="6.04437">
        <ele>343</ele>
        <time>2021-10-13T09:00:48Z</time>
      </trkpt>
      <trkpt lat="47.27179" lon="6.04434">
        <ele>343.2</ele>
        <time>2021-10-13T09:00:49Z</time>
      </trkpt>
      <trkpt lat="47.2718" lon="6.04431">
        <ele>343.4</ele>
        <time>2021-10-13T09:00:50Z</time>
      </trkpt>
      <trkpt lat="47.27182" lon="6.04429">
        <ele>343.6</ele>
        <time>2021-10-13T09:00:51Z</time>
      </trkpt>
      <trkpt lat="47.27183" lon="6.04427">
        <ele>343.6</ele>
        <time>2021-10-13T09:00:52Z</time>
      </trkpt>
      <trkpt lat="47.27185" lon="6.04424">
        <ele>343.8</ele>
        <time>2021-10-13T09:00:53Z</time>
      </trkpt>
      <trkpt lat="47.27185" lon="6.04421">
        <ele>343.8</ele>
        <time>2021-10-13T09:00:54Z</time>
      </trkpt>
      <trkpt lat="47.27186" lon="6.04418">
        <ele>344</ele>
        <time>2021-10-13T09:00:55Z</time>
      </trkpt>
      <trkpt lat="47.27186" lon="6.04415">
        <ele>344</ele>
        <time>2021-10-13T09:00:56Z</time>
      </trkpt>
      <trkpt lat="47.27187" lon="6.04412">
        <ele>344.2</ele>
        <time>2021-10-13T09:00:57Z</time>
      </trkpt>
      <trkpt lat="47.27188" lon="6.04409">
        <ele>344.2</ele>
        <time>2021-10-13T09:00:58Z</time>
      </trkpt>
      <trkpt lat="47.27189" lon="6.04407">
        <ele>344.4</ele>
        <time>2021-10-13T09:00:59Z</time>
      </trkpt>
      <trkpt lat="47.27191" lon="6.04404">
        <ele>344.6</ele>
        <time>2021-10-13T09:01:00Z</time>
      </trkpt>
      <trkpt lat="47.27192" lon="6.04401">
        <ele>344.8</ele>
        <time>2021-10-13T09:01:01Z</time>
      </trkpt>
      <trkpt lat="47.27193" lon="6.04399">
        <ele>345</ele>
        <time>2021-10-13T09:01:02Z</time>
      </trkpt>
      <trkpt lat="47.27195" lon="6.04396">
        <ele>345</ele>
        <time>2021-10-13T09:01:03Z</time>
      </trkpt>
      <trkpt lat="47.27196" lon="6.04393">
        <ele>345.2</ele>
        <time>2021-10-13T09:01:04Z</time>
      </trkpt>
      <trkpt lat="47.27197" lon="6.0439">
        <ele>345.2</ele>
        <time>2021-10-13T09:01:05Z</time>
      </trkpt>
      <trkpt lat="47.27198" lon="6.04387">
        <ele>345.4</ele>
        <time>2021-10-13T09:01:06Z</time>
      </trkpt>
      <trkpt lat="47.27198" lon="6.04384">
        <ele>345.4</ele>
        <time>2021-10-13T09:01:07Z</time>
      </trkpt>
      <trkpt lat="47.27199" lon="6.04382">
        <ele>345.8</ele>
        <time>2021-10-13T09:01:08Z</time>
      </trkpt>
      <trkpt lat="47.272" lon="6.0438">
        <ele>346</ele>
        <time>2021-10-13T09:01:09Z</time>
      </trkpt>
      <trkpt lat="47.27202" lon="6.04378">
        <ele>346.4</ele>
        <time>2021-10-13T09:01:10Z</time>
      </trkpt>
      <trkpt lat="47.27203" lon="6.04376">
        <ele>346.6</ele>
        <time>2021-10-13T09:01:11Z</time>
      </trkpt>
      <trkpt lat="47.27205" lon="6.04373">
        <ele>346.6</ele>
        <time>2021-10-13T09:01:12Z</time>
      </trkpt>
      <trkpt lat="47.27206" lon="6.0437">
        <ele>346.8</ele>
        <time>2021-10-13T09:01:13Z</time>
      </trkpt>
      <trkpt lat="47.27208" lon="6.04368">
        <ele>347</ele>
        <time>2021-10-13T09:01:14Z</time>
      </trkpt>
      <trkpt lat="47.27208" lon="6.04365">
        <ele>347.2</ele>
        <time>2021-10-13T09:01:15Z</time>
      </trkpt>
      <trkpt lat="47.27209" lon="6.04362">
        <ele>347.4</ele>
        <time>2021-10-13T09:01:16Z</time>
      </trkpt>
      <trkpt lat="47.2721" lon="6.04359">
        <ele>347.6</ele>
        <time>2021-10-13T09:01:17Z</time>
      </trkpt>
      <trkpt lat="47.27211" lon="6.04356">
        <ele>347.6</ele>
        <time>2021-10-13T09:01:18Z</time>
      </trkpt>
      <trkpt lat="47.27212" lon="6.04354">
        <ele>347.8</ele>
        <time>2021-10-13T09:01:19Z</time>
      </trkpt>
      <trkpt lat="47.27214" lon="6.0435">
        <ele>347.8</ele>
        <time>2021-10-13T09:01:20Z</time>
      </trkpt>
      <trkpt lat="47.27215" lon="6.04346">
        <ele>348</ele>
        <time>2021-10-13T09:01:21Z</time>
      </trkpt>
      <trkpt lat="47.27216" lon="6.04342">
        <ele>348</ele>
        <time>2021-10-13T09:01:22Z</time>
      </trkpt>
      <trkpt lat="47.27218" lon="6.04339">
        <ele>348.2</ele>
        <time>2021-10-13T09:01:23Z</time>
      </trkpt>
      <trkpt lat="47.2722" lon="6.04335">
        <ele>348.2</ele>
        <time>2021-10-13T09:01:24Z</time>
      </trkpt>
      <trkpt lat="47.27221" lon="6.04332">
        <ele>348.2</ele>
        <time>2021-10-13T09:01:25Z</time>
      </trkpt>
      <trkpt lat="47.27223" lon="6.04328">
        <ele>348.4</ele>
        <time>2021-10-13T09:01:26Z</time>
      </trkpt>
      <trkpt lat="47.27224" lon="6.04325">
        <ele>348.4</ele>
        <time>2021-10-13T09:01:27Z</time>
      </trkpt>
      <trkpt lat="47.27225" lon="6.04322">
        <ele>348.4</ele>
        <time>2021-10-13T09:01:28Z</time>
      </trkpt>
      <trkpt lat="47.27227" lon="6.0432">
        <ele>348.4</ele>
        <time>2021-10-13T09:01:29Z</time>
      </trkpt>
      <trkpt lat="47.27228" lon="6.04317">
        <ele>348.4</ele>
        <time>2021-10-13T09:01:30Z</time>
      </trkpt>
      <trkpt lat="47.27229" lon="6.04315">
        <ele>348.4</ele>
        <time>2021-10-13T09:01:31Z</time>
      </trkpt>
      <trkpt lat="47.27229" lon="6.04313">
        <ele>348.4</ele>
        <time>2021-10-13T09:01:32Z</time>
      </trkpt>
      <trkpt lat="47.27231" lon="6.04309">
        <ele>348.4</ele>
        <time>2021-10-13T09:01:33Z</time>
      </trkpt>
      <trkpt lat="47.27232" lon="6.04306">
        <ele>348.4</ele>
        <time>2021-10-13T09:01:34Z</time>
      </trkpt>
      <trkpt lat="47.27233" lon="6.04304">
        <ele>348.6</ele>
        <time>2021-10-13T09:01:35Z</time>
      </trkpt>
      <trkpt lat="47.27235" lon="6.04302">
        <ele>348.6</ele>
        <time>2021-10-13T09:01:36Z</time>
      </trkpt>
      <trkpt lat="47.27236" lon="6.043">
        <ele>349</ele>
        <time>2021-10-13T09:01:37Z</time>
      </trkpt>
      <trkpt lat="47.27238" lon="6.04298">
        <ele>349</ele>
        <time>2021-10-13T09:01:38Z</time>
      </trkpt>
      <trkpt lat="47.2724" lon="6.04296">
        <ele>349.2</ele>
        <time>2021-10-13T09:01:39Z</time>
      </trkpt>
      <trkpt lat="47.27244" lon="6.0429">
        <ele>349.4</ele>
        <time>2021-10-13T09:01:42Z</time>
      </trkpt>
      <trkpt lat="47.27245" lon="6.04288">
        <ele>349.6</ele>
        <time>2021-10-13T09:01:43Z</time>
      </trkpt>
      <trkpt lat="47.27245" lon="6.04284">
        <ele>349.6</ele>
        <time>2021-10-13T09:01:44Z</time>
      </trkpt>
      <trkpt lat="47.27246" lon="6.04282">
        <ele>349.8</ele>
        <time>2021-10-13T09:01:45Z</time>
      </trkpt>
      <trkpt lat="47.27246" lon="6.04279">
        <ele>349.8</ele>
        <time>2021-10-13T09:01:46Z</time>
      </trkpt>
      <trkpt lat="47.27246" lon="6.04277">
        <ele>350</ele>
        <time>2021-10-13T09:01:47Z</time>
      </trkpt>
      <trkpt lat="47.27246" lon="6.04274">
        <ele>350.2</ele>
        <time>2021-10-13T09:01:48Z</time>
      </trkpt>
      <trkpt lat="47.27246" lon="6.04272">
        <ele>350.2</ele>
        <time>2021-10-13T09:01:49Z</time>
      </trkpt>
      <trkpt lat="47.27247" lon="6.04268">
        <ele>350.2</ele>
        <time>2021-10-13T09:01:50Z</time>
      </trkpt>
      <trkpt lat="47.27247" lon="6.04266">
        <ele>350.4</ele>
        <time>2021-10-13T09:01:51Z</time>
      </trkpt>
      <trkpt lat="47.27249" lon="6.0426">
        <ele>350.6</ele>
        <time>2021-10-13T09:01:53Z</time>
      </trkpt>
      <trkpt lat="47.2725" lon="6.04256">
        <ele>350.6</ele>
        <time>2021-10-13T09:01:54Z</time>
      </trkpt>
      <trkpt lat="47.27254" lon="6.04246">
        <ele>351</ele>
        <time>2021-10-13T09:01:57Z</time>
      </trkpt>
      <trkpt lat="47.27259" lon="6.04231">
        <ele>351.6</ele>
        <time>2021-10-13T09:02:01Z</time>
      </trkpt>
      <trkpt lat="47.2726" lon="6.04228">
        <ele>351.6</ele>
        <time>2021-10-13T09:02:02Z</time>
      </trkpt>
      <trkpt lat="47.27262" lon="6.04225">
        <ele>351.8</ele>
        <time>2021-10-13T09:02:03Z</time>
      </trkpt>
      <trkpt lat="47.27263" lon="6.04222">
        <ele>352</ele>
        <time>2021-10-13T09:02:04Z</time>
      </trkpt>
      <trkpt lat="47.27264" lon="6.04219">
        <ele>352</ele>
        <time>2021-10-13T09:02:05Z</time>
      </trkpt>
      <trkpt lat="47.27266" lon="6.04217">
        <ele>352</ele>
        <time>2021-10-13T09:02:06Z</time>
      </trkpt>
      <trkpt lat="47.27268" lon="6.04213">
        <ele>352.2</ele>
        <time>2021-10-13T09:02:07Z</time>
      </trkpt>
      <trkpt lat="47.27269" lon="6.04211">
        <ele>352.2</ele>
        <time>2021-10-13T09:02:08Z</time>
      </trkpt>
      <trkpt lat="47.27271" lon="6.04208">
        <ele>352.4</ele>
        <time>2021-10-13T09:02:09Z</time>
      </trkpt>
      <trkpt lat="47.27272" lon="6.04205">
        <ele>352.4</ele>
        <time>2021-10-13T09:02:10Z</time>
      </trkpt>
      <trkpt lat="47.27273" lon="6.04202">
        <ele>352.6</ele>
        <time>2021-10-13T09:02:11Z</time>
      </trkpt>
      <trkpt lat="47.27276" lon="6.04197">
        <ele>352.6</ele>
        <time>2021-10-13T09:02:13Z</time>
      </trkpt>
      <trkpt lat="47.27281" lon="6.04189">
        <ele>353</ele>
        <time>2021-10-13T09:02:16Z</time>
      </trkpt>
      <trkpt lat="47.27285" lon="6.04177">
        <ele>353</ele>
        <time>2021-10-13T09:02:20Z</time>
      </trkpt>
      <trkpt lat="47.27291" lon="6.04158">
        <ele>353.4</ele>
        <time>2021-10-13T09:02:26Z</time>
      </trkpt>
      <trkpt lat="47.27295" lon="6.04152">
        <ele>354.2</ele>
        <time>2021-10-13T09:02:29Z</time>
      </trkpt>
      <trkpt lat="47.27297" lon="6.0415">
        <ele>354.4</ele>
        <time>2021-10-13T09:02:30Z</time>
      </trkpt>
      <trkpt lat="47.27302" lon="6.04143">
        <ele>354.6</ele>
        <time>2021-10-13T09:02:33Z</time>
      </trkpt>
      <trkpt lat="47.27304" lon="6.04141">
        <ele>354.8</ele>
        <time>2021-10-13T09:02:34Z</time>
      </trkpt>
      <trkpt lat="47.27305" lon="6.04139">
        <ele>355</ele>
        <time>2021-10-13T09:02:35Z</time>
      </trkpt>
      <trkpt lat="47.27306" lon="6.04137">
        <ele>355.2</ele>
        <time>2021-10-13T09:02:36Z</time>
      </trkpt>
      <trkpt lat="47.27307" lon="6.04135">
        <ele>355.4</ele>
        <time>2021-10-13T09:02:37Z</time>
      </trkpt>
      <trkpt lat="47.27308" lon="6.04133">
        <ele>355.4</ele>
        <time>2021-10-13T09:02:38Z</time>
      </trkpt>
      <trkpt lat="47.27309" lon="6.0413">
        <ele>355.6</ele>
        <time>2021-10-13T09:02:39Z</time>
      </trkpt>
      <trkpt lat="47.27311" lon="6.04128">
        <ele>355.6</ele>
        <time>2021-10-13T09:02:40Z</time>
      </trkpt>
      <trkpt lat="47.27312" lon="6.04125">
        <ele>355.8</ele>
        <time>2021-10-13T09:02:41Z</time>
      </trkpt>
      <trkpt lat="47.27313" lon="6.04122">
        <ele>356</ele>
        <time>2021-10-13T09:02:42Z</time>
      </trkpt>
      <trkpt lat="47.27314" lon="6.04119">
        <ele>356</ele>
        <time>2021-10-13T09:02:43Z</time>
      </trkpt>
      <trkpt lat="47.27315" lon="6.04117">
        <ele>356.2</ele>
        <time>2021-10-13T09:02:44Z</time>
      </trkpt>
      <trkpt lat="47.27316" lon="6.04115">
        <ele>356.2</ele>
        <time>2021-10-13T09:02:45Z</time>
      </trkpt>
      <trkpt lat="47.27317" lon="6.04112">
        <ele>356.4</ele>
        <time>2021-10-13T09:02:46Z</time>
      </trkpt>
      <trkpt lat="47.27319" lon="6.0411">
        <ele>356.4</ele>
        <time>2021-10-13T09:02:47Z</time>
      </trkpt>
      <trkpt lat="47.2732" lon="6.04108">
        <ele>356.6</ele>
        <time>2021-10-13T09:02:48Z</time>
      </trkpt>
      <trkpt lat="47.27321" lon="6.04105">
        <ele>356.8</ele>
        <time>2021-10-13T09:02:49Z</time>
      </trkpt>
      <trkpt lat="47.27322" lon="6.04103">
        <ele>357</ele>
        <time>2021-10-13T09:02:50Z</time>
      </trkpt>
      <trkpt lat="47.27323" lon="6.04101">
        <ele>357.4</ele>
        <time>2021-10-13T09:02:51Z</time>
      </trkpt>
      <trkpt lat="47.27325" lon="6.04099">
        <ele>357.4</ele>
        <time>2021-10-13T09:02:52Z</time>
      </trkpt>
      <trkpt lat="47.27326" lon="6.04096">
        <ele>357.6</ele>
        <time>2021-10-13T09:02:53Z</time>
      </trkpt>
      <trkpt lat="47.27328" lon="6.04094">
        <ele>357.6</ele>
        <time>2021-10-13T09:02:54Z</time>
      </trkpt>
      <trkpt lat="47.27329" lon="6.04092">
        <ele>357.8</ele>
        <time>2021-10-13T09:02:55Z</time>
      </trkpt>
      <trkpt lat="47.27331" lon="6.0409">
        <ele>357.8</ele>
        <time>2021-10-13T09:02:56Z</time>
      </trkpt>
      <trkpt lat="47.27332" lon="6.04087">
        <ele>357.8</ele>
        <time>2021-10-13T09:02:57Z</time>
      </trkpt>
      <trkpt lat="47.27334" lon="6.04085">
        <ele>358</ele>
        <time>2021-10-13T09:02:58Z</time>
      </trkpt>
      <trkpt lat="47.27336" lon="6.04083">
        <ele>358.2</ele>
        <time>2021-10-13T09:02:59Z</time>
      </trkpt>
      <trkpt lat="47.27337" lon="6.04081">
        <ele>358.2</ele>
        <time>2021-10-13T09:03:00Z</time>
      </trkpt>
      <trkpt lat="47.27338" lon="6.04079">
        <ele>358.4</ele>
        <time>2021-10-13T09:03:01Z</time>
      </trkpt>
      <trkpt lat="47.2734" lon="6.04076">
        <ele>358.4</ele>
        <time>2021-10-13T09:03:02Z</time>
      </trkpt>
      <trkpt lat="47.27341" lon="6.04074">
        <ele>358.6</ele>
        <time>2021-10-13T09:03:03Z</time>
      </trkpt>
      <trkpt lat="47.27342" lon="6.04071">
        <ele>358.6</ele>
        <time>2021-10-13T09:03:04Z</time>
      </trkpt>
      <trkpt lat="47.27344" lon="6.04068">
        <ele>358.6</ele>
        <time>2021-10-13T09:03:05Z</time>
      </trkpt>
      <trkpt lat="47.27346" lon="6.04065">
        <ele>358.8</ele>
        <time>2021-10-13T09:03:06Z</time>
      </trkpt>
      <trkpt lat="47.27347" lon="6.04062">
        <ele>358.8</ele>
        <time>2021-10-13T09:03:07Z</time>
      </trkpt>
      <trkpt lat="47.27348" lon="6.04059">
        <ele>359</ele>
        <time>2021-10-13T09:03:08Z</time>
      </trkpt>
      <trkpt lat="47.2735" lon="6.04055">
        <ele>359</ele>
        <time>2021-10-13T09:03:09Z</time>
      </trkpt>
      <trkpt lat="47.27352" lon="6.04052">
        <ele>359</ele>
        <time>2021-10-13T09:03:10Z</time>
      </trkpt>
      <trkpt lat="47.27353" lon="6.04048">
        <ele>359</ele>
        <time>2021-10-13T09:03:11Z</time>
      </trkpt>
      <trkpt lat="47.27355" lon="6.04044">
        <ele>359</ele>
        <time>2021-10-13T09:03:12Z</time>
      </trkpt>
      <trkpt lat="47.27356" lon="6.04039">
        <ele>359</ele>
        <time>2021-10-13T09:03:13Z</time>
      </trkpt>
      <trkpt lat="47.27358" lon="6.04034">
        <ele>359</ele>
        <time>2021-10-13T09:03:14Z</time>
      </trkpt>
      <trkpt lat="47.2736" lon="6.04029">
        <ele>359</ele>
        <time>2021-10-13T09:03:15Z</time>
      </trkpt>
      <trkpt lat="47.27375" lon="6.0399">
        <ele>358.6</ele>
        <time>2021-10-13T09:03:21Z</time>
      </trkpt>
      <trkpt lat="47.27377" lon="6.03983">
        <ele>358.6</ele>
        <time>2021-10-13T09:03:22Z</time>
      </trkpt>
      <trkpt lat="47.27382" lon="6.03972">
        <ele>358.4</ele>
        <time>2021-10-13T09:03:24Z</time>
      </trkpt>
      <trkpt lat="47.27384" lon="6.03968">
        <ele>358.4</ele>
        <time>2021-10-13T09:03:25Z</time>
      </trkpt>
      <trkpt lat="47.27387" lon="6.03965">
        <ele>358.4</ele>
        <time>2021-10-13T09:03:26Z</time>
      </trkpt>
      <trkpt lat="47.27388" lon="6.03963">
        <ele>358.4</ele>
        <time>2021-10-13T09:03:27Z</time>
      </trkpt>
      <trkpt lat="47.2739" lon="6.0396">
        <ele>358.4</ele>
        <time>2021-10-13T09:03:28Z</time>
      </trkpt>
      <trkpt lat="47.27391" lon="6.03958">
        <ele>358.4</ele>
        <time>2021-10-13T09:03:29Z</time>
      </trkpt>
      <trkpt lat="47.27392" lon="6.03955">
        <ele>358.8</ele>
        <time>2021-10-13T09:03:30Z</time>
      </trkpt>
      <trkpt lat="47.27392" lon="6.03952">
        <ele>359</ele>
        <time>2021-10-13T09:03:31Z</time>
      </trkpt>
      <trkpt lat="47.27393" lon="6.03949">
        <ele>359.4</ele>
        <time>2021-10-13T09:03:32Z</time>
      </trkpt>
      <trkpt lat="47.27396" lon="6.03945">
        <ele>360</ele>
        <time>2021-10-13T09:03:34Z</time>
      </trkpt>
      <trkpt lat="47.27397" lon="6.03944">
        <ele>360.2</ele>
        <time>2021-10-13T09:03:35Z</time>
      </trkpt>
      <trkpt lat="47.27399" lon="6.03943">
        <ele>360.8</ele>
        <time>2021-10-13T09:03:36Z</time>
      </trkpt>
      <trkpt lat="47.27401" lon="6.03941">
        <ele>361</ele>
        <time>2021-10-13T09:03:37Z</time>
      </trkpt>
      <trkpt lat="47.27403" lon="6.0394">
        <ele>361.2</ele>
        <time>2021-10-13T09:03:38Z</time>
      </trkpt>
      <trkpt lat="47.27405" lon="6.03939">
        <ele>361.4</ele>
        <time>2021-10-13T09:03:39Z</time>
      </trkpt>
      <trkpt lat="47.27406" lon="6.03937">
        <ele>361.6</ele>
        <time>2021-10-13T09:03:40Z</time>
      </trkpt>
      <trkpt lat="47.27407" lon="6.03935">
        <ele>362</ele>
        <time>2021-10-13T09:03:41Z</time>
      </trkpt>
      <trkpt lat="47.27408" lon="6.03933">
        <ele>362.2</ele>
        <time>2021-10-13T09:03:42Z</time>
      </trkpt>
      <trkpt lat="47.27409" lon="6.03931">
        <ele>362.6</ele>
        <time>2021-10-13T09:03:43Z</time>
      </trkpt>
      <trkpt lat="47.27409" lon="6.03929">
        <ele>362.6</ele>
        <time>2021-10-13T09:03:44Z</time>
      </trkpt>
      <trkpt lat="47.2741" lon="6.03926">
        <ele>363</ele>
        <time>2021-10-13T09:03:45Z</time>
      </trkpt>
      <trkpt lat="47.27411" lon="6.03923">
        <ele>363.2</ele>
        <time>2021-10-13T09:03:46Z</time>
      </trkpt>
      <trkpt lat="47.27411" lon="6.03921">
        <ele>363.4</ele>
        <time>2021-10-13T09:03:47Z</time>
      </trkpt>
      <trkpt lat="47.27412" lon="6.03918">
        <ele>363.4</ele>
        <time>2021-10-13T09:03:48Z</time>
      </trkpt>
      <trkpt lat="47.27413" lon="6.03915">
        <ele>363.6</ele>
        <time>2021-10-13T09:03:49Z</time>
      </trkpt>
      <trkpt lat="47.27414" lon="6.03913">
        <ele>363.8</ele>
        <time>2021-10-13T09:03:50Z</time>
      </trkpt>
      <trkpt lat="47.27415" lon="6.03912">
        <ele>364</ele>
        <time>2021-10-13T09:03:51Z</time>
      </trkpt>
      <trkpt lat="47.27416" lon="6.0391">
        <ele>364</ele>
        <time>2021-10-13T09:03:52Z</time>
      </trkpt>
      <trkpt lat="47.27418" lon="6.03909">
        <ele>364.2</ele>
        <time>2021-10-13T09:03:53Z</time>
      </trkpt>
      <trkpt lat="47.27419" lon="6.03906">
        <ele>364.2</ele>
        <time>2021-10-13T09:03:54Z</time>
      </trkpt>
      <trkpt lat="47.2742" lon="6.03904">
        <ele>364.6</ele>
        <time>2021-10-13T09:03:55Z</time>
      </trkpt>
      <trkpt lat="47.27422" lon="6.03901">
        <ele>365</ele>
        <time>2021-10-13T09:03:56Z</time>
      </trkpt>
      <trkpt lat="47.27423" lon="6.03899">
        <ele>365</ele>
        <time>2021-10-13T09:03:57Z</time>
      </trkpt>
      <trkpt lat="47.27424" lon="6.03897">
        <ele>365.2</ele>
        <time>2021-10-13T09:03:58Z</time>
      </trkpt>
      <trkpt lat="47.27425" lon="6.03895">
        <ele>365.4</ele>
        <time>2021-10-13T09:03:59Z</time>
      </trkpt>
      <trkpt lat="47.27427" lon="6.03894">
        <ele>365.8</ele>
        <time>2021-10-13T09:04:00Z</time>
      </trkpt>
      <trkpt lat="47.27428" lon="6.03893">
        <ele>366</ele>
        <time>2021-10-13T09:04:01Z</time>
      </trkpt>
      <trkpt lat="47.27429" lon="6.03892">
        <ele>366</ele>
        <time>2021-10-13T09:04:02Z</time>
      </trkpt>
      <trkpt lat="47.27431" lon="6.0389">
        <ele>366.2</ele>
        <time>2021-10-13T09:04:03Z</time>
      </trkpt>
      <trkpt lat="47.27432" lon="6.03888">
        <ele>366.6</ele>
        <time>2021-10-13T09:04:04Z</time>
      </trkpt>
      <trkpt lat="47.27433" lon="6.03886">
        <ele>366.6</ele>
        <time>2021-10-13T09:04:05Z</time>
      </trkpt>
      <trkpt lat="47.27434" lon="6.03885">
        <ele>367</ele>
        <time>2021-10-13T09:04:06Z</time>
      </trkpt>
      <trkpt lat="47.27435" lon="6.03883">
        <ele>367.2</ele>
        <time>2021-10-13T09:04:07Z</time>
      </trkpt>
      <trkpt lat="47.27437" lon="6.03881">
        <ele>367.4</ele>
        <time>2021-10-13T09:04:08Z</time>
      </trkpt>
      <trkpt lat="47.27438" lon="6.03879">
        <ele>367.6</ele>
        <time>2021-10-13T09:04:09Z</time>
      </trkpt>
      <trkpt lat="47.27439" lon="6.03877">
        <ele>367.8</ele>
        <time>2021-10-13T09:04:10Z</time>
      </trkpt>
      <trkpt lat="47.2744" lon="6.03876">
        <ele>368.2</ele>
        <time>2021-10-13T09:04:11Z</time>
      </trkpt>
      <trkpt lat="47.2744" lon="6.03874">
        <ele>368.4</ele>
        <time>2021-10-13T09:04:12Z</time>
      </trkpt>
      <trkpt lat="47.27441" lon="6.03873">
        <ele>368.6</ele>
        <time>2021-10-13T09:04:13Z</time>
      </trkpt>
      <trkpt lat="47.27442" lon="6.03871">
        <ele>368.8</ele>
        <time>2021-10-13T09:04:14Z</time>
      </trkpt>
      <trkpt lat="47.27442" lon="6.0387">
        <ele>369.2</ele>
        <time>2021-10-13T09:04:15Z</time>
      </trkpt>
      <trkpt lat="47.27442" lon="6.03868">
        <ele>369.4</ele>
        <time>2021-10-13T09:04:16Z</time>
      </trkpt>
      <trkpt lat="47.27442" lon="6.03867">
        <ele>369.6</ele>
        <time>2021-10-13T09:04:17Z</time>
      </trkpt>
      <trkpt lat="47.27442" lon="6.03865">
        <ele>369.6</ele>
        <time>2021-10-13T09:04:18Z</time>
      </trkpt>
      <trkpt lat="47.27442" lon="6.03862">
        <ele>369.8</ele>
        <time>2021-10-13T09:04:19Z</time>
      </trkpt>
      <trkpt lat="47.27443" lon="6.0386">
        <ele>370</ele>
        <time>2021-10-13T09:04:20Z</time>
      </trkpt>
      <trkpt lat="47.27444" lon="6.03858">
        <ele>370</ele>
        <time>2021-10-13T09:04:21Z</time>
      </trkpt>
      <trkpt lat="47.27444" lon="6.03856">
        <ele>370</ele>
        <time>2021-10-13T09:04:22Z</time>
      </trkpt>
      <trkpt lat="47.27445" lon="6.03853">
        <ele>370</ele>
        <time>2021-10-13T09:04:23Z</time>
      </trkpt>
      <trkpt lat="47.27446" lon="6.03852">
        <ele>370.4</ele>
        <time>2021-10-13T09:04:24Z</time>
      </trkpt>
      <trkpt lat="47.27447" lon="6.0385">
        <ele>370.4</ele>
        <time>2021-10-13T09:04:25Z</time>
      </trkpt>
      <trkpt lat="47.27449" lon="6.03848">
        <ele>370.4</ele>
        <time>2021-10-13T09:04:26Z</time>
      </trkpt>
      <trkpt lat="47.2745" lon="6.03846">
        <ele>370.4</ele>
        <time>2021-10-13T09:04:27Z</time>
      </trkpt>
      <trkpt lat="47.27451" lon="6.03845">
        <ele>370.4</ele>
        <time>2021-10-13T09:04:28Z</time>
      </trkpt>
      <trkpt lat="47.27453" lon="6.03844">
        <ele>370.6</ele>
        <time>2021-10-13T09:04:29Z</time>
      </trkpt>
      <trkpt lat="47.27454" lon="6.03842">
        <ele>370.6</ele>
        <time>2021-10-13T09:04:30Z</time>
      </trkpt>
      <trkpt lat="47.27455" lon="6.03839">
        <ele>370.6</ele>
        <time>2021-10-13T09:04:31Z</time>
      </trkpt>
      <trkpt lat="47.27456" lon="6.03837">
        <ele>370.8</ele>
        <time>2021-10-13T09:04:32Z</time>
      </trkpt>
      <trkpt lat="47.27457" lon="6.03835">
        <ele>370.8</ele>
        <time>2021-10-13T09:04:33Z</time>
      </trkpt>
      <trkpt lat="47.27458" lon="6.03832">
        <ele>370.8</ele>
        <time>2021-10-13T09:04:34Z</time>
      </trkpt>
      <trkpt lat="47.2746" lon="6.0383">
        <ele>370.8</ele>
        <time>2021-10-13T09:04:35Z</time>
      </trkpt>
      <trkpt lat="47.27461" lon="6.03828">
        <ele>370.8</ele>
        <time>2021-10-13T09:04:36Z</time>
      </trkpt>
      <trkpt lat="47.27462" lon="6.03826">
        <ele>371</ele>
        <time>2021-10-13T09:04:37Z</time>
      </trkpt>
      <trkpt lat="47.27464" lon="6.03823">
        <ele>371</ele>
        <time>2021-10-13T09:04:38Z</time>
      </trkpt>
      <trkpt lat="47.27465" lon="6.03821">
        <ele>371</ele>
        <time>2021-10-13T09:04:39Z</time>
      </trkpt>
      <trkpt lat="47.27467" lon="6.03818">
        <ele>371.2</ele>
        <time>2021-10-13T09:04:40Z</time>
      </trkpt>
      <trkpt lat="47.27468" lon="6.03817">
        <ele>371.2</ele>
        <time>2021-10-13T09:04:41Z</time>
      </trkpt>
      <trkpt lat="47.27476" lon="6.03805">
        <ele>371.6</ele>
        <time>2021-10-13T09:04:46Z</time>
      </trkpt>
      <trkpt lat="47.27485" lon="6.0379">
        <ele>372.2</ele>
        <time>2021-10-13T09:04:52Z</time>
      </trkpt>
      <trkpt lat="47.27488" lon="6.03782">
        <ele>372.4</ele>
        <time>2021-10-13T09:04:55Z</time>
      </trkpt>
      <trkpt lat="47.27491" lon="6.03778">
        <ele>372.6</ele>
        <time>2021-10-13T09:04:57Z</time>
      </trkpt>
      <trkpt lat="47.27492" lon="6.03775">
        <ele>372.8</ele>
        <time>2021-10-13T09:04:58Z</time>
      </trkpt>
      <trkpt lat="47.27493" lon="6.03773">
        <ele>373</ele>
        <time>2021-10-13T09:04:59Z</time>
      </trkpt>
      <trkpt lat="47.27494" lon="6.03771">
        <ele>373</ele>
        <time>2021-10-13T09:05:00Z</time>
      </trkpt>
      <trkpt lat="47.27495" lon="6.03768">
        <ele>373.2</ele>
        <time>2021-10-13T09:05:01Z</time>
      </trkpt>
      <trkpt lat="47.27496" lon="6.03765">
        <ele>373.2</ele>
        <time>2021-10-13T09:05:02Z</time>
      </trkpt>
      <trkpt lat="47.27497" lon="6.03763">
        <ele>373.4</ele>
        <time>2021-10-13T09:05:03Z</time>
      </trkpt>
      <trkpt lat="47.27498" lon="6.03762">
        <ele>373.4</ele>
        <time>2021-10-13T09:05:04Z</time>
      </trkpt>
      <trkpt lat="47.27499" lon="6.0376">
        <ele>373.6</ele>
        <time>2021-10-13T09:05:05Z</time>
      </trkpt>
      <trkpt lat="47.275" lon="6.03757">
        <ele>373.6</ele>
        <time>2021-10-13T09:05:06Z</time>
      </trkpt>
      <trkpt lat="47.27502" lon="6.03755">
        <ele>373.6</ele>
        <time>2021-10-13T09:05:07Z</time>
      </trkpt>
      <trkpt lat="47.27503" lon="6.03753">
        <ele>373.8</ele>
        <time>2021-10-13T09:05:08Z</time>
      </trkpt>
      <trkpt lat="47.27505" lon="6.03751">
        <ele>374</ele>
        <time>2021-10-13T09:05:09Z</time>
      </trkpt>
      <trkpt lat="47.27508" lon="6.03747">
        <ele>374.4</ele>
        <time>2021-10-13T09:05:11Z</time>
      </trkpt>
      <trkpt lat="47.27509" lon="6.03744">
        <ele>374.6</ele>
        <time>2021-10-13T09:05:12Z</time>
      </trkpt>
      <trkpt lat="47.2751" lon="6.03742">
        <ele>374.8</ele>
        <time>2021-10-13T09:05:13Z</time>
      </trkpt>
      <trkpt lat="47.27511" lon="6.03739">
        <ele>375</ele>
        <time>2021-10-13T09:05:14Z</time>
      </trkpt>
      <trkpt lat="47.27512" lon="6.03737">
        <ele>375</ele>
        <time>2021-10-13T09:05:15Z</time>
      </trkpt>
      <trkpt lat="47.27513" lon="6.03734">
        <ele>375.4</ele>
        <time>2021-10-13T09:05:16Z</time>
      </trkpt>
      <trkpt lat="47.27515" lon="6.03732">
        <ele>375.4</ele>
        <time>2021-10-13T09:05:17Z</time>
      </trkpt>
      <trkpt lat="47.27516" lon="6.0373">
        <ele>375.6</ele>
        <time>2021-10-13T09:05:18Z</time>
      </trkpt>
      <trkpt lat="47.27517" lon="6.03728">
        <ele>375.6</ele>
        <time>2021-10-13T09:05:19Z</time>
      </trkpt>
      <trkpt lat="47.27519" lon="6.03726">
        <ele>375.8</ele>
        <time>2021-10-13T09:05:20Z</time>
      </trkpt>
      <trkpt lat="47.2752" lon="6.03724">
        <ele>375.8</ele>
        <time>2021-10-13T09:05:21Z</time>
      </trkpt>
      <trkpt lat="47.27521" lon="6.03723">
        <ele>375.8</ele>
        <time>2021-10-13T09:05:22Z</time>
      </trkpt>
      <trkpt lat="47.27523" lon="6.03721">
        <ele>376</ele>
        <time>2021-10-13T09:05:23Z</time>
      </trkpt>
      <trkpt lat="47.27525" lon="6.03719">
        <ele>376.2</ele>
        <time>2021-10-13T09:05:24Z</time>
      </trkpt>
      <trkpt lat="47.27526" lon="6.03718">
        <ele>376.2</ele>
        <time>2021-10-13T09:05:25Z</time>
      </trkpt>
      <trkpt lat="47.27528" lon="6.03716">
        <ele>376.4</ele>
        <time>2021-10-13T09:05:26Z</time>
      </trkpt>
      <trkpt lat="47.27529" lon="6.03714">
        <ele>376.6</ele>
        <time>2021-10-13T09:05:27Z</time>
      </trkpt>
      <trkpt lat="47.27531" lon="6.03712">
        <ele>376.6</ele>
        <time>2021-10-13T09:05:28Z</time>
      </trkpt>
      <trkpt lat="47.27532" lon="6.0371">
        <ele>376.8</ele>
        <time>2021-10-13T09:05:29Z</time>
      </trkpt>
      <trkpt lat="47.27534" lon="6.03709">
        <ele>376.8</ele>
        <time>2021-10-13T09:05:30Z</time>
      </trkpt>
      <trkpt lat="47.27535" lon="6.03706">
        <ele>377</ele>
        <time>2021-10-13T09:05:31Z</time>
      </trkpt>
      <trkpt lat="47.27537" lon="6.03704">
        <ele>377</ele>
        <time>2021-10-13T09:05:32Z</time>
      </trkpt>
      <trkpt lat="47.27538" lon="6.03702">
        <ele>377.2</ele>
        <time>2021-10-13T09:05:33Z</time>
      </trkpt>
      <trkpt lat="47.2754" lon="6.037">
        <ele>377.2</ele>
        <time>2021-10-13T09:05:34Z</time>
      </trkpt>
      <trkpt lat="47.27541" lon="6.03698">
        <ele>377.2</ele>
        <time>2021-10-13T09:05:35Z</time>
      </trkpt>
      <trkpt lat="47.27543" lon="6.03696">
        <ele>377.4</ele>
        <time>2021-10-13T09:05:36Z</time>
      </trkpt>
      <trkpt lat="47.27545" lon="6.03694">
        <ele>377.4</ele>
        <time>2021-10-13T09:05:37Z</time>
      </trkpt>
      <trkpt lat="47.27547" lon="6.03692">
        <ele>377.6</ele>
        <time>2021-10-13T09:05:38Z</time>
      </trkpt>
      <trkpt lat="47.27548" lon="6.0369">
        <ele>377.6</ele>
        <time>2021-10-13T09:05:39Z</time>
      </trkpt>
      <trkpt lat="47.2755" lon="6.03688">
        <ele>377.8</ele>
        <time>2021-10-13T09:05:40Z</time>
      </trkpt>
      <trkpt lat="47.27552" lon="6.03687">
        <ele>378</ele>
        <time>2021-10-13T09:05:41Z</time>
      </trkpt>
      <trkpt lat="47.27553" lon="6.03687">
        <ele>378.2</ele>
        <time>2021-10-13T09:05:42Z</time>
      </trkpt>
      <trkpt lat="47.27555" lon="6.03689">
        <ele>378.4</ele>
        <time>2021-10-13T09:05:43Z</time>
      </trkpt>
      <trkpt lat="47.27558" lon="6.03691">
        <ele>378.6</ele>
        <time>2021-10-13T09:05:44Z</time>
      </trkpt>
      <trkpt lat="47.2756" lon="6.03692">
        <ele>378.6</ele>
        <time>2021-10-13T09:05:45Z</time>
      </trkpt>
      <trkpt lat="47.27562" lon="6.03693">
        <ele>378.8</ele>
        <time>2021-10-13T09:05:46Z</time>
      </trkpt>
      <trkpt lat="47.27564" lon="6.03694">
        <ele>378.8</ele>
        <time>2021-10-13T09:05:47Z</time>
      </trkpt>
      <trkpt lat="47.27566" lon="6.03694">
        <ele>379</ele>
        <time>2021-10-13T09:05:48Z</time>
      </trkpt>
      <trkpt lat="47.27568" lon="6.03694">
        <ele>379.4</ele>
        <time>2021-10-13T09:05:49Z</time>
      </trkpt>
      <trkpt lat="47.27569" lon="6.03695">
        <ele>379.6</ele>
        <time>2021-10-13T09:05:50Z</time>
      </trkpt>
      <trkpt lat="47.27571" lon="6.03695">
        <ele>379.6</ele>
        <time>2021-10-13T09:05:51Z</time>
      </trkpt>
      <trkpt lat="47.27572" lon="6.03696">
        <ele>379.6</ele>
        <time>2021-10-13T09:05:52Z</time>
      </trkpt>
      <trkpt lat="47.27573" lon="6.03697">
        <ele>380</ele>
        <time>2021-10-13T09:05:53Z</time>
      </trkpt>
      <trkpt lat="47.27574" lon="6.03698">
        <ele>380</ele>
        <time>2021-10-13T09:05:54Z</time>
      </trkpt>
      <trkpt lat="47.27574" lon="6.03699">
        <ele>380.2</ele>
        <time>2021-10-13T09:05:55Z</time>
      </trkpt>
      <trkpt lat="47.27574" lon="6.037">
        <ele>380.2</ele>
        <time>2021-10-13T09:05:56Z</time>
      </trkpt>
      <trkpt lat="47.27575" lon="6.03702">
        <ele>380.4</ele>
        <time>2021-10-13T09:05:57Z</time>
      </trkpt>
      <trkpt lat="47.27575" lon="6.03703">
        <ele>380.4</ele>
        <time>2021-10-13T09:05:58Z</time>
      </trkpt>
      <trkpt lat="47.27576" lon="6.03703">
        <ele>380.6</ele>
        <time>2021-10-13T09:05:59Z</time>
      </trkpt>
      <trkpt lat="47.27577" lon="6.03704">
        <ele>380.6</ele>
        <time>2021-10-13T09:06:00Z</time>
      </trkpt>
      <trkpt lat="47.27578" lon="6.03703">
        <ele>380.6</ele>
        <time>2021-10-13T09:06:01Z</time>
      </trkpt>
      <trkpt lat="47.27579" lon="6.03702">
        <ele>380.6</ele>
        <time>2021-10-13T09:06:02Z</time>
      </trkpt>
      <trkpt lat="47.27581" lon="6.03701">
        <ele>380.6</ele>
        <time>2021-10-13T09:06:03Z</time>
      </trkpt>
      <trkpt lat="47.27583" lon="6.03699">
        <ele>380.6</ele>
        <time>2021-10-13T09:06:04Z</time>
      </trkpt>
      <trkpt lat="47.27585" lon="6.03698">
        <ele>380.6</ele>
        <time>2021-10-13T09:06:05Z</time>
      </trkpt>
      <trkpt lat="47.27588" lon="6.03697">
        <ele>380.8</ele>
        <time>2021-10-13T09:06:06Z</time>
      </trkpt>
      <trkpt lat="47.2759" lon="6.03695">
        <ele>380.8</ele>
        <time>2021-10-13T09:06:07Z</time>
      </trkpt>
      <trkpt lat="47.27592" lon="6.03694">
        <ele>380.8</ele>
        <time>2021-10-13T09:06:08Z</time>
      </trkpt>
      <trkpt lat="47.27595" lon="6.03693">
        <ele>380.8</ele>
        <time>2021-10-13T09:06:09Z</time>
      </trkpt>
      <trkpt lat="47.27597" lon="6.03692">
        <ele>380.8</ele>
        <time>2021-10-13T09:06:10Z</time>
      </trkpt>
      <trkpt lat="47.27602" lon="6.0369">
        <ele>380.8</ele>
        <time>2021-10-13T09:06:12Z</time>
      </trkpt>
      <trkpt lat="47.27614" lon="6.03686">
        <ele>380.8</ele>
        <time>2021-10-13T09:06:17Z</time>
      </trkpt>
      <trkpt lat="47.27619" lon="6.03684">
        <ele>380.8</ele>
        <time>2021-10-13T09:06:19Z</time>
      </trkpt>
      <trkpt lat="47.2763" lon="6.03672">
        <ele>380.8</ele>
        <time>2021-10-13T09:06:23Z</time>
      </trkpt>
      <trkpt lat="47.27633" lon="6.03668">
        <ele>380.6</ele>
        <time>2021-10-13T09:06:24Z</time>
      </trkpt>
      <trkpt lat="47.27642" lon="6.03659">
        <ele>379.4</ele>
        <time>2021-10-13T09:06:27Z</time>
      </trkpt>
      <trkpt lat="47.27646" lon="6.03657">
        <ele>378.6</ele>
        <time>2021-10-13T09:06:28Z</time>
      </trkpt>
      <trkpt lat="47.2765" lon="6.03656">
        <ele>378.4</ele>
        <time>2021-10-13T09:06:29Z</time>
      </trkpt>
      <trkpt lat="47.27655" lon="6.03656">
        <ele>378</ele>
        <time>2021-10-13T09:06:30Z</time>
      </trkpt>
      <trkpt lat="47.2766" lon="6.03656">
        <ele>378</ele>
        <time>2021-10-13T09:06:31Z</time>
      </trkpt>
      <trkpt lat="47.27665" lon="6.03655">
        <ele>377.6</ele>
        <time>2021-10-13T09:06:32Z</time>
      </trkpt>
      <trkpt lat="47.2767" lon="6.03654">
        <ele>377.4</ele>
        <time>2021-10-13T09:06:33Z</time>
      </trkpt>
      <trkpt lat="47.27677" lon="6.03651">
        <ele>376.4</ele>
        <time>2021-10-13T09:06:35Z</time>
      </trkpt>
      <trkpt lat="47.27681" lon="6.03649">
        <ele>375.8</ele>
        <time>2021-10-13T09:06:36Z</time>
      </trkpt>
      <trkpt lat="47.27684" lon="6.03647">
        <ele>375.6</ele>
        <time>2021-10-13T09:06:37Z</time>
      </trkpt>
      <trkpt lat="47.27687" lon="6.03646">
        <ele>375.4</ele>
        <time>2021-10-13T09:06:38Z</time>
      </trkpt>
      <trkpt lat="47.27689" lon="6.03644">
        <ele>375.4</ele>
        <time>2021-10-13T09:06:39Z</time>
      </trkpt>
      <trkpt lat="47.27691" lon="6.03643">
        <ele>375.4</ele>
        <time>2021-10-13T09:06:40Z</time>
      </trkpt>
      <trkpt lat="47.27693" lon="6.03643">
        <ele>375.4</ele>
        <time>2021-10-13T09:06:41Z</time>
      </trkpt>
      <trkpt lat="47.27696" lon="6.03642">
        <ele>375.4</ele>
        <time>2021-10-13T09:06:42Z</time>
      </trkpt>
      <trkpt lat="47.27699" lon="6.03641">
        <ele>375.4</ele>
        <time>2021-10-13T09:06:43Z</time>
      </trkpt>
      <trkpt lat="47.27709" lon="6.03636">
        <ele>375.8</ele>
        <time>2021-10-13T09:06:47Z</time>
      </trkpt>
      <trkpt lat="47.27718" lon="6.03635">
        <ele>376.4</ele>
        <time>2021-10-13T09:06:50Z</time>
      </trkpt>
      <trkpt lat="47.2772" lon="6.03636">
        <ele>376.8</ele>
        <time>2021-10-13T09:06:51Z</time>
      </trkpt>
      <trkpt lat="47.27723" lon="6.03636">
        <ele>377</ele>
        <time>2021-10-13T09:06:52Z</time>
      </trkpt>
      <trkpt lat="47.27726" lon="6.03636">
        <ele>377.2</ele>
        <time>2021-10-13T09:06:53Z</time>
      </trkpt>
      <trkpt lat="47.27731" lon="6.03636">
        <ele>377.4</ele>
        <time>2021-10-13T09:06:55Z</time>
      </trkpt>
      <trkpt lat="47.27737" lon="6.03637">
        <ele>378</ele>
        <time>2021-10-13T09:06:58Z</time>
      </trkpt>
      <trkpt lat="47.27739" lon="6.03635">
        <ele>378</ele>
        <time>2021-10-13T09:06:59Z</time>
      </trkpt>
      <trkpt lat="47.2774" lon="6.03634">
        <ele>378.2</ele>
        <time>2021-10-13T09:07:00Z</time>
      </trkpt>
      <trkpt lat="47.27741" lon="6.03632">
        <ele>378.2</ele>
        <time>2021-10-13T09:07:01Z</time>
      </trkpt>
      <trkpt lat="47.27743" lon="6.03631">
        <ele>378.4</ele>
        <time>2021-10-13T09:07:02Z</time>
      </trkpt>
      <trkpt lat="47.27744" lon="6.03631">
        <ele>378.4</ele>
        <time>2021-10-13T09:07:03Z</time>
      </trkpt>
      <trkpt lat="47.27744" lon="6.03631">
        <ele>378.6</ele>
        <time>2021-10-13T09:07:04Z</time>
      </trkpt>
      <trkpt lat="47.27745" lon="6.03632">
        <ele>378.8</ele>
        <time>2021-10-13T09:07:05Z</time>
      </trkpt>
      <trkpt lat="47.27745" lon="6.03632">
        <ele>379</ele>
        <time>2021-10-13T09:07:06Z</time>
      </trkpt>
      <trkpt lat="47.27745" lon="6.03632">
        <ele>379.2</ele>
        <time>2021-10-13T09:07:07Z</time>
      </trkpt>
      <trkpt lat="47.27745" lon="6.03631">
        <ele>379.4</ele>
        <time>2021-10-13T09:07:09Z</time>
      </trkpt>
      <trkpt lat="47.27747" lon="6.03623">
        <ele>379.4</ele>
        <time>2021-10-13T09:07:16Z</time>
      </trkpt>
      <trkpt lat="47.27748" lon="6.03621">
        <ele>379.4</ele>
        <time>2021-10-13T09:07:17Z</time>
      </trkpt>
      <trkpt lat="47.27749" lon="6.03618">
        <ele>379.4</ele>
        <time>2021-10-13T09:07:18Z</time>
      </trkpt>
      <trkpt lat="47.27754" lon="6.03609">
        <ele>379.4</ele>
        <time>2021-10-13T09:07:21Z</time>
      </trkpt>
      <trkpt lat="47.27757" lon="6.03603">
        <ele>379.2</ele>
        <time>2021-10-13T09:07:23Z</time>
      </trkpt>
      <trkpt lat="47.2776" lon="6.03598">
        <ele>379.2</ele>
        <time>2021-10-13T09:07:24Z</time>
      </trkpt>
      <trkpt lat="47.27762" lon="6.03593">
        <ele>379.2</ele>
        <time>2021-10-13T09:07:25Z</time>
      </trkpt>
      <trkpt lat="47.27777" lon="6.03555">
        <ele>378.4</ele>
        <time>2021-10-13T09:07:30Z</time>
      </trkpt>
      <trkpt lat="47.27788" lon="6.03533">
        <ele>378</ele>
        <time>2021-10-13T09:07:32Z</time>
      </trkpt>
      <trkpt lat="47.27794" lon="6.03519">
        <ele>377.2</ele>
        <time>2021-10-13T09:07:33Z</time>
      </trkpt>
      <trkpt lat="47.27799" lon="6.03504">
        <ele>376.8</ele>
        <time>2021-10-13T09:07:34Z</time>
      </trkpt>
      <trkpt lat="47.27811" lon="6.03476">
        <ele>375.6</ele>
        <time>2021-10-13T09:07:36Z</time>
      </trkpt>
      <trkpt lat="47.27817" lon="6.03462">
        <ele>372.8</ele>
        <time>2021-10-13T09:07:37Z</time>
      </trkpt>
      <trkpt lat="47.27821" lon="6.0345">
        <ele>371.8</ele>
        <time>2021-10-13T09:07:38Z</time>
      </trkpt>
      <trkpt lat="47.27826" lon="6.0344">
        <ele>369.2</ele>
        <time>2021-10-13T09:07:39Z</time>
      </trkpt>
      <trkpt lat="47.27831" lon="6.03431">
        <ele>368.2</ele>
        <time>2021-10-13T09:07:40Z</time>
      </trkpt>
      <trkpt lat="47.27835" lon="6.03424">
        <ele>367.2</ele>
        <time>2021-10-13T09:07:41Z</time>
      </trkpt>
      <trkpt lat="47.27838" lon="6.03416">
        <ele>367</ele>
        <time>2021-10-13T09:07:42Z</time>
      </trkpt>
      <trkpt lat="47.27841" lon="6.03409">
        <ele>366.6</ele>
        <time>2021-10-13T09:07:43Z</time>
      </trkpt>
      <trkpt lat="47.27845" lon="6.03403">
        <ele>366.6</ele>
        <time>2021-10-13T09:07:44Z</time>
      </trkpt>
      <trkpt lat="47.27848" lon="6.03398">
        <ele>366.6</ele>
        <time>2021-10-13T09:07:45Z</time>
      </trkpt>
      <trkpt lat="47.27851" lon="6.03393">
        <ele>366.6</ele>
        <time>2021-10-13T09:07:46Z</time>
      </trkpt>
      <trkpt lat="47.27853" lon="6.03388">
        <ele>366.6</ele>
        <time>2021-10-13T09:07:47Z</time>
      </trkpt>
      <trkpt lat="47.27855" lon="6.03383">
        <ele>366.6</ele>
        <time>2021-10-13T09:07:48Z</time>
      </trkpt>
      <trkpt lat="47.27858" lon="6.03378">
        <ele>366.8</ele>
        <time>2021-10-13T09:07:49Z</time>
      </trkpt>
      <trkpt lat="47.2786" lon="6.03374">
        <ele>367</ele>
        <time>2021-10-13T09:07:50Z</time>
      </trkpt>
      <trkpt lat="47.27862" lon="6.03369">
        <ele>367</ele>
        <time>2021-10-13T09:07:51Z</time>
      </trkpt>
      <trkpt lat="47.27865" lon="6.03364">
        <ele>367.2</ele>
        <time>2021-10-13T09:07:52Z</time>
      </trkpt>
      <trkpt lat="47.27872" lon="6.03349">
        <ele>367.2</ele>
        <time>2021-10-13T09:07:55Z</time>
      </trkpt>
      <trkpt lat="47.27874" lon="6.03344">
        <ele>367.2</ele>
        <time>2021-10-13T09:07:56Z</time>
      </trkpt>
      <trkpt lat="47.27876" lon="6.0334">
        <ele>367.2</ele>
        <time>2021-10-13T09:07:57Z</time>
      </trkpt>
      <trkpt lat="47.27879" lon="6.03333">
        <ele>367</ele>
        <time>2021-10-13T09:07:59Z</time>
      </trkpt>
      <trkpt lat="47.27881" lon="6.0333">
        <ele>366.8</ele>
        <time>2021-10-13T09:08:00Z</time>
      </trkpt>
      <trkpt lat="47.27882" lon="6.03327">
        <ele>366.8</ele>
        <time>2021-10-13T09:08:01Z</time>
      </trkpt>
      <trkpt lat="47.27884" lon="6.03324">
        <ele>366.6</ele>
        <time>2021-10-13T09:08:02Z</time>
      </trkpt>
      <trkpt lat="47.27894" lon="6.03306">
        <ele>366.2</ele>
        <time>2021-10-13T09:08:07Z</time>
      </trkpt>
      <trkpt lat="47.2791" lon="6.03272">
        <ele>365.6</ele>
        <time>2021-10-13T09:08:15Z</time>
      </trkpt>
      <trkpt lat="47.27925" lon="6.03244">
        <ele>365.2</ele>
        <time>2021-10-13T09:08:20Z</time>
      </trkpt>
      <trkpt lat="47.27938" lon="6.03217">
        <ele>364</ele>
        <time>2021-10-13T09:08:24Z</time>
      </trkpt>
      <trkpt lat="47.27943" lon="6.03202">
        <ele>363.6</ele>
        <time>2021-10-13T09:08:26Z</time>
      </trkpt>
      <trkpt lat="47.27946" lon="6.03195">
        <ele>363.2</ele>
        <time>2021-10-13T09:08:27Z</time>
      </trkpt>
      <trkpt lat="47.2795" lon="6.03189">
        <ele>363</ele>
        <time>2021-10-13T09:08:28Z</time>
      </trkpt>
      <trkpt lat="47.27953" lon="6.03183">
        <ele>362.8</ele>
        <time>2021-10-13T09:08:29Z</time>
      </trkpt>
      <trkpt lat="47.27958" lon="6.03179">
        <ele>362.8</ele>
        <time>2021-10-13T09:08:30Z</time>
      </trkpt>
      <trkpt lat="47.27962" lon="6.03177">
        <ele>362.6</ele>
        <time>2021-10-13T09:08:31Z</time>
      </trkpt>
      <trkpt lat="47.27967" lon="6.03176">
        <ele>362.6</ele>
        <time>2021-10-13T09:08:32Z</time>
      </trkpt>
      <trkpt lat="47.27971" lon="6.03174">
        <ele>362.4</ele>
        <time>2021-10-13T09:08:33Z</time>
      </trkpt>
      <trkpt lat="47.27976" lon="6.03173">
        <ele>362.2</ele>
        <time>2021-10-13T09:08:34Z</time>
      </trkpt>
      <trkpt lat="47.27979" lon="6.03172">
        <ele>362.2</ele>
        <time>2021-10-13T09:08:35Z</time>
      </trkpt>
      <trkpt lat="47.27983" lon="6.03172">
        <ele>362</ele>
        <time>2021-10-13T09:08:36Z</time>
      </trkpt>
      <trkpt lat="47.27988" lon="6.03172">
        <ele>362</ele>
        <time>2021-10-13T09:08:37Z</time>
      </trkpt>
      <trkpt lat="47.27993" lon="6.03172">
        <ele>361.8</ele>
        <time>2021-10-13T09:08:38Z</time>
      </trkpt>
      <trkpt lat="47.28003" lon="6.03171">
        <ele>361.6</ele>
        <time>2021-10-13T09:08:40Z</time>
      </trkpt>
      <trkpt lat="47.2803" lon="6.03169">
        <ele>360.8</ele>
        <time>2021-10-13T09:08:45Z</time>
      </trkpt>
      <trkpt lat="47.28041" lon="6.03168">
        <ele>360.6</ele>
        <time>2021-10-13T09:08:47Z</time>
      </trkpt>
      <trkpt lat="47.28047" lon="6.03167">
        <ele>360.4</ele>
        <time>2021-10-13T09:08:48Z</time>
      </trkpt>
      <trkpt lat="47.28075" lon="6.03158">
        <ele>359.6</ele>
        <time>2021-10-13T09:08:53Z</time>
      </trkpt>
      <trkpt lat="47.28086" lon="6.03154">
        <ele>359.2</ele>
        <time>2021-10-13T09:08:55Z</time>
      </trkpt>
      <trkpt lat="47.28096" lon="6.0315">
        <ele>359</ele>
        <time>2021-10-13T09:08:57Z</time>
      </trkpt>
      <trkpt lat="47.28105" lon="6.03145">
        <ele>359</ele>
        <time>2021-10-13T09:08:59Z</time>
      </trkpt>
      <trkpt lat="47.2811" lon="6.03143">
        <ele>358.8</ele>
        <time>2021-10-13T09:09:00Z</time>
      </trkpt>
      <trkpt lat="47.28114" lon="6.03141">
        <ele>358.8</ele>
        <time>2021-10-13T09:09:01Z</time>
      </trkpt>
      <trkpt lat="47.28118" lon="6.03139">
        <ele>358.6</ele>
        <time>2021-10-13T09:09:02Z</time>
      </trkpt>
      <trkpt lat="47.28122" lon="6.03137">
        <ele>358.4</ele>
        <time>2021-10-13T09:09:03Z</time>
      </trkpt>
      <trkpt lat="47.28138" lon="6.03132">
        <ele>358.4</ele>
        <time>2021-10-13T09:09:07Z</time>
      </trkpt>
      <trkpt lat="47.28142" lon="6.03131">
        <ele>358.6</ele>
        <time>2021-10-13T09:09:08Z</time>
      </trkpt>
      <trkpt lat="47.28146" lon="6.0313">
        <ele>358.6</ele>
        <time>2021-10-13T09:09:09Z</time>
      </trkpt>
      <trkpt lat="47.28151" lon="6.03129">
        <ele>358.6</ele>
        <time>2021-10-13T09:09:10Z</time>
      </trkpt>
      <trkpt lat="47.28163" lon="6.03125">
        <ele>358.8</ele>
        <time>2021-10-13T09:09:13Z</time>
      </trkpt>
      <trkpt lat="47.28167" lon="6.03124">
        <ele>358.8</ele>
        <time>2021-10-13T09:09:14Z</time>
      </trkpt>
      <trkpt lat="47.28171" lon="6.03123">
        <ele>359</ele>
        <time>2021-10-13T09:09:15Z</time>
      </trkpt>
      <trkpt lat="47.28174" lon="6.03121">
        <ele>359</ele>
        <time>2021-10-13T09:09:16Z</time>
      </trkpt>
      <trkpt lat="47.28177" lon="6.0312">
        <ele>359.4</ele>
        <time>2021-10-13T09:09:17Z</time>
      </trkpt>
      <trkpt lat="47.2818" lon="6.03119">
        <ele>359.4</ele>
        <time>2021-10-13T09:09:18Z</time>
      </trkpt>
      <trkpt lat="47.28183" lon="6.03119">
        <ele>359.6</ele>
        <time>2021-10-13T09:09:19Z</time>
      </trkpt>
      <trkpt lat="47.28186" lon="6.03118">
        <ele>359.8</ele>
        <time>2021-10-13T09:09:20Z</time>
      </trkpt>
      <trkpt lat="47.28189" lon="6.03118">
        <ele>360.2</ele>
        <time>2021-10-13T09:09:21Z</time>
      </trkpt>
      <trkpt lat="47.28191" lon="6.03117">
        <ele>360.2</ele>
        <time>2021-10-13T09:09:22Z</time>
      </trkpt>
      <trkpt lat="47.28194" lon="6.03117">
        <ele>360.4</ele>
        <time>2021-10-13T09:09:23Z</time>
      </trkpt>
      <trkpt lat="47.28197" lon="6.03117">
        <ele>360.6</ele>
        <time>2021-10-13T09:09:24Z</time>
      </trkpt>
      <trkpt lat="47.28199" lon="6.03116">
        <ele>360.8</ele>
        <time>2021-10-13T09:09:25Z</time>
      </trkpt>
      <trkpt lat="47.28201" lon="6.03116">
        <ele>361</ele>
        <time>2021-10-13T09:09:26Z</time>
      </trkpt>
      <trkpt lat="47.28204" lon="6.03116">
        <ele>361.2</ele>
        <time>2021-10-13T09:09:27Z</time>
      </trkpt>
      <trkpt lat="47.28207" lon="6.03115">
        <ele>361.2</ele>
        <time>2021-10-13T09:09:28Z</time>
      </trkpt>
      <trkpt lat="47.2821" lon="6.03115">
        <ele>361.4</ele>
        <time>2021-10-13T09:09:29Z</time>
      </trkpt>
      <trkpt lat="47.28213" lon="6.03115">
        <ele>361.6</ele>
        <time>2021-10-13T09:09:30Z</time>
      </trkpt>
      <trkpt lat="47.28217" lon="6.03114">
        <ele>361.6</ele>
        <time>2021-10-13T09:09:31Z</time>
      </trkpt>
      <trkpt lat="47.28228" lon="6.03113">
        <ele>361.8</ele>
        <time>2021-10-13T09:09:34Z</time>
      </trkpt>
      <trkpt lat="47.28232" lon="6.03112">
        <ele>361.8</ele>
        <time>2021-10-13T09:09:35Z</time>
      </trkpt>
      <trkpt lat="47.28237" lon="6.03112">
        <ele>361.8</ele>
        <time>2021-10-13T09:09:36Z</time>
      </trkpt>
      <trkpt lat="47.28241" lon="6.03111">
        <ele>361.8</ele>
        <time>2021-10-13T09:09:37Z</time>
      </trkpt>
      <trkpt lat="47.28246" lon="6.0311">
        <ele>361.8</ele>
        <time>2021-10-13T09:09:38Z</time>
      </trkpt>
      <trkpt lat="47.28251" lon="6.03108">
        <ele>361.8</ele>
        <time>2021-10-13T09:09:39Z</time>
      </trkpt>
      <trkpt lat="47.28257" lon="6.03107">
        <ele>361.6</ele>
        <time>2021-10-13T09:09:40Z</time>
      </trkpt>
      <trkpt lat="47.28262" lon="6.03105">
        <ele>361.6</ele>
        <time>2021-10-13T09:09:41Z</time>
      </trkpt>
      <trkpt lat="47.28273" lon="6.03103">
        <ele>361.2</ele>
        <time>2021-10-13T09:09:43Z</time>
      </trkpt>
      <trkpt lat="47.28289" lon="6.03101">
        <ele>360.8</ele>
        <time>2021-10-13T09:09:46Z</time>
      </trkpt>
      <trkpt lat="47.28309" lon="6.031">
        <ele>360.8</ele>
        <time>2021-10-13T09:09:50Z</time>
      </trkpt>
      <trkpt lat="47.28314" lon="6.03099">
        <ele>360.8</ele>
        <time>2021-10-13T09:09:51Z</time>
      </trkpt>
      <trkpt lat="47.28318" lon="6.03098">
        <ele>360.8</ele>
        <time>2021-10-13T09:09:52Z</time>
      </trkpt>
      <trkpt lat="47.28323" lon="6.03098">
        <ele>360.8</ele>
        <time>2021-10-13T09:09:53Z</time>
      </trkpt>
      <trkpt lat="47.28327" lon="6.03097">
        <ele>360.8</ele>
        <time>2021-10-13T09:09:54Z</time>
      </trkpt>
      <trkpt lat="47.28334" lon="6.03096">
        <ele>361.2</ele>
        <time>2021-10-13T09:09:56Z</time>
      </trkpt>
      <trkpt lat="47.28338" lon="6.03096">
        <ele>361.2</ele>
        <time>2021-10-13T09:09:57Z</time>
      </trkpt>
      <trkpt lat="47.28341" lon="6.03095">
        <ele>361.4</ele>
        <time>2021-10-13T09:09:58Z</time>
      </trkpt>
      <trkpt lat="47.28344" lon="6.03095">
        <ele>361.6</ele>
        <time>2021-10-13T09:09:59Z</time>
      </trkpt>
      <trkpt lat="47.28347" lon="6.03094">
        <ele>361.6</ele>
        <time>2021-10-13T09:10:00Z</time>
      </trkpt>
      <trkpt lat="47.2835" lon="6.03094">
        <ele>361.8</ele>
        <time>2021-10-13T09:10:01Z</time>
      </trkpt>
      <trkpt lat="47.28353" lon="6.03093">
        <ele>361.8</ele>
        <time>2021-10-13T09:10:02Z</time>
      </trkpt>
      <trkpt lat="47.28357" lon="6.03092">
        <ele>362</ele>
        <time>2021-10-13T09:10:03Z</time>
      </trkpt>
      <trkpt lat="47.28375" lon="6.03087">
        <ele>362.4</ele>
        <time>2021-10-13T09:10:08Z</time>
      </trkpt>
      <trkpt lat="47.28379" lon="6.03085">
        <ele>362.4</ele>
        <time>2021-10-13T09:10:09Z</time>
      </trkpt>
      <trkpt lat="47.28383" lon="6.03084">
        <ele>362.4</ele>
        <time>2021-10-13T09:10:10Z</time>
      </trkpt>
      <trkpt lat="47.28407" lon="6.03082">
        <ele>362.6</ele>
        <time>2021-10-13T09:10:16Z</time>
      </trkpt>
      <trkpt lat="47.28426" lon="6.03078">
        <ele>362.8</ele>
        <time>2021-10-13T09:10:21Z</time>
      </trkpt>
      <trkpt lat="47.28437" lon="6.03075">
        <ele>363.4</ele>
        <time>2021-10-13T09:10:24Z</time>
      </trkpt>
      <trkpt lat="47.28444" lon="6.03074">
        <ele>363.6</ele>
        <time>2021-10-13T09:10:26Z</time>
      </trkpt>
      <trkpt lat="47.28447" lon="6.03073">
        <ele>363.6</ele>
        <time>2021-10-13T09:10:27Z</time>
      </trkpt>
      <trkpt lat="47.28449" lon="6.03073">
        <ele>363.8</ele>
        <time>2021-10-13T09:10:28Z</time>
      </trkpt>
      <trkpt lat="47.28452" lon="6.03072">
        <ele>363.8</ele>
        <time>2021-10-13T09:10:29Z</time>
      </trkpt>
      <trkpt lat="47.28455" lon="6.03071">
        <ele>364</ele>
        <time>2021-10-13T09:10:30Z</time>
      </trkpt>
      <trkpt lat="47.2846" lon="6.0307">
        <ele>364.4</ele>
        <time>2021-10-13T09:10:32Z</time>
      </trkpt>
      <trkpt lat="47.28463" lon="6.03068">
        <ele>364.4</ele>
        <time>2021-10-13T09:10:33Z</time>
      </trkpt>
      <trkpt lat="47.28466" lon="6.03067">
        <ele>364.6</ele>
        <time>2021-10-13T09:10:34Z</time>
      </trkpt>
      <trkpt lat="47.28469" lon="6.03066">
        <ele>365</ele>
        <time>2021-10-13T09:10:35Z</time>
      </trkpt>
      <trkpt lat="47.28471" lon="6.03064">
        <ele>365.2</ele>
        <time>2021-10-13T09:10:36Z</time>
      </trkpt>
      <trkpt lat="47.28477" lon="6.03061">
        <ele>365.4</ele>
        <time>2021-10-13T09:10:38Z</time>
      </trkpt>
      <trkpt lat="47.2848" lon="6.0306">
        <ele>365.6</ele>
        <time>2021-10-13T09:10:39Z</time>
      </trkpt>
      <trkpt lat="47.28482" lon="6.0306">
        <ele>365.6</ele>
        <time>2021-10-13T09:10:40Z</time>
      </trkpt>
      <trkpt lat="47.28485" lon="6.03058">
        <ele>366</ele>
        <time>2021-10-13T09:10:41Z</time>
      </trkpt>
      <trkpt lat="47.28487" lon="6.03055">
        <ele>366.2</ele>
        <time>2021-10-13T09:10:42Z</time>
      </trkpt>
      <trkpt lat="47.28491" lon="6.03053">
        <ele>366.4</ele>
        <time>2021-10-13T09:10:43Z</time>
      </trkpt>
      <trkpt lat="47.28494" lon="6.03051">
        <ele>366.6</ele>
        <time>2021-10-13T09:10:44Z</time>
      </trkpt>
      <trkpt lat="47.28496" lon="6.03048">
        <ele>366.6</ele>
        <time>2021-10-13T09:10:45Z</time>
      </trkpt>
      <trkpt lat="47.285" lon="6.03046">
        <ele>366.8</ele>
        <time>2021-10-13T09:10:46Z</time>
      </trkpt>
      <trkpt lat="47.28503" lon="6.03044">
        <ele>366.8</ele>
        <time>2021-10-13T09:10:47Z</time>
      </trkpt>
      <trkpt lat="47.28507" lon="6.03042">
        <ele>367</ele>
        <time>2021-10-13T09:10:48Z</time>
      </trkpt>
      <trkpt lat="47.2851" lon="6.0304">
        <ele>367</ele>
        <time>2021-10-13T09:10:49Z</time>
      </trkpt>
      <trkpt lat="47.28513" lon="6.03037">
        <ele>367</ele>
        <time>2021-10-13T09:10:50Z</time>
      </trkpt>
      <trkpt lat="47.28515" lon="6.03034">
        <ele>367.2</ele>
        <time>2021-10-13T09:10:51Z</time>
      </trkpt>
      <trkpt lat="47.28519" lon="6.03033">
        <ele>367.4</ele>
        <time>2021-10-13T09:10:52Z</time>
      </trkpt>
      <trkpt lat="47.28522" lon="6.03032">
        <ele>367.4</ele>
        <time>2021-10-13T09:10:53Z</time>
      </trkpt>
      <trkpt lat="47.28525" lon="6.0303">
        <ele>367.4</ele>
        <time>2021-10-13T09:10:54Z</time>
      </trkpt>
      <trkpt lat="47.28528" lon="6.03028">
        <ele>367.4</ele>
        <time>2021-10-13T09:10:55Z</time>
      </trkpt>
      <trkpt lat="47.28532" lon="6.03026">
        <ele>367.6</ele>
        <time>2021-10-13T09:10:56Z</time>
      </trkpt>
      <trkpt lat="47.28536" lon="6.03026">
        <ele>367.6</ele>
        <time>2021-10-13T09:10:57Z</time>
      </trkpt>
      <trkpt lat="47.28539" lon="6.03025">
        <ele>367.4</ele>
        <time>2021-10-13T09:10:58Z</time>
      </trkpt>
      <trkpt lat="47.28542" lon="6.03025">
        <ele>367.4</ele>
        <time>2021-10-13T09:10:59Z</time>
      </trkpt>
      <trkpt lat="47.28546" lon="6.03025">
        <ele>367.4</ele>
        <time>2021-10-13T09:11:00Z</time>
      </trkpt>
      <trkpt lat="47.2855" lon="6.03025">
        <ele>367.4</ele>
        <time>2021-10-13T09:11:01Z</time>
      </trkpt>
      <trkpt lat="47.28555" lon="6.03026">
        <ele>367.4</ele>
        <time>2021-10-13T09:11:02Z</time>
      </trkpt>
      <trkpt lat="47.28561" lon="6.03026">
        <ele>367.4</ele>
        <time>2021-10-13T09:11:03Z</time>
      </trkpt>
      <trkpt lat="47.28566" lon="6.03027">
        <ele>367.4</ele>
        <time>2021-10-13T09:11:04Z</time>
      </trkpt>
      <trkpt lat="47.28577" lon="6.03025">
        <ele>367.4</ele>
        <time>2021-10-13T09:11:07Z</time>
      </trkpt>
      <trkpt lat="47.2858" lon="6.03024">
        <ele>367.4</ele>
        <time>2021-10-13T09:11:08Z</time>
      </trkpt>
      <trkpt lat="47.28584" lon="6.03025">
        <ele>367.4</ele>
        <time>2021-10-13T09:11:09Z</time>
      </trkpt>
      <trkpt lat="47.28603" lon="6.03027">
        <ele>367.2</ele>
        <time>2021-10-13T09:11:14Z</time>
      </trkpt>
      <trkpt lat="47.28607" lon="6.03028">
        <ele>367.2</ele>
        <time>2021-10-13T09:11:15Z</time>
      </trkpt>
      <trkpt lat="47.2861" lon="6.03028">
        <ele>367.2</ele>
        <time>2021-10-13T09:11:16Z</time>
      </trkpt>
      <trkpt lat="47.28613" lon="6.03028">
        <ele>367.2</ele>
        <time>2021-10-13T09:11:17Z</time>
      </trkpt>
      <trkpt lat="47.2862" lon="6.03029">
        <ele>367.2</ele>
        <time>2021-10-13T09:11:19Z</time>
      </trkpt>
      <trkpt lat="47.28641" lon="6.03031">
        <ele>367.8</ele>
        <time>2021-10-13T09:11:24Z</time>
      </trkpt>
      <trkpt lat="47.28662" lon="6.03025">
        <ele>368</ele>
        <time>2021-10-13T09:11:30Z</time>
      </trkpt>
      <trkpt lat="47.28668" lon="6.03024">
        <ele>368</ele>
        <time>2021-10-13T09:11:32Z</time>
      </trkpt>
      <trkpt lat="47.28671" lon="6.03023">
        <ele>368.2</ele>
        <time>2021-10-13T09:11:33Z</time>
      </trkpt>
      <trkpt lat="47.28674" lon="6.03022">
        <ele>368.2</ele>
        <time>2021-10-13T09:11:34Z</time>
      </trkpt>
      <trkpt lat="47.28677" lon="6.03021">
        <ele>368.2</ele>
        <time>2021-10-13T09:11:35Z</time>
      </trkpt>
      <trkpt lat="47.28704" lon="6.03014">
        <ele>368.2</ele>
        <time>2021-10-13T09:11:42Z</time>
      </trkpt>
      <trkpt lat="47.28715" lon="6.03012">
        <ele>368</ele>
        <time>2021-10-13T09:11:44Z</time>
      </trkpt>
      <trkpt lat="47.28735" lon="6.03009">
        <ele>367.6</ele>
        <time>2021-10-13T09:11:48Z</time>
      </trkpt>
      <trkpt lat="47.2874" lon="6.03008">
        <ele>367.4</ele>
        <time>2021-10-13T09:11:49Z</time>
      </trkpt>
      <trkpt lat="47.28744" lon="6.03007">
        <ele>367.2</ele>
        <time>2021-10-13T09:11:50Z</time>
      </trkpt>
      <trkpt lat="47.28748" lon="6.03007">
        <ele>367</ele>
        <time>2021-10-13T09:11:51Z</time>
      </trkpt>
      <trkpt lat="47.28753" lon="6.03007">
        <ele>366.8</ele>
        <time>2021-10-13T09:11:52Z</time>
      </trkpt>
      <trkpt lat="47.28757" lon="6.03007">
        <ele>366.8</ele>
        <time>2021-10-13T09:11:53Z</time>
      </trkpt>
      <trkpt lat="47.28761" lon="6.03007">
        <ele>366.8</ele>
        <time>2021-10-13T09:11:54Z</time>
      </trkpt>
      <trkpt lat="47.28764" lon="6.03007">
        <ele>366.8</ele>
        <time>2021-10-13T09:11:55Z</time>
      </trkpt>
      <trkpt lat="47.28771" lon="6.03006">
        <ele>366.8</ele>
        <time>2021-10-13T09:11:57Z</time>
      </trkpt>
      <trkpt lat="47.28775" lon="6.03005">
        <ele>366.8</ele>
        <time>2021-10-13T09:11:58Z</time>
      </trkpt>
      <trkpt lat="47.28778" lon="6.03003">
        <ele>367</ele>
        <time>2021-10-13T09:11:59Z</time>
      </trkpt>
      <trkpt lat="47.28788" lon="6.03">
        <ele>367.2</ele>
        <time>2021-10-13T09:12:02Z</time>
      </trkpt>
      <trkpt lat="47.28792" lon="6.03">
        <ele>367.4</ele>
        <time>2021-10-13T09:12:03Z</time>
      </trkpt>
      <trkpt lat="47.28796" lon="6.03">
        <ele>367.4</ele>
        <time>2021-10-13T09:12:04Z</time>
      </trkpt>
      <trkpt lat="47.28799" lon="6.03">
        <ele>367.6</ele>
        <time>2021-10-13T09:12:05Z</time>
      </trkpt>
      <trkpt lat="47.28803" lon="6.02999">
        <ele>367.8</ele>
        <time>2021-10-13T09:12:06Z</time>
      </trkpt>
      <trkpt lat="47.28806" lon="6.02999">
        <ele>368</ele>
        <time>2021-10-13T09:12:07Z</time>
      </trkpt>
      <trkpt lat="47.2881" lon="6.02999">
        <ele>368.2</ele>
        <time>2021-10-13T09:12:08Z</time>
      </trkpt>
      <trkpt lat="47.28813" lon="6.02999">
        <ele>368.6</ele>
        <time>2021-10-13T09:12:09Z</time>
      </trkpt>
      <trkpt lat="47.28817" lon="6.03">
        <ele>369</ele>
        <time>2021-10-13T09:12:10Z</time>
      </trkpt>
      <trkpt lat="47.2882" lon="6.03">
        <ele>369</ele>
        <time>2021-10-13T09:12:11Z</time>
      </trkpt>
      <trkpt lat="47.28823" lon="6.03">
        <ele>369.4</ele>
        <time>2021-10-13T09:12:12Z</time>
      </trkpt>
      <trkpt lat="47.28827" lon="6.03">
        <ele>369.4</ele>
        <time>2021-10-13T09:12:13Z</time>
      </trkpt>
      <trkpt lat="47.2883" lon="6.03">
        <ele>369.8</ele>
        <time>2021-10-13T09:12:14Z</time>
      </trkpt>
      <trkpt lat="47.28846" lon="6.02995">
        <ele>370.4</ele>
        <time>2021-10-13T09:12:19Z</time>
      </trkpt>
      <trkpt lat="47.28849" lon="6.02995">
        <ele>370.4</ele>
        <time>2021-10-13T09:12:20Z</time>
      </trkpt>
      <trkpt lat="47.28853" lon="6.02995">
        <ele>370.4</ele>
        <time>2021-10-13T09:12:21Z</time>
      </trkpt>
      <trkpt lat="47.28856" lon="6.02995">
        <ele>370.4</ele>
        <time>2021-10-13T09:12:22Z</time>
      </trkpt>
      <trkpt lat="47.2886" lon="6.02995">
        <ele>370.4</ele>
        <time>2021-10-13T09:12:23Z</time>
      </trkpt>
      <trkpt lat="47.28864" lon="6.02996">
        <ele>370.4</ele>
        <time>2021-10-13T09:12:24Z</time>
      </trkpt>
      <trkpt lat="47.28868" lon="6.02996">
        <ele>370.4</ele>
        <time>2021-10-13T09:12:25Z</time>
      </trkpt>
      <trkpt lat="47.28872" lon="6.02997">
        <ele>370.4</ele>
        <time>2021-10-13T09:12:26Z</time>
      </trkpt>
      <trkpt lat="47.28875" lon="6.02997">
        <ele>370.4</ele>
        <time>2021-10-13T09:12:27Z</time>
      </trkpt>
      <trkpt lat="47.28879" lon="6.02997">
        <ele>370.2</ele>
        <time>2021-10-13T09:12:28Z</time>
      </trkpt>
      <trkpt lat="47.28883" lon="6.02997">
        <ele>370</ele>
        <time>2021-10-13T09:12:29Z</time>
      </trkpt>
      <trkpt lat="47.28887" lon="6.02997">
        <ele>370</ele>
        <time>2021-10-13T09:12:30Z</time>
      </trkpt>
      <trkpt lat="47.28892" lon="6.02996">
        <ele>370</ele>
        <time>2021-10-13T09:12:31Z</time>
      </trkpt>
      <trkpt lat="47.28913" lon="6.02984">
        <ele>369.8</ele>
        <time>2021-10-13T09:12:37Z</time>
      </trkpt>
      <trkpt lat="47.28916" lon="6.02981">
        <ele>369.8</ele>
        <time>2021-10-13T09:12:38Z</time>
      </trkpt>
      <trkpt lat="47.28919" lon="6.02978">
        <ele>369.8</ele>
        <time>2021-10-13T09:12:39Z</time>
      </trkpt>
      <trkpt lat="47.28922" lon="6.02974">
        <ele>370</ele>
        <time>2021-10-13T09:12:40Z</time>
      </trkpt>
      <trkpt lat="47.28924" lon="6.02972">
        <ele>370</ele>
        <time>2021-10-13T09:12:41Z</time>
      </trkpt>
      <trkpt lat="47.28928" lon="6.0297">
        <ele>370.2</ele>
        <time>2021-10-13T09:12:43Z</time>
      </trkpt>
      <trkpt lat="47.28933" lon="6.02968">
        <ele>370.4</ele>
        <time>2021-10-13T09:12:44Z</time>
      </trkpt>
      <trkpt lat="47.28935" lon="6.02966">
        <ele>370.6</ele>
        <time>2021-10-13T09:12:45Z</time>
      </trkpt>
      <trkpt lat="47.28937" lon="6.02964">
        <ele>370.8</ele>
        <time>2021-10-13T09:12:46Z</time>
      </trkpt>
      <trkpt lat="47.2894" lon="6.02963">
        <ele>370.8</ele>
        <time>2021-10-13T09:12:47Z</time>
      </trkpt>
      <trkpt lat="47.28943" lon="6.02962">
        <ele>371.2</ele>
        <time>2021-10-13T09:12:48Z</time>
      </trkpt>
      <trkpt lat="47.28946" lon="6.0296">
        <ele>371.2</ele>
        <time>2021-10-13T09:12:49Z</time>
      </trkpt>
      <trkpt lat="47.28949" lon="6.02961">
        <ele>371.4</ele>
        <time>2021-10-13T09:12:50Z</time>
      </trkpt>
      <trkpt lat="47.28953" lon="6.02961">
        <ele>371.6</ele>
        <time>2021-10-13T09:12:51Z</time>
      </trkpt>
      <trkpt lat="47.28957" lon="6.02961">
        <ele>371.8</ele>
        <time>2021-10-13T09:12:52Z</time>
      </trkpt>
      <trkpt lat="47.28962" lon="6.02961">
        <ele>372</ele>
        <time>2021-10-13T09:12:53Z</time>
      </trkpt>
      <trkpt lat="47.28966" lon="6.02962">
        <ele>372</ele>
        <time>2021-10-13T09:12:54Z</time>
      </trkpt>
      <trkpt lat="47.28969" lon="6.02962">
        <ele>372.4</ele>
        <time>2021-10-13T09:12:55Z</time>
      </trkpt>
      <trkpt lat="47.28972" lon="6.02962">
        <ele>372.4</ele>
        <time>2021-10-13T09:12:56Z</time>
      </trkpt>
      <trkpt lat="47.2898" lon="6.02961">
        <ele>372.8</ele>
        <time>2021-10-13T09:12:59Z</time>
      </trkpt>
      <trkpt lat="47.28982" lon="6.02959">
        <ele>373</ele>
        <time>2021-10-13T09:13:00Z</time>
      </trkpt>
      <trkpt lat="47.28986" lon="6.02958">
        <ele>373</ele>
        <time>2021-10-13T09:13:01Z</time>
      </trkpt>
      <trkpt lat="47.28989" lon="6.02958">
        <ele>373.2</ele>
        <time>2021-10-13T09:13:02Z</time>
      </trkpt>
      <trkpt lat="47.28992" lon="6.02957">
        <ele>373.4</ele>
        <time>2021-10-13T09:13:03Z</time>
      </trkpt>
      <trkpt lat="47.28995" lon="6.02956">
        <ele>373.4</ele>
        <time>2021-10-13T09:13:04Z</time>
      </trkpt>
      <trkpt lat="47.28997" lon="6.02956">
        <ele>373.6</ele>
        <time>2021-10-13T09:13:05Z</time>
      </trkpt>
      <trkpt lat="47.29" lon="6.02956">
        <ele>373.6</ele>
        <time>2021-10-13T09:13:06Z</time>
      </trkpt>
      <trkpt lat="47.29002" lon="6.02955">
        <ele>373.6</ele>
        <time>2021-10-13T09:13:07Z</time>
      </trkpt>
      <trkpt lat="47.29005" lon="6.02956">
        <ele>373.8</ele>
        <time>2021-10-13T09:13:08Z</time>
      </trkpt>
      <trkpt lat="47.29006" lon="6.02955">
        <ele>373.8</ele>
        <time>2021-10-13T09:13:09Z</time>
      </trkpt>
      <trkpt lat="47.29009" lon="6.02955">
        <ele>374</ele>
        <time>2021-10-13T09:13:10Z</time>
      </trkpt>
      <trkpt lat="47.2901" lon="6.02954">
        <ele>374.2</ele>
        <time>2021-10-13T09:13:11Z</time>
      </trkpt>
      <trkpt lat="47.29012" lon="6.02953">
        <ele>374.6</ele>
        <time>2021-10-13T09:13:12Z</time>
      </trkpt>
      <trkpt lat="47.29013" lon="6.02952">
        <ele>374.6</ele>
        <time>2021-10-13T09:13:13Z</time>
      </trkpt>
      <trkpt lat="47.29015" lon="6.02952">
        <ele>374.8</ele>
        <time>2021-10-13T09:13:14Z</time>
      </trkpt>
      <trkpt lat="47.29017" lon="6.02951">
        <ele>375</ele>
        <time>2021-10-13T09:13:15Z</time>
      </trkpt>
      <trkpt lat="47.2902" lon="6.02951">
        <ele>375.4</ele>
        <time>2021-10-13T09:13:16Z</time>
      </trkpt>
      <trkpt lat="47.29022" lon="6.02951">
        <ele>375.6</ele>
        <time>2021-10-13T09:13:17Z</time>
      </trkpt>
      <trkpt lat="47.29024" lon="6.02951">
        <ele>375.8</ele>
        <time>2021-10-13T09:13:18Z</time>
      </trkpt>
      <trkpt lat="47.29027" lon="6.02951">
        <ele>376</ele>
        <time>2021-10-13T09:13:19Z</time>
      </trkpt>
      <trkpt lat="47.29029" lon="6.02951">
        <ele>376.2</ele>
        <time>2021-10-13T09:13:20Z</time>
      </trkpt>
      <trkpt lat="47.29032" lon="6.02952">
        <ele>376.4</ele>
        <time>2021-10-13T09:13:21Z</time>
      </trkpt>
      <trkpt lat="47.29035" lon="6.02951">
        <ele>376.6</ele>
        <time>2021-10-13T09:13:22Z</time>
      </trkpt>
      <trkpt lat="47.29038" lon="6.02951">
        <ele>377</ele>
        <time>2021-10-13T09:13:23Z</time>
      </trkpt>
      <trkpt lat="47.29041" lon="6.02952">
        <ele>377.2</ele>
        <time>2021-10-13T09:13:24Z</time>
      </trkpt>
      <trkpt lat="47.29044" lon="6.02953">
        <ele>377.4</ele>
        <time>2021-10-13T09:13:25Z</time>
      </trkpt>
      <trkpt lat="47.29047" lon="6.02955">
        <ele>377.4</ele>
        <time>2021-10-13T09:13:26Z</time>
      </trkpt>
      <trkpt lat="47.29049" lon="6.02955">
        <ele>377.6</ele>
        <time>2021-10-13T09:13:27Z</time>
      </trkpt>
      <trkpt lat="47.29051" lon="6.02954">
        <ele>377.6</ele>
        <time>2021-10-13T09:13:28Z</time>
      </trkpt>
      <trkpt lat="47.29054" lon="6.02954">
        <ele>377.8</ele>
        <time>2021-10-13T09:13:29Z</time>
      </trkpt>
      <trkpt lat="47.29057" lon="6.02954">
        <ele>378</ele>
        <time>2021-10-13T09:13:30Z</time>
      </trkpt>
      <trkpt lat="47.29059" lon="6.02954">
        <ele>378</ele>
        <time>2021-10-13T09:13:31Z</time>
      </trkpt>
      <trkpt lat="47.29062" lon="6.02954">
        <ele>378.2</ele>
        <time>2021-10-13T09:13:32Z</time>
      </trkpt>
      <trkpt lat="47.29064" lon="6.02955">
        <ele>378.4</ele>
        <time>2021-10-13T09:13:33Z</time>
      </trkpt>
      <trkpt lat="47.29066" lon="6.02955">
        <ele>378.6</ele>
        <time>2021-10-13T09:13:34Z</time>
      </trkpt>
      <trkpt lat="47.29069" lon="6.02955">
        <ele>378.6</ele>
        <time>2021-10-13T09:13:35Z</time>
      </trkpt>
      <trkpt lat="47.29071" lon="6.02956">
        <ele>378.8</ele>
        <time>2021-10-13T09:13:36Z</time>
      </trkpt>
      <trkpt lat="47.29073" lon="6.02956">
        <ele>379</ele>
        <time>2021-10-13T09:13:37Z</time>
      </trkpt>
      <trkpt lat="47.29075" lon="6.02957">
        <ele>379</ele>
        <time>2021-10-13T09:13:38Z</time>
      </trkpt>
      <trkpt lat="47.29078" lon="6.02958">
        <ele>379.2</ele>
        <time>2021-10-13T09:13:39Z</time>
      </trkpt>
      <trkpt lat="47.29079" lon="6.02958">
        <ele>379.2</ele>
        <time>2021-10-13T09:13:40Z</time>
      </trkpt>
      <trkpt lat="47.2908" lon="6.02958">
        <ele>379.2</ele>
        <time>2021-10-13T09:13:41Z</time>
      </trkpt>
      <trkpt lat="47.29082" lon="6.02959">
        <ele>379.4</ele>
        <time>2021-10-13T09:13:42Z</time>
      </trkpt>
      <trkpt lat="47.29084" lon="6.02959">
        <ele>379.6</ele>
        <time>2021-10-13T09:13:43Z</time>
      </trkpt>
      <trkpt lat="47.29086" lon="6.02959">
        <ele>380</ele>
        <time>2021-10-13T09:13:44Z</time>
      </trkpt>
      <trkpt lat="47.29088" lon="6.0296">
        <ele>380</ele>
        <time>2021-10-13T09:13:45Z</time>
      </trkpt>
      <trkpt lat="47.2909" lon="6.0296">
        <ele>380.2</ele>
        <time>2021-10-13T09:13:46Z</time>
      </trkpt>
      <trkpt lat="47.29092" lon="6.02961">
        <ele>380.6</ele>
        <time>2021-10-13T09:13:47Z</time>
      </trkpt>
      <trkpt lat="47.29094" lon="6.02961">
        <ele>380.6</ele>
        <time>2021-10-13T09:13:48Z</time>
      </trkpt>
      <trkpt lat="47.29096" lon="6.02962">
        <ele>380.6</ele>
        <time>2021-10-13T09:13:49Z</time>
      </trkpt>
      <trkpt lat="47.29097" lon="6.02963">
        <ele>380.8</ele>
        <time>2021-10-13T09:13:50Z</time>
      </trkpt>
      <trkpt lat="47.29099" lon="6.02964">
        <ele>381</ele>
        <time>2021-10-13T09:13:51Z</time>
      </trkpt>
      <trkpt lat="47.29102" lon="6.02965">
        <ele>381</ele>
        <time>2021-10-13T09:13:52Z</time>
      </trkpt>
      <trkpt lat="47.29104" lon="6.02965">
        <ele>381.2</ele>
        <time>2021-10-13T09:13:53Z</time>
      </trkpt>
      <trkpt lat="47.29106" lon="6.02965">
        <ele>381.4</ele>
        <time>2021-10-13T09:13:54Z</time>
      </trkpt>
      <trkpt lat="47.29108" lon="6.02965">
        <ele>381.6</ele>
        <time>2021-10-13T09:13:55Z</time>
      </trkpt>
      <trkpt lat="47.2911" lon="6.02965">
        <ele>381.8</ele>
        <time>2021-10-13T09:13:56Z</time>
      </trkpt>
      <trkpt lat="47.29113" lon="6.02967">
        <ele>382</ele>
        <time>2021-10-13T09:13:57Z</time>
      </trkpt>
      <trkpt lat="47.29115" lon="6.02969">
        <ele>382</ele>
        <time>2021-10-13T09:13:58Z</time>
      </trkpt>
      <trkpt lat="47.29117" lon="6.02969">
        <ele>382.2</ele>
        <time>2021-10-13T09:13:59Z</time>
      </trkpt>
      <trkpt lat="47.29119" lon="6.0297">
        <ele>382.2</ele>
        <time>2021-10-13T09:14:00Z</time>
      </trkpt>
      <trkpt lat="47.29121" lon="6.0297">
        <ele>382.6</ele>
        <time>2021-10-13T09:14:01Z</time>
      </trkpt>
      <trkpt lat="47.29124" lon="6.0297">
        <ele>382.8</ele>
        <time>2021-10-13T09:14:02Z</time>
      </trkpt>
      <trkpt lat="47.29127" lon="6.02971">
        <ele>383</ele>
        <time>2021-10-13T09:14:03Z</time>
      </trkpt>
      <trkpt lat="47.29129" lon="6.02972">
        <ele>383.2</ele>
        <time>2021-10-13T09:14:04Z</time>
      </trkpt>
      <trkpt lat="47.29132" lon="6.02972">
        <ele>383.2</ele>
        <time>2021-10-13T09:14:05Z</time>
      </trkpt>
      <trkpt lat="47.29135" lon="6.02973">
        <ele>383.4</ele>
        <time>2021-10-13T09:14:06Z</time>
      </trkpt>
      <trkpt lat="47.29137" lon="6.02973">
        <ele>383.4</ele>
        <time>2021-10-13T09:14:07Z</time>
      </trkpt>
      <trkpt lat="47.29139" lon="6.02973">
        <ele>383.6</ele>
        <time>2021-10-13T09:14:08Z</time>
      </trkpt>
      <trkpt lat="47.29142" lon="6.02973">
        <ele>383.6</ele>
        <time>2021-10-13T09:14:09Z</time>
      </trkpt>
      <trkpt lat="47.29144" lon="6.02973">
        <ele>383.8</ele>
        <time>2021-10-13T09:14:10Z</time>
      </trkpt>
      <trkpt lat="47.29147" lon="6.02972">
        <ele>383.8</ele>
        <time>2021-10-13T09:14:11Z</time>
      </trkpt>
      <trkpt lat="47.29148" lon="6.02971">
        <ele>384.2</ele>
        <time>2021-10-13T09:14:12Z</time>
      </trkpt>
      <trkpt lat="47.2915" lon="6.0297">
        <ele>384.2</ele>
        <time>2021-10-13T09:14:13Z</time>
      </trkpt>
      <trkpt lat="47.29154" lon="6.02969">
        <ele>384.4</ele>
        <time>2021-10-13T09:14:14Z</time>
      </trkpt>
      <trkpt lat="47.29157" lon="6.02969">
        <ele>384.4</ele>
        <time>2021-10-13T09:14:15Z</time>
      </trkpt>
      <trkpt lat="47.2916" lon="6.02967">
        <ele>384.4</ele>
        <time>2021-10-13T09:14:16Z</time>
      </trkpt>
      <trkpt lat="47.29161" lon="6.02965">
        <ele>384.6</ele>
        <time>2021-10-13T09:14:17Z</time>
      </trkpt>
      <trkpt lat="47.29163" lon="6.02963">
        <ele>384.8</ele>
        <time>2021-10-13T09:14:18Z</time>
      </trkpt>
      <trkpt lat="47.29166" lon="6.02961">
        <ele>385</ele>
        <time>2021-10-13T09:14:19Z</time>
      </trkpt>
      <trkpt lat="47.2917" lon="6.0296">
        <ele>385</ele>
        <time>2021-10-13T09:14:20Z</time>
      </trkpt>
      <trkpt lat="47.29172" lon="6.0296">
        <ele>385.2</ele>
        <time>2021-10-13T09:14:21Z</time>
      </trkpt>
      <trkpt lat="47.29174" lon="6.02957">
        <ele>385.4</ele>
        <time>2021-10-13T09:14:22Z</time>
      </trkpt>
      <trkpt lat="47.29176" lon="6.02954">
        <ele>385.4</ele>
        <time>2021-10-13T09:14:23Z</time>
      </trkpt>
      <trkpt lat="47.29178" lon="6.02953">
        <ele>385.4</ele>
        <time>2021-10-13T09:14:24Z</time>
      </trkpt>
      <trkpt lat="47.29181" lon="6.0295">
        <ele>385.4</ele>
        <time>2021-10-13T09:14:25Z</time>
      </trkpt>
      <trkpt lat="47.29183" lon="6.02948">
        <ele>385.6</ele>
        <time>2021-10-13T09:14:26Z</time>
      </trkpt>
      <trkpt lat="47.29184" lon="6.02947">
        <ele>385.6</ele>
        <time>2021-10-13T09:14:27Z</time>
      </trkpt>
      <trkpt lat="47.29186" lon="6.02946">
        <ele>385.6</ele>
        <time>2021-10-13T09:14:28Z</time>
      </trkpt>
      <trkpt lat="47.29187" lon="6.02945">
        <ele>385.6</ele>
        <time>2021-10-13T09:14:29Z</time>
      </trkpt>
      <trkpt lat="47.29189" lon="6.02944">
        <ele>385.8</ele>
        <time>2021-10-13T09:14:30Z</time>
      </trkpt>
      <trkpt lat="47.29191" lon="6.02943">
        <ele>386</ele>
        <time>2021-10-13T09:14:31Z</time>
      </trkpt>
      <trkpt lat="47.29193" lon="6.02942">
        <ele>386</ele>
        <time>2021-10-13T09:14:32Z</time>
      </trkpt>
      <trkpt lat="47.29195" lon="6.0294">
        <ele>386.2</ele>
        <time>2021-10-13T09:14:33Z</time>
      </trkpt>
      <trkpt lat="47.29197" lon="6.02938">
        <ele>386.2</ele>
        <time>2021-10-13T09:14:34Z</time>
      </trkpt>
      <trkpt lat="47.29199" lon="6.02937">
        <ele>386.4</ele>
        <time>2021-10-13T09:14:35Z</time>
      </trkpt>
      <trkpt lat="47.29201" lon="6.02936">
        <ele>386.4</ele>
        <time>2021-10-13T09:14:36Z</time>
      </trkpt>
      <trkpt lat="47.29203" lon="6.02934">
        <ele>386.4</ele>
        <time>2021-10-13T09:14:37Z</time>
      </trkpt>
      <trkpt lat="47.29206" lon="6.02933">
        <ele>386.6</ele>
        <time>2021-10-13T09:14:38Z</time>
      </trkpt>
      <trkpt lat="47.29208" lon="6.02931">
        <ele>386.8</ele>
        <time>2021-10-13T09:14:39Z</time>
      </trkpt>
      <trkpt lat="47.29211" lon="6.0293">
        <ele>386.8</ele>
        <time>2021-10-13T09:14:40Z</time>
      </trkpt>
      <trkpt lat="47.2923" lon="6.02919">
        <ele>387.2</ele>
        <time>2021-10-13T09:14:48Z</time>
      </trkpt>
      <trkpt lat="47.29232" lon="6.02917">
        <ele>387.2</ele>
        <time>2021-10-13T09:14:49Z</time>
      </trkpt>
      <trkpt lat="47.29239" lon="6.02914">
        <ele>387.4</ele>
        <time>2021-10-13T09:14:51Z</time>
      </trkpt>
      <trkpt lat="47.29245" lon="6.02911">
        <ele>387.6</ele>
        <time>2021-10-13T09:14:53Z</time>
      </trkpt>
      <trkpt lat="47.29277" lon="6.02901">
        <ele>387.8</ele>
        <time>2021-10-13T09:15:02Z</time>
      </trkpt>
      <trkpt lat="47.29302" lon="6.02898">
        <ele>388</ele>
        <time>2021-10-13T09:15:10Z</time>
      </trkpt>
      <trkpt lat="47.29305" lon="6.02898">
        <ele>388</ele>
        <time>2021-10-13T09:15:11Z</time>
      </trkpt>
      <trkpt lat="47.29307" lon="6.02898">
        <ele>388.2</ele>
        <time>2021-10-13T09:15:12Z</time>
      </trkpt>
      <trkpt lat="47.2931" lon="6.02899">
        <ele>388.2</ele>
        <time>2021-10-13T09:15:13Z</time>
      </trkpt>
      <trkpt lat="47.29322" lon="6.029">
        <ele>388.6</ele>
        <time>2021-10-13T09:15:17Z</time>
      </trkpt>
      <trkpt lat="47.29325" lon="6.029">
        <ele>388.6</ele>
        <time>2021-10-13T09:15:18Z</time>
      </trkpt>
      <trkpt lat="47.29333" lon="6.02901">
        <ele>389.4</ele>
        <time>2021-10-13T09:15:21Z</time>
      </trkpt>
      <trkpt lat="47.29334" lon="6.02902">
        <ele>389.6</ele>
        <time>2021-10-13T09:15:22Z</time>
      </trkpt>
      <trkpt lat="47.29336" lon="6.02902">
        <ele>389.8</ele>
        <time>2021-10-13T09:15:23Z</time>
      </trkpt>
      <trkpt lat="47.29338" lon="6.02902">
        <ele>389.8</ele>
        <time>2021-10-13T09:15:24Z</time>
      </trkpt>
      <trkpt lat="47.2934" lon="6.02902">
        <ele>390</ele>
        <time>2021-10-13T09:15:25Z</time>
      </trkpt>
      <trkpt lat="47.29346" lon="6.02903">
        <ele>390.2</ele>
        <time>2021-10-13T09:15:28Z</time>
      </trkpt>
      <trkpt lat="47.29349" lon="6.02904">
        <ele>390.2</ele>
        <time>2021-10-13T09:15:29Z</time>
      </trkpt>
      <trkpt lat="47.29352" lon="6.02904">
        <ele>390.4</ele>
        <time>2021-10-13T09:15:30Z</time>
      </trkpt>
      <trkpt lat="47.29356" lon="6.02905">
        <ele>390.8</ele>
        <time>2021-10-13T09:15:32Z</time>
      </trkpt>
      <trkpt lat="47.29365" lon="6.02906">
        <ele>391.2</ele>
        <time>2021-10-13T09:15:35Z</time>
      </trkpt>
      <trkpt lat="47.29368" lon="6.02907">
        <ele>391.4</ele>
        <time>2021-10-13T09:15:36Z</time>
      </trkpt>
      <trkpt lat="47.29371" lon="6.02908">
        <ele>391.8</ele>
        <time>2021-10-13T09:15:37Z</time>
      </trkpt>
      <trkpt lat="47.29374" lon="6.02909">
        <ele>392</ele>
        <time>2021-10-13T09:15:38Z</time>
      </trkpt>
      <trkpt lat="47.29377" lon="6.0291">
        <ele>392</ele>
        <time>2021-10-13T09:15:39Z</time>
      </trkpt>
      <trkpt lat="47.2938" lon="6.02911">
        <ele>392.2</ele>
        <time>2021-10-13T09:15:40Z</time>
      </trkpt>
      <trkpt lat="47.29381" lon="6.02912">
        <ele>392.2</ele>
        <time>2021-10-13T09:15:41Z</time>
      </trkpt>
      <trkpt lat="47.29383" lon="6.02912">
        <ele>392.4</ele>
        <time>2021-10-13T09:15:42Z</time>
      </trkpt>
      <trkpt lat="47.29386" lon="6.02914">
        <ele>392.6</ele>
        <time>2021-10-13T09:15:43Z</time>
      </trkpt>
      <trkpt lat="47.29388" lon="6.02915">
        <ele>392.8</ele>
        <time>2021-10-13T09:15:44Z</time>
      </trkpt>
      <trkpt lat="47.29391" lon="6.02916">
        <ele>393</ele>
        <time>2021-10-13T09:15:45Z</time>
      </trkpt>
      <trkpt lat="47.29393" lon="6.02918">
        <ele>393.2</ele>
        <time>2021-10-13T09:15:46Z</time>
      </trkpt>
      <trkpt lat="47.29397" lon="6.02919">
        <ele>393.4</ele>
        <time>2021-10-13T09:15:47Z</time>
      </trkpt>
      <trkpt lat="47.294" lon="6.0292">
        <ele>393.6</ele>
        <time>2021-10-13T09:15:48Z</time>
      </trkpt>
      <trkpt lat="47.29403" lon="6.02922">
        <ele>393.8</ele>
        <time>2021-10-13T09:15:49Z</time>
      </trkpt>
      <trkpt lat="47.29406" lon="6.02924">
        <ele>394</ele>
        <time>2021-10-13T09:15:50Z</time>
      </trkpt>
      <trkpt lat="47.2941" lon="6.02926">
        <ele>394.2</ele>
        <time>2021-10-13T09:15:51Z</time>
      </trkpt>
      <trkpt lat="47.29413" lon="6.02927">
        <ele>394.4</ele>
        <time>2021-10-13T09:15:52Z</time>
      </trkpt>
      <trkpt lat="47.29417" lon="6.02927">
        <ele>394.6</ele>
        <time>2021-10-13T09:15:53Z</time>
      </trkpt>
      <trkpt lat="47.29419" lon="6.02927">
        <ele>394.4</ele>
        <time>2021-10-13T09:15:54Z</time>
      </trkpt>
      <trkpt lat="47.29422" lon="6.02927">
        <ele>394.6</ele>
        <time>2021-10-13T09:15:55Z</time>
      </trkpt>
      <trkpt lat="47.29425" lon="6.02928">
        <ele>394.8</ele>
        <time>2021-10-13T09:15:56Z</time>
      </trkpt>
      <trkpt lat="47.29427" lon="6.02928">
        <ele>394.8</ele>
        <time>2021-10-13T09:15:57Z</time>
      </trkpt>
      <trkpt lat="47.2943" lon="6.02929">
        <ele>394.8</ele>
        <time>2021-10-13T09:15:58Z</time>
      </trkpt>
      <trkpt lat="47.29433" lon="6.0293">
        <ele>394.8</ele>
        <time>2021-10-13T09:15:59Z</time>
      </trkpt>
      <trkpt lat="47.29435" lon="6.0293">
        <ele>395</ele>
        <time>2021-10-13T09:16:00Z</time>
      </trkpt>
      <trkpt lat="47.29437" lon="6.0293">
        <ele>395</ele>
        <time>2021-10-13T09:16:01Z</time>
      </trkpt>
      <trkpt lat="47.2944" lon="6.02931">
        <ele>395</ele>
        <time>2021-10-13T09:16:02Z</time>
      </trkpt>
      <trkpt lat="47.29443" lon="6.02931">
        <ele>395.2</ele>
        <time>2021-10-13T09:16:03Z</time>
      </trkpt>
      <trkpt lat="47.29446" lon="6.02931">
        <ele>395.4</ele>
        <time>2021-10-13T09:16:04Z</time>
      </trkpt>
      <trkpt lat="47.29448" lon="6.02931">
        <ele>395.4</ele>
        <time>2021-10-13T09:16:05Z</time>
      </trkpt>
      <trkpt lat="47.29452" lon="6.02931">
        <ele>395.6</ele>
        <time>2021-10-13T09:16:06Z</time>
      </trkpt>
      <trkpt lat="47.29454" lon="6.02931">
        <ele>395.6</ele>
        <time>2021-10-13T09:16:07Z</time>
      </trkpt>
      <trkpt lat="47.29457" lon="6.02932">
        <ele>395.8</ele>
        <time>2021-10-13T09:16:08Z</time>
      </trkpt>
      <trkpt lat="47.2946" lon="6.02932">
        <ele>396</ele>
        <time>2021-10-13T09:16:09Z</time>
      </trkpt>
      <trkpt lat="47.29462" lon="6.02933">
        <ele>396</ele>
        <time>2021-10-13T09:16:10Z</time>
      </trkpt>
      <trkpt lat="47.29465" lon="6.02934">
        <ele>396</ele>
        <time>2021-10-13T09:16:11Z</time>
      </trkpt>
      <trkpt lat="47.29469" lon="6.02935">
        <ele>396.2</ele>
        <time>2021-10-13T09:16:12Z</time>
      </trkpt>
      <trkpt lat="47.29472" lon="6.02937">
        <ele>396.2</ele>
        <time>2021-10-13T09:16:13Z</time>
      </trkpt>
      <trkpt lat="47.29476" lon="6.02939">
        <ele>396.2</ele>
        <time>2021-10-13T09:16:14Z</time>
      </trkpt>
      <trkpt lat="47.29479" lon="6.0294">
        <ele>396.4</ele>
        <time>2021-10-13T09:16:15Z</time>
      </trkpt>
      <trkpt lat="47.29481" lon="6.02942">
        <ele>396.4</ele>
        <time>2021-10-13T09:16:16Z</time>
      </trkpt>
      <trkpt lat="47.29485" lon="6.02944">
        <ele>396.4</ele>
        <time>2021-10-13T09:16:17Z</time>
      </trkpt>
      <trkpt lat="47.29488" lon="6.02946">
        <ele>396.6</ele>
        <time>2021-10-13T09:16:18Z</time>
      </trkpt>
      <trkpt lat="47.29492" lon="6.02948">
        <ele>396.6</ele>
        <time>2021-10-13T09:16:19Z</time>
      </trkpt>
      <trkpt lat="47.29494" lon="6.0295">
        <ele>396.6</ele>
        <time>2021-10-13T09:16:20Z</time>
      </trkpt>
      <trkpt lat="47.29497" lon="6.02952">
        <ele>396.6</ele>
        <time>2021-10-13T09:16:21Z</time>
      </trkpt>
      <trkpt lat="47.29501" lon="6.02955">
        <ele>396.6</ele>
        <time>2021-10-13T09:16:22Z</time>
      </trkpt>
      <trkpt lat="47.29517" lon="6.02967">
        <ele>396.8</ele>
        <time>2021-10-13T09:16:27Z</time>
      </trkpt>
      <trkpt lat="47.29521" lon="6.0297">
        <ele>397</ele>
        <time>2021-10-13T09:16:28Z</time>
      </trkpt>
      <trkpt lat="47.29527" lon="6.02975">
        <ele>397.2</ele>
        <time>2021-10-13T09:16:30Z</time>
      </trkpt>
      <trkpt lat="47.2953" lon="6.02978">
        <ele>397.2</ele>
        <time>2021-10-13T09:16:31Z</time>
      </trkpt>
      <trkpt lat="47.29533" lon="6.02981">
        <ele>397.2</ele>
        <time>2021-10-13T09:16:32Z</time>
      </trkpt>
      <trkpt lat="47.29536" lon="6.02983">
        <ele>397.4</ele>
        <time>2021-10-13T09:16:33Z</time>
      </trkpt>
      <trkpt lat="47.29538" lon="6.02984">
        <ele>397.4</ele>
        <time>2021-10-13T09:16:34Z</time>
      </trkpt>
      <trkpt lat="47.2954" lon="6.02986">
        <ele>397.4</ele>
        <time>2021-10-13T09:16:35Z</time>
      </trkpt>
      <trkpt lat="47.29541" lon="6.02989">
        <ele>397.4</ele>
        <time>2021-10-13T09:16:36Z</time>
      </trkpt>
      <trkpt lat="47.29543" lon="6.02991">
        <ele>397.4</ele>
        <time>2021-10-13T09:16:37Z</time>
      </trkpt>
      <trkpt lat="47.29545" lon="6.02994">
        <ele>397.4</ele>
        <time>2021-10-13T09:16:38Z</time>
      </trkpt>
      <trkpt lat="47.29546" lon="6.02996">
        <ele>397.4</ele>
        <time>2021-10-13T09:16:39Z</time>
      </trkpt>
      <trkpt lat="47.29548" lon="6.02997">
        <ele>397.4</ele>
        <time>2021-10-13T09:16:40Z</time>
      </trkpt>
      <trkpt lat="47.2955" lon="6.02999">
        <ele>397.2</ele>
        <time>2021-10-13T09:16:41Z</time>
      </trkpt>
      <trkpt lat="47.29552" lon="6.03001">
        <ele>397.2</ele>
        <time>2021-10-13T09:16:42Z</time>
      </trkpt>
      <trkpt lat="47.29554" lon="6.03003">
        <ele>397.2</ele>
        <time>2021-10-13T09:16:43Z</time>
      </trkpt>
      <trkpt lat="47.29567" lon="6.03018">
        <ele>397</ele>
        <time>2021-10-13T09:16:48Z</time>
      </trkpt>
      <trkpt lat="47.29591" lon="6.03046">
        <ele>396</ele>
        <time>2021-10-13T09:16:55Z</time>
      </trkpt>
      <trkpt lat="47.29596" lon="6.0305">
        <ele>395.8</ele>
        <time>2021-10-13T09:16:56Z</time>
      </trkpt>
      <trkpt lat="47.29618" lon="6.03066">
        <ele>394.8</ele>
        <time>2021-10-13T09:17:00Z</time>
      </trkpt>
      <trkpt lat="47.29624" lon="6.0307">
        <ele>394.6</ele>
        <time>2021-10-13T09:17:01Z</time>
      </trkpt>
      <trkpt lat="47.2964" lon="6.0308">
        <ele>393.4</ele>
        <time>2021-10-13T09:17:04Z</time>
      </trkpt>
      <trkpt lat="47.29657" lon="6.03091">
        <ele>392.2</ele>
        <time>2021-10-13T09:17:07Z</time>
      </trkpt>
      <trkpt lat="47.29661" lon="6.03094">
        <ele>391.8</ele>
        <time>2021-10-13T09:17:08Z</time>
      </trkpt>
      <trkpt lat="47.29665" lon="6.03099">
        <ele>391.6</ele>
        <time>2021-10-13T09:17:09Z</time>
      </trkpt>
      <trkpt lat="47.29669" lon="6.03104">
        <ele>391.4</ele>
        <time>2021-10-13T09:17:10Z</time>
      </trkpt>
      <trkpt lat="47.29673" lon="6.03109">
        <ele>391.4</ele>
        <time>2021-10-13T09:17:11Z</time>
      </trkpt>
      <trkpt lat="47.29677" lon="6.03112">
        <ele>391.2</ele>
        <time>2021-10-13T09:17:12Z</time>
      </trkpt>
      <trkpt lat="47.2968" lon="6.03115">
        <ele>391.2</ele>
        <time>2021-10-13T09:17:13Z</time>
      </trkpt>
      <trkpt lat="47.29685" lon="6.03119">
        <ele>391</ele>
        <time>2021-10-13T09:17:14Z</time>
      </trkpt>
      <trkpt lat="47.29688" lon="6.03122">
        <ele>391</ele>
        <time>2021-10-13T09:17:15Z</time>
      </trkpt>
      <trkpt lat="47.29692" lon="6.03124">
        <ele>391</ele>
        <time>2021-10-13T09:17:16Z</time>
      </trkpt>
      <trkpt lat="47.29702" lon="6.0313">
        <ele>391</ele>
        <time>2021-10-13T09:17:19Z</time>
      </trkpt>
      <trkpt lat="47.29707" lon="6.03132">
        <ele>391</ele>
        <time>2021-10-13T09:17:20Z</time>
      </trkpt>
      <trkpt lat="47.29723" lon="6.03141">
        <ele>390.8</ele>
        <time>2021-10-13T09:17:24Z</time>
      </trkpt>
      <trkpt lat="47.29727" lon="6.03142">
        <ele>390.8</ele>
        <time>2021-10-13T09:17:25Z</time>
      </trkpt>
      <trkpt lat="47.29731" lon="6.03144">
        <ele>390.8</ele>
        <time>2021-10-13T09:17:26Z</time>
      </trkpt>
      <trkpt lat="47.29738" lon="6.03147">
        <ele>390.8</ele>
        <time>2021-10-13T09:17:28Z</time>
      </trkpt>
      <trkpt lat="47.29747" lon="6.03151">
        <ele>390.8</ele>
        <time>2021-10-13T09:17:30Z</time>
      </trkpt>
      <trkpt lat="47.29751" lon="6.03152">
        <ele>390.8</ele>
        <time>2021-10-13T09:17:31Z</time>
      </trkpt>
      <trkpt lat="47.29755" lon="6.03154">
        <ele>390.8</ele>
        <time>2021-10-13T09:17:32Z</time>
      </trkpt>
      <trkpt lat="47.29763" lon="6.03156">
        <ele>391</ele>
        <time>2021-10-13T09:17:34Z</time>
      </trkpt>
      <trkpt lat="47.29766" lon="6.03156">
        <ele>391.4</ele>
        <time>2021-10-13T09:17:35Z</time>
      </trkpt>
      <trkpt lat="47.29774" lon="6.03157">
        <ele>391.6</ele>
        <time>2021-10-13T09:17:37Z</time>
      </trkpt>
      <trkpt lat="47.29778" lon="6.03158">
        <ele>391.8</ele>
        <time>2021-10-13T09:17:38Z</time>
      </trkpt>
      <trkpt lat="47.29782" lon="6.03158">
        <ele>391.8</ele>
        <time>2021-10-13T09:17:39Z</time>
      </trkpt>
      <trkpt lat="47.29785" lon="6.03158">
        <ele>392</ele>
        <time>2021-10-13T09:17:40Z</time>
      </trkpt>
      <trkpt lat="47.29788" lon="6.03157">
        <ele>392.2</ele>
        <time>2021-10-13T09:17:41Z</time>
      </trkpt>
      <trkpt lat="47.2979" lon="6.03156">
        <ele>392.4</ele>
        <time>2021-10-13T09:17:42Z</time>
      </trkpt>
      <trkpt lat="47.29793" lon="6.03156">
        <ele>392.6</ele>
        <time>2021-10-13T09:17:43Z</time>
      </trkpt>
      <trkpt lat="47.29797" lon="6.03155">
        <ele>392.6</ele>
        <time>2021-10-13T09:17:44Z</time>
      </trkpt>
      <trkpt lat="47.298" lon="6.03154">
        <ele>392.8</ele>
        <time>2021-10-13T09:17:45Z</time>
      </trkpt>
      <trkpt lat="47.29803" lon="6.03154">
        <ele>393</ele>
        <time>2021-10-13T09:17:46Z</time>
      </trkpt>
      <trkpt lat="47.29806" lon="6.03153">
        <ele>393.2</ele>
        <time>2021-10-13T09:17:47Z</time>
      </trkpt>
      <trkpt lat="47.29809" lon="6.03151">
        <ele>393.4</ele>
        <time>2021-10-13T09:17:48Z</time>
      </trkpt>
      <trkpt lat="47.29811" lon="6.0315">
        <ele>393.6</ele>
        <time>2021-10-13T09:17:49Z</time>
      </trkpt>
      <trkpt lat="47.29813" lon="6.03149">
        <ele>393.8</ele>
        <time>2021-10-13T09:17:50Z</time>
      </trkpt>
      <trkpt lat="47.29815" lon="6.03147">
        <ele>394</ele>
        <time>2021-10-13T09:17:51Z</time>
      </trkpt>
      <trkpt lat="47.29817" lon="6.03145">
        <ele>394.2</ele>
        <time>2021-10-13T09:17:52Z</time>
      </trkpt>
      <trkpt lat="47.2982" lon="6.03144">
        <ele>394.2</ele>
        <time>2021-10-13T09:17:53Z</time>
      </trkpt>
      <trkpt lat="47.29821" lon="6.03142">
        <ele>394.4</ele>
        <time>2021-10-13T09:17:54Z</time>
      </trkpt>
      <trkpt lat="47.29823" lon="6.03142">
        <ele>394.6</ele>
        <time>2021-10-13T09:17:55Z</time>
      </trkpt>
      <trkpt lat="47.29825" lon="6.03141">
        <ele>394.8</ele>
        <time>2021-10-13T09:17:56Z</time>
      </trkpt>
      <trkpt lat="47.29828" lon="6.0314">
        <ele>395.2</ele>
        <time>2021-10-13T09:17:57Z</time>
      </trkpt>
      <trkpt lat="47.2983" lon="6.03139">
        <ele>395.2</ele>
        <time>2021-10-13T09:17:58Z</time>
      </trkpt>
      <trkpt lat="47.29833" lon="6.03138">
        <ele>395.6</ele>
        <time>2021-10-13T09:17:59Z</time>
      </trkpt>
      <trkpt lat="47.29835" lon="6.03137">
        <ele>395.8</ele>
        <time>2021-10-13T09:18:00Z</time>
      </trkpt>
      <trkpt lat="47.29836" lon="6.03136">
        <ele>396</ele>
        <time>2021-10-13T09:18:01Z</time>
      </trkpt>
      <trkpt lat="47.29838" lon="6.03135">
        <ele>396</ele>
        <time>2021-10-13T09:18:02Z</time>
      </trkpt>
      <trkpt lat="47.2984" lon="6.03134">
        <ele>396.4</ele>
        <time>2021-10-13T09:18:03Z</time>
      </trkpt>
      <trkpt lat="47.29843" lon="6.03133">
        <ele>396.6</ele>
        <time>2021-10-13T09:18:04Z</time>
      </trkpt>
      <trkpt lat="47.29845" lon="6.03131">
        <ele>396.6</ele>
        <time>2021-10-13T09:18:05Z</time>
      </trkpt>
      <trkpt lat="47.29846" lon="6.0313">
        <ele>396.8</ele>
        <time>2021-10-13T09:18:06Z</time>
      </trkpt>
      <trkpt lat="47.29848" lon="6.03129">
        <ele>396.8</ele>
        <time>2021-10-13T09:18:07Z</time>
      </trkpt>
      <trkpt lat="47.29851" lon="6.03129">
        <ele>397</ele>
        <time>2021-10-13T09:18:08Z</time>
      </trkpt>
      <trkpt lat="47.29853" lon="6.03128">
        <ele>397.2</ele>
        <time>2021-10-13T09:18:09Z</time>
      </trkpt>
      <trkpt lat="47.29855" lon="6.03127">
        <ele>397.8</ele>
        <time>2021-10-13T09:18:10Z</time>
      </trkpt>
      <trkpt lat="47.29858" lon="6.03125">
        <ele>398</ele>
        <time>2021-10-13T09:18:11Z</time>
      </trkpt>
      <trkpt lat="47.2986" lon="6.03124">
        <ele>398.2</ele>
        <time>2021-10-13T09:18:12Z</time>
      </trkpt>
      <trkpt lat="47.29863" lon="6.03123">
        <ele>398.4</ele>
        <time>2021-10-13T09:18:13Z</time>
      </trkpt>
      <trkpt lat="47.29865" lon="6.03121">
        <ele>398.6</ele>
        <time>2021-10-13T09:18:14Z</time>
      </trkpt>
      <trkpt lat="47.29867" lon="6.0312">
        <ele>398.8</ele>
        <time>2021-10-13T09:18:15Z</time>
      </trkpt>
      <trkpt lat="47.29869" lon="6.03119">
        <ele>399</ele>
        <time>2021-10-13T09:18:16Z</time>
      </trkpt>
      <trkpt lat="47.29871" lon="6.03118">
        <ele>399.2</ele>
        <time>2021-10-13T09:18:17Z</time>
      </trkpt>
      <trkpt lat="47.29873" lon="6.03117">
        <ele>399.4</ele>
        <time>2021-10-13T09:18:18Z</time>
      </trkpt>
      <trkpt lat="47.29875" lon="6.03117">
        <ele>399.6</ele>
        <time>2021-10-13T09:18:19Z</time>
      </trkpt>
      <trkpt lat="47.29877" lon="6.03116">
        <ele>399.6</ele>
        <time>2021-10-13T09:18:20Z</time>
      </trkpt>
      <trkpt lat="47.2988" lon="6.03114">
        <ele>400</ele>
        <time>2021-10-13T09:18:21Z</time>
      </trkpt>
      <trkpt lat="47.29882" lon="6.03113">
        <ele>400.2</ele>
        <time>2021-10-13T09:18:22Z</time>
      </trkpt>
      <trkpt lat="47.29884" lon="6.03111">
        <ele>400.4</ele>
        <time>2021-10-13T09:18:23Z</time>
      </trkpt>
      <trkpt lat="47.29886" lon="6.0311">
        <ele>400.6</ele>
        <time>2021-10-13T09:18:24Z</time>
      </trkpt>
      <trkpt lat="47.29888" lon="6.03109">
        <ele>400.8</ele>
        <time>2021-10-13T09:18:25Z</time>
      </trkpt>
      <trkpt lat="47.29891" lon="6.03108">
        <ele>400.8</ele>
        <time>2021-10-13T09:18:26Z</time>
      </trkpt>
      <trkpt lat="47.29893" lon="6.03107">
        <ele>401</ele>
        <time>2021-10-13T09:18:27Z</time>
      </trkpt>
      <trkpt lat="47.29894" lon="6.03104">
        <ele>401</ele>
        <time>2021-10-13T09:18:28Z</time>
      </trkpt>
      <trkpt lat="47.29896" lon="6.03102">
        <ele>401</ele>
        <time>2021-10-13T09:18:29Z</time>
      </trkpt>
      <trkpt lat="47.29897" lon="6.03102">
        <ele>401.2</ele>
        <time>2021-10-13T09:18:30Z</time>
      </trkpt>
      <trkpt lat="47.29899" lon="6.03101">
        <ele>401.2</ele>
        <time>2021-10-13T09:18:31Z</time>
      </trkpt>
      <trkpt lat="47.29901" lon="6.031">
        <ele>401.6</ele>
        <time>2021-10-13T09:18:32Z</time>
      </trkpt>
      <trkpt lat="47.29903" lon="6.031">
        <ele>401.6</ele>
        <time>2021-10-13T09:18:33Z</time>
      </trkpt>
      <trkpt lat="47.29904" lon="6.03099">
        <ele>402</ele>
        <time>2021-10-13T09:18:34Z</time>
      </trkpt>
      <trkpt lat="47.29906" lon="6.03097">
        <ele>402.2</ele>
        <time>2021-10-13T09:18:35Z</time>
      </trkpt>
      <trkpt lat="47.29907" lon="6.03096">
        <ele>402.4</ele>
        <time>2021-10-13T09:18:36Z</time>
      </trkpt>
      <trkpt lat="47.29909" lon="6.03094">
        <ele>402.6</ele>
        <time>2021-10-13T09:18:37Z</time>
      </trkpt>
      <trkpt lat="47.29911" lon="6.03094">
        <ele>402.6</ele>
        <time>2021-10-13T09:18:38Z</time>
      </trkpt>
      <trkpt lat="47.29913" lon="6.03093">
        <ele>402.8</ele>
        <time>2021-10-13T09:18:39Z</time>
      </trkpt>
      <trkpt lat="47.29915" lon="6.03091">
        <ele>403</ele>
        <time>2021-10-13T09:18:40Z</time>
      </trkpt>
      <trkpt lat="47.29917" lon="6.0309">
        <ele>403.2</ele>
        <time>2021-10-13T09:18:41Z</time>
      </trkpt>
      <trkpt lat="47.29919" lon="6.03089">
        <ele>403.2</ele>
        <time>2021-10-13T09:18:42Z</time>
      </trkpt>
      <trkpt lat="47.29921" lon="6.03088">
        <ele>403.4</ele>
        <time>2021-10-13T09:18:43Z</time>
      </trkpt>
      <trkpt lat="47.29923" lon="6.03087">
        <ele>403.6</ele>
        <time>2021-10-13T09:18:44Z</time>
      </trkpt>
      <trkpt lat="47.29924" lon="6.03086">
        <ele>403.8</ele>
        <time>2021-10-13T09:18:45Z</time>
      </trkpt>
      <trkpt lat="47.29926" lon="6.03084">
        <ele>403.8</ele>
        <time>2021-10-13T09:18:46Z</time>
      </trkpt>
      <trkpt lat="47.29927" lon="6.03082">
        <ele>404.2</ele>
        <time>2021-10-13T09:18:47Z</time>
      </trkpt>
      <trkpt lat="47.29928" lon="6.03081">
        <ele>404.2</ele>
        <time>2021-10-13T09:18:48Z</time>
      </trkpt>
      <trkpt lat="47.29929" lon="6.03081">
        <ele>404.6</ele>
        <time>2021-10-13T09:18:49Z</time>
      </trkpt>
      <trkpt lat="47.29931" lon="6.03082">
        <ele>404.8</ele>
        <time>2021-10-13T09:18:50Z</time>
      </trkpt>
      <trkpt lat="47.29933" lon="6.03082">
        <ele>404.8</ele>
        <time>2021-10-13T09:18:51Z</time>
      </trkpt>
      <trkpt lat="47.29935" lon="6.03082">
        <ele>405</ele>
        <time>2021-10-13T09:18:52Z</time>
      </trkpt>
      <trkpt lat="47.29938" lon="6.03081">
        <ele>405.2</ele>
        <time>2021-10-13T09:18:53Z</time>
      </trkpt>
      <trkpt lat="47.29939" lon="6.03081">
        <ele>405.2</ele>
        <time>2021-10-13T09:18:54Z</time>
      </trkpt>
      <trkpt lat="47.29941" lon="6.03081">
        <ele>405.2</ele>
        <time>2021-10-13T09:18:55Z</time>
      </trkpt>
      <trkpt lat="47.29943" lon="6.0308">
        <ele>405.2</ele>
        <time>2021-10-13T09:18:56Z</time>
      </trkpt>
      <trkpt lat="47.29945" lon="6.03079">
        <ele>405.4</ele>
        <time>2021-10-13T09:18:57Z</time>
      </trkpt>
      <trkpt lat="47.29946" lon="6.03079">
        <ele>405.6</ele>
        <time>2021-10-13T09:18:58Z</time>
      </trkpt>
      <trkpt lat="47.29947" lon="6.03078">
        <ele>405.8</ele>
        <time>2021-10-13T09:18:59Z</time>
      </trkpt>
      <trkpt lat="47.29949" lon="6.03078">
        <ele>405.8</ele>
        <time>2021-10-13T09:19:00Z</time>
      </trkpt>
      <trkpt lat="47.29951" lon="6.03078">
        <ele>405.8</ele>
        <time>2021-10-13T09:19:01Z</time>
      </trkpt>
      <trkpt lat="47.29951" lon="6.03078">
        <ele>406</ele>
        <time>2021-10-13T09:19:02Z</time>
      </trkpt>
      <trkpt lat="47.29951" lon="6.03077">
        <ele>406</ele>
        <time>2021-10-13T09:19:06Z</time>
      </trkpt>
      <trkpt lat="47.29951" lon="6.03077">
        <ele>406</ele>
        <time>2021-10-13T09:19:07Z</time>
      </trkpt>
      <trkpt lat="47.29951" lon="6.03077">
        <ele>406.4</ele>
        <time>2021-10-13T09:19:12Z</time>
      </trkpt>
      <trkpt lat="47.29951" lon="6.03077">
        <ele>406.4</ele>
        <time>2021-10-13T09:19:36Z</time>
      </trkpt>
      <trkpt lat="47.29951" lon="6.03077">
        <ele>406.6</ele>
        <time>2021-10-13T09:20:22Z</time>
      </trkpt>
      <trkpt lat="47.29958" lon="6.03074">
        <ele>406.2</ele>
        <time>2021-10-13T09:21:08Z</time>
      </trkpt>
      <trkpt lat="47.2996" lon="6.03073">
        <ele>406.2</ele>
        <time>2021-10-13T09:21:09Z</time>
      </trkpt>
      <trkpt lat="47.29962" lon="6.03072">
        <ele>406.2</ele>
        <time>2021-10-13T09:21:10Z</time>
      </trkpt>
      <trkpt lat="47.29973" lon="6.03066">
        <ele>406.8</ele>
        <time>2021-10-13T09:21:15Z</time>
      </trkpt>
      <trkpt lat="47.29987" lon="6.03059">
        <ele>407.6</ele>
        <time>2021-10-13T09:21:23Z</time>
      </trkpt>
      <trkpt lat="47.29995" lon="6.03056">
        <ele>408</ele>
        <time>2021-10-13T09:21:27Z</time>
      </trkpt>
      <trkpt lat="47.30003" lon="6.03058">
        <ele>408.2</ele>
        <time>2021-10-13T09:21:31Z</time>
      </trkpt>
      <trkpt lat="47.30006" lon="6.03059">
        <ele>408.2</ele>
        <time>2021-10-13T09:21:33Z</time>
      </trkpt>
      <trkpt lat="47.30008" lon="6.0306">
        <ele>408.4</ele>
        <time>2021-10-13T09:21:34Z</time>
      </trkpt>
      <trkpt lat="47.30011" lon="6.03063">
        <ele>408.8</ele>
        <time>2021-10-13T09:21:36Z</time>
      </trkpt>
      <trkpt lat="47.30012" lon="6.03065">
        <ele>409</ele>
        <time>2021-10-13T09:21:37Z</time>
      </trkpt>
      <trkpt lat="47.30013" lon="6.03067">
        <ele>409.2</ele>
        <time>2021-10-13T09:21:38Z</time>
      </trkpt>
      <trkpt lat="47.30014" lon="6.03068">
        <ele>409.4</ele>
        <time>2021-10-13T09:21:39Z</time>
      </trkpt>
      <trkpt lat="47.30015" lon="6.0307">
        <ele>409.8</ele>
        <time>2021-10-13T09:21:40Z</time>
      </trkpt>
      <trkpt lat="47.30016" lon="6.03072">
        <ele>410</ele>
        <time>2021-10-13T09:21:41Z</time>
      </trkpt>
      <trkpt lat="47.30017" lon="6.03074">
        <ele>410</ele>
        <time>2021-10-13T09:21:42Z</time>
      </trkpt>
      <trkpt lat="47.30017" lon="6.03077">
        <ele>410.2</ele>
        <time>2021-10-13T09:21:43Z</time>
      </trkpt>
      <trkpt lat="47.30018" lon="6.03079">
        <ele>410.6</ele>
        <time>2021-10-13T09:21:44Z</time>
      </trkpt>
      <trkpt lat="47.30019" lon="6.03082">
        <ele>410.6</ele>
        <time>2021-10-13T09:21:45Z</time>
      </trkpt>
      <trkpt lat="47.3002" lon="6.03084">
        <ele>410.8</ele>
        <time>2021-10-13T09:21:46Z</time>
      </trkpt>
      <trkpt lat="47.30021" lon="6.03086">
        <ele>411</ele>
        <time>2021-10-13T09:21:47Z</time>
      </trkpt>
      <trkpt lat="47.30022" lon="6.03088">
        <ele>411.2</ele>
        <time>2021-10-13T09:21:48Z</time>
      </trkpt>
      <trkpt lat="47.30023" lon="6.03091">
        <ele>411.4</ele>
        <time>2021-10-13T09:21:49Z</time>
      </trkpt>
      <trkpt lat="47.30024" lon="6.03093">
        <ele>411.4</ele>
        <time>2021-10-13T09:21:50Z</time>
      </trkpt>
      <trkpt lat="47.30025" lon="6.03094">
        <ele>411.8</ele>
        <time>2021-10-13T09:21:51Z</time>
      </trkpt>
      <trkpt lat="47.30026" lon="6.03096">
        <ele>412</ele>
        <time>2021-10-13T09:21:52Z</time>
      </trkpt>
      <trkpt lat="47.30027" lon="6.03098">
        <ele>412.2</ele>
        <time>2021-10-13T09:21:53Z</time>
      </trkpt>
      <trkpt lat="47.30028" lon="6.031">
        <ele>412.4</ele>
        <time>2021-10-13T09:21:54Z</time>
      </trkpt>
      <trkpt lat="47.30029" lon="6.03102">
        <ele>412.6</ele>
        <time>2021-10-13T09:21:55Z</time>
      </trkpt>
      <trkpt lat="47.30031" lon="6.03104">
        <ele>413</ele>
        <time>2021-10-13T09:21:56Z</time>
      </trkpt>
      <trkpt lat="47.30032" lon="6.03107">
        <ele>413.2</ele>
        <time>2021-10-13T09:21:57Z</time>
      </trkpt>
      <trkpt lat="47.30033" lon="6.03109">
        <ele>413.6</ele>
        <time>2021-10-13T09:21:58Z</time>
      </trkpt>
      <trkpt lat="47.30034" lon="6.03112">
        <ele>413.8</ele>
        <time>2021-10-13T09:21:59Z</time>
      </trkpt>
      <trkpt lat="47.30036" lon="6.03114">
        <ele>414</ele>
        <time>2021-10-13T09:22:00Z</time>
      </trkpt>
      <trkpt lat="47.30037" lon="6.03116">
        <ele>414.2</ele>
        <time>2021-10-13T09:22:01Z</time>
      </trkpt>
      <trkpt lat="47.30038" lon="6.03118">
        <ele>414.6</ele>
        <time>2021-10-13T09:22:02Z</time>
      </trkpt>
      <trkpt lat="47.3004" lon="6.03119">
        <ele>414.8</ele>
        <time>2021-10-13T09:22:03Z</time>
      </trkpt>
      <trkpt lat="47.30041" lon="6.03121">
        <ele>415.2</ele>
        <time>2021-10-13T09:22:04Z</time>
      </trkpt>
      <trkpt lat="47.30042" lon="6.03122">
        <ele>415.4</ele>
        <time>2021-10-13T09:22:05Z</time>
      </trkpt>
      <trkpt lat="47.30043" lon="6.03124">
        <ele>415.6</ele>
        <time>2021-10-13T09:22:06Z</time>
      </trkpt>
      <trkpt lat="47.30044" lon="6.03126">
        <ele>415.6</ele>
        <time>2021-10-13T09:22:07Z</time>
      </trkpt>
      <trkpt lat="47.30046" lon="6.03127">
        <ele>416</ele>
        <time>2021-10-13T09:22:08Z</time>
      </trkpt>
      <trkpt lat="47.30047" lon="6.03129">
        <ele>416.2</ele>
        <time>2021-10-13T09:22:09Z</time>
      </trkpt>
      <trkpt lat="47.30048" lon="6.03131">
        <ele>416.4</ele>
        <time>2021-10-13T09:22:10Z</time>
      </trkpt>
      <trkpt lat="47.30049" lon="6.03133">
        <ele>416.6</ele>
        <time>2021-10-13T09:22:11Z</time>
      </trkpt>
      <trkpt lat="47.30051" lon="6.03134">
        <ele>416.8</ele>
        <time>2021-10-13T09:22:12Z</time>
      </trkpt>
      <trkpt lat="47.30052" lon="6.03136">
        <ele>417</ele>
        <time>2021-10-13T09:22:13Z</time>
      </trkpt>
      <trkpt lat="47.30053" lon="6.03137">
        <ele>417.2</ele>
        <time>2021-10-13T09:22:14Z</time>
      </trkpt>
      <trkpt lat="47.30054" lon="6.03138">
        <ele>417.4</ele>
        <time>2021-10-13T09:22:15Z</time>
      </trkpt>
      <trkpt lat="47.30055" lon="6.03139">
        <ele>417.6</ele>
        <time>2021-10-13T09:22:16Z</time>
      </trkpt>
      <trkpt lat="47.30056" lon="6.03141">
        <ele>417.8</ele>
        <time>2021-10-13T09:22:17Z</time>
      </trkpt>
      <trkpt lat="47.30057" lon="6.03142">
        <ele>418</ele>
        <time>2021-10-13T09:22:18Z</time>
      </trkpt>
      <trkpt lat="47.30059" lon="6.03143">
        <ele>418.2</ele>
        <time>2021-10-13T09:22:19Z</time>
      </trkpt>
      <trkpt lat="47.3006" lon="6.03144">
        <ele>418.2</ele>
        <time>2021-10-13T09:22:20Z</time>
      </trkpt>
      <trkpt lat="47.30062" lon="6.03144">
        <ele>418.4</ele>
        <time>2021-10-13T09:22:21Z</time>
      </trkpt>
      <trkpt lat="47.30063" lon="6.03145">
        <ele>418.6</ele>
        <time>2021-10-13T09:22:22Z</time>
      </trkpt>
      <trkpt lat="47.30065" lon="6.03146">
        <ele>418.8</ele>
        <time>2021-10-13T09:22:23Z</time>
      </trkpt>
      <trkpt lat="47.30067" lon="6.03147">
        <ele>418.8</ele>
        <time>2021-10-13T09:22:24Z</time>
      </trkpt>
      <trkpt lat="47.30068" lon="6.03148">
        <ele>419</ele>
        <time>2021-10-13T09:22:25Z</time>
      </trkpt>
      <trkpt lat="47.3007" lon="6.03149">
        <ele>419</ele>
        <time>2021-10-13T09:22:26Z</time>
      </trkpt>
      <trkpt lat="47.30072" lon="6.0315">
        <ele>419.2</ele>
        <time>2021-10-13T09:22:27Z</time>
      </trkpt>
      <trkpt lat="47.30074" lon="6.03151">
        <ele>419.4</ele>
        <time>2021-10-13T09:22:28Z</time>
      </trkpt>
      <trkpt lat="47.30076" lon="6.03151">
        <ele>419.4</ele>
        <time>2021-10-13T09:22:29Z</time>
      </trkpt>
      <trkpt lat="47.30077" lon="6.03151">
        <ele>419.8</ele>
        <time>2021-10-13T09:22:30Z</time>
      </trkpt>
      <trkpt lat="47.30079" lon="6.03152">
        <ele>419.8</ele>
        <time>2021-10-13T09:22:31Z</time>
      </trkpt>
      <trkpt lat="47.30081" lon="6.03153">
        <ele>420</ele>
        <time>2021-10-13T09:22:32Z</time>
      </trkpt>
      <trkpt lat="47.30083" lon="6.03153">
        <ele>420</ele>
        <time>2021-10-13T09:22:33Z</time>
      </trkpt>
      <trkpt lat="47.30086" lon="6.03153">
        <ele>420.2</ele>
        <time>2021-10-13T09:22:34Z</time>
      </trkpt>
      <trkpt lat="47.30088" lon="6.03153">
        <ele>420.2</ele>
        <time>2021-10-13T09:22:35Z</time>
      </trkpt>
      <trkpt lat="47.30089" lon="6.03153">
        <ele>420.4</ele>
        <time>2021-10-13T09:22:36Z</time>
      </trkpt>
      <trkpt lat="47.30091" lon="6.03153">
        <ele>420.4</ele>
        <time>2021-10-13T09:22:37Z</time>
      </trkpt>
      <trkpt lat="47.30093" lon="6.03153">
        <ele>420.4</ele>
        <time>2021-10-13T09:22:38Z</time>
      </trkpt>
      <trkpt lat="47.30095" lon="6.03153">
        <ele>420.4</ele>
        <time>2021-10-13T09:22:39Z</time>
      </trkpt>
      <trkpt lat="47.30097" lon="6.03152">
        <ele>420.4</ele>
        <time>2021-10-13T09:22:40Z</time>
      </trkpt>
      <trkpt lat="47.30099" lon="6.03152">
        <ele>420.6</ele>
        <time>2021-10-13T09:22:41Z</time>
      </trkpt>
      <trkpt lat="47.30101" lon="6.03152">
        <ele>420.6</ele>
        <time>2021-10-13T09:22:42Z</time>
      </trkpt>
      <trkpt lat="47.30103" lon="6.03152">
        <ele>420.6</ele>
        <time>2021-10-13T09:22:43Z</time>
      </trkpt>
      <trkpt lat="47.30105" lon="6.03152">
        <ele>420.8</ele>
        <time>2021-10-13T09:22:44Z</time>
      </trkpt>
      <trkpt lat="47.30107" lon="6.03152">
        <ele>420.8</ele>
        <time>2021-10-13T09:22:45Z</time>
      </trkpt>
      <trkpt lat="47.30109" lon="6.03151">
        <ele>420.8</ele>
        <time>2021-10-13T09:22:46Z</time>
      </trkpt>
      <trkpt lat="47.30112" lon="6.03151">
        <ele>420.8</ele>
        <time>2021-10-13T09:22:47Z</time>
      </trkpt>
      <trkpt lat="47.30114" lon="6.03151">
        <ele>421</ele>
        <time>2021-10-13T09:22:48Z</time>
      </trkpt>
      <trkpt lat="47.30116" lon="6.03151">
        <ele>421</ele>
        <time>2021-10-13T09:22:49Z</time>
      </trkpt>
      <trkpt lat="47.3012" lon="6.0315">
        <ele>421.4</ele>
        <time>2021-10-13T09:22:51Z</time>
      </trkpt>
      <trkpt lat="47.30122" lon="6.0315">
        <ele>421.4</ele>
        <time>2021-10-13T09:22:52Z</time>
      </trkpt>
      <trkpt lat="47.30136" lon="6.03148">
        <ele>422.4</ele>
        <time>2021-10-13T09:22:59Z</time>
      </trkpt>
      <trkpt lat="47.30138" lon="6.03147">
        <ele>422.6</ele>
        <time>2021-10-13T09:23:00Z</time>
      </trkpt>
      <trkpt lat="47.30142" lon="6.03146">
        <ele>422.8</ele>
        <time>2021-10-13T09:23:02Z</time>
      </trkpt>
      <trkpt lat="47.30144" lon="6.03146">
        <ele>423</ele>
        <time>2021-10-13T09:23:03Z</time>
      </trkpt>
      <trkpt lat="47.30145" lon="6.03146">
        <ele>423</ele>
        <time>2021-10-13T09:23:04Z</time>
      </trkpt>
      <trkpt lat="47.30147" lon="6.03145">
        <ele>423.2</ele>
        <time>2021-10-13T09:23:05Z</time>
      </trkpt>
      <trkpt lat="47.30149" lon="6.03144">
        <ele>423.2</ele>
        <time>2021-10-13T09:23:06Z</time>
      </trkpt>
      <trkpt lat="47.30151" lon="6.03144">
        <ele>423.4</ele>
        <time>2021-10-13T09:23:07Z</time>
      </trkpt>
      <trkpt lat="47.30153" lon="6.03144">
        <ele>423.4</ele>
        <time>2021-10-13T09:23:08Z</time>
      </trkpt>
      <trkpt lat="47.30155" lon="6.03144">
        <ele>423.6</ele>
        <time>2021-10-13T09:23:09Z</time>
      </trkpt>
      <trkpt lat="47.30157" lon="6.03143">
        <ele>423.6</ele>
        <time>2021-10-13T09:23:10Z</time>
      </trkpt>
      <trkpt lat="47.30159" lon="6.03143">
        <ele>423.8</ele>
        <time>2021-10-13T09:23:11Z</time>
      </trkpt>
      <trkpt lat="47.30161" lon="6.03143">
        <ele>423.8</ele>
        <time>2021-10-13T09:23:12Z</time>
      </trkpt>
      <trkpt lat="47.30163" lon="6.03142">
        <ele>424</ele>
        <time>2021-10-13T09:23:13Z</time>
      </trkpt>
      <trkpt lat="47.30165" lon="6.03142">
        <ele>423.8</ele>
        <time>2021-10-13T09:23:14Z</time>
      </trkpt>
      <trkpt lat="47.30167" lon="6.03142">
        <ele>424</ele>
        <time>2021-10-13T09:23:15Z</time>
      </trkpt>
      <trkpt lat="47.3017" lon="6.03141">
        <ele>424</ele>
        <time>2021-10-13T09:23:16Z</time>
      </trkpt>
      <trkpt lat="47.30172" lon="6.03141">
        <ele>424.2</ele>
        <time>2021-10-13T09:23:17Z</time>
      </trkpt>
      <trkpt lat="47.30174" lon="6.03141">
        <ele>424.2</ele>
        <time>2021-10-13T09:23:18Z</time>
      </trkpt>
      <trkpt lat="47.30176" lon="6.03141">
        <ele>424.4</ele>
        <time>2021-10-13T09:23:19Z</time>
      </trkpt>
      <trkpt lat="47.30178" lon="6.03141">
        <ele>424.6</ele>
        <time>2021-10-13T09:23:20Z</time>
      </trkpt>
      <trkpt lat="47.30181" lon="6.03141">
        <ele>424.6</ele>
        <time>2021-10-13T09:23:21Z</time>
      </trkpt>
      <trkpt lat="47.30183" lon="6.03141">
        <ele>424.8</ele>
        <time>2021-10-13T09:23:22Z</time>
      </trkpt>
      <trkpt lat="47.30185" lon="6.03141">
        <ele>424.8</ele>
        <time>2021-10-13T09:23:23Z</time>
      </trkpt>
      <trkpt lat="47.30187" lon="6.03141">
        <ele>425</ele>
        <time>2021-10-13T09:23:24Z</time>
      </trkpt>
      <trkpt lat="47.30189" lon="6.03141">
        <ele>425</ele>
        <time>2021-10-13T09:23:25Z</time>
      </trkpt>
      <trkpt lat="47.30192" lon="6.03142">
        <ele>425.2</ele>
        <time>2021-10-13T09:23:26Z</time>
      </trkpt>
      <trkpt lat="47.30194" lon="6.03143">
        <ele>425.2</ele>
        <time>2021-10-13T09:23:27Z</time>
      </trkpt>
      <trkpt lat="47.30196" lon="6.03144">
        <ele>425.2</ele>
        <time>2021-10-13T09:23:28Z</time>
      </trkpt>
      <trkpt lat="47.30198" lon="6.03144">
        <ele>425.4</ele>
        <time>2021-10-13T09:23:29Z</time>
      </trkpt>
      <trkpt lat="47.30199" lon="6.03145">
        <ele>425.4</ele>
        <time>2021-10-13T09:23:30Z</time>
      </trkpt>
      <trkpt lat="47.30201" lon="6.03146">
        <ele>425.4</ele>
        <time>2021-10-13T09:23:31Z</time>
      </trkpt>
      <trkpt lat="47.30202" lon="6.03146">
        <ele>425.8</ele>
        <time>2021-10-13T09:23:32Z</time>
      </trkpt>
      <trkpt lat="47.30204" lon="6.03147">
        <ele>426.2</ele>
        <time>2021-10-13T09:23:33Z</time>
      </trkpt>
      <trkpt lat="47.30206" lon="6.03148">
        <ele>426.2</ele>
        <time>2021-10-13T09:23:34Z</time>
      </trkpt>
      <trkpt lat="47.30208" lon="6.0315">
        <ele>426.4</ele>
        <time>2021-10-13T09:23:35Z</time>
      </trkpt>
      <trkpt lat="47.3021" lon="6.03151">
        <ele>426.4</ele>
        <time>2021-10-13T09:23:36Z</time>
      </trkpt>
      <trkpt lat="47.30212" lon="6.03152">
        <ele>426.8</ele>
        <time>2021-10-13T09:23:37Z</time>
      </trkpt>
      <trkpt lat="47.30214" lon="6.03154">
        <ele>426.8</ele>
        <time>2021-10-13T09:23:38Z</time>
      </trkpt>
      <trkpt lat="47.30216" lon="6.03155">
        <ele>427</ele>
        <time>2021-10-13T09:23:39Z</time>
      </trkpt>
      <trkpt lat="47.30217" lon="6.03157">
        <ele>427.2</ele>
        <time>2021-10-13T09:23:40Z</time>
      </trkpt>
      <trkpt lat="47.30219" lon="6.03159">
        <ele>427.2</ele>
        <time>2021-10-13T09:23:41Z</time>
      </trkpt>
      <trkpt lat="47.30221" lon="6.03161">
        <ele>427.2</ele>
        <time>2021-10-13T09:23:42Z</time>
      </trkpt>
      <trkpt lat="47.30223" lon="6.03163">
        <ele>427.4</ele>
        <time>2021-10-13T09:23:43Z</time>
      </trkpt>
      <trkpt lat="47.30225" lon="6.03164">
        <ele>427.4</ele>
        <time>2021-10-13T09:23:44Z</time>
      </trkpt>
      <trkpt lat="47.30227" lon="6.03166">
        <ele>427.4</ele>
        <time>2021-10-13T09:23:45Z</time>
      </trkpt>
      <trkpt lat="47.30228" lon="6.03168">
        <ele>427.6</ele>
        <time>2021-10-13T09:23:46Z</time>
      </trkpt>
      <trkpt lat="47.3023" lon="6.03169">
        <ele>427.6</ele>
        <time>2021-10-13T09:23:47Z</time>
      </trkpt>
      <trkpt lat="47.30231" lon="6.03171">
        <ele>427.8</ele>
        <time>2021-10-13T09:23:48Z</time>
      </trkpt>
      <trkpt lat="47.30233" lon="6.03172">
        <ele>427.8</ele>
        <time>2021-10-13T09:23:49Z</time>
      </trkpt>
      <trkpt lat="47.30235" lon="6.03174">
        <ele>428</ele>
        <time>2021-10-13T09:23:50Z</time>
      </trkpt>
      <trkpt lat="47.30237" lon="6.03175">
        <ele>427.8</ele>
        <time>2021-10-13T09:23:51Z</time>
      </trkpt>
      <trkpt lat="47.30238" lon="6.03177">
        <ele>428</ele>
        <time>2021-10-13T09:23:52Z</time>
      </trkpt>
      <trkpt lat="47.3024" lon="6.03178">
        <ele>428.2</ele>
        <time>2021-10-13T09:23:53Z</time>
      </trkpt>
      <trkpt lat="47.30241" lon="6.03179">
        <ele>428.4</ele>
        <time>2021-10-13T09:23:54Z</time>
      </trkpt>
      <trkpt lat="47.30242" lon="6.0318">
        <ele>428.4</ele>
        <time>2021-10-13T09:23:55Z</time>
      </trkpt>
      <trkpt lat="47.30243" lon="6.03181">
        <ele>428.6</ele>
        <time>2021-10-13T09:23:56Z</time>
      </trkpt>
      <trkpt lat="47.30245" lon="6.03182">
        <ele>428.6</ele>
        <time>2021-10-13T09:23:57Z</time>
      </trkpt>
      <trkpt lat="47.30246" lon="6.03183">
        <ele>428.8</ele>
        <time>2021-10-13T09:23:58Z</time>
      </trkpt>
      <trkpt lat="47.30247" lon="6.03184">
        <ele>429</ele>
        <time>2021-10-13T09:23:59Z</time>
      </trkpt>
      <trkpt lat="47.30248" lon="6.03184">
        <ele>429.2</ele>
        <time>2021-10-13T09:24:00Z</time>
      </trkpt>
      <trkpt lat="47.30249" lon="6.03185">
        <ele>429.4</ele>
        <time>2021-10-13T09:24:01Z</time>
      </trkpt>
      <trkpt lat="47.3025" lon="6.03187">
        <ele>429.6</ele>
        <time>2021-10-13T09:24:02Z</time>
      </trkpt>
      <trkpt lat="47.30251" lon="6.03188">
        <ele>429.8</ele>
        <time>2021-10-13T09:24:03Z</time>
      </trkpt>
      <trkpt lat="47.30253" lon="6.03189">
        <ele>429.8</ele>
        <time>2021-10-13T09:24:04Z</time>
      </trkpt>
      <trkpt lat="47.30255" lon="6.03189">
        <ele>430.2</ele>
        <time>2021-10-13T09:24:05Z</time>
      </trkpt>
      <trkpt lat="47.30256" lon="6.0319">
        <ele>430.4</ele>
        <time>2021-10-13T09:24:06Z</time>
      </trkpt>
      <trkpt lat="47.30258" lon="6.03191">
        <ele>430.6</ele>
        <time>2021-10-13T09:24:07Z</time>
      </trkpt>
      <trkpt lat="47.30259" lon="6.03193">
        <ele>430.6</ele>
        <time>2021-10-13T09:24:08Z</time>
      </trkpt>
      <trkpt lat="47.3026" lon="6.03194">
        <ele>430.8</ele>
        <time>2021-10-13T09:24:09Z</time>
      </trkpt>
      <trkpt lat="47.30262" lon="6.03196">
        <ele>430.8</ele>
        <time>2021-10-13T09:24:10Z</time>
      </trkpt>
      <trkpt lat="47.30264" lon="6.03197">
        <ele>431</ele>
        <time>2021-10-13T09:24:11Z</time>
      </trkpt>
      <trkpt lat="47.30265" lon="6.03198">
        <ele>431.2</ele>
        <time>2021-10-13T09:24:12Z</time>
      </trkpt>
      <trkpt lat="47.30266" lon="6.03199">
        <ele>431.4</ele>
        <time>2021-10-13T09:24:13Z</time>
      </trkpt>
      <trkpt lat="47.30268" lon="6.03201">
        <ele>431.8</ele>
        <time>2021-10-13T09:24:14Z</time>
      </trkpt>
      <trkpt lat="47.3027" lon="6.03203">
        <ele>431.8</ele>
        <time>2021-10-13T09:24:15Z</time>
      </trkpt>
      <trkpt lat="47.30271" lon="6.03204">
        <ele>432</ele>
        <time>2021-10-13T09:24:16Z</time>
      </trkpt>
      <trkpt lat="47.30272" lon="6.03206">
        <ele>432.2</ele>
        <time>2021-10-13T09:24:17Z</time>
      </trkpt>
      <trkpt lat="47.30274" lon="6.03208">
        <ele>432.4</ele>
        <time>2021-10-13T09:24:18Z</time>
      </trkpt>
      <trkpt lat="47.30276" lon="6.0321">
        <ele>432.6</ele>
        <time>2021-10-13T09:24:19Z</time>
      </trkpt>
      <trkpt lat="47.30277" lon="6.03211">
        <ele>432.6</ele>
        <time>2021-10-13T09:24:20Z</time>
      </trkpt>
      <trkpt lat="47.30279" lon="6.03213">
        <ele>432.8</ele>
        <time>2021-10-13T09:24:21Z</time>
      </trkpt>
      <trkpt lat="47.30281" lon="6.03214">
        <ele>433</ele>
        <time>2021-10-13T09:24:22Z</time>
      </trkpt>
      <trkpt lat="47.30283" lon="6.03216">
        <ele>433</ele>
        <time>2021-10-13T09:24:23Z</time>
      </trkpt>
      <trkpt lat="47.30284" lon="6.03217">
        <ele>433.2</ele>
        <time>2021-10-13T09:24:24Z</time>
      </trkpt>
      <trkpt lat="47.30285" lon="6.03219">
        <ele>433.2</ele>
        <time>2021-10-13T09:24:25Z</time>
      </trkpt>
      <trkpt lat="47.30287" lon="6.0322">
        <ele>433.4</ele>
        <time>2021-10-13T09:24:26Z</time>
      </trkpt>
      <trkpt lat="47.30288" lon="6.03222">
        <ele>433.6</ele>
        <time>2021-10-13T09:24:27Z</time>
      </trkpt>
      <trkpt lat="47.3029" lon="6.03225">
        <ele>433.6</ele>
        <time>2021-10-13T09:24:28Z</time>
      </trkpt>
      <trkpt lat="47.30292" lon="6.03227">
        <ele>433.8</ele>
        <time>2021-10-13T09:24:29Z</time>
      </trkpt>
      <trkpt lat="47.30293" lon="6.03229">
        <ele>433.8</ele>
        <time>2021-10-13T09:24:30Z</time>
      </trkpt>
      <trkpt lat="47.30295" lon="6.03231">
        <ele>434.4</ele>
        <time>2021-10-13T09:24:31Z</time>
      </trkpt>
      <trkpt lat="47.30297" lon="6.03233">
        <ele>434.4</ele>
        <time>2021-10-13T09:24:32Z</time>
      </trkpt>
      <trkpt lat="47.30299" lon="6.03235">
        <ele>434.6</ele>
        <time>2021-10-13T09:24:33Z</time>
      </trkpt>
      <trkpt lat="47.303" lon="6.03236">
        <ele>434.8</ele>
        <time>2021-10-13T09:24:34Z</time>
      </trkpt>
      <trkpt lat="47.30301" lon="6.03239">
        <ele>435</ele>
        <time>2021-10-13T09:24:35Z</time>
      </trkpt>
      <trkpt lat="47.30303" lon="6.03241">
        <ele>435</ele>
        <time>2021-10-13T09:24:36Z</time>
      </trkpt>
      <trkpt lat="47.30305" lon="6.03243">
        <ele>435.2</ele>
        <time>2021-10-13T09:24:37Z</time>
      </trkpt>
      <trkpt lat="47.30307" lon="6.03245">
        <ele>435.4</ele>
        <time>2021-10-13T09:24:38Z</time>
      </trkpt>
      <trkpt lat="47.3031" lon="6.03248">
        <ele>435.6</ele>
        <time>2021-10-13T09:24:39Z</time>
      </trkpt>
      <trkpt lat="47.30311" lon="6.03249">
        <ele>436</ele>
        <time>2021-10-13T09:24:40Z</time>
      </trkpt>
      <trkpt lat="47.30313" lon="6.03251">
        <ele>436</ele>
        <time>2021-10-13T09:24:41Z</time>
      </trkpt>
      <trkpt lat="47.30315" lon="6.03253">
        <ele>436.2</ele>
        <time>2021-10-13T09:24:42Z</time>
      </trkpt>
      <trkpt lat="47.30317" lon="6.03255">
        <ele>436.4</ele>
        <time>2021-10-13T09:24:43Z</time>
      </trkpt>
      <trkpt lat="47.30319" lon="6.03257">
        <ele>436.6</ele>
        <time>2021-10-13T09:24:44Z</time>
      </trkpt>
      <trkpt lat="47.3032" lon="6.03259">
        <ele>436.6</ele>
        <time>2021-10-13T09:24:45Z</time>
      </trkpt>
      <trkpt lat="47.30323" lon="6.03262">
        <ele>436.8</ele>
        <time>2021-10-13T09:24:46Z</time>
      </trkpt>
      <trkpt lat="47.30324" lon="6.03263">
        <ele>436.8</ele>
        <time>2021-10-13T09:24:47Z</time>
      </trkpt>
      <trkpt lat="47.30325" lon="6.03265">
        <ele>437</ele>
        <time>2021-10-13T09:24:48Z</time>
      </trkpt>
      <trkpt lat="47.30327" lon="6.03268">
        <ele>437.2</ele>
        <time>2021-10-13T09:24:49Z</time>
      </trkpt>
      <trkpt lat="47.30329" lon="6.03269">
        <ele>437.4</ele>
        <time>2021-10-13T09:24:50Z</time>
      </trkpt>
      <trkpt lat="47.3033" lon="6.03271">
        <ele>437.6</ele>
        <time>2021-10-13T09:24:51Z</time>
      </trkpt>
      <trkpt lat="47.30331" lon="6.03273">
        <ele>437.8</ele>
        <time>2021-10-13T09:24:52Z</time>
      </trkpt>
      <trkpt lat="47.30333" lon="6.03275">
        <ele>438</ele>
        <time>2021-10-13T09:24:53Z</time>
      </trkpt>
      <trkpt lat="47.30334" lon="6.03277">
        <ele>438.2</ele>
        <time>2021-10-13T09:24:54Z</time>
      </trkpt>
      <trkpt lat="47.30336" lon="6.03279">
        <ele>438.4</ele>
        <time>2021-10-13T09:24:55Z</time>
      </trkpt>
      <trkpt lat="47.30338" lon="6.03281">
        <ele>438.6</ele>
        <time>2021-10-13T09:24:56Z</time>
      </trkpt>
      <trkpt lat="47.30339" lon="6.03283">
        <ele>438.8</ele>
        <time>2021-10-13T09:24:57Z</time>
      </trkpt>
      <trkpt lat="47.3034" lon="6.03284">
        <ele>439</ele>
        <time>2021-10-13T09:24:58Z</time>
      </trkpt>
      <trkpt lat="47.3034" lon="6.03285">
        <ele>439.2</ele>
        <time>2021-10-13T09:24:59Z</time>
      </trkpt>
      <trkpt lat="47.30341" lon="6.03287">
        <ele>439.2</ele>
        <time>2021-10-13T09:25:00Z</time>
      </trkpt>
      <trkpt lat="47.30342" lon="6.03288">
        <ele>439.6</ele>
        <time>2021-10-13T09:25:01Z</time>
      </trkpt>
      <trkpt lat="47.30344" lon="6.0329">
        <ele>439.6</ele>
        <time>2021-10-13T09:25:02Z</time>
      </trkpt>
      <trkpt lat="47.30346" lon="6.03291">
        <ele>439.8</ele>
        <time>2021-10-13T09:25:03Z</time>
      </trkpt>
      <trkpt lat="47.30347" lon="6.03293">
        <ele>439.8</ele>
        <time>2021-10-13T09:25:04Z</time>
      </trkpt>
      <trkpt lat="47.30348" lon="6.03295">
        <ele>440.2</ele>
        <time>2021-10-13T09:25:05Z</time>
      </trkpt>
      <trkpt lat="47.30349" lon="6.03297">
        <ele>440.2</ele>
        <time>2021-10-13T09:25:06Z</time>
      </trkpt>
      <trkpt lat="47.30351" lon="6.03299">
        <ele>440.4</ele>
        <time>2021-10-13T09:25:07Z</time>
      </trkpt>
      <trkpt lat="47.30352" lon="6.03301">
        <ele>440.6</ele>
        <time>2021-10-13T09:25:08Z</time>
      </trkpt>
      <trkpt lat="47.30353" lon="6.03303">
        <ele>440.8</ele>
        <time>2021-10-13T09:25:09Z</time>
      </trkpt>
      <trkpt lat="47.30355" lon="6.03304">
        <ele>441</ele>
        <time>2021-10-13T09:25:10Z</time>
      </trkpt>
      <trkpt lat="47.30356" lon="6.03306">
        <ele>441</ele>
        <time>2021-10-13T09:25:11Z</time>
      </trkpt>
      <trkpt lat="47.30358" lon="6.03308">
        <ele>441.2</ele>
        <time>2021-10-13T09:25:12Z</time>
      </trkpt>
      <trkpt lat="47.3036" lon="6.0331">
        <ele>441.4</ele>
        <time>2021-10-13T09:25:13Z</time>
      </trkpt>
      <trkpt lat="47.30362" lon="6.03312">
        <ele>441.4</ele>
        <time>2021-10-13T09:25:14Z</time>
      </trkpt>
      <trkpt lat="47.30364" lon="6.03314">
        <ele>441.6</ele>
        <time>2021-10-13T09:25:15Z</time>
      </trkpt>
      <trkpt lat="47.30365" lon="6.03316">
        <ele>441.8</ele>
        <time>2021-10-13T09:25:16Z</time>
      </trkpt>
      <trkpt lat="47.30368" lon="6.03319">
        <ele>442</ele>
        <time>2021-10-13T09:25:17Z</time>
      </trkpt>
      <trkpt lat="47.30369" lon="6.0332">
        <ele>442</ele>
        <time>2021-10-13T09:25:18Z</time>
      </trkpt>
      <trkpt lat="47.30371" lon="6.03322">
        <ele>442.2</ele>
        <time>2021-10-13T09:25:19Z</time>
      </trkpt>
      <trkpt lat="47.30372" lon="6.03324">
        <ele>442.4</ele>
        <time>2021-10-13T09:25:20Z</time>
      </trkpt>
      <trkpt lat="47.30374" lon="6.03326">
        <ele>442.6</ele>
        <time>2021-10-13T09:25:21Z</time>
      </trkpt>
      <trkpt lat="47.30376" lon="6.03328">
        <ele>442.6</ele>
        <time>2021-10-13T09:25:22Z</time>
      </trkpt>
      <trkpt lat="47.30378" lon="6.0333">
        <ele>442.8</ele>
        <time>2021-10-13T09:25:23Z</time>
      </trkpt>
      <trkpt lat="47.3038" lon="6.03332">
        <ele>443</ele>
        <time>2021-10-13T09:25:24Z</time>
      </trkpt>
      <trkpt lat="47.30382" lon="6.03333">
        <ele>443.2</ele>
        <time>2021-10-13T09:25:25Z</time>
      </trkpt>
      <trkpt lat="47.30383" lon="6.03335">
        <ele>443.4</ele>
        <time>2021-10-13T09:25:26Z</time>
      </trkpt>
      <trkpt lat="47.30384" lon="6.03337">
        <ele>443.6</ele>
        <time>2021-10-13T09:25:27Z</time>
      </trkpt>
      <trkpt lat="47.30385" lon="6.03338">
        <ele>443.8</ele>
        <time>2021-10-13T09:25:28Z</time>
      </trkpt>
      <trkpt lat="47.30387" lon="6.0334">
        <ele>443.8</ele>
        <time>2021-10-13T09:25:29Z</time>
      </trkpt>
      <trkpt lat="47.30388" lon="6.03342">
        <ele>444</ele>
        <time>2021-10-13T09:25:30Z</time>
      </trkpt>
      <trkpt lat="47.30389" lon="6.03343">
        <ele>444</ele>
        <time>2021-10-13T09:25:31Z</time>
      </trkpt>
      <trkpt lat="47.3039" lon="6.03345">
        <ele>444.2</ele>
        <time>2021-10-13T09:25:32Z</time>
      </trkpt>
      <trkpt lat="47.30392" lon="6.03347">
        <ele>444.4</ele>
        <time>2021-10-13T09:25:33Z</time>
      </trkpt>
      <trkpt lat="47.30394" lon="6.03349">
        <ele>444.6</ele>
        <time>2021-10-13T09:25:34Z</time>
      </trkpt>
      <trkpt lat="47.30395" lon="6.03351">
        <ele>444.6</ele>
        <time>2021-10-13T09:25:35Z</time>
      </trkpt>
      <trkpt lat="47.30396" lon="6.03353">
        <ele>445</ele>
        <time>2021-10-13T09:25:36Z</time>
      </trkpt>
      <trkpt lat="47.30399" lon="6.03356">
        <ele>445</ele>
        <time>2021-10-13T09:25:37Z</time>
      </trkpt>
      <trkpt lat="47.304" lon="6.03359">
        <ele>445.2</ele>
        <time>2021-10-13T09:25:38Z</time>
      </trkpt>
      <trkpt lat="47.30402" lon="6.03361">
        <ele>445.2</ele>
        <time>2021-10-13T09:25:39Z</time>
      </trkpt>
      <trkpt lat="47.30403" lon="6.03364">
        <ele>445.4</ele>
        <time>2021-10-13T09:25:40Z</time>
      </trkpt>
      <trkpt lat="47.30404" lon="6.03367">
        <ele>445.4</ele>
        <time>2021-10-13T09:25:41Z</time>
      </trkpt>
      <trkpt lat="47.30405" lon="6.03369">
        <ele>445.6</ele>
        <time>2021-10-13T09:25:42Z</time>
      </trkpt>
      <trkpt lat="47.30406" lon="6.03372">
        <ele>445.8</ele>
        <time>2021-10-13T09:25:43Z</time>
      </trkpt>
      <trkpt lat="47.30407" lon="6.03375">
        <ele>445.8</ele>
        <time>2021-10-13T09:25:44Z</time>
      </trkpt>
      <trkpt lat="47.30408" lon="6.03377">
        <ele>446</ele>
        <time>2021-10-13T09:25:45Z</time>
      </trkpt>
      <trkpt lat="47.30409" lon="6.0338">
        <ele>446.2</ele>
        <time>2021-10-13T09:25:46Z</time>
      </trkpt>
      <trkpt lat="47.3041" lon="6.03383">
        <ele>446.2</ele>
        <time>2021-10-13T09:25:47Z</time>
      </trkpt>
      <trkpt lat="47.30411" lon="6.03385">
        <ele>446.4</ele>
        <time>2021-10-13T09:25:48Z</time>
      </trkpt>
      <trkpt lat="47.30412" lon="6.03388">
        <ele>446.4</ele>
        <time>2021-10-13T09:25:49Z</time>
      </trkpt>
      <trkpt lat="47.30412" lon="6.0339">
        <ele>446.6</ele>
        <time>2021-10-13T09:25:50Z</time>
      </trkpt>
      <trkpt lat="47.30413" lon="6.03393">
        <ele>446.6</ele>
        <time>2021-10-13T09:25:51Z</time>
      </trkpt>
      <trkpt lat="47.30414" lon="6.03397">
        <ele>446.8</ele>
        <time>2021-10-13T09:25:52Z</time>
      </trkpt>
      <trkpt lat="47.30415" lon="6.034">
        <ele>447</ele>
        <time>2021-10-13T09:25:53Z</time>
      </trkpt>
      <trkpt lat="47.30415" lon="6.03404">
        <ele>447</ele>
        <time>2021-10-13T09:25:54Z</time>
      </trkpt>
      <trkpt lat="47.30417" lon="6.03407">
        <ele>447.2</ele>
        <time>2021-10-13T09:25:55Z</time>
      </trkpt>
      <trkpt lat="47.30419" lon="6.0341">
        <ele>447.2</ele>
        <time>2021-10-13T09:25:56Z</time>
      </trkpt>
      <trkpt lat="47.30421" lon="6.03412">
        <ele>447.2</ele>
        <time>2021-10-13T09:25:57Z</time>
      </trkpt>
      <trkpt lat="47.30422" lon="6.03415">
        <ele>447.2</ele>
        <time>2021-10-13T09:25:58Z</time>
      </trkpt>
      <trkpt lat="47.30424" lon="6.03417">
        <ele>447.4</ele>
        <time>2021-10-13T09:25:59Z</time>
      </trkpt>
      <trkpt lat="47.30426" lon="6.03419">
        <ele>447.4</ele>
        <time>2021-10-13T09:26:00Z</time>
      </trkpt>
      <trkpt lat="47.30428" lon="6.0342">
        <ele>447.4</ele>
        <time>2021-10-13T09:26:01Z</time>
      </trkpt>
      <trkpt lat="47.30432" lon="6.03421">
        <ele>447.4</ele>
        <time>2021-10-13T09:26:02Z</time>
      </trkpt>
      <trkpt lat="47.30435" lon="6.03423">
        <ele>447.4</ele>
        <time>2021-10-13T09:26:03Z</time>
      </trkpt>
      <trkpt lat="47.30437" lon="6.03423">
        <ele>447.6</ele>
        <time>2021-10-13T09:26:04Z</time>
      </trkpt>
      <trkpt lat="47.3044" lon="6.03421">
        <ele>447.6</ele>
        <time>2021-10-13T09:26:05Z</time>
      </trkpt>
      <trkpt lat="47.30441" lon="6.0342">
        <ele>447.6</ele>
        <time>2021-10-13T09:26:06Z</time>
      </trkpt>
      <trkpt lat="47.30444" lon="6.03418">
        <ele>447.8</ele>
        <time>2021-10-13T09:26:07Z</time>
      </trkpt>
      <trkpt lat="47.30446" lon="6.03416">
        <ele>447.8</ele>
        <time>2021-10-13T09:26:08Z</time>
      </trkpt>
      <trkpt lat="47.30447" lon="6.03414">
        <ele>448</ele>
        <time>2021-10-13T09:26:09Z</time>
      </trkpt>
      <trkpt lat="47.30447" lon="6.03411">
        <ele>448.2</ele>
        <time>2021-10-13T09:26:10Z</time>
      </trkpt>
      <trkpt lat="47.30447" lon="6.03408">
        <ele>448.2</ele>
        <time>2021-10-13T09:26:11Z</time>
      </trkpt>
      <trkpt lat="47.30447" lon="6.03405">
        <ele>448.4</ele>
        <time>2021-10-13T09:26:12Z</time>
      </trkpt>
      <trkpt lat="47.30447" lon="6.03402">
        <ele>448.6</ele>
        <time>2021-10-13T09:26:13Z</time>
      </trkpt>
      <trkpt lat="47.30446" lon="6.03399">
        <ele>449</ele>
        <time>2021-10-13T09:26:14Z</time>
      </trkpt>
      <trkpt lat="47.30445" lon="6.03393">
        <ele>449.2</ele>
        <time>2021-10-13T09:26:16Z</time>
      </trkpt>
      <trkpt lat="47.30444" lon="6.0339">
        <ele>449.4</ele>
        <time>2021-10-13T09:26:17Z</time>
      </trkpt>
      <trkpt lat="47.30441" lon="6.03384">
        <ele>449.6</ele>
        <time>2021-10-13T09:26:19Z</time>
      </trkpt>
      <trkpt lat="47.30441" lon="6.03382">
        <ele>449.8</ele>
        <time>2021-10-13T09:26:20Z</time>
      </trkpt>
      <trkpt lat="47.3044" lon="6.03379">
        <ele>449.8</ele>
        <time>2021-10-13T09:26:21Z</time>
      </trkpt>
      <trkpt lat="47.30439" lon="6.03376">
        <ele>450</ele>
        <time>2021-10-13T09:26:22Z</time>
      </trkpt>
      <trkpt lat="47.30438" lon="6.03373">
        <ele>450.2</ele>
        <time>2021-10-13T09:26:23Z</time>
      </trkpt>
      <trkpt lat="47.30437" lon="6.0337">
        <ele>450.4</ele>
        <time>2021-10-13T09:26:24Z</time>
      </trkpt>
      <trkpt lat="47.30437" lon="6.03368">
        <ele>450.8</ele>
        <time>2021-10-13T09:26:25Z</time>
      </trkpt>
      <trkpt lat="47.30436" lon="6.03365">
        <ele>451</ele>
        <time>2021-10-13T09:26:26Z</time>
      </trkpt>
      <trkpt lat="47.30435" lon="6.03362">
        <ele>451.2</ele>
        <time>2021-10-13T09:26:27Z</time>
      </trkpt>
      <trkpt lat="47.30434" lon="6.03359">
        <ele>451.2</ele>
        <time>2021-10-13T09:26:28Z</time>
      </trkpt>
      <trkpt lat="47.30432" lon="6.03357">
        <ele>451.4</ele>
        <time>2021-10-13T09:26:29Z</time>
      </trkpt>
      <trkpt lat="47.30431" lon="6.03353">
        <ele>451.4</ele>
        <time>2021-10-13T09:26:30Z</time>
      </trkpt>
      <trkpt lat="47.3043" lon="6.0335">
        <ele>451.6</ele>
        <time>2021-10-13T09:26:31Z</time>
      </trkpt>
      <trkpt lat="47.30429" lon="6.03347">
        <ele>451.6</ele>
        <time>2021-10-13T09:26:32Z</time>
      </trkpt>
      <trkpt lat="47.30427" lon="6.03343">
        <ele>451.8</ele>
        <time>2021-10-13T09:26:33Z</time>
      </trkpt>
      <trkpt lat="47.30426" lon="6.03341">
        <ele>452</ele>
        <time>2021-10-13T09:26:34Z</time>
      </trkpt>
      <trkpt lat="47.30425" lon="6.03338">
        <ele>452</ele>
        <time>2021-10-13T09:26:35Z</time>
      </trkpt>
      <trkpt lat="47.30423" lon="6.03335">
        <ele>452.2</ele>
        <time>2021-10-13T09:26:36Z</time>
      </trkpt>
      <trkpt lat="47.30422" lon="6.03332">
        <ele>452.4</ele>
        <time>2021-10-13T09:26:37Z</time>
      </trkpt>
      <trkpt lat="47.30421" lon="6.0333">
        <ele>452.6</ele>
        <time>2021-10-13T09:26:38Z</time>
      </trkpt>
      <trkpt lat="47.3042" lon="6.03327">
        <ele>452.6</ele>
        <time>2021-10-13T09:26:39Z</time>
      </trkpt>
      <trkpt lat="47.30419" lon="6.03324">
        <ele>452.8</ele>
        <time>2021-10-13T09:26:40Z</time>
      </trkpt>
      <trkpt lat="47.30418" lon="6.03321">
        <ele>452.8</ele>
        <time>2021-10-13T09:26:41Z</time>
      </trkpt>
      <trkpt lat="47.30417" lon="6.03317">
        <ele>453</ele>
        <time>2021-10-13T09:26:42Z</time>
      </trkpt>
      <trkpt lat="47.30416" lon="6.03314">
        <ele>453.2</ele>
        <time>2021-10-13T09:26:43Z</time>
      </trkpt>
      <trkpt lat="47.30415" lon="6.03312">
        <ele>453.2</ele>
        <time>2021-10-13T09:26:44Z</time>
      </trkpt>
      <trkpt lat="47.30413" lon="6.03308">
        <ele>453.4</ele>
        <time>2021-10-13T09:26:45Z</time>
      </trkpt>
      <trkpt lat="47.30412" lon="6.03306">
        <ele>453.4</ele>
        <time>2021-10-13T09:26:46Z</time>
      </trkpt>
      <trkpt lat="47.30411" lon="6.03303">
        <ele>453.8</ele>
        <time>2021-10-13T09:26:47Z</time>
      </trkpt>
      <trkpt lat="47.30411" lon="6.033">
        <ele>453.8</ele>
        <time>2021-10-13T09:26:48Z</time>
      </trkpt>
      <trkpt lat="47.3041" lon="6.03296">
        <ele>453.8</ele>
        <time>2021-10-13T09:26:49Z</time>
      </trkpt>
      <trkpt lat="47.3041" lon="6.03293">
        <ele>454</ele>
        <time>2021-10-13T09:26:50Z</time>
      </trkpt>
      <trkpt lat="47.30409" lon="6.0329">
        <ele>454</ele>
        <time>2021-10-13T09:26:51Z</time>
      </trkpt>
      <trkpt lat="47.30409" lon="6.03287">
        <ele>454</ele>
        <time>2021-10-13T09:26:52Z</time>
      </trkpt>
      <trkpt lat="47.30408" lon="6.03283">
        <ele>454.2</ele>
        <time>2021-10-13T09:26:53Z</time>
      </trkpt>
      <trkpt lat="47.30408" lon="6.0328">
        <ele>454.2</ele>
        <time>2021-10-13T09:26:54Z</time>
      </trkpt>
      <trkpt lat="47.30408" lon="6.03278">
        <ele>454.4</ele>
        <time>2021-10-13T09:26:55Z</time>
      </trkpt>
      <trkpt lat="47.30408" lon="6.03275">
        <ele>454.6</ele>
        <time>2021-10-13T09:26:56Z</time>
      </trkpt>
      <trkpt lat="47.30408" lon="6.03272">
        <ele>454.8</ele>
        <time>2021-10-13T09:26:57Z</time>
      </trkpt>
      <trkpt lat="47.30408" lon="6.03269">
        <ele>455</ele>
        <time>2021-10-13T09:26:58Z</time>
      </trkpt>
      <trkpt lat="47.30408" lon="6.03267">
        <ele>455</ele>
        <time>2021-10-13T09:26:59Z</time>
      </trkpt>
      <trkpt lat="47.30407" lon="6.03265">
        <ele>455.4</ele>
        <time>2021-10-13T09:27:00Z</time>
      </trkpt>
      <trkpt lat="47.30407" lon="6.03262">
        <ele>455.4</ele>
        <time>2021-10-13T09:27:01Z</time>
      </trkpt>
      <trkpt lat="47.30406" lon="6.03259">
        <ele>455.8</ele>
        <time>2021-10-13T09:27:02Z</time>
      </trkpt>
      <trkpt lat="47.30406" lon="6.03256">
        <ele>456</ele>
        <time>2021-10-13T09:27:03Z</time>
      </trkpt>
      <trkpt lat="47.30406" lon="6.03253">
        <ele>456.2</ele>
        <time>2021-10-13T09:27:04Z</time>
      </trkpt>
      <trkpt lat="47.30406" lon="6.0325">
        <ele>456.2</ele>
        <time>2021-10-13T09:27:05Z</time>
      </trkpt>
      <trkpt lat="47.30406" lon="6.03248">
        <ele>456.2</ele>
        <time>2021-10-13T09:27:06Z</time>
      </trkpt>
      <trkpt lat="47.30405" lon="6.03246">
        <ele>456.4</ele>
        <time>2021-10-13T09:27:07Z</time>
      </trkpt>
      <trkpt lat="47.30405" lon="6.03244">
        <ele>456.4</ele>
        <time>2021-10-13T09:27:08Z</time>
      </trkpt>
      <trkpt lat="47.30405" lon="6.03241">
        <ele>456.4</ele>
        <time>2021-10-13T09:27:09Z</time>
      </trkpt>
      <trkpt lat="47.30404" lon="6.03237">
        <ele>456.6</ele>
        <time>2021-10-13T09:27:10Z</time>
      </trkpt>
      <trkpt lat="47.30404" lon="6.03234">
        <ele>457</ele>
        <time>2021-10-13T09:27:11Z</time>
      </trkpt>
      <trkpt lat="47.30404" lon="6.0323">
        <ele>457</ele>
        <time>2021-10-13T09:27:12Z</time>
      </trkpt>
      <trkpt lat="47.30403" lon="6.03227">
        <ele>457.4</ele>
        <time>2021-10-13T09:27:13Z</time>
      </trkpt>
      <trkpt lat="47.30402" lon="6.03223">
        <ele>457.6</ele>
        <time>2021-10-13T09:27:14Z</time>
      </trkpt>
      <trkpt lat="47.30401" lon="6.0322">
        <ele>458</ele>
        <time>2021-10-13T09:27:15Z</time>
      </trkpt>
      <trkpt lat="47.304" lon="6.03216">
        <ele>458.2</ele>
        <time>2021-10-13T09:27:16Z</time>
      </trkpt>
      <trkpt lat="47.30399" lon="6.03213">
        <ele>458.6</ele>
        <time>2021-10-13T09:27:17Z</time>
      </trkpt>
      <trkpt lat="47.30398" lon="6.03209">
        <ele>458.6</ele>
        <time>2021-10-13T09:27:18Z</time>
      </trkpt>
      <trkpt lat="47.30397" lon="6.03205">
        <ele>458.8</ele>
        <time>2021-10-13T09:27:19Z</time>
      </trkpt>
      <trkpt lat="47.30396" lon="6.03202">
        <ele>458.8</ele>
        <time>2021-10-13T09:27:20Z</time>
      </trkpt>
      <trkpt lat="47.30396" lon="6.03198">
        <ele>459</ele>
        <time>2021-10-13T09:27:21Z</time>
      </trkpt>
      <trkpt lat="47.30395" lon="6.03194">
        <ele>459</ele>
        <time>2021-10-13T09:27:22Z</time>
      </trkpt>
      <trkpt lat="47.30394" lon="6.03191">
        <ele>459.2</ele>
        <time>2021-10-13T09:27:23Z</time>
      </trkpt>
      <trkpt lat="47.30393" lon="6.03187">
        <ele>459.2</ele>
        <time>2021-10-13T09:27:24Z</time>
      </trkpt>
      <trkpt lat="47.30392" lon="6.03184">
        <ele>459.2</ele>
        <time>2021-10-13T09:27:25Z</time>
      </trkpt>
      <trkpt lat="47.3039" lon="6.0318">
        <ele>459.2</ele>
        <time>2021-10-13T09:27:26Z</time>
      </trkpt>
      <trkpt lat="47.30389" lon="6.03176">
        <ele>459.2</ele>
        <time>2021-10-13T09:27:27Z</time>
      </trkpt>
      <trkpt lat="47.30388" lon="6.03172">
        <ele>459.4</ele>
        <time>2021-10-13T09:27:28Z</time>
      </trkpt>
      <trkpt lat="47.30388" lon="6.0317">
        <ele>459.4</ele>
        <time>2021-10-13T09:27:29Z</time>
      </trkpt>
      <trkpt lat="47.30387" lon="6.03167">
        <ele>459.4</ele>
        <time>2021-10-13T09:27:30Z</time>
      </trkpt>
      <trkpt lat="47.30386" lon="6.03164">
        <ele>459.4</ele>
        <time>2021-10-13T09:27:31Z</time>
      </trkpt>
      <trkpt lat="47.30385" lon="6.03162">
        <ele>459.6</ele>
        <time>2021-10-13T09:27:32Z</time>
      </trkpt>
      <trkpt lat="47.30384" lon="6.03158">
        <ele>459.6</ele>
        <time>2021-10-13T09:27:33Z</time>
      </trkpt>
      <trkpt lat="47.30384" lon="6.03156">
        <ele>459.6</ele>
        <time>2021-10-13T09:27:34Z</time>
      </trkpt>
      <trkpt lat="47.30383" lon="6.03154">
        <ele>459.8</ele>
        <time>2021-10-13T09:27:35Z</time>
      </trkpt>
      <trkpt lat="47.30383" lon="6.03152">
        <ele>460</ele>
        <time>2021-10-13T09:27:36Z</time>
      </trkpt>
      <trkpt lat="47.30382" lon="6.03149">
        <ele>460.2</ele>
        <time>2021-10-13T09:27:37Z</time>
      </trkpt>
      <trkpt lat="47.30381" lon="6.03146">
        <ele>460.2</ele>
        <time>2021-10-13T09:27:38Z</time>
      </trkpt>
      <trkpt lat="47.3038" lon="6.03144">
        <ele>460.2</ele>
        <time>2021-10-13T09:27:39Z</time>
      </trkpt>
      <trkpt lat="47.3038" lon="6.0314">
        <ele>460.4</ele>
        <time>2021-10-13T09:27:40Z</time>
      </trkpt>
      <trkpt lat="47.30379" lon="6.03137">
        <ele>460.4</ele>
        <time>2021-10-13T09:27:41Z</time>
      </trkpt>
      <trkpt lat="47.30378" lon="6.03133">
        <ele>460.4</ele>
        <time>2021-10-13T09:27:42Z</time>
      </trkpt>
      <trkpt lat="47.30377" lon="6.03129">
        <ele>460.6</ele>
        <time>2021-10-13T09:27:43Z</time>
      </trkpt>
      <trkpt lat="47.30376" lon="6.03126">
        <ele>460.6</ele>
        <time>2021-10-13T09:27:44Z</time>
      </trkpt>
      <trkpt lat="47.30375" lon="6.03119">
        <ele>460.6</ele>
        <time>2021-10-13T09:27:46Z</time>
      </trkpt>
      <trkpt lat="47.30371" lon="6.031">
        <ele>461</ele>
        <time>2021-10-13T09:27:51Z</time>
      </trkpt>
      <trkpt lat="47.3037" lon="6.03096">
        <ele>461.4</ele>
        <time>2021-10-13T09:27:52Z</time>
      </trkpt>
      <trkpt lat="47.30372" lon="6.03086">
        <ele>461.8</ele>
        <time>2021-10-13T09:27:55Z</time>
      </trkpt>
      <trkpt lat="47.30373" lon="6.03084">
        <ele>461.8</ele>
        <time>2021-10-13T09:27:56Z</time>
      </trkpt>
      <trkpt lat="47.30375" lon="6.03082">
        <ele>461.8</ele>
        <time>2021-10-13T09:27:57Z</time>
      </trkpt>
      <trkpt lat="47.30377" lon="6.03081">
        <ele>461.8</ele>
        <time>2021-10-13T09:27:58Z</time>
      </trkpt>
      <trkpt lat="47.30381" lon="6.0308">
        <ele>462</ele>
        <time>2021-10-13T09:28:00Z</time>
      </trkpt>
      <trkpt lat="47.30384" lon="6.0308">
        <ele>462</ele>
        <time>2021-10-13T09:28:01Z</time>
      </trkpt>
      <trkpt lat="47.30386" lon="6.03081">
        <ele>462.2</ele>
        <time>2021-10-13T09:28:02Z</time>
      </trkpt>
      <trkpt lat="47.30387" lon="6.03082">
        <ele>462.2</ele>
        <time>2021-10-13T09:28:03Z</time>
      </trkpt>
      <trkpt lat="47.30389" lon="6.03084">
        <ele>462.4</ele>
        <time>2021-10-13T09:28:04Z</time>
      </trkpt>
      <trkpt lat="47.3039" lon="6.03086">
        <ele>462.6</ele>
        <time>2021-10-13T09:28:05Z</time>
      </trkpt>
      <trkpt lat="47.30391" lon="6.03088">
        <ele>462.6</ele>
        <time>2021-10-13T09:28:06Z</time>
      </trkpt>
      <trkpt lat="47.30391" lon="6.03091">
        <ele>462.8</ele>
        <time>2021-10-13T09:28:07Z</time>
      </trkpt>
      <trkpt lat="47.30391" lon="6.03093">
        <ele>462.8</ele>
        <time>2021-10-13T09:28:08Z</time>
      </trkpt>
      <trkpt lat="47.30391" lon="6.03096">
        <ele>463.2</ele>
        <time>2021-10-13T09:28:09Z</time>
      </trkpt>
      <trkpt lat="47.30392" lon="6.03099">
        <ele>463.2</ele>
        <time>2021-10-13T09:28:10Z</time>
      </trkpt>
      <trkpt lat="47.30392" lon="6.03102">
        <ele>463.4</ele>
        <time>2021-10-13T09:28:11Z</time>
      </trkpt>
      <trkpt lat="47.30393" lon="6.03105">
        <ele>463.6</ele>
        <time>2021-10-13T09:28:12Z</time>
      </trkpt>
      <trkpt lat="47.30394" lon="6.03108">
        <ele>463.8</ele>
        <time>2021-10-13T09:28:13Z</time>
      </trkpt>
      <trkpt lat="47.30394" lon="6.0311">
        <ele>463.8</ele>
        <time>2021-10-13T09:28:14Z</time>
      </trkpt>
      <trkpt lat="47.30395" lon="6.03113">
        <ele>464</ele>
        <time>2021-10-13T09:28:15Z</time>
      </trkpt>
      <trkpt lat="47.30395" lon="6.03116">
        <ele>464.2</ele>
        <time>2021-10-13T09:28:16Z</time>
      </trkpt>
      <trkpt lat="47.30396" lon="6.03119">
        <ele>464.4</ele>
        <time>2021-10-13T09:28:17Z</time>
      </trkpt>
      <trkpt lat="47.30397" lon="6.03123">
        <ele>464.4</ele>
        <time>2021-10-13T09:28:18Z</time>
      </trkpt>
      <trkpt lat="47.30398" lon="6.03126">
        <ele>464.4</ele>
        <time>2021-10-13T09:28:19Z</time>
      </trkpt>
      <trkpt lat="47.30399" lon="6.03129">
        <ele>464.6</ele>
        <time>2021-10-13T09:28:20Z</time>
      </trkpt>
      <trkpt lat="47.304" lon="6.03132">
        <ele>464.6</ele>
        <time>2021-10-13T09:28:21Z</time>
      </trkpt>
      <trkpt lat="47.30401" lon="6.03134">
        <ele>464.6</ele>
        <time>2021-10-13T09:28:22Z</time>
      </trkpt>
      <trkpt lat="47.30402" lon="6.03136">
        <ele>464.8</ele>
        <time>2021-10-13T09:28:23Z</time>
      </trkpt>
      <trkpt lat="47.30403" lon="6.03137">
        <ele>464.8</ele>
        <time>2021-10-13T09:28:24Z</time>
      </trkpt>
      <trkpt lat="47.30404" lon="6.0314">
        <ele>464.8</ele>
        <time>2021-10-13T09:28:25Z</time>
      </trkpt>
      <trkpt lat="47.30405" lon="6.03142">
        <ele>464.8</ele>
        <time>2021-10-13T09:28:26Z</time>
      </trkpt>
      <trkpt lat="47.30406" lon="6.03144">
        <ele>464.8</ele>
        <time>2021-10-13T09:28:27Z</time>
      </trkpt>
      <trkpt lat="47.30408" lon="6.03147">
        <ele>465</ele>
        <time>2021-10-13T09:28:28Z</time>
      </trkpt>
      <trkpt lat="47.30409" lon="6.03149">
        <ele>465</ele>
        <time>2021-10-13T09:28:29Z</time>
      </trkpt>
      <trkpt lat="47.3041" lon="6.03152">
        <ele>465.2</ele>
        <time>2021-10-13T09:28:30Z</time>
      </trkpt>
      <trkpt lat="47.30411" lon="6.03154">
        <ele>465.4</ele>
        <time>2021-10-13T09:28:31Z</time>
      </trkpt>
      <trkpt lat="47.30412" lon="6.03156">
        <ele>465.6</ele>
        <time>2021-10-13T09:28:32Z</time>
      </trkpt>
      <trkpt lat="47.30413" lon="6.03158">
        <ele>465.6</ele>
        <time>2021-10-13T09:28:33Z</time>
      </trkpt>
      <trkpt lat="47.30415" lon="6.03161">
        <ele>465.6</ele>
        <time>2021-10-13T09:28:34Z</time>
      </trkpt>
      <trkpt lat="47.30417" lon="6.03164">
        <ele>465.8</ele>
        <time>2021-10-13T09:28:35Z</time>
      </trkpt>
      <trkpt lat="47.30419" lon="6.03167">
        <ele>465.8</ele>
        <time>2021-10-13T09:28:36Z</time>
      </trkpt>
      <trkpt lat="47.30423" lon="6.03183">
        <ele>466.4</ele>
        <time>2021-10-13T09:28:41Z</time>
      </trkpt>
      <trkpt lat="47.30428" lon="6.03197">
        <ele>466.8</ele>
        <time>2021-10-13T09:28:45Z</time>
      </trkpt>
      <trkpt lat="47.3043" lon="6.03205">
        <ele>467</ele>
        <time>2021-10-13T09:28:47Z</time>
      </trkpt>
      <trkpt lat="47.3043" lon="6.03208">
        <ele>467</ele>
        <time>2021-10-13T09:28:48Z</time>
      </trkpt>
      <trkpt lat="47.30431" lon="6.0321">
        <ele>467</ele>
        <time>2021-10-13T09:28:49Z</time>
      </trkpt>
      <trkpt lat="47.30431" lon="6.03213">
        <ele>467</ele>
        <time>2021-10-13T09:28:50Z</time>
      </trkpt>
      <trkpt lat="47.30433" lon="6.03216">
        <ele>467</ele>
        <time>2021-10-13T09:28:51Z</time>
      </trkpt>
      <trkpt lat="47.30433" lon="6.03219">
        <ele>467.2</ele>
        <time>2021-10-13T09:28:52Z</time>
      </trkpt>
      <trkpt lat="47.30436" lon="6.03222">
        <ele>467.2</ele>
        <time>2021-10-13T09:28:53Z</time>
      </trkpt>
      <trkpt lat="47.30437" lon="6.03225">
        <ele>467.2</ele>
        <time>2021-10-13T09:28:54Z</time>
      </trkpt>
      <trkpt lat="47.30438" lon="6.03228">
        <ele>467.2</ele>
        <time>2021-10-13T09:28:55Z</time>
      </trkpt>
      <trkpt lat="47.30442" lon="6.03239">
        <ele>467.4</ele>
        <time>2021-10-13T09:28:58Z</time>
      </trkpt>
      <trkpt lat="47.3045" lon="6.03262">
        <ele>467.4</ele>
        <time>2021-10-13T09:29:05Z</time>
      </trkpt>
      <trkpt lat="47.30453" lon="6.03263">
        <ele>467.6</ele>
        <time>2021-10-13T09:29:06Z</time>
      </trkpt>
      <trkpt lat="47.30457" lon="6.03263">
        <ele>467.6</ele>
        <time>2021-10-13T09:29:08Z</time>
      </trkpt>
      <trkpt lat="47.3046" lon="6.03262">
        <ele>467.6</ele>
        <time>2021-10-13T09:29:09Z</time>
      </trkpt>
      <trkpt lat="47.30462" lon="6.0326">
        <ele>467.6</ele>
        <time>2021-10-13T09:29:10Z</time>
      </trkpt>
      <trkpt lat="47.30464" lon="6.03258">
        <ele>467.8</ele>
        <time>2021-10-13T09:29:11Z</time>
      </trkpt>
      <trkpt lat="47.30465" lon="6.03256">
        <ele>467.8</ele>
        <time>2021-10-13T09:29:12Z</time>
      </trkpt>
      <trkpt lat="47.30466" lon="6.03253">
        <ele>468</ele>
        <time>2021-10-13T09:29:13Z</time>
      </trkpt>
      <trkpt lat="47.30466" lon="6.0325">
        <ele>468</ele>
        <time>2021-10-13T09:29:14Z</time>
      </trkpt>
      <trkpt lat="47.30467" lon="6.03247">
        <ele>468</ele>
        <time>2021-10-13T09:29:15Z</time>
      </trkpt>
      <trkpt lat="47.30467" lon="6.03244">
        <ele>468</ele>
        <time>2021-10-13T09:29:16Z</time>
      </trkpt>
      <trkpt lat="47.30467" lon="6.03242">
        <ele>468.2</ele>
        <time>2021-10-13T09:29:17Z</time>
      </trkpt>
      <trkpt lat="47.30467" lon="6.03239">
        <ele>468.2</ele>
        <time>2021-10-13T09:29:18Z</time>
      </trkpt>
      <trkpt lat="47.30466" lon="6.03237">
        <ele>468.2</ele>
        <time>2021-10-13T09:29:19Z</time>
      </trkpt>
      <trkpt lat="47.30465" lon="6.03235">
        <ele>468.4</ele>
        <time>2021-10-13T09:29:20Z</time>
      </trkpt>
      <trkpt lat="47.30464" lon="6.03231">
        <ele>468.4</ele>
        <time>2021-10-13T09:29:21Z</time>
      </trkpt>
      <trkpt lat="47.30463" lon="6.03229">
        <ele>468.6</ele>
        <time>2021-10-13T09:29:22Z</time>
      </trkpt>
      <trkpt lat="47.30457" lon="6.03214">
        <ele>469.2</ele>
        <time>2021-10-13T09:29:27Z</time>
      </trkpt>
      <trkpt lat="47.30453" lon="6.03204">
        <ele>469.6</ele>
        <time>2021-10-13T09:29:30Z</time>
      </trkpt>
      <trkpt lat="47.3045" lon="6.03198">
        <ele>470</ele>
        <time>2021-10-13T09:29:32Z</time>
      </trkpt>
      <trkpt lat="47.3045" lon="6.03196">
        <ele>470.2</ele>
        <time>2021-10-13T09:29:33Z</time>
      </trkpt>
      <trkpt lat="47.30447" lon="6.03183">
        <ele>470.8</ele>
        <time>2021-10-13T09:29:37Z</time>
      </trkpt>
      <trkpt lat="47.30446" lon="6.0318">
        <ele>471</ele>
        <time>2021-10-13T09:29:38Z</time>
      </trkpt>
      <trkpt lat="47.30445" lon="6.03176">
        <ele>471.2</ele>
        <time>2021-10-13T09:29:39Z</time>
      </trkpt>
      <trkpt lat="47.30445" lon="6.03173">
        <ele>471.2</ele>
        <time>2021-10-13T09:29:40Z</time>
      </trkpt>
      <trkpt lat="47.30444" lon="6.0317">
        <ele>471.4</ele>
        <time>2021-10-13T09:29:41Z</time>
      </trkpt>
      <trkpt lat="47.30444" lon="6.03167">
        <ele>471.4</ele>
        <time>2021-10-13T09:29:42Z</time>
      </trkpt>
      <trkpt lat="47.30443" lon="6.03165">
        <ele>471.6</ele>
        <time>2021-10-13T09:29:43Z</time>
      </trkpt>
      <trkpt lat="47.30443" lon="6.03162">
        <ele>471.6</ele>
        <time>2021-10-13T09:29:44Z</time>
      </trkpt>
      <trkpt lat="47.30443" lon="6.03159">
        <ele>471.6</ele>
        <time>2021-10-13T09:29:45Z</time>
      </trkpt>
      <trkpt lat="47.30443" lon="6.03157">
        <ele>471.6</ele>
        <time>2021-10-13T09:29:46Z</time>
      </trkpt>
      <trkpt lat="47.30443" lon="6.03154">
        <ele>471.8</ele>
        <time>2021-10-13T09:29:47Z</time>
      </trkpt>
      <trkpt lat="47.30442" lon="6.03152">
        <ele>472</ele>
        <time>2021-10-13T09:29:48Z</time>
      </trkpt>
      <trkpt lat="47.30442" lon="6.03149">
        <ele>472.2</ele>
        <time>2021-10-13T09:29:49Z</time>
      </trkpt>
      <trkpt lat="47.30442" lon="6.03147">
        <ele>472.6</ele>
        <time>2021-10-13T09:29:50Z</time>
      </trkpt>
      <trkpt lat="47.30442" lon="6.03144">
        <ele>472.6</ele>
        <time>2021-10-13T09:29:51Z</time>
      </trkpt>
      <trkpt lat="47.30442" lon="6.03141">
        <ele>472.6</ele>
        <time>2021-10-13T09:29:52Z</time>
      </trkpt>
      <trkpt lat="47.30441" lon="6.03138">
        <ele>472.8</ele>
        <time>2021-10-13T09:29:53Z</time>
      </trkpt>
      <trkpt lat="47.3044" lon="6.03134">
        <ele>472.8</ele>
        <time>2021-10-13T09:29:54Z</time>
      </trkpt>
      <trkpt lat="47.30439" lon="6.03131">
        <ele>473</ele>
        <time>2021-10-13T09:29:55Z</time>
      </trkpt>
      <trkpt lat="47.30438" lon="6.03128">
        <ele>473.2</ele>
        <time>2021-10-13T09:29:56Z</time>
      </trkpt>
      <trkpt lat="47.30437" lon="6.03125">
        <ele>473.4</ele>
        <time>2021-10-13T09:29:57Z</time>
      </trkpt>
      <trkpt lat="47.30436" lon="6.03122">
        <ele>473.6</ele>
        <time>2021-10-13T09:29:58Z</time>
      </trkpt>
      <trkpt lat="47.30435" lon="6.03119">
        <ele>474</ele>
        <time>2021-10-13T09:29:59Z</time>
      </trkpt>
      <trkpt lat="47.30435" lon="6.03116">
        <ele>474.2</ele>
        <time>2021-10-13T09:30:00Z</time>
      </trkpt>
      <trkpt lat="47.30434" lon="6.03114">
        <ele>474.6</ele>
        <time>2021-10-13T09:30:01Z</time>
      </trkpt>
      <trkpt lat="47.30433" lon="6.03111">
        <ele>474.8</ele>
        <time>2021-10-13T09:30:02Z</time>
      </trkpt>
      <trkpt lat="47.30432" lon="6.03108">
        <ele>475.2</ele>
        <time>2021-10-13T09:30:03Z</time>
      </trkpt>
      <trkpt lat="47.30431" lon="6.03105">
        <ele>475.2</ele>
        <time>2021-10-13T09:30:04Z</time>
      </trkpt>
      <trkpt lat="47.3043" lon="6.03102">
        <ele>475.4</ele>
        <time>2021-10-13T09:30:05Z</time>
      </trkpt>
      <trkpt lat="47.30429" lon="6.031">
        <ele>475.6</ele>
        <time>2021-10-13T09:30:06Z</time>
      </trkpt>
      <trkpt lat="47.30429" lon="6.03098">
        <ele>475.8</ele>
        <time>2021-10-13T09:30:07Z</time>
      </trkpt>
      <trkpt lat="47.30428" lon="6.03096">
        <ele>475.8</ele>
        <time>2021-10-13T09:30:08Z</time>
      </trkpt>
      <trkpt lat="47.30428" lon="6.03092">
        <ele>476</ele>
        <time>2021-10-13T09:30:09Z</time>
      </trkpt>
      <trkpt lat="47.30428" lon="6.03089">
        <ele>476</ele>
        <time>2021-10-13T09:30:10Z</time>
      </trkpt>
      <trkpt lat="47.30426" lon="6.03085">
        <ele>476.2</ele>
        <time>2021-10-13T09:30:11Z</time>
      </trkpt>
      <trkpt lat="47.30426" lon="6.03082">
        <ele>476.4</ele>
        <time>2021-10-13T09:30:12Z</time>
      </trkpt>
      <trkpt lat="47.30425" lon="6.03079">
        <ele>476.4</ele>
        <time>2021-10-13T09:30:13Z</time>
      </trkpt>
      <trkpt lat="47.30424" lon="6.03077">
        <ele>476.6</ele>
        <time>2021-10-13T09:30:14Z</time>
      </trkpt>
      <trkpt lat="47.30423" lon="6.03074">
        <ele>476.8</ele>
        <time>2021-10-13T09:30:15Z</time>
      </trkpt>
      <trkpt lat="47.30422" lon="6.03071">
        <ele>477.2</ele>
        <time>2021-10-13T09:30:16Z</time>
      </trkpt>
      <trkpt lat="47.3042" lon="6.03068">
        <ele>477.2</ele>
        <time>2021-10-13T09:30:17Z</time>
      </trkpt>
      <trkpt lat="47.30419" lon="6.03066">
        <ele>477.4</ele>
        <time>2021-10-13T09:30:18Z</time>
      </trkpt>
      <trkpt lat="47.30419" lon="6.03064">
        <ele>477.6</ele>
        <time>2021-10-13T09:30:19Z</time>
      </trkpt>
      <trkpt lat="47.30417" lon="6.03062">
        <ele>477.6</ele>
        <time>2021-10-13T09:30:20Z</time>
      </trkpt>
      <trkpt lat="47.30416" lon="6.0306">
        <ele>477.8</ele>
        <time>2021-10-13T09:30:21Z</time>
      </trkpt>
      <trkpt lat="47.30415" lon="6.03058">
        <ele>478</ele>
        <time>2021-10-13T09:30:22Z</time>
      </trkpt>
      <trkpt lat="47.30413" lon="6.03056">
        <ele>478</ele>
        <time>2021-10-13T09:30:23Z</time>
      </trkpt>
      <trkpt lat="47.30412" lon="6.03054">
        <ele>478</ele>
        <time>2021-10-13T09:30:24Z</time>
      </trkpt>
      <trkpt lat="47.3041" lon="6.03052">
        <ele>478.2</ele>
        <time>2021-10-13T09:30:25Z</time>
      </trkpt>
      <trkpt lat="47.30408" lon="6.0305">
        <ele>478.4</ele>
        <time>2021-10-13T09:30:26Z</time>
      </trkpt>
      <trkpt lat="47.30407" lon="6.03048">
        <ele>478.4</ele>
        <time>2021-10-13T09:30:27Z</time>
      </trkpt>
      <trkpt lat="47.30405" lon="6.03046">
        <ele>478.6</ele>
        <time>2021-10-13T09:30:28Z</time>
      </trkpt>
      <trkpt lat="47.30404" lon="6.03043">
        <ele>478.6</ele>
        <time>2021-10-13T09:30:29Z</time>
      </trkpt>
      <trkpt lat="47.30402" lon="6.03041">
        <ele>478.6</ele>
        <time>2021-10-13T09:30:30Z</time>
      </trkpt>
      <trkpt lat="47.30401" lon="6.03039">
        <ele>478.8</ele>
        <time>2021-10-13T09:30:31Z</time>
      </trkpt>
      <trkpt lat="47.304" lon="6.03037">
        <ele>479</ele>
        <time>2021-10-13T09:30:32Z</time>
      </trkpt>
      <trkpt lat="47.30399" lon="6.03034">
        <ele>479</ele>
        <time>2021-10-13T09:30:33Z</time>
      </trkpt>
      <trkpt lat="47.30397" lon="6.03032">
        <ele>479.2</ele>
        <time>2021-10-13T09:30:34Z</time>
      </trkpt>
      <trkpt lat="47.30396" lon="6.03029">
        <ele>479.2</ele>
        <time>2021-10-13T09:30:35Z</time>
      </trkpt>
      <trkpt lat="47.30396" lon="6.03027">
        <ele>479.4</ele>
        <time>2021-10-13T09:30:36Z</time>
      </trkpt>
      <trkpt lat="47.30395" lon="6.03024">
        <ele>479.4</ele>
        <time>2021-10-13T09:30:37Z</time>
      </trkpt>
      <trkpt lat="47.30394" lon="6.03022">
        <ele>479.6</ele>
        <time>2021-10-13T09:30:38Z</time>
      </trkpt>
      <trkpt lat="47.30394" lon="6.03019">
        <ele>479.6</ele>
        <time>2021-10-13T09:30:39Z</time>
      </trkpt>
      <trkpt lat="47.30395" lon="6.03016">
        <ele>479.8</ele>
        <time>2021-10-13T09:30:40Z</time>
      </trkpt>
      <trkpt lat="47.30396" lon="6.03013">
        <ele>480</ele>
        <time>2021-10-13T09:30:41Z</time>
      </trkpt>
      <trkpt lat="47.30397" lon="6.03011">
        <ele>480.2</ele>
        <time>2021-10-13T09:30:42Z</time>
      </trkpt>
      <trkpt lat="47.30398" lon="6.0301">
        <ele>480.2</ele>
        <time>2021-10-13T09:30:43Z</time>
      </trkpt>
      <trkpt lat="47.30399" lon="6.03007">
        <ele>480.4</ele>
        <time>2021-10-13T09:30:44Z</time>
      </trkpt>
      <trkpt lat="47.304" lon="6.03006">
        <ele>480.6</ele>
        <time>2021-10-13T09:30:45Z</time>
      </trkpt>
      <trkpt lat="47.30402" lon="6.03005">
        <ele>480.6</ele>
        <time>2021-10-13T09:30:46Z</time>
      </trkpt>
      <trkpt lat="47.30403" lon="6.03005">
        <ele>480.8</ele>
        <time>2021-10-13T09:30:47Z</time>
      </trkpt>
      <trkpt lat="47.30405" lon="6.03004">
        <ele>481</ele>
        <time>2021-10-13T09:30:48Z</time>
      </trkpt>
      <trkpt lat="47.30407" lon="6.03004">
        <ele>481</ele>
        <time>2021-10-13T09:30:49Z</time>
      </trkpt>
      <trkpt lat="47.30409" lon="6.03005">
        <ele>481.2</ele>
        <time>2021-10-13T09:30:50Z</time>
      </trkpt>
      <trkpt lat="47.30411" lon="6.03005">
        <ele>481.4</ele>
        <time>2021-10-13T09:30:51Z</time>
      </trkpt>
      <trkpt lat="47.30412" lon="6.03006">
        <ele>481.6</ele>
        <time>2021-10-13T09:30:52Z</time>
      </trkpt>
      <trkpt lat="47.30414" lon="6.03008">
        <ele>481.8</ele>
        <time>2021-10-13T09:30:53Z</time>
      </trkpt>
      <trkpt lat="47.30415" lon="6.03009">
        <ele>481.8</ele>
        <time>2021-10-13T09:30:54Z</time>
      </trkpt>
      <trkpt lat="47.30416" lon="6.0301">
        <ele>482</ele>
        <time>2021-10-13T09:30:55Z</time>
      </trkpt>
      <trkpt lat="47.30418" lon="6.03012">
        <ele>482</ele>
        <time>2021-10-13T09:30:56Z</time>
      </trkpt>
      <trkpt lat="47.30419" lon="6.03013">
        <ele>482.2</ele>
        <time>2021-10-13T09:30:57Z</time>
      </trkpt>
      <trkpt lat="47.30421" lon="6.03015">
        <ele>482.2</ele>
        <time>2021-10-13T09:30:58Z</time>
      </trkpt>
      <trkpt lat="47.30422" lon="6.03017">
        <ele>482.4</ele>
        <time>2021-10-13T09:30:59Z</time>
      </trkpt>
      <trkpt lat="47.30423" lon="6.03019">
        <ele>482.4</ele>
        <time>2021-10-13T09:31:00Z</time>
      </trkpt>
      <trkpt lat="47.30424" lon="6.03021">
        <ele>482.4</ele>
        <time>2021-10-13T09:31:01Z</time>
      </trkpt>
      <trkpt lat="47.30425" lon="6.03023">
        <ele>482.4</ele>
        <time>2021-10-13T09:31:02Z</time>
      </trkpt>
      <trkpt lat="47.30426" lon="6.03025">
        <ele>482.4</ele>
        <time>2021-10-13T09:31:03Z</time>
      </trkpt>
      <trkpt lat="47.30427" lon="6.03027">
        <ele>482.4</ele>
        <time>2021-10-13T09:31:04Z</time>
      </trkpt>
      <trkpt lat="47.30428" lon="6.03029">
        <ele>482.4</ele>
        <time>2021-10-13T09:31:05Z</time>
      </trkpt>
      <trkpt lat="47.3043" lon="6.03032">
        <ele>482.6</ele>
        <time>2021-10-13T09:31:06Z</time>
      </trkpt>
      <trkpt lat="47.30431" lon="6.03035">
        <ele>482.6</ele>
        <time>2021-10-13T09:31:07Z</time>
      </trkpt>
      <trkpt lat="47.30432" lon="6.03037">
        <ele>482.6</ele>
        <time>2021-10-13T09:31:08Z</time>
      </trkpt>
      <trkpt lat="47.30433" lon="6.03039">
        <ele>482.6</ele>
        <time>2021-10-13T09:31:09Z</time>
      </trkpt>
      <trkpt lat="47.30435" lon="6.03042">
        <ele>482.6</ele>
        <time>2021-10-13T09:31:10Z</time>
      </trkpt>
      <trkpt lat="47.30436" lon="6.03044">
        <ele>482.6</ele>
        <time>2021-10-13T09:31:11Z</time>
      </trkpt>
      <trkpt lat="47.30445" lon="6.03058">
        <ele>482.8</ele>
        <time>2021-10-13T09:31:17Z</time>
      </trkpt>
      <trkpt lat="47.3045" lon="6.03066">
        <ele>483</ele>
        <time>2021-10-13T09:31:21Z</time>
      </trkpt>
      <trkpt lat="47.30452" lon="6.03068">
        <ele>483</ele>
        <time>2021-10-13T09:31:22Z</time>
      </trkpt>
      <trkpt lat="47.30454" lon="6.03071">
        <ele>483</ele>
        <time>2021-10-13T09:31:23Z</time>
      </trkpt>
      <trkpt lat="47.30458" lon="6.03075">
        <ele>483.2</ele>
        <time>2021-10-13T09:31:25Z</time>
      </trkpt>
      <trkpt lat="47.30462" lon="6.03081">
        <ele>483.6</ele>
        <time>2021-10-13T09:31:28Z</time>
      </trkpt>
      <trkpt lat="47.30463" lon="6.03083">
        <ele>483.6</ele>
        <time>2021-10-13T09:31:29Z</time>
      </trkpt>
      <trkpt lat="47.30464" lon="6.03085">
        <ele>483.8</ele>
        <time>2021-10-13T09:31:30Z</time>
      </trkpt>
      <trkpt lat="47.30466" lon="6.03087">
        <ele>483.8</ele>
        <time>2021-10-13T09:31:31Z</time>
      </trkpt>
      <trkpt lat="47.30467" lon="6.03089">
        <ele>484</ele>
        <time>2021-10-13T09:31:32Z</time>
      </trkpt>
      <trkpt lat="47.30469" lon="6.03091">
        <ele>484.2</ele>
        <time>2021-10-13T09:31:33Z</time>
      </trkpt>
      <trkpt lat="47.30471" lon="6.03094">
        <ele>484.2</ele>
        <time>2021-10-13T09:31:34Z</time>
      </trkpt>
      <trkpt lat="47.30473" lon="6.03096">
        <ele>484.4</ele>
        <time>2021-10-13T09:31:35Z</time>
      </trkpt>
      <trkpt lat="47.30475" lon="6.03099">
        <ele>484.4</ele>
        <time>2021-10-13T09:31:36Z</time>
      </trkpt>
      <trkpt lat="47.30476" lon="6.031">
        <ele>484.4</ele>
        <time>2021-10-13T09:31:37Z</time>
      </trkpt>
      <trkpt lat="47.30478" lon="6.03102">
        <ele>484.6</ele>
        <time>2021-10-13T09:31:38Z</time>
      </trkpt>
      <trkpt lat="47.3048" lon="6.03105">
        <ele>484.8</ele>
        <time>2021-10-13T09:31:39Z</time>
      </trkpt>
      <trkpt lat="47.30481" lon="6.03106">
        <ele>485</ele>
        <time>2021-10-13T09:31:40Z</time>
      </trkpt>
      <trkpt lat="47.30482" lon="6.03107">
        <ele>485.4</ele>
        <time>2021-10-13T09:31:41Z</time>
      </trkpt>
      <trkpt lat="47.30484" lon="6.03109">
        <ele>485.6</ele>
        <time>2021-10-13T09:31:42Z</time>
      </trkpt>
      <trkpt lat="47.30486" lon="6.03111">
        <ele>485.8</ele>
        <time>2021-10-13T09:31:43Z</time>
      </trkpt>
      <trkpt lat="47.30486" lon="6.03113">
        <ele>486</ele>
        <time>2021-10-13T09:31:44Z</time>
      </trkpt>
      <trkpt lat="47.3049" lon="6.03116">
        <ele>486.2</ele>
        <time>2021-10-13T09:31:45Z</time>
      </trkpt>
      <trkpt lat="47.30491" lon="6.03118">
        <ele>486.4</ele>
        <time>2021-10-13T09:31:46Z</time>
      </trkpt>
      <trkpt lat="47.30492" lon="6.03119">
        <ele>486.4</ele>
        <time>2021-10-13T09:31:47Z</time>
      </trkpt>
      <trkpt lat="47.30494" lon="6.03122">
        <ele>486.6</ele>
        <time>2021-10-13T09:31:48Z</time>
      </trkpt>
      <trkpt lat="47.30496" lon="6.03124">
        <ele>486.8</ele>
        <time>2021-10-13T09:31:49Z</time>
      </trkpt>
      <trkpt lat="47.30496" lon="6.03126">
        <ele>486.8</ele>
        <time>2021-10-13T09:31:50Z</time>
      </trkpt>
      <trkpt lat="47.30496" lon="6.03127">
        <ele>487</ele>
        <time>2021-10-13T09:31:51Z</time>
      </trkpt>
      <trkpt lat="47.30499" lon="6.0313">
        <ele>487</ele>
        <time>2021-10-13T09:31:52Z</time>
      </trkpt>
      <trkpt lat="47.30502" lon="6.03133">
        <ele>487.2</ele>
        <time>2021-10-13T09:31:53Z</time>
      </trkpt>
      <trkpt lat="47.30503" lon="6.03136">
        <ele>487.4</ele>
        <time>2021-10-13T09:31:54Z</time>
      </trkpt>
      <trkpt lat="47.30506" lon="6.03137">
        <ele>487.6</ele>
        <time>2021-10-13T09:31:55Z</time>
      </trkpt>
      <trkpt lat="47.30507" lon="6.03138">
        <ele>487.8</ele>
        <time>2021-10-13T09:31:56Z</time>
      </trkpt>
      <trkpt lat="47.30507" lon="6.0314">
        <ele>487.8</ele>
        <time>2021-10-13T09:31:57Z</time>
      </trkpt>
      <trkpt lat="47.30509" lon="6.03142">
        <ele>487.8</ele>
        <time>2021-10-13T09:31:58Z</time>
      </trkpt>
      <trkpt lat="47.3051" lon="6.03144">
        <ele>488</ele>
        <time>2021-10-13T09:31:59Z</time>
      </trkpt>
      <trkpt lat="47.30511" lon="6.03146">
        <ele>488</ele>
        <time>2021-10-13T09:32:00Z</time>
      </trkpt>
      <trkpt lat="47.30512" lon="6.03147">
        <ele>488.2</ele>
        <time>2021-10-13T09:32:01Z</time>
      </trkpt>
      <trkpt lat="47.30514" lon="6.03148">
        <ele>488.2</ele>
        <time>2021-10-13T09:32:02Z</time>
      </trkpt>
      <trkpt lat="47.30515" lon="6.03149">
        <ele>488.4</ele>
        <time>2021-10-13T09:32:03Z</time>
      </trkpt>
      <trkpt lat="47.30516" lon="6.0315">
        <ele>488.6</ele>
        <time>2021-10-13T09:32:04Z</time>
      </trkpt>
      <trkpt lat="47.30516" lon="6.03151">
        <ele>488.8</ele>
        <time>2021-10-13T09:32:05Z</time>
      </trkpt>
      <trkpt lat="47.30517" lon="6.03153">
        <ele>489</ele>
        <time>2021-10-13T09:32:06Z</time>
      </trkpt>
      <trkpt lat="47.30518" lon="6.03154">
        <ele>489.2</ele>
        <time>2021-10-13T09:32:07Z</time>
      </trkpt>
      <trkpt lat="47.30519" lon="6.03156">
        <ele>489.4</ele>
        <time>2021-10-13T09:32:08Z</time>
      </trkpt>
      <trkpt lat="47.3052" lon="6.03158">
        <ele>489.6</ele>
        <time>2021-10-13T09:32:09Z</time>
      </trkpt>
      <trkpt lat="47.30522" lon="6.0316">
        <ele>489.6</ele>
        <time>2021-10-13T09:32:10Z</time>
      </trkpt>
      <trkpt lat="47.30523" lon="6.03161">
        <ele>489.8</ele>
        <time>2021-10-13T09:32:11Z</time>
      </trkpt>
      <trkpt lat="47.30524" lon="6.03163">
        <ele>489.8</ele>
        <time>2021-10-13T09:32:12Z</time>
      </trkpt>
      <trkpt lat="47.30526" lon="6.03165">
        <ele>490</ele>
        <time>2021-10-13T09:32:13Z</time>
      </trkpt>
      <trkpt lat="47.30527" lon="6.03167">
        <ele>490</ele>
        <time>2021-10-13T09:32:14Z</time>
      </trkpt>
      <trkpt lat="47.30529" lon="6.03169">
        <ele>490.2</ele>
        <time>2021-10-13T09:32:15Z</time>
      </trkpt>
      <trkpt lat="47.3053" lon="6.03171">
        <ele>490.2</ele>
        <time>2021-10-13T09:32:16Z</time>
      </trkpt>
      <trkpt lat="47.30532" lon="6.03173">
        <ele>490.4</ele>
        <time>2021-10-13T09:32:17Z</time>
      </trkpt>
      <trkpt lat="47.30533" lon="6.03175">
        <ele>490.4</ele>
        <time>2021-10-13T09:32:18Z</time>
      </trkpt>
      <trkpt lat="47.30534" lon="6.03176">
        <ele>490.6</ele>
        <time>2021-10-13T09:32:19Z</time>
      </trkpt>
      <trkpt lat="47.30536" lon="6.03178">
        <ele>490.6</ele>
        <time>2021-10-13T09:32:20Z</time>
      </trkpt>
      <trkpt lat="47.30537" lon="6.0318">
        <ele>490.8</ele>
        <time>2021-10-13T09:32:21Z</time>
      </trkpt>
      <trkpt lat="47.30539" lon="6.03182">
        <ele>491.2</ele>
        <time>2021-10-13T09:32:22Z</time>
      </trkpt>
      <trkpt lat="47.30541" lon="6.03185">
        <ele>491.2</ele>
        <time>2021-10-13T09:32:23Z</time>
      </trkpt>
      <trkpt lat="47.30542" lon="6.03187">
        <ele>491.6</ele>
        <time>2021-10-13T09:32:24Z</time>
      </trkpt>
      <trkpt lat="47.30543" lon="6.03189">
        <ele>491.8</ele>
        <time>2021-10-13T09:32:25Z</time>
      </trkpt>
      <trkpt lat="47.30545" lon="6.03191">
        <ele>491.8</ele>
        <time>2021-10-13T09:32:26Z</time>
      </trkpt>
      <trkpt lat="47.30546" lon="6.03193">
        <ele>492</ele>
        <time>2021-10-13T09:32:27Z</time>
      </trkpt>
      <trkpt lat="47.30549" lon="6.03195">
        <ele>492</ele>
        <time>2021-10-13T09:32:28Z</time>
      </trkpt>
      <trkpt lat="47.30551" lon="6.03198">
        <ele>492</ele>
        <time>2021-10-13T09:32:29Z</time>
      </trkpt>
      <trkpt lat="47.30553" lon="6.032">
        <ele>492.2</ele>
        <time>2021-10-13T09:32:30Z</time>
      </trkpt>
      <trkpt lat="47.30555" lon="6.03203">
        <ele>492.2</ele>
        <time>2021-10-13T09:32:31Z</time>
      </trkpt>
      <trkpt lat="47.30557" lon="6.03205">
        <ele>492.4</ele>
        <time>2021-10-13T09:32:32Z</time>
      </trkpt>
      <trkpt lat="47.3056" lon="6.03208">
        <ele>492.4</ele>
        <time>2021-10-13T09:32:33Z</time>
      </trkpt>
      <trkpt lat="47.30562" lon="6.03212">
        <ele>492.6</ele>
        <time>2021-10-13T09:32:34Z</time>
      </trkpt>
      <trkpt lat="47.30564" lon="6.03214">
        <ele>493</ele>
        <time>2021-10-13T09:32:35Z</time>
      </trkpt>
      <trkpt lat="47.30566" lon="6.03217">
        <ele>493</ele>
        <time>2021-10-13T09:32:36Z</time>
      </trkpt>
      <trkpt lat="47.30568" lon="6.0322">
        <ele>493.2</ele>
        <time>2021-10-13T09:32:37Z</time>
      </trkpt>
      <trkpt lat="47.30569" lon="6.03223">
        <ele>493.2</ele>
        <time>2021-10-13T09:32:38Z</time>
      </trkpt>
      <trkpt lat="47.3057" lon="6.03225">
        <ele>493.4</ele>
        <time>2021-10-13T09:32:39Z</time>
      </trkpt>
      <trkpt lat="47.30572" lon="6.03228">
        <ele>493.4</ele>
        <time>2021-10-13T09:32:40Z</time>
      </trkpt>
      <trkpt lat="47.30573" lon="6.0323">
        <ele>493.4</ele>
        <time>2021-10-13T09:32:41Z</time>
      </trkpt>
      <trkpt lat="47.30575" lon="6.03233">
        <ele>493.6</ele>
        <time>2021-10-13T09:32:42Z</time>
      </trkpt>
      <trkpt lat="47.30576" lon="6.03237">
        <ele>493.6</ele>
        <time>2021-10-13T09:32:43Z</time>
      </trkpt>
      <trkpt lat="47.30577" lon="6.03239">
        <ele>493.8</ele>
        <time>2021-10-13T09:32:44Z</time>
      </trkpt>
      <trkpt lat="47.30579" lon="6.03242">
        <ele>494</ele>
        <time>2021-10-13T09:32:45Z</time>
      </trkpt>
      <trkpt lat="47.30579" lon="6.03244">
        <ele>494</ele>
        <time>2021-10-13T09:32:46Z</time>
      </trkpt>
      <trkpt lat="47.3058" lon="6.03245">
        <ele>494.2</ele>
        <time>2021-10-13T09:32:47Z</time>
      </trkpt>
      <trkpt lat="47.30581" lon="6.03248">
        <ele>494.2</ele>
        <time>2021-10-13T09:32:48Z</time>
      </trkpt>
      <trkpt lat="47.30583" lon="6.03248">
        <ele>494.4</ele>
        <time>2021-10-13T09:32:49Z</time>
      </trkpt>
      <trkpt lat="47.30584" lon="6.0325">
        <ele>494.4</ele>
        <time>2021-10-13T09:32:50Z</time>
      </trkpt>
      <trkpt lat="47.30586" lon="6.03252">
        <ele>494.8</ele>
        <time>2021-10-13T09:32:51Z</time>
      </trkpt>
      <trkpt lat="47.30587" lon="6.03254">
        <ele>494.8</ele>
        <time>2021-10-13T09:32:52Z</time>
      </trkpt>
      <trkpt lat="47.30588" lon="6.03256">
        <ele>495.2</ele>
        <time>2021-10-13T09:32:53Z</time>
      </trkpt>
      <trkpt lat="47.30589" lon="6.03258">
        <ele>495.2</ele>
        <time>2021-10-13T09:32:54Z</time>
      </trkpt>
      <trkpt lat="47.3059" lon="6.03261">
        <ele>495.4</ele>
        <time>2021-10-13T09:32:55Z</time>
      </trkpt>
      <trkpt lat="47.30591" lon="6.03263">
        <ele>495.4</ele>
        <time>2021-10-13T09:32:56Z</time>
      </trkpt>
      <trkpt lat="47.30592" lon="6.03265">
        <ele>495.4</ele>
        <time>2021-10-13T09:32:57Z</time>
      </trkpt>
      <trkpt lat="47.30594" lon="6.03268">
        <ele>495.4</ele>
        <time>2021-10-13T09:32:58Z</time>
      </trkpt>
      <trkpt lat="47.30595" lon="6.0327">
        <ele>495.4</ele>
        <time>2021-10-13T09:32:59Z</time>
      </trkpt>
      <trkpt lat="47.30596" lon="6.03272">
        <ele>495.6</ele>
        <time>2021-10-13T09:33:00Z</time>
      </trkpt>
      <trkpt lat="47.30596" lon="6.03275">
        <ele>495.6</ele>
        <time>2021-10-13T09:33:01Z</time>
      </trkpt>
      <trkpt lat="47.30598" lon="6.03277">
        <ele>496</ele>
        <time>2021-10-13T09:33:02Z</time>
      </trkpt>
      <trkpt lat="47.30599" lon="6.03279">
        <ele>496.6</ele>
        <time>2021-10-13T09:33:03Z</time>
      </trkpt>
      <trkpt lat="47.30599" lon="6.03281">
        <ele>496.6</ele>
        <time>2021-10-13T09:33:04Z</time>
      </trkpt>
      <trkpt lat="47.306" lon="6.03284">
        <ele>496.6</ele>
        <time>2021-10-13T09:33:05Z</time>
      </trkpt>
      <trkpt lat="47.30601" lon="6.03286">
        <ele>496.8</ele>
        <time>2021-10-13T09:33:06Z</time>
      </trkpt>
      <trkpt lat="47.30601" lon="6.03289">
        <ele>496.8</ele>
        <time>2021-10-13T09:33:07Z</time>
      </trkpt>
      <trkpt lat="47.30602" lon="6.03292">
        <ele>496.8</ele>
        <time>2021-10-13T09:33:08Z</time>
      </trkpt>
      <trkpt lat="47.30602" lon="6.03295">
        <ele>496.8</ele>
        <time>2021-10-13T09:33:09Z</time>
      </trkpt>
      <trkpt lat="47.30603" lon="6.03298">
        <ele>497</ele>
        <time>2021-10-13T09:33:10Z</time>
      </trkpt>
      <trkpt lat="47.30603" lon="6.03302">
        <ele>497</ele>
        <time>2021-10-13T09:33:11Z</time>
      </trkpt>
      <trkpt lat="47.30605" lon="6.03306">
        <ele>497.2</ele>
        <time>2021-10-13T09:33:12Z</time>
      </trkpt>
      <trkpt lat="47.30605" lon="6.03309">
        <ele>497.2</ele>
        <time>2021-10-13T09:33:13Z</time>
      </trkpt>
      <trkpt lat="47.30606" lon="6.03311">
        <ele>497.2</ele>
        <time>2021-10-13T09:33:14Z</time>
      </trkpt>
      <trkpt lat="47.30608" lon="6.03314">
        <ele>497.6</ele>
        <time>2021-10-13T09:33:15Z</time>
      </trkpt>
      <trkpt lat="47.3061" lon="6.03317">
        <ele>497.6</ele>
        <time>2021-10-13T09:33:16Z</time>
      </trkpt>
      <trkpt lat="47.30612" lon="6.03322">
        <ele>497.8</ele>
        <time>2021-10-13T09:33:17Z</time>
      </trkpt>
      <trkpt lat="47.30614" lon="6.03325">
        <ele>498</ele>
        <time>2021-10-13T09:33:18Z</time>
      </trkpt>
      <trkpt lat="47.30616" lon="6.03329">
        <ele>498</ele>
        <time>2021-10-13T09:33:19Z</time>
      </trkpt>
      <trkpt lat="47.30617" lon="6.03332">
        <ele>498</ele>
        <time>2021-10-13T09:33:20Z</time>
      </trkpt>
      <trkpt lat="47.30619" lon="6.03336">
        <ele>498</ele>
        <time>2021-10-13T09:33:21Z</time>
      </trkpt>
      <trkpt lat="47.30621" lon="6.0334">
        <ele>498.2</ele>
        <time>2021-10-13T09:33:22Z</time>
      </trkpt>
      <trkpt lat="47.30625" lon="6.03344">
        <ele>498.2</ele>
        <time>2021-10-13T09:33:23Z</time>
      </trkpt>
      <trkpt lat="47.30626" lon="6.03347">
        <ele>498.4</ele>
        <time>2021-10-13T09:33:24Z</time>
      </trkpt>
      <trkpt lat="47.30626" lon="6.03349">
        <ele>498.6</ele>
        <time>2021-10-13T09:33:25Z</time>
      </trkpt>
      <trkpt lat="47.30627" lon="6.03351">
        <ele>498.8</ele>
        <time>2021-10-13T09:33:26Z</time>
      </trkpt>
      <trkpt lat="47.30628" lon="6.03354">
        <ele>498.8</ele>
        <time>2021-10-13T09:33:27Z</time>
      </trkpt>
      <trkpt lat="47.30629" lon="6.03357">
        <ele>499</ele>
        <time>2021-10-13T09:33:28Z</time>
      </trkpt>
      <trkpt lat="47.30629" lon="6.03359">
        <ele>499</ele>
        <time>2021-10-13T09:33:29Z</time>
      </trkpt>
      <trkpt lat="47.30631" lon="6.03363">
        <ele>499.2</ele>
        <time>2021-10-13T09:33:30Z</time>
      </trkpt>
      <trkpt lat="47.30634" lon="6.03368">
        <ele>499.4</ele>
        <time>2021-10-13T09:33:31Z</time>
      </trkpt>
      <trkpt lat="47.30634" lon="6.0337">
        <ele>499.4</ele>
        <time>2021-10-13T09:33:32Z</time>
      </trkpt>
      <trkpt lat="47.30635" lon="6.03373">
        <ele>499.6</ele>
        <time>2021-10-13T09:33:33Z</time>
      </trkpt>
      <trkpt lat="47.30635" lon="6.03375">
        <ele>499.8</ele>
        <time>2021-10-13T09:33:34Z</time>
      </trkpt>
      <trkpt lat="47.30636" lon="6.03377">
        <ele>499.8</ele>
        <time>2021-10-13T09:33:35Z</time>
      </trkpt>
      <trkpt lat="47.30639" lon="6.0338">
        <ele>500</ele>
        <time>2021-10-13T09:33:36Z</time>
      </trkpt>
      <trkpt lat="47.3064" lon="6.03383">
        <ele>500.2</ele>
        <time>2021-10-13T09:33:37Z</time>
      </trkpt>
      <trkpt lat="47.3064" lon="6.03385">
        <ele>500.4</ele>
        <time>2021-10-13T09:33:38Z</time>
      </trkpt>
      <trkpt lat="47.30642" lon="6.03388">
        <ele>500.4</ele>
        <time>2021-10-13T09:33:39Z</time>
      </trkpt>
      <trkpt lat="47.30643" lon="6.0339">
        <ele>500.6</ele>
        <time>2021-10-13T09:33:40Z</time>
      </trkpt>
      <trkpt lat="47.30645" lon="6.03393">
        <ele>500.6</ele>
        <time>2021-10-13T09:33:41Z</time>
      </trkpt>
      <trkpt lat="47.30647" lon="6.03396">
        <ele>500.8</ele>
        <time>2021-10-13T09:33:42Z</time>
      </trkpt>
      <trkpt lat="47.30648" lon="6.03399">
        <ele>500.8</ele>
        <time>2021-10-13T09:33:43Z</time>
      </trkpt>
      <trkpt lat="47.30648" lon="6.03401">
        <ele>501</ele>
        <time>2021-10-13T09:33:44Z</time>
      </trkpt>
      <trkpt lat="47.30649" lon="6.03403">
        <ele>501.2</ele>
        <time>2021-10-13T09:33:45Z</time>
      </trkpt>
      <trkpt lat="47.3065" lon="6.03405">
        <ele>501.4</ele>
        <time>2021-10-13T09:33:46Z</time>
      </trkpt>
      <trkpt lat="47.30651" lon="6.03407">
        <ele>501.4</ele>
        <time>2021-10-13T09:33:47Z</time>
      </trkpt>
      <trkpt lat="47.30652" lon="6.03409">
        <ele>501.6</ele>
        <time>2021-10-13T09:33:48Z</time>
      </trkpt>
      <trkpt lat="47.30653" lon="6.03412">
        <ele>501.6</ele>
        <time>2021-10-13T09:33:49Z</time>
      </trkpt>
      <trkpt lat="47.30654" lon="6.03414">
        <ele>501.8</ele>
        <time>2021-10-13T09:33:50Z</time>
      </trkpt>
      <trkpt lat="47.30655" lon="6.03417">
        <ele>501.8</ele>
        <time>2021-10-13T09:33:51Z</time>
      </trkpt>
      <trkpt lat="47.30656" lon="6.03419">
        <ele>502</ele>
        <time>2021-10-13T09:33:52Z</time>
      </trkpt>
      <trkpt lat="47.30657" lon="6.03421">
        <ele>502</ele>
        <time>2021-10-13T09:33:53Z</time>
      </trkpt>
      <trkpt lat="47.30658" lon="6.03424">
        <ele>502.2</ele>
        <time>2021-10-13T09:33:54Z</time>
      </trkpt>
      <trkpt lat="47.30659" lon="6.03426">
        <ele>502.2</ele>
        <time>2021-10-13T09:33:55Z</time>
      </trkpt>
      <trkpt lat="47.3066" lon="6.03429">
        <ele>502.6</ele>
        <time>2021-10-13T09:33:56Z</time>
      </trkpt>
      <trkpt lat="47.3066" lon="6.03432">
        <ele>502.6</ele>
        <time>2021-10-13T09:33:57Z</time>
      </trkpt>
      <trkpt lat="47.30661" lon="6.03434">
        <ele>503</ele>
        <time>2021-10-13T09:33:58Z</time>
      </trkpt>
      <trkpt lat="47.30663" lon="6.03437">
        <ele>503.2</ele>
        <time>2021-10-13T09:33:59Z</time>
      </trkpt>
      <trkpt lat="47.30663" lon="6.0344">
        <ele>503.4</ele>
        <time>2021-10-13T09:34:00Z</time>
      </trkpt>
      <trkpt lat="47.30664" lon="6.03442">
        <ele>503.6</ele>
        <time>2021-10-13T09:34:01Z</time>
      </trkpt>
      <trkpt lat="47.30665" lon="6.03443">
        <ele>503.6</ele>
        <time>2021-10-13T09:34:02Z</time>
      </trkpt>
      <trkpt lat="47.30666" lon="6.03446">
        <ele>503.8</ele>
        <time>2021-10-13T09:34:03Z</time>
      </trkpt>
      <trkpt lat="47.30668" lon="6.03449">
        <ele>503.8</ele>
        <time>2021-10-13T09:34:04Z</time>
      </trkpt>
      <trkpt lat="47.30669" lon="6.03451">
        <ele>503.8</ele>
        <time>2021-10-13T09:34:05Z</time>
      </trkpt>
      <trkpt lat="47.3067" lon="6.03454">
        <ele>503.8</ele>
        <time>2021-10-13T09:34:06Z</time>
      </trkpt>
      <trkpt lat="47.30671" lon="6.03456">
        <ele>504</ele>
        <time>2021-10-13T09:34:07Z</time>
      </trkpt>
      <trkpt lat="47.30672" lon="6.03458">
        <ele>504.2</ele>
        <time>2021-10-13T09:34:08Z</time>
      </trkpt>
      <trkpt lat="47.30672" lon="6.0346">
        <ele>504.4</ele>
        <time>2021-10-13T09:34:09Z</time>
      </trkpt>
      <trkpt lat="47.30673" lon="6.03461">
        <ele>504.4</ele>
        <time>2021-10-13T09:34:10Z</time>
      </trkpt>
      <trkpt lat="47.30673" lon="6.03463">
        <ele>504.6</ele>
        <time>2021-10-13T09:34:11Z</time>
      </trkpt>
      <trkpt lat="47.30674" lon="6.03465">
        <ele>504.6</ele>
        <time>2021-10-13T09:34:12Z</time>
      </trkpt>
      <trkpt lat="47.30675" lon="6.03467">
        <ele>504.8</ele>
        <time>2021-10-13T09:34:13Z</time>
      </trkpt>
      <trkpt lat="47.30675" lon="6.03469">
        <ele>505</ele>
        <time>2021-10-13T09:34:14Z</time>
      </trkpt>
      <trkpt lat="47.30676" lon="6.03471">
        <ele>505.2</ele>
        <time>2021-10-13T09:34:15Z</time>
      </trkpt>
      <trkpt lat="47.30677" lon="6.03473">
        <ele>505.4</ele>
        <time>2021-10-13T09:34:16Z</time>
      </trkpt>
      <trkpt lat="47.30678" lon="6.03476">
        <ele>505.4</ele>
        <time>2021-10-13T09:34:17Z</time>
      </trkpt>
      <trkpt lat="47.3068" lon="6.03481">
        <ele>505.6</ele>
        <time>2021-10-13T09:34:18Z</time>
      </trkpt>
      <trkpt lat="47.30681" lon="6.03485">
        <ele>505.8</ele>
        <time>2021-10-13T09:34:19Z</time>
      </trkpt>
      <trkpt lat="47.30682" lon="6.03488">
        <ele>506</ele>
        <time>2021-10-13T09:34:20Z</time>
      </trkpt>
      <trkpt lat="47.30683" lon="6.03491">
        <ele>506</ele>
        <time>2021-10-13T09:34:21Z</time>
      </trkpt>
      <trkpt lat="47.30683" lon="6.03494">
        <ele>506</ele>
        <time>2021-10-13T09:34:22Z</time>
      </trkpt>
      <trkpt lat="47.30684" lon="6.03497">
        <ele>506</ele>
        <time>2021-10-13T09:34:23Z</time>
      </trkpt>
      <trkpt lat="47.30685" lon="6.03499">
        <ele>506.4</ele>
        <time>2021-10-13T09:34:24Z</time>
      </trkpt>
      <trkpt lat="47.30686" lon="6.03502">
        <ele>506.4</ele>
        <time>2021-10-13T09:34:25Z</time>
      </trkpt>
      <trkpt lat="47.30687" lon="6.03505">
        <ele>506.4</ele>
        <time>2021-10-13T09:34:26Z</time>
      </trkpt>
      <trkpt lat="47.30688" lon="6.03509">
        <ele>506.8</ele>
        <time>2021-10-13T09:34:27Z</time>
      </trkpt>
      <trkpt lat="47.3069" lon="6.03512">
        <ele>506.8</ele>
        <time>2021-10-13T09:34:28Z</time>
      </trkpt>
      <trkpt lat="47.3069" lon="6.03513">
        <ele>507</ele>
        <time>2021-10-13T09:34:29Z</time>
      </trkpt>
      <trkpt lat="47.30691" lon="6.03515">
        <ele>507</ele>
        <time>2021-10-13T09:34:30Z</time>
      </trkpt>
      <trkpt lat="47.30691" lon="6.03517">
        <ele>507</ele>
        <time>2021-10-13T09:34:31Z</time>
      </trkpt>
      <trkpt lat="47.30691" lon="6.03519">
        <ele>507</ele>
        <time>2021-10-13T09:34:32Z</time>
      </trkpt>
      <trkpt lat="47.30692" lon="6.03521">
        <ele>507.4</ele>
        <time>2021-10-13T09:34:33Z</time>
      </trkpt>
      <trkpt lat="47.30693" lon="6.03522">
        <ele>507.4</ele>
        <time>2021-10-13T09:34:34Z</time>
      </trkpt>
      <trkpt lat="47.30694" lon="6.03524">
        <ele>507.6</ele>
        <time>2021-10-13T09:34:35Z</time>
      </trkpt>
      <trkpt lat="47.30695" lon="6.03527">
        <ele>507.6</ele>
        <time>2021-10-13T09:34:36Z</time>
      </trkpt>
      <trkpt lat="47.30697" lon="6.03529">
        <ele>507.8</ele>
        <time>2021-10-13T09:34:37Z</time>
      </trkpt>
      <trkpt lat="47.30698" lon="6.0353">
        <ele>508</ele>
        <time>2021-10-13T09:34:38Z</time>
      </trkpt>
      <trkpt lat="47.30699" lon="6.03532">
        <ele>508.2</ele>
        <time>2021-10-13T09:34:39Z</time>
      </trkpt>
      <trkpt lat="47.307" lon="6.03534">
        <ele>508.2</ele>
        <time>2021-10-13T09:34:40Z</time>
      </trkpt>
      <trkpt lat="47.30701" lon="6.03536">
        <ele>508.4</ele>
        <time>2021-10-13T09:34:41Z</time>
      </trkpt>
      <trkpt lat="47.30701" lon="6.03538">
        <ele>508.4</ele>
        <time>2021-10-13T09:34:42Z</time>
      </trkpt>
      <trkpt lat="47.30702" lon="6.0354">
        <ele>508.6</ele>
        <time>2021-10-13T09:34:43Z</time>
      </trkpt>
      <trkpt lat="47.30704" lon="6.03542">
        <ele>508.6</ele>
        <time>2021-10-13T09:34:44Z</time>
      </trkpt>
      <trkpt lat="47.30706" lon="6.03544">
        <ele>508.6</ele>
        <time>2021-10-13T09:34:45Z</time>
      </trkpt>
      <trkpt lat="47.30708" lon="6.03546">
        <ele>508.8</ele>
        <time>2021-10-13T09:34:46Z</time>
      </trkpt>
      <trkpt lat="47.30709" lon="6.03548">
        <ele>509</ele>
        <time>2021-10-13T09:34:47Z</time>
      </trkpt>
      <trkpt lat="47.3071" lon="6.0355">
        <ele>509</ele>
        <time>2021-10-13T09:34:48Z</time>
      </trkpt>
      <trkpt lat="47.3071" lon="6.03553">
        <ele>509</ele>
        <time>2021-10-13T09:34:49Z</time>
      </trkpt>
      <trkpt lat="47.30711" lon="6.03555">
        <ele>509.4</ele>
        <time>2021-10-13T09:34:50Z</time>
      </trkpt>
      <trkpt lat="47.30712" lon="6.03557">
        <ele>509.4</ele>
        <time>2021-10-13T09:34:51Z</time>
      </trkpt>
      <trkpt lat="47.30714" lon="6.0356">
        <ele>509.6</ele>
        <time>2021-10-13T09:34:52Z</time>
      </trkpt>
      <trkpt lat="47.30715" lon="6.03562">
        <ele>509.6</ele>
        <time>2021-10-13T09:34:53Z</time>
      </trkpt>
      <trkpt lat="47.30717" lon="6.03565">
        <ele>510</ele>
        <time>2021-10-13T09:34:54Z</time>
      </trkpt>
      <trkpt lat="47.30717" lon="6.03567">
        <ele>510.2</ele>
        <time>2021-10-13T09:34:55Z</time>
      </trkpt>
      <trkpt lat="47.30719" lon="6.03569">
        <ele>510.4</ele>
        <time>2021-10-13T09:34:56Z</time>
      </trkpt>
      <trkpt lat="47.3072" lon="6.03571">
        <ele>510.4</ele>
        <time>2021-10-13T09:34:57Z</time>
      </trkpt>
      <trkpt lat="47.3072" lon="6.03573">
        <ele>510.4</ele>
        <time>2021-10-13T09:34:58Z</time>
      </trkpt>
      <trkpt lat="47.30722" lon="6.03575">
        <ele>510.6</ele>
        <time>2021-10-13T09:34:59Z</time>
      </trkpt>
      <trkpt lat="47.30724" lon="6.03578">
        <ele>510.8</ele>
        <time>2021-10-13T09:35:00Z</time>
      </trkpt>
      <trkpt lat="47.30724" lon="6.03582">
        <ele>510.8</ele>
        <time>2021-10-13T09:35:01Z</time>
      </trkpt>
      <trkpt lat="47.30726" lon="6.03585">
        <ele>511</ele>
        <time>2021-10-13T09:35:02Z</time>
      </trkpt>
      <trkpt lat="47.30727" lon="6.03587">
        <ele>511.2</ele>
        <time>2021-10-13T09:35:03Z</time>
      </trkpt>
      <trkpt lat="47.30729" lon="6.03591">
        <ele>511.4</ele>
        <time>2021-10-13T09:35:04Z</time>
      </trkpt>
      <trkpt lat="47.3073" lon="6.03592">
        <ele>511.6</ele>
        <time>2021-10-13T09:35:05Z</time>
      </trkpt>
      <trkpt lat="47.30731" lon="6.03596">
        <ele>511.6</ele>
        <time>2021-10-13T09:35:06Z</time>
      </trkpt>
      <trkpt lat="47.30732" lon="6.03597">
        <ele>511.8</ele>
        <time>2021-10-13T09:35:07Z</time>
      </trkpt>
      <trkpt lat="47.30733" lon="6.03598">
        <ele>511.8</ele>
        <time>2021-10-13T09:35:08Z</time>
      </trkpt>
      <trkpt lat="47.30734" lon="6.036">
        <ele>512</ele>
        <time>2021-10-13T09:35:09Z</time>
      </trkpt>
      <trkpt lat="47.30734" lon="6.03603">
        <ele>512.2</ele>
        <time>2021-10-13T09:35:10Z</time>
      </trkpt>
      <trkpt lat="47.30737" lon="6.03607">
        <ele>512.2</ele>
        <time>2021-10-13T09:35:11Z</time>
      </trkpt>
      <trkpt lat="47.30738" lon="6.03609">
        <ele>512.4</ele>
        <time>2021-10-13T09:35:12Z</time>
      </trkpt>
      <trkpt lat="47.30739" lon="6.03611">
        <ele>512.4</ele>
        <time>2021-10-13T09:35:13Z</time>
      </trkpt>
      <trkpt lat="47.30739" lon="6.03613">
        <ele>512.6</ele>
        <time>2021-10-13T09:35:14Z</time>
      </trkpt>
      <trkpt lat="47.3074" lon="6.03615">
        <ele>512.6</ele>
        <time>2021-10-13T09:35:15Z</time>
      </trkpt>
      <trkpt lat="47.30742" lon="6.03617">
        <ele>512.8</ele>
        <time>2021-10-13T09:35:16Z</time>
      </trkpt>
      <trkpt lat="47.30742" lon="6.03619">
        <ele>512.8</ele>
        <time>2021-10-13T09:35:17Z</time>
      </trkpt>
      <trkpt lat="47.30743" lon="6.03621">
        <ele>513</ele>
        <time>2021-10-13T09:35:18Z</time>
      </trkpt>
      <trkpt lat="47.30744" lon="6.03623">
        <ele>513</ele>
        <time>2021-10-13T09:35:19Z</time>
      </trkpt>
      <trkpt lat="47.30745" lon="6.03626">
        <ele>513.2</ele>
        <time>2021-10-13T09:35:20Z</time>
      </trkpt>
      <trkpt lat="47.30746" lon="6.03628">
        <ele>513.4</ele>
        <time>2021-10-13T09:35:21Z</time>
      </trkpt>
      <trkpt lat="47.30748" lon="6.03631">
        <ele>513.6</ele>
        <time>2021-10-13T09:35:22Z</time>
      </trkpt>
      <trkpt lat="47.30749" lon="6.03634">
        <ele>513.6</ele>
        <time>2021-10-13T09:35:23Z</time>
      </trkpt>
      <trkpt lat="47.3075" lon="6.03636">
        <ele>513.6</ele>
        <time>2021-10-13T09:35:24Z</time>
      </trkpt>
      <trkpt lat="47.30751" lon="6.03639">
        <ele>513.8</ele>
        <time>2021-10-13T09:35:25Z</time>
      </trkpt>
      <trkpt lat="47.30752" lon="6.03642">
        <ele>513.8</ele>
        <time>2021-10-13T09:35:26Z</time>
      </trkpt>
      <trkpt lat="47.30753" lon="6.03644">
        <ele>513.8</ele>
        <time>2021-10-13T09:35:27Z</time>
      </trkpt>
      <trkpt lat="47.30754" lon="6.03647">
        <ele>513.8</ele>
        <time>2021-10-13T09:35:28Z</time>
      </trkpt>
      <trkpt lat="47.30755" lon="6.0365">
        <ele>514</ele>
        <time>2021-10-13T09:35:29Z</time>
      </trkpt>
      <trkpt lat="47.30757" lon="6.03653">
        <ele>514</ele>
        <time>2021-10-13T09:35:30Z</time>
      </trkpt>
      <trkpt lat="47.30757" lon="6.03655">
        <ele>514.4</ele>
        <time>2021-10-13T09:35:31Z</time>
      </trkpt>
      <trkpt lat="47.30758" lon="6.03657">
        <ele>514.4</ele>
        <time>2021-10-13T09:35:32Z</time>
      </trkpt>
      <trkpt lat="47.30759" lon="6.03661">
        <ele>514.6</ele>
        <time>2021-10-13T09:35:33Z</time>
      </trkpt>
      <trkpt lat="47.30759" lon="6.03664">
        <ele>514.6</ele>
        <time>2021-10-13T09:35:34Z</time>
      </trkpt>
      <trkpt lat="47.3076" lon="6.03667">
        <ele>514.6</ele>
        <time>2021-10-13T09:35:35Z</time>
      </trkpt>
      <trkpt lat="47.30761" lon="6.0367">
        <ele>514.8</ele>
        <time>2021-10-13T09:35:36Z</time>
      </trkpt>
      <trkpt lat="47.30762" lon="6.03672">
        <ele>514.8</ele>
        <time>2021-10-13T09:35:37Z</time>
      </trkpt>
      <trkpt lat="47.30764" lon="6.03673">
        <ele>515</ele>
        <time>2021-10-13T09:35:38Z</time>
      </trkpt>
      <trkpt lat="47.30766" lon="6.03676">
        <ele>515.2</ele>
        <time>2021-10-13T09:35:39Z</time>
      </trkpt>
      <trkpt lat="47.30766" lon="6.0368">
        <ele>515.4</ele>
        <time>2021-10-13T09:35:40Z</time>
      </trkpt>
      <trkpt lat="47.30767" lon="6.03681">
        <ele>515.4</ele>
        <time>2021-10-13T09:35:41Z</time>
      </trkpt>
      <trkpt lat="47.30768" lon="6.03683">
        <ele>515.4</ele>
        <time>2021-10-13T09:35:42Z</time>
      </trkpt>
      <trkpt lat="47.30769" lon="6.03684">
        <ele>515.6</ele>
        <time>2021-10-13T09:35:43Z</time>
      </trkpt>
      <trkpt lat="47.3077" lon="6.03685">
        <ele>515.6</ele>
        <time>2021-10-13T09:35:44Z</time>
      </trkpt>
      <trkpt lat="47.30771" lon="6.03688">
        <ele>515.8</ele>
        <time>2021-10-13T09:35:45Z</time>
      </trkpt>
      <trkpt lat="47.30771" lon="6.03691">
        <ele>515.8</ele>
        <time>2021-10-13T09:35:46Z</time>
      </trkpt>
      <trkpt lat="47.30772" lon="6.03693">
        <ele>515.8</ele>
        <time>2021-10-13T09:35:47Z</time>
      </trkpt>
      <trkpt lat="47.30773" lon="6.03696">
        <ele>516</ele>
        <time>2021-10-13T09:35:48Z</time>
      </trkpt>
      <trkpt lat="47.30774" lon="6.03698">
        <ele>516</ele>
        <time>2021-10-13T09:35:49Z</time>
      </trkpt>
      <trkpt lat="47.30775" lon="6.03701">
        <ele>516</ele>
        <time>2021-10-13T09:35:50Z</time>
      </trkpt>
      <trkpt lat="47.30776" lon="6.03702">
        <ele>516.2</ele>
        <time>2021-10-13T09:35:51Z</time>
      </trkpt>
      <trkpt lat="47.30777" lon="6.03704">
        <ele>516.2</ele>
        <time>2021-10-13T09:35:52Z</time>
      </trkpt>
      <trkpt lat="47.30777" lon="6.03707">
        <ele>516.4</ele>
        <time>2021-10-13T09:35:53Z</time>
      </trkpt>
      <trkpt lat="47.30779" lon="6.03712">
        <ele>516.6</ele>
        <time>2021-10-13T09:35:55Z</time>
      </trkpt>
      <trkpt lat="47.30779" lon="6.03714">
        <ele>516.8</ele>
        <time>2021-10-13T09:35:56Z</time>
      </trkpt>
      <trkpt lat="47.3078" lon="6.03716">
        <ele>516.8</ele>
        <time>2021-10-13T09:35:57Z</time>
      </trkpt>
      <trkpt lat="47.3078" lon="6.03718">
        <ele>517</ele>
        <time>2021-10-13T09:35:58Z</time>
      </trkpt>
      <trkpt lat="47.30781" lon="6.0372">
        <ele>517</ele>
        <time>2021-10-13T09:35:59Z</time>
      </trkpt>
      <trkpt lat="47.30782" lon="6.03723">
        <ele>517.2</ele>
        <time>2021-10-13T09:36:01Z</time>
      </trkpt>
      <trkpt lat="47.30782" lon="6.03725">
        <ele>517.4</ele>
        <time>2021-10-13T09:36:02Z</time>
      </trkpt>
      <trkpt lat="47.30783" lon="6.03726">
        <ele>517.6</ele>
        <time>2021-10-13T09:36:03Z</time>
      </trkpt>
      <trkpt lat="47.30783" lon="6.03728">
        <ele>517.8</ele>
        <time>2021-10-13T09:36:04Z</time>
      </trkpt>
      <trkpt lat="47.30783" lon="6.0373">
        <ele>517.6</ele>
        <time>2021-10-13T09:36:05Z</time>
      </trkpt>
      <trkpt lat="47.30784" lon="6.03733">
        <ele>517.8</ele>
        <time>2021-10-13T09:36:06Z</time>
      </trkpt>
      <trkpt lat="47.30784" lon="6.03735">
        <ele>517.8</ele>
        <time>2021-10-13T09:36:07Z</time>
      </trkpt>
      <trkpt lat="47.30785" lon="6.03737">
        <ele>518</ele>
        <time>2021-10-13T09:36:08Z</time>
      </trkpt>
      <trkpt lat="47.30786" lon="6.03739">
        <ele>518</ele>
        <time>2021-10-13T09:36:09Z</time>
      </trkpt>
      <trkpt lat="47.30787" lon="6.03741">
        <ele>518.2</ele>
        <time>2021-10-13T09:36:10Z</time>
      </trkpt>
      <trkpt lat="47.30787" lon="6.03742">
        <ele>518.2</ele>
        <time>2021-10-13T09:36:11Z</time>
      </trkpt>
      <trkpt lat="47.30788" lon="6.03745">
        <ele>518.2</ele>
        <time>2021-10-13T09:36:12Z</time>
      </trkpt>
      <trkpt lat="47.30789" lon="6.03747">
        <ele>518.2</ele>
        <time>2021-10-13T09:36:13Z</time>
      </trkpt>
      <trkpt lat="47.3079" lon="6.03749">
        <ele>518.2</ele>
        <time>2021-10-13T09:36:14Z</time>
      </trkpt>
      <trkpt lat="47.3079" lon="6.03751">
        <ele>518.2</ele>
        <time>2021-10-13T09:36:15Z</time>
      </trkpt>
      <trkpt lat="47.3079" lon="6.03753">
        <ele>518.2</ele>
        <time>2021-10-13T09:36:16Z</time>
      </trkpt>
      <trkpt lat="47.3079" lon="6.03756">
        <ele>518.2</ele>
        <time>2021-10-13T09:36:17Z</time>
      </trkpt>
      <trkpt lat="47.3079" lon="6.03758">
        <ele>518.4</ele>
        <time>2021-10-13T09:36:18Z</time>
      </trkpt>
      <trkpt lat="47.3079" lon="6.03761">
        <ele>518.6</ele>
        <time>2021-10-13T09:36:19Z</time>
      </trkpt>
      <trkpt lat="47.30791" lon="6.0377">
        <ele>519</ele>
        <time>2021-10-13T09:36:22Z</time>
      </trkpt>
      <trkpt lat="47.30792" lon="6.03782">
        <ele>519.4</ele>
        <time>2021-10-13T09:36:26Z</time>
      </trkpt>
      <trkpt lat="47.30794" lon="6.03786">
        <ele>519.6</ele>
        <time>2021-10-13T09:36:27Z</time>
      </trkpt>
      <trkpt lat="47.30794" lon="6.03788">
        <ele>519.8</ele>
        <time>2021-10-13T09:36:28Z</time>
      </trkpt>
      <trkpt lat="47.30795" lon="6.03795">
        <ele>520</ele>
        <time>2021-10-13T09:36:30Z</time>
      </trkpt>
      <trkpt lat="47.30794" lon="6.03798">
        <ele>520.2</ele>
        <time>2021-10-13T09:36:31Z</time>
      </trkpt>
      <trkpt lat="47.30793" lon="6.038">
        <ele>520.4</ele>
        <time>2021-10-13T09:36:32Z</time>
      </trkpt>
      <trkpt lat="47.30793" lon="6.03802">
        <ele>520.4</ele>
        <time>2021-10-13T09:36:33Z</time>
      </trkpt>
      <trkpt lat="47.30793" lon="6.03805">
        <ele>520.4</ele>
        <time>2021-10-13T09:36:34Z</time>
      </trkpt>
      <trkpt lat="47.30794" lon="6.03809">
        <ele>520.6</ele>
        <time>2021-10-13T09:36:35Z</time>
      </trkpt>
      <trkpt lat="47.30794" lon="6.03812">
        <ele>520.6</ele>
        <time>2021-10-13T09:36:36Z</time>
      </trkpt>
      <trkpt lat="47.30795" lon="6.03815">
        <ele>520.6</ele>
        <time>2021-10-13T09:36:37Z</time>
      </trkpt>
      <trkpt lat="47.30796" lon="6.03818">
        <ele>520.8</ele>
        <time>2021-10-13T09:36:38Z</time>
      </trkpt>
      <trkpt lat="47.30796" lon="6.0382">
        <ele>520.8</ele>
        <time>2021-10-13T09:36:39Z</time>
      </trkpt>
      <trkpt lat="47.30796" lon="6.03823">
        <ele>521</ele>
        <time>2021-10-13T09:36:40Z</time>
      </trkpt>
      <trkpt lat="47.30797" lon="6.03825">
        <ele>521</ele>
        <time>2021-10-13T09:36:41Z</time>
      </trkpt>
      <trkpt lat="47.30798" lon="6.03826">
        <ele>521.2</ele>
        <time>2021-10-13T09:36:42Z</time>
      </trkpt>
      <trkpt lat="47.30798" lon="6.03828">
        <ele>521.2</ele>
        <time>2021-10-13T09:36:43Z</time>
      </trkpt>
      <trkpt lat="47.30798" lon="6.0383">
        <ele>521.4</ele>
        <time>2021-10-13T09:36:44Z</time>
      </trkpt>
      <trkpt lat="47.30798" lon="6.03832">
        <ele>521.6</ele>
        <time>2021-10-13T09:36:45Z</time>
      </trkpt>
      <trkpt lat="47.30799" lon="6.03834">
        <ele>521.8</ele>
        <time>2021-10-13T09:36:46Z</time>
      </trkpt>
      <trkpt lat="47.30799" lon="6.03837">
        <ele>522</ele>
        <time>2021-10-13T09:36:47Z</time>
      </trkpt>
      <trkpt lat="47.30799" lon="6.03839">
        <ele>522</ele>
        <time>2021-10-13T09:36:48Z</time>
      </trkpt>
      <trkpt lat="47.30799" lon="6.03842">
        <ele>522.2</ele>
        <time>2021-10-13T09:36:49Z</time>
      </trkpt>
      <trkpt lat="47.308" lon="6.03845">
        <ele>522.4</ele>
        <time>2021-10-13T09:36:50Z</time>
      </trkpt>
      <trkpt lat="47.30801" lon="6.03847">
        <ele>522.4</ele>
        <time>2021-10-13T09:36:51Z</time>
      </trkpt>
      <trkpt lat="47.30801" lon="6.0385">
        <ele>522.6</ele>
        <time>2021-10-13T09:36:52Z</time>
      </trkpt>
      <trkpt lat="47.30801" lon="6.03853">
        <ele>522.6</ele>
        <time>2021-10-13T09:36:53Z</time>
      </trkpt>
      <trkpt lat="47.30801" lon="6.03856">
        <ele>522.8</ele>
        <time>2021-10-13T09:36:54Z</time>
      </trkpt>
      <trkpt lat="47.30802" lon="6.03858">
        <ele>523</ele>
        <time>2021-10-13T09:36:55Z</time>
      </trkpt>
      <trkpt lat="47.30802" lon="6.03861">
        <ele>523</ele>
        <time>2021-10-13T09:36:56Z</time>
      </trkpt>
      <trkpt lat="47.30803" lon="6.03864">
        <ele>523.2</ele>
        <time>2021-10-13T09:36:57Z</time>
      </trkpt>
      <trkpt lat="47.30804" lon="6.03867">
        <ele>523.2</ele>
        <time>2021-10-13T09:36:58Z</time>
      </trkpt>
      <trkpt lat="47.30804" lon="6.0387">
        <ele>523.4</ele>
        <time>2021-10-13T09:36:59Z</time>
      </trkpt>
      <trkpt lat="47.30805" lon="6.03873">
        <ele>523.4</ele>
        <time>2021-10-13T09:37:00Z</time>
      </trkpt>
      <trkpt lat="47.30805" lon="6.03876">
        <ele>523.4</ele>
        <time>2021-10-13T09:37:01Z</time>
      </trkpt>
      <trkpt lat="47.30806" lon="6.03879">
        <ele>523.6</ele>
        <time>2021-10-13T09:37:02Z</time>
      </trkpt>
      <trkpt lat="47.30806" lon="6.03882">
        <ele>523.8</ele>
        <time>2021-10-13T09:37:03Z</time>
      </trkpt>
      <trkpt lat="47.30807" lon="6.03885">
        <ele>523.8</ele>
        <time>2021-10-13T09:37:04Z</time>
      </trkpt>
      <trkpt lat="47.30807" lon="6.03888">
        <ele>523.8</ele>
        <time>2021-10-13T09:37:05Z</time>
      </trkpt>
      <trkpt lat="47.30807" lon="6.03891">
        <ele>523.8</ele>
        <time>2021-10-13T09:37:06Z</time>
      </trkpt>
      <trkpt lat="47.30807" lon="6.03894">
        <ele>524</ele>
        <time>2021-10-13T09:37:07Z</time>
      </trkpt>
      <trkpt lat="47.30808" lon="6.03897">
        <ele>524.2</ele>
        <time>2021-10-13T09:37:08Z</time>
      </trkpt>
      <trkpt lat="47.30808" lon="6.03899">
        <ele>524.4</ele>
        <time>2021-10-13T09:37:09Z</time>
      </trkpt>
      <trkpt lat="47.30809" lon="6.03902">
        <ele>524.4</ele>
        <time>2021-10-13T09:37:10Z</time>
      </trkpt>
      <trkpt lat="47.30809" lon="6.03904">
        <ele>524.6</ele>
        <time>2021-10-13T09:37:11Z</time>
      </trkpt>
      <trkpt lat="47.3081" lon="6.03907">
        <ele>524.8</ele>
        <time>2021-10-13T09:37:12Z</time>
      </trkpt>
      <trkpt lat="47.3081" lon="6.0391">
        <ele>524.8</ele>
        <time>2021-10-13T09:37:13Z</time>
      </trkpt>
      <trkpt lat="47.3081" lon="6.03913">
        <ele>525</ele>
        <time>2021-10-13T09:37:14Z</time>
      </trkpt>
      <trkpt lat="47.3081" lon="6.03916">
        <ele>525</ele>
        <time>2021-10-13T09:37:15Z</time>
      </trkpt>
      <trkpt lat="47.3081" lon="6.03919">
        <ele>525.2</ele>
        <time>2021-10-13T09:37:16Z</time>
      </trkpt>
      <trkpt lat="47.3081" lon="6.03921">
        <ele>525.2</ele>
        <time>2021-10-13T09:37:17Z</time>
      </trkpt>
      <trkpt lat="47.30811" lon="6.03924">
        <ele>525.4</ele>
        <time>2021-10-13T09:37:18Z</time>
      </trkpt>
      <trkpt lat="47.30811" lon="6.03927">
        <ele>525.4</ele>
        <time>2021-10-13T09:37:19Z</time>
      </trkpt>
      <trkpt lat="47.30811" lon="6.0393">
        <ele>525.6</ele>
        <time>2021-10-13T09:37:20Z</time>
      </trkpt>
      <trkpt lat="47.30811" lon="6.03932">
        <ele>525.6</ele>
        <time>2021-10-13T09:37:21Z</time>
      </trkpt>
      <trkpt lat="47.30812" lon="6.03935">
        <ele>525.8</ele>
        <time>2021-10-13T09:37:22Z</time>
      </trkpt>
      <trkpt lat="47.30812" lon="6.03938">
        <ele>526</ele>
        <time>2021-10-13T09:37:23Z</time>
      </trkpt>
      <trkpt lat="47.30812" lon="6.0394">
        <ele>526.2</ele>
        <time>2021-10-13T09:37:24Z</time>
      </trkpt>
      <trkpt lat="47.30812" lon="6.03943">
        <ele>526.4</ele>
        <time>2021-10-13T09:37:25Z</time>
      </trkpt>
      <trkpt lat="47.30812" lon="6.03946">
        <ele>526.4</ele>
        <time>2021-10-13T09:37:26Z</time>
      </trkpt>
      <trkpt lat="47.30813" lon="6.03948">
        <ele>526.6</ele>
        <time>2021-10-13T09:37:27Z</time>
      </trkpt>
      <trkpt lat="47.30813" lon="6.0395">
        <ele>526.8</ele>
        <time>2021-10-13T09:37:28Z</time>
      </trkpt>
      <trkpt lat="47.30813" lon="6.03952">
        <ele>527</ele>
        <time>2021-10-13T09:37:29Z</time>
      </trkpt>
      <trkpt lat="47.30813" lon="6.03954">
        <ele>527</ele>
        <time>2021-10-13T09:37:30Z</time>
      </trkpt>
      <trkpt lat="47.30813" lon="6.03956">
        <ele>527.4</ele>
        <time>2021-10-13T09:37:31Z</time>
      </trkpt>
      <trkpt lat="47.30813" lon="6.03958">
        <ele>527.6</ele>
        <time>2021-10-13T09:37:32Z</time>
      </trkpt>
      <trkpt lat="47.30813" lon="6.0396">
        <ele>527.6</ele>
        <time>2021-10-13T09:37:33Z</time>
      </trkpt>
      <trkpt lat="47.30813" lon="6.03962">
        <ele>527.8</ele>
        <time>2021-10-13T09:37:34Z</time>
      </trkpt>
      <trkpt lat="47.30813" lon="6.03965">
        <ele>527.8</ele>
        <time>2021-10-13T09:37:35Z</time>
      </trkpt>
      <trkpt lat="47.30813" lon="6.03968">
        <ele>527.8</ele>
        <time>2021-10-13T09:37:36Z</time>
      </trkpt>
      <trkpt lat="47.30813" lon="6.03971">
        <ele>527.8</ele>
        <time>2021-10-13T09:37:37Z</time>
      </trkpt>
      <trkpt lat="47.30813" lon="6.03974">
        <ele>528</ele>
        <time>2021-10-13T09:37:38Z</time>
      </trkpt>
      <trkpt lat="47.30814" lon="6.03976">
        <ele>528</ele>
        <time>2021-10-13T09:37:39Z</time>
      </trkpt>
      <trkpt lat="47.30813" lon="6.03978">
        <ele>528.2</ele>
        <time>2021-10-13T09:37:40Z</time>
      </trkpt>
      <trkpt lat="47.30813" lon="6.03979">
        <ele>528.2</ele>
        <time>2021-10-13T09:37:41Z</time>
      </trkpt>
      <trkpt lat="47.30813" lon="6.03982">
        <ele>528.2</ele>
        <time>2021-10-13T09:37:42Z</time>
      </trkpt>
      <trkpt lat="47.30813" lon="6.03984">
        <ele>528.2</ele>
        <time>2021-10-13T09:37:43Z</time>
      </trkpt>
      <trkpt lat="47.30813" lon="6.03987">
        <ele>528.4</ele>
        <time>2021-10-13T09:37:44Z</time>
      </trkpt>
      <trkpt lat="47.30814" lon="6.03989">
        <ele>528.4</ele>
        <time>2021-10-13T09:37:45Z</time>
      </trkpt>
      <trkpt lat="47.30814" lon="6.03992">
        <ele>528.4</ele>
        <time>2021-10-13T09:37:46Z</time>
      </trkpt>
      <trkpt lat="47.30813" lon="6.03994">
        <ele>528.4</ele>
        <time>2021-10-13T09:37:47Z</time>
      </trkpt>
      <trkpt lat="47.30813" lon="6.03997">
        <ele>528.4</ele>
        <time>2021-10-13T09:37:48Z</time>
      </trkpt>
      <trkpt lat="47.30813" lon="6.03999">
        <ele>528.4</ele>
        <time>2021-10-13T09:37:49Z</time>
      </trkpt>
      <trkpt lat="47.30813" lon="6.04001">
        <ele>528.4</ele>
        <time>2021-10-13T09:37:50Z</time>
      </trkpt>
      <trkpt lat="47.30812" lon="6.04013">
        <ele>528.8</ele>
        <time>2021-10-13T09:37:54Z</time>
      </trkpt>
      <trkpt lat="47.30813" lon="6.04021">
        <ele>528.8</ele>
        <time>2021-10-13T09:37:57Z</time>
      </trkpt>
      <trkpt lat="47.30813" lon="6.04027">
        <ele>529</ele>
        <time>2021-10-13T09:37:59Z</time>
      </trkpt>
      <trkpt lat="47.30813" lon="6.04029">
        <ele>529.2</ele>
        <time>2021-10-13T09:38:00Z</time>
      </trkpt>
      <trkpt lat="47.30813" lon="6.04032">
        <ele>529.2</ele>
        <time>2021-10-13T09:38:01Z</time>
      </trkpt>
      <trkpt lat="47.30814" lon="6.04043">
        <ele>529.4</ele>
        <time>2021-10-13T09:38:05Z</time>
      </trkpt>
      <trkpt lat="47.30814" lon="6.04052">
        <ele>529.8</ele>
        <time>2021-10-13T09:38:08Z</time>
      </trkpt>
      <trkpt lat="47.30813" lon="6.04066">
        <ele>530.2</ele>
        <time>2021-10-13T09:38:12Z</time>
      </trkpt>
      <trkpt lat="47.30815" lon="6.04085">
        <ele>530.8</ele>
        <time>2021-10-13T09:38:19Z</time>
      </trkpt>
      <trkpt lat="47.30815" lon="6.04088">
        <ele>530.8</ele>
        <time>2021-10-13T09:38:20Z</time>
      </trkpt>
      <trkpt lat="47.30815" lon="6.04091">
        <ele>531.2</ele>
        <time>2021-10-13T09:38:21Z</time>
      </trkpt>
      <trkpt lat="47.30817" lon="6.04095">
        <ele>531.4</ele>
        <time>2021-10-13T09:38:23Z</time>
      </trkpt>
      <trkpt lat="47.30818" lon="6.04097">
        <ele>531.6</ele>
        <time>2021-10-13T09:38:24Z</time>
      </trkpt>
      <trkpt lat="47.30819" lon="6.04099">
        <ele>531.6</ele>
        <time>2021-10-13T09:38:25Z</time>
      </trkpt>
      <trkpt lat="47.3082" lon="6.04101">
        <ele>531.6</ele>
        <time>2021-10-13T09:38:26Z</time>
      </trkpt>
      <trkpt lat="47.30821" lon="6.04101">
        <ele>531.8</ele>
        <time>2021-10-13T09:38:27Z</time>
      </trkpt>
      <trkpt lat="47.30822" lon="6.04102">
        <ele>532</ele>
        <time>2021-10-13T09:38:28Z</time>
      </trkpt>
      <trkpt lat="47.30823" lon="6.04102">
        <ele>532</ele>
        <time>2021-10-13T09:38:29Z</time>
      </trkpt>
      <trkpt lat="47.30824" lon="6.04102">
        <ele>532.2</ele>
        <time>2021-10-13T09:38:30Z</time>
      </trkpt>
      <trkpt lat="47.30824" lon="6.04102">
        <ele>532.2</ele>
        <time>2021-10-13T09:38:31Z</time>
      </trkpt>
      <trkpt lat="47.30825" lon="6.04102">
        <ele>532.2</ele>
        <time>2021-10-13T09:38:32Z</time>
      </trkpt>
      <trkpt lat="47.30825" lon="6.04102">
        <ele>532.2</ele>
        <time>2021-10-13T09:38:33Z</time>
      </trkpt>
      <trkpt lat="47.30826" lon="6.04102">
        <ele>532.4</ele>
        <time>2021-10-13T09:38:34Z</time>
      </trkpt>
      <trkpt lat="47.30826" lon="6.04101">
        <ele>532.4</ele>
        <time>2021-10-13T09:38:38Z</time>
      </trkpt>
      <trkpt lat="47.30826" lon="6.04101">
        <ele>532.4</ele>
        <time>2021-10-13T09:38:46Z</time>
      </trkpt>
      <trkpt lat="47.30828" lon="6.041">
        <ele>532.4</ele>
        <time>2021-10-13T09:39:44Z</time>
      </trkpt>
      <trkpt lat="47.3083" lon="6.04099">
        <ele>532.4</ele>
        <time>2021-10-13T09:39:45Z</time>
      </trkpt>
      <trkpt lat="47.30831" lon="6.04098">
        <ele>532.4</ele>
        <time>2021-10-13T09:39:46Z</time>
      </trkpt>
      <trkpt lat="47.30834" lon="6.04094">
        <ele>532.6</ele>
        <time>2021-10-13T09:39:48Z</time>
      </trkpt>
      <trkpt lat="47.30835" lon="6.04092">
        <ele>532.6</ele>
        <time>2021-10-13T09:39:49Z</time>
      </trkpt>
      <trkpt lat="47.30839" lon="6.04085">
        <ele>532.8</ele>
        <time>2021-10-13T09:39:52Z</time>
      </trkpt>
      <trkpt lat="47.3084" lon="6.04082">
        <ele>533</ele>
        <time>2021-10-13T09:39:53Z</time>
      </trkpt>
      <trkpt lat="47.3084" lon="6.0408">
        <ele>533</ele>
        <time>2021-10-13T09:39:54Z</time>
      </trkpt>
      <trkpt lat="47.3084" lon="6.04076">
        <ele>533</ele>
        <time>2021-10-13T09:39:55Z</time>
      </trkpt>
      <trkpt lat="47.3084" lon="6.04073">
        <ele>533.2</ele>
        <time>2021-10-13T09:39:56Z</time>
      </trkpt>
      <trkpt lat="47.30839" lon="6.0407">
        <ele>533.2</ele>
        <time>2021-10-13T09:39:57Z</time>
      </trkpt>
      <trkpt lat="47.30839" lon="6.04068">
        <ele>533.6</ele>
        <time>2021-10-13T09:39:58Z</time>
      </trkpt>
      <trkpt lat="47.30839" lon="6.04065">
        <ele>533.6</ele>
        <time>2021-10-13T09:39:59Z</time>
      </trkpt>
      <trkpt lat="47.30839" lon="6.04054">
        <ele>534</ele>
        <time>2021-10-13T09:40:02Z</time>
      </trkpt>
      <trkpt lat="47.30839" lon="6.04048">
        <ele>534.2</ele>
        <time>2021-10-13T09:40:04Z</time>
      </trkpt>
      <trkpt lat="47.30839" lon="6.04041">
        <ele>534.4</ele>
        <time>2021-10-13T09:40:06Z</time>
      </trkpt>
      <trkpt lat="47.30839" lon="6.04018">
        <ele>535.2</ele>
        <time>2021-10-13T09:40:12Z</time>
      </trkpt>
      <trkpt lat="47.30839" lon="6.04014">
        <ele>535.2</ele>
        <time>2021-10-13T09:40:13Z</time>
      </trkpt>
      <trkpt lat="47.30842" lon="6.03986">
        <ele>535.6</ele>
        <time>2021-10-13T09:40:20Z</time>
      </trkpt>
      <trkpt lat="47.30842" lon="6.03983">
        <ele>535.6</ele>
        <time>2021-10-13T09:40:21Z</time>
      </trkpt>
      <trkpt lat="47.30843" lon="6.03965">
        <ele>536</ele>
        <time>2021-10-13T09:40:25Z</time>
      </trkpt>
      <trkpt lat="47.30843" lon="6.03961">
        <ele>536.2</ele>
        <time>2021-10-13T09:40:26Z</time>
      </trkpt>
      <trkpt lat="47.30843" lon="6.03957">
        <ele>536.2</ele>
        <time>2021-10-13T09:40:27Z</time>
      </trkpt>
      <trkpt lat="47.30843" lon="6.03954">
        <ele>536.2</ele>
        <time>2021-10-13T09:40:28Z</time>
      </trkpt>
      <trkpt lat="47.30844" lon="6.0395">
        <ele>536.4</ele>
        <time>2021-10-13T09:40:29Z</time>
      </trkpt>
      <trkpt lat="47.30846" lon="6.03934">
        <ele>537</ele>
        <time>2021-10-13T09:40:33Z</time>
      </trkpt>
      <trkpt lat="47.30847" lon="6.03925">
        <ele>537.2</ele>
        <time>2021-10-13T09:40:35Z</time>
      </trkpt>
      <trkpt lat="47.30848" lon="6.03906">
        <ele>537.6</ele>
        <time>2021-10-13T09:40:40Z</time>
      </trkpt>
      <trkpt lat="47.3085" lon="6.03894">
        <ele>537.8</ele>
        <time>2021-10-13T09:40:44Z</time>
      </trkpt>
      <trkpt lat="47.30851" lon="6.03891">
        <ele>538</ele>
        <time>2021-10-13T09:40:45Z</time>
      </trkpt>
      <trkpt lat="47.30852" lon="6.03888">
        <ele>538.2</ele>
        <time>2021-10-13T09:40:46Z</time>
      </trkpt>
      <trkpt lat="47.30853" lon="6.03886">
        <ele>538.2</ele>
        <time>2021-10-13T09:40:47Z</time>
      </trkpt>
      <trkpt lat="47.30854" lon="6.03884">
        <ele>538.4</ele>
        <time>2021-10-13T09:40:48Z</time>
      </trkpt>
      <trkpt lat="47.30854" lon="6.03881">
        <ele>538.6</ele>
        <time>2021-10-13T09:40:49Z</time>
      </trkpt>
      <trkpt lat="47.30854" lon="6.03878">
        <ele>538.6</ele>
        <time>2021-10-13T09:40:50Z</time>
      </trkpt>
      <trkpt lat="47.30855" lon="6.03875">
        <ele>538.8</ele>
        <time>2021-10-13T09:40:51Z</time>
      </trkpt>
      <trkpt lat="47.30856" lon="6.03872">
        <ele>539</ele>
        <time>2021-10-13T09:40:52Z</time>
      </trkpt>
      <trkpt lat="47.30857" lon="6.03869">
        <ele>539</ele>
        <time>2021-10-13T09:40:53Z</time>
      </trkpt>
      <trkpt lat="47.30858" lon="6.03862">
        <ele>539.4</ele>
        <time>2021-10-13T09:40:55Z</time>
      </trkpt>
      <trkpt lat="47.30859" lon="6.03859">
        <ele>539.6</ele>
        <time>2021-10-13T09:40:56Z</time>
      </trkpt>
      <trkpt lat="47.30859" lon="6.03856">
        <ele>539.6</ele>
        <time>2021-10-13T09:40:57Z</time>
      </trkpt>
      <trkpt lat="47.30859" lon="6.03853">
        <ele>539.8</ele>
        <time>2021-10-13T09:40:58Z</time>
      </trkpt>
      <trkpt lat="47.3086" lon="6.03851">
        <ele>540</ele>
        <time>2021-10-13T09:40:59Z</time>
      </trkpt>
      <trkpt lat="47.30861" lon="6.03847">
        <ele>540</ele>
        <time>2021-10-13T09:41:00Z</time>
      </trkpt>
      <trkpt lat="47.30861" lon="6.03845">
        <ele>540.2</ele>
        <time>2021-10-13T09:41:01Z</time>
      </trkpt>
      <trkpt lat="47.30863" lon="6.03843">
        <ele>540.2</ele>
        <time>2021-10-13T09:41:02Z</time>
      </trkpt>
      <trkpt lat="47.30864" lon="6.0384">
        <ele>540.4</ele>
        <time>2021-10-13T09:41:03Z</time>
      </trkpt>
      <trkpt lat="47.30864" lon="6.03837">
        <ele>540.4</ele>
        <time>2021-10-13T09:41:04Z</time>
      </trkpt>
      <trkpt lat="47.30865" lon="6.03833">
        <ele>540.6</ele>
        <time>2021-10-13T09:41:05Z</time>
      </trkpt>
      <trkpt lat="47.30865" lon="6.0383">
        <ele>540.8</ele>
        <time>2021-10-13T09:41:06Z</time>
      </trkpt>
      <trkpt lat="47.30866" lon="6.03827">
        <ele>541</ele>
        <time>2021-10-13T09:41:07Z</time>
      </trkpt>
      <trkpt lat="47.30866" lon="6.03824">
        <ele>541</ele>
        <time>2021-10-13T09:41:08Z</time>
      </trkpt>
      <trkpt lat="47.30867" lon="6.03821">
        <ele>541.2</ele>
        <time>2021-10-13T09:41:09Z</time>
      </trkpt>
      <trkpt lat="47.30867" lon="6.03818">
        <ele>541.4</ele>
        <time>2021-10-13T09:41:10Z</time>
      </trkpt>
      <trkpt lat="47.30868" lon="6.03815">
        <ele>541.6</ele>
        <time>2021-10-13T09:41:11Z</time>
      </trkpt>
      <trkpt lat="47.30869" lon="6.03812">
        <ele>541.8</ele>
        <time>2021-10-13T09:41:12Z</time>
      </trkpt>
      <trkpt lat="47.3087" lon="6.0381">
        <ele>541.8</ele>
        <time>2021-10-13T09:41:13Z</time>
      </trkpt>
      <trkpt lat="47.30871" lon="6.03808">
        <ele>542</ele>
        <time>2021-10-13T09:41:14Z</time>
      </trkpt>
      <trkpt lat="47.30872" lon="6.03806">
        <ele>542</ele>
        <time>2021-10-13T09:41:15Z</time>
      </trkpt>
      <trkpt lat="47.30872" lon="6.03803">
        <ele>542.2</ele>
        <time>2021-10-13T09:41:16Z</time>
      </trkpt>
      <trkpt lat="47.30873" lon="6.03801">
        <ele>542.2</ele>
        <time>2021-10-13T09:41:17Z</time>
      </trkpt>
      <trkpt lat="47.30874" lon="6.03797">
        <ele>542.4</ele>
        <time>2021-10-13T09:41:18Z</time>
      </trkpt>
      <trkpt lat="47.30875" lon="6.03795">
        <ele>542.6</ele>
        <time>2021-10-13T09:41:19Z</time>
      </trkpt>
      <trkpt lat="47.30876" lon="6.03791">
        <ele>542.8</ele>
        <time>2021-10-13T09:41:20Z</time>
      </trkpt>
      <trkpt lat="47.30876" lon="6.03788">
        <ele>543</ele>
        <time>2021-10-13T09:41:21Z</time>
      </trkpt>
      <trkpt lat="47.30878" lon="6.03785">
        <ele>543.2</ele>
        <time>2021-10-13T09:41:22Z</time>
      </trkpt>
      <trkpt lat="47.30878" lon="6.03783">
        <ele>543.4</ele>
        <time>2021-10-13T09:41:23Z</time>
      </trkpt>
      <trkpt lat="47.30879" lon="6.03779">
        <ele>543.6</ele>
        <time>2021-10-13T09:41:24Z</time>
      </trkpt>
      <trkpt lat="47.30879" lon="6.03777">
        <ele>543.8</ele>
        <time>2021-10-13T09:41:25Z</time>
      </trkpt>
      <trkpt lat="47.3088" lon="6.03773">
        <ele>543.8</ele>
        <time>2021-10-13T09:41:26Z</time>
      </trkpt>
      <trkpt lat="47.30881" lon="6.03771">
        <ele>544</ele>
        <time>2021-10-13T09:41:27Z</time>
      </trkpt>
      <trkpt lat="47.30882" lon="6.03767">
        <ele>544</ele>
        <time>2021-10-13T09:41:28Z</time>
      </trkpt>
      <trkpt lat="47.30882" lon="6.03765">
        <ele>544.2</ele>
        <time>2021-10-13T09:41:29Z</time>
      </trkpt>
      <trkpt lat="47.30883" lon="6.03762">
        <ele>544.2</ele>
        <time>2021-10-13T09:41:30Z</time>
      </trkpt>
      <trkpt lat="47.30883" lon="6.03759">
        <ele>544.2</ele>
        <time>2021-10-13T09:41:31Z</time>
      </trkpt>
      <trkpt lat="47.30884" lon="6.03756">
        <ele>544.4</ele>
        <time>2021-10-13T09:41:32Z</time>
      </trkpt>
      <trkpt lat="47.30885" lon="6.03753">
        <ele>544.4</ele>
        <time>2021-10-13T09:41:33Z</time>
      </trkpt>
      <trkpt lat="47.30885" lon="6.0375">
        <ele>544.4</ele>
        <time>2021-10-13T09:41:34Z</time>
      </trkpt>
      <trkpt lat="47.30885" lon="6.03747">
        <ele>544.6</ele>
        <time>2021-10-13T09:41:35Z</time>
      </trkpt>
      <trkpt lat="47.30886" lon="6.03744">
        <ele>544.6</ele>
        <time>2021-10-13T09:41:36Z</time>
      </trkpt>
      <trkpt lat="47.30886" lon="6.03742">
        <ele>544.8</ele>
        <time>2021-10-13T09:41:37Z</time>
      </trkpt>
      <trkpt lat="47.30887" lon="6.03739">
        <ele>544.8</ele>
        <time>2021-10-13T09:41:38Z</time>
      </trkpt>
      <trkpt lat="47.30887" lon="6.03737">
        <ele>545</ele>
        <time>2021-10-13T09:41:39Z</time>
      </trkpt>
      <trkpt lat="47.30888" lon="6.03733">
        <ele>545.2</ele>
        <time>2021-10-13T09:41:40Z</time>
      </trkpt>
      <trkpt lat="47.30889" lon="6.03731">
        <ele>545.2</ele>
        <time>2021-10-13T09:41:41Z</time>
      </trkpt>
      <trkpt lat="47.3089" lon="6.03728">
        <ele>545.4</ele>
        <time>2021-10-13T09:41:42Z</time>
      </trkpt>
      <trkpt lat="47.30891" lon="6.03726">
        <ele>545.4</ele>
        <time>2021-10-13T09:41:43Z</time>
      </trkpt>
      <trkpt lat="47.30891" lon="6.03723">
        <ele>545.6</ele>
        <time>2021-10-13T09:41:44Z</time>
      </trkpt>
      <trkpt lat="47.30892" lon="6.0372">
        <ele>545.6</ele>
        <time>2021-10-13T09:41:45Z</time>
      </trkpt>
      <trkpt lat="47.30892" lon="6.03716">
        <ele>545.6</ele>
        <time>2021-10-13T09:41:46Z</time>
      </trkpt>
      <trkpt lat="47.30893" lon="6.03713">
        <ele>545.8</ele>
        <time>2021-10-13T09:41:47Z</time>
      </trkpt>
      <trkpt lat="47.30894" lon="6.03711">
        <ele>545.8</ele>
        <time>2021-10-13T09:41:48Z</time>
      </trkpt>
      <trkpt lat="47.30895" lon="6.03707">
        <ele>546</ele>
        <time>2021-10-13T09:41:49Z</time>
      </trkpt>
      <trkpt lat="47.30896" lon="6.03705">
        <ele>546.2</ele>
        <time>2021-10-13T09:41:50Z</time>
      </trkpt>
      <trkpt lat="47.30897" lon="6.03702">
        <ele>546.2</ele>
        <time>2021-10-13T09:41:51Z</time>
      </trkpt>
      <trkpt lat="47.30898" lon="6.03699">
        <ele>546.4</ele>
        <time>2021-10-13T09:41:52Z</time>
      </trkpt>
      <trkpt lat="47.30898" lon="6.03697">
        <ele>546.4</ele>
        <time>2021-10-13T09:41:53Z</time>
      </trkpt>
      <trkpt lat="47.30898" lon="6.03694">
        <ele>546.6</ele>
        <time>2021-10-13T09:41:54Z</time>
      </trkpt>
      <trkpt lat="47.30899" lon="6.03691">
        <ele>546.6</ele>
        <time>2021-10-13T09:41:55Z</time>
      </trkpt>
      <trkpt lat="47.30899" lon="6.03689">
        <ele>546.8</ele>
        <time>2021-10-13T09:41:56Z</time>
      </trkpt>
      <trkpt lat="47.309" lon="6.03687">
        <ele>546.8</ele>
        <time>2021-10-13T09:41:57Z</time>
      </trkpt>
      <trkpt lat="47.309" lon="6.03684">
        <ele>547</ele>
        <time>2021-10-13T09:41:58Z</time>
      </trkpt>
      <trkpt lat="47.30901" lon="6.03683">
        <ele>547.2</ele>
        <time>2021-10-13T09:41:59Z</time>
      </trkpt>
      <trkpt lat="47.30902" lon="6.0368">
        <ele>547.2</ele>
        <time>2021-10-13T09:42:00Z</time>
      </trkpt>
      <trkpt lat="47.30903" lon="6.03679">
        <ele>547.4</ele>
        <time>2021-10-13T09:42:01Z</time>
      </trkpt>
      <trkpt lat="47.30904" lon="6.03676">
        <ele>547.6</ele>
        <time>2021-10-13T09:42:02Z</time>
      </trkpt>
      <trkpt lat="47.30904" lon="6.03674">
        <ele>547.6</ele>
        <time>2021-10-13T09:42:03Z</time>
      </trkpt>
      <trkpt lat="47.30905" lon="6.03671">
        <ele>547.6</ele>
        <time>2021-10-13T09:42:04Z</time>
      </trkpt>
      <trkpt lat="47.30906" lon="6.03668">
        <ele>547.8</ele>
        <time>2021-10-13T09:42:05Z</time>
      </trkpt>
      <trkpt lat="47.30906" lon="6.03666">
        <ele>547.8</ele>
        <time>2021-10-13T09:42:06Z</time>
      </trkpt>
      <trkpt lat="47.30907" lon="6.03663">
        <ele>547.8</ele>
        <time>2021-10-13T09:42:07Z</time>
      </trkpt>
      <trkpt lat="47.30908" lon="6.0366">
        <ele>548</ele>
        <time>2021-10-13T09:42:08Z</time>
      </trkpt>
      <trkpt lat="47.30909" lon="6.03657">
        <ele>548</ele>
        <time>2021-10-13T09:42:09Z</time>
      </trkpt>
      <trkpt lat="47.30909" lon="6.03655">
        <ele>548.2</ele>
        <time>2021-10-13T09:42:10Z</time>
      </trkpt>
      <trkpt lat="47.30909" lon="6.03653">
        <ele>548.2</ele>
        <time>2021-10-13T09:42:11Z</time>
      </trkpt>
      <trkpt lat="47.30909" lon="6.03651">
        <ele>548.4</ele>
        <time>2021-10-13T09:42:12Z</time>
      </trkpt>
      <trkpt lat="47.3091" lon="6.03649">
        <ele>548.6</ele>
        <time>2021-10-13T09:42:13Z</time>
      </trkpt>
      <trkpt lat="47.30911" lon="6.03646">
        <ele>548.8</ele>
        <time>2021-10-13T09:42:14Z</time>
      </trkpt>
      <trkpt lat="47.30911" lon="6.03643">
        <ele>548.8</ele>
        <time>2021-10-13T09:42:15Z</time>
      </trkpt>
      <trkpt lat="47.30912" lon="6.0364">
        <ele>549</ele>
        <time>2021-10-13T09:42:16Z</time>
      </trkpt>
      <trkpt lat="47.30913" lon="6.03638">
        <ele>549</ele>
        <time>2021-10-13T09:42:17Z</time>
      </trkpt>
      <trkpt lat="47.30914" lon="6.03635">
        <ele>549</ele>
        <time>2021-10-13T09:42:18Z</time>
      </trkpt>
      <trkpt lat="47.30915" lon="6.03632">
        <ele>549.2</ele>
        <time>2021-10-13T09:42:19Z</time>
      </trkpt>
      <trkpt lat="47.30916" lon="6.03628">
        <ele>549.4</ele>
        <time>2021-10-13T09:42:20Z</time>
      </trkpt>
      <trkpt lat="47.30917" lon="6.03625">
        <ele>549.6</ele>
        <time>2021-10-13T09:42:21Z</time>
      </trkpt>
      <trkpt lat="47.30918" lon="6.03623">
        <ele>549.6</ele>
        <time>2021-10-13T09:42:22Z</time>
      </trkpt>
      <trkpt lat="47.30919" lon="6.0362">
        <ele>549.8</ele>
        <time>2021-10-13T09:42:23Z</time>
      </trkpt>
      <trkpt lat="47.30921" lon="6.03618">
        <ele>549.8</ele>
        <time>2021-10-13T09:42:24Z</time>
      </trkpt>
      <trkpt lat="47.30921" lon="6.03616">
        <ele>550</ele>
        <time>2021-10-13T09:42:25Z</time>
      </trkpt>
      <trkpt lat="47.30922" lon="6.03614">
        <ele>550</ele>
        <time>2021-10-13T09:42:26Z</time>
      </trkpt>
      <trkpt lat="47.30923" lon="6.03611">
        <ele>550</ele>
        <time>2021-10-13T09:42:27Z</time>
      </trkpt>
      <trkpt lat="47.30925" lon="6.03609">
        <ele>550</ele>
        <time>2021-10-13T09:42:28Z</time>
      </trkpt>
      <trkpt lat="47.30927" lon="6.03608">
        <ele>550.2</ele>
        <time>2021-10-13T09:42:29Z</time>
      </trkpt>
      <trkpt lat="47.30929" lon="6.03608">
        <ele>550.4</ele>
        <time>2021-10-13T09:42:30Z</time>
      </trkpt>
      <trkpt lat="47.30931" lon="6.03607">
        <ele>550.6</ele>
        <time>2021-10-13T09:42:31Z</time>
      </trkpt>
      <trkpt lat="47.30933" lon="6.03607">
        <ele>550.8</ele>
        <time>2021-10-13T09:42:32Z</time>
      </trkpt>
      <trkpt lat="47.30934" lon="6.03607">
        <ele>550.8</ele>
        <time>2021-10-13T09:42:33Z</time>
      </trkpt>
      <trkpt lat="47.30936" lon="6.03608">
        <ele>551</ele>
        <time>2021-10-13T09:42:34Z</time>
      </trkpt>
      <trkpt lat="47.30938" lon="6.03608">
        <ele>551.2</ele>
        <time>2021-10-13T09:42:35Z</time>
      </trkpt>
      <trkpt lat="47.30939" lon="6.03608">
        <ele>551.4</ele>
        <time>2021-10-13T09:42:36Z</time>
      </trkpt>
      <trkpt lat="47.30942" lon="6.03609">
        <ele>551.6</ele>
        <time>2021-10-13T09:42:37Z</time>
      </trkpt>
      <trkpt lat="47.30943" lon="6.03609">
        <ele>551.6</ele>
        <time>2021-10-13T09:42:38Z</time>
      </trkpt>
      <trkpt lat="47.30945" lon="6.0361">
        <ele>551.8</ele>
        <time>2021-10-13T09:42:39Z</time>
      </trkpt>
      <trkpt lat="47.30947" lon="6.03611">
        <ele>551.8</ele>
        <time>2021-10-13T09:42:40Z</time>
      </trkpt>
      <trkpt lat="47.30949" lon="6.03612">
        <ele>552</ele>
        <time>2021-10-13T09:42:41Z</time>
      </trkpt>
      <trkpt lat="47.3095" lon="6.03612">
        <ele>552</ele>
        <time>2021-10-13T09:42:42Z</time>
      </trkpt>
      <trkpt lat="47.30951" lon="6.03613">
        <ele>552.2</ele>
        <time>2021-10-13T09:42:43Z</time>
      </trkpt>
      <trkpt lat="47.30952" lon="6.03615">
        <ele>552.4</ele>
        <time>2021-10-13T09:42:44Z</time>
      </trkpt>
      <trkpt lat="47.30953" lon="6.03617">
        <ele>552.4</ele>
        <time>2021-10-13T09:42:45Z</time>
      </trkpt>
      <trkpt lat="47.30954" lon="6.03619">
        <ele>552.6</ele>
        <time>2021-10-13T09:42:46Z</time>
      </trkpt>
      <trkpt lat="47.30955" lon="6.03621">
        <ele>552.6</ele>
        <time>2021-10-13T09:42:47Z</time>
      </trkpt>
      <trkpt lat="47.30956" lon="6.03623">
        <ele>552.8</ele>
        <time>2021-10-13T09:42:48Z</time>
      </trkpt>
      <trkpt lat="47.30957" lon="6.03626">
        <ele>553</ele>
        <time>2021-10-13T09:42:49Z</time>
      </trkpt>
      <trkpt lat="47.30957" lon="6.03629">
        <ele>553</ele>
        <time>2021-10-13T09:42:50Z</time>
      </trkpt>
      <trkpt lat="47.30957" lon="6.03632">
        <ele>553</ele>
        <time>2021-10-13T09:42:51Z</time>
      </trkpt>
      <trkpt lat="47.30958" lon="6.03636">
        <ele>553</ele>
        <time>2021-10-13T09:42:52Z</time>
      </trkpt>
      <trkpt lat="47.30958" lon="6.03638">
        <ele>553.2</ele>
        <time>2021-10-13T09:42:53Z</time>
      </trkpt>
      <trkpt lat="47.30959" lon="6.03641">
        <ele>553.2</ele>
        <time>2021-10-13T09:42:54Z</time>
      </trkpt>
      <trkpt lat="47.3096" lon="6.03644">
        <ele>553.4</ele>
        <time>2021-10-13T09:42:55Z</time>
      </trkpt>
      <trkpt lat="47.30961" lon="6.03648">
        <ele>553.4</ele>
        <time>2021-10-13T09:42:56Z</time>
      </trkpt>
      <trkpt lat="47.30962" lon="6.03651">
        <ele>553.4</ele>
        <time>2021-10-13T09:42:57Z</time>
      </trkpt>
      <trkpt lat="47.30962" lon="6.03653">
        <ele>553.6</ele>
        <time>2021-10-13T09:42:58Z</time>
      </trkpt>
      <trkpt lat="47.30962" lon="6.03656">
        <ele>553.8</ele>
        <time>2021-10-13T09:42:59Z</time>
      </trkpt>
      <trkpt lat="47.30962" lon="6.03659">
        <ele>553.8</ele>
        <time>2021-10-13T09:43:00Z</time>
      </trkpt>
      <trkpt lat="47.30962" lon="6.03662">
        <ele>554</ele>
        <time>2021-10-13T09:43:01Z</time>
      </trkpt>
      <trkpt lat="47.30962" lon="6.03666">
        <ele>554</ele>
        <time>2021-10-13T09:43:02Z</time>
      </trkpt>
      <trkpt lat="47.30961" lon="6.03669">
        <ele>554.2</ele>
        <time>2021-10-13T09:43:03Z</time>
      </trkpt>
      <trkpt lat="47.30961" lon="6.03671">
        <ele>554.4</ele>
        <time>2021-10-13T09:43:04Z</time>
      </trkpt>
      <trkpt lat="47.30961" lon="6.03674">
        <ele>554.6</ele>
        <time>2021-10-13T09:43:05Z</time>
      </trkpt>
      <trkpt lat="47.3096" lon="6.03678">
        <ele>554.8</ele>
        <time>2021-10-13T09:43:06Z</time>
      </trkpt>
      <trkpt lat="47.3096" lon="6.03681">
        <ele>554.8</ele>
        <time>2021-10-13T09:43:07Z</time>
      </trkpt>
      <trkpt lat="47.3096" lon="6.03683">
        <ele>555</ele>
        <time>2021-10-13T09:43:08Z</time>
      </trkpt>
      <trkpt lat="47.3096" lon="6.03685">
        <ele>555</ele>
        <time>2021-10-13T09:43:09Z</time>
      </trkpt>
      <trkpt lat="47.30959" lon="6.03688">
        <ele>555.2</ele>
        <time>2021-10-13T09:43:10Z</time>
      </trkpt>
      <trkpt lat="47.30959" lon="6.03691">
        <ele>555.4</ele>
        <time>2021-10-13T09:43:11Z</time>
      </trkpt>
      <trkpt lat="47.30958" lon="6.03694">
        <ele>555.4</ele>
        <time>2021-10-13T09:43:12Z</time>
      </trkpt>
      <trkpt lat="47.30957" lon="6.03697">
        <ele>555.6</ele>
        <time>2021-10-13T09:43:13Z</time>
      </trkpt>
      <trkpt lat="47.30956" lon="6.037">
        <ele>555.6</ele>
        <time>2021-10-13T09:43:14Z</time>
      </trkpt>
      <trkpt lat="47.30955" lon="6.03703">
        <ele>555.8</ele>
        <time>2021-10-13T09:43:15Z</time>
      </trkpt>
      <trkpt lat="47.30955" lon="6.03707">
        <ele>555.8</ele>
        <time>2021-10-13T09:43:16Z</time>
      </trkpt>
      <trkpt lat="47.30954" lon="6.03711">
        <ele>555.8</ele>
        <time>2021-10-13T09:43:17Z</time>
      </trkpt>
      <trkpt lat="47.30954" lon="6.03713">
        <ele>555.8</ele>
        <time>2021-10-13T09:43:18Z</time>
      </trkpt>
      <trkpt lat="47.30954" lon="6.03716">
        <ele>556</ele>
        <time>2021-10-13T09:43:19Z</time>
      </trkpt>
      <trkpt lat="47.30953" lon="6.03719">
        <ele>556</ele>
        <time>2021-10-13T09:43:20Z</time>
      </trkpt>
      <trkpt lat="47.30952" lon="6.03723">
        <ele>556</ele>
        <time>2021-10-13T09:43:21Z</time>
      </trkpt>
      <trkpt lat="47.30951" lon="6.03727">
        <ele>556.2</ele>
        <time>2021-10-13T09:43:22Z</time>
      </trkpt>
      <trkpt lat="47.3095" lon="6.03731">
        <ele>556.4</ele>
        <time>2021-10-13T09:43:23Z</time>
      </trkpt>
      <trkpt lat="47.3095" lon="6.03734">
        <ele>556.4</ele>
        <time>2021-10-13T09:43:24Z</time>
      </trkpt>
      <trkpt lat="47.30949" lon="6.03736">
        <ele>556.4</ele>
        <time>2021-10-13T09:43:25Z</time>
      </trkpt>
      <trkpt lat="47.30948" lon="6.03741">
        <ele>556.4</ele>
        <time>2021-10-13T09:43:26Z</time>
      </trkpt>
      <trkpt lat="47.30947" lon="6.03744">
        <ele>556.6</ele>
        <time>2021-10-13T09:43:27Z</time>
      </trkpt>
      <trkpt lat="47.30946" lon="6.03748">
        <ele>556.6</ele>
        <time>2021-10-13T09:43:28Z</time>
      </trkpt>
      <trkpt lat="47.30946" lon="6.03753">
        <ele>556.6</ele>
        <time>2021-10-13T09:43:29Z</time>
      </trkpt>
      <trkpt lat="47.30945" lon="6.03765">
        <ele>557</ele>
        <time>2021-10-13T09:43:32Z</time>
      </trkpt>
      <trkpt lat="47.30944" lon="6.03782">
        <ele>557.4</ele>
        <time>2021-10-13T09:43:36Z</time>
      </trkpt>
      <trkpt lat="47.30945" lon="6.03794">
        <ele>557.6</ele>
        <time>2021-10-13T09:43:39Z</time>
      </trkpt>
      <trkpt lat="47.30945" lon="6.03799">
        <ele>557.8</ele>
        <time>2021-10-13T09:43:40Z</time>
      </trkpt>
      <trkpt lat="47.30945" lon="6.03803">
        <ele>558</ele>
        <time>2021-10-13T09:43:41Z</time>
      </trkpt>
      <trkpt lat="47.30944" lon="6.0381">
        <ele>558</ele>
        <time>2021-10-13T09:43:43Z</time>
      </trkpt>
      <trkpt lat="47.30943" lon="6.03815">
        <ele>558</ele>
        <time>2021-10-13T09:43:44Z</time>
      </trkpt>
      <trkpt lat="47.30943" lon="6.03818">
        <ele>558.2</ele>
        <time>2021-10-13T09:43:45Z</time>
      </trkpt>
      <trkpt lat="47.30942" lon="6.03826">
        <ele>558.2</ele>
        <time>2021-10-13T09:43:48Z</time>
      </trkpt>
      <trkpt lat="47.30942" lon="6.03828">
        <ele>558.4</ele>
        <time>2021-10-13T09:43:49Z</time>
      </trkpt>
      <trkpt lat="47.30941" lon="6.03839">
        <ele>558.6</ele>
        <time>2021-10-13T09:43:52Z</time>
      </trkpt>
      <trkpt lat="47.30942" lon="6.03842">
        <ele>558.8</ele>
        <time>2021-10-13T09:43:53Z</time>
      </trkpt>
      <trkpt lat="47.30942" lon="6.03845">
        <ele>558.8</ele>
        <time>2021-10-13T09:43:54Z</time>
      </trkpt>
      <trkpt lat="47.30942" lon="6.03848">
        <ele>559</ele>
        <time>2021-10-13T09:43:55Z</time>
      </trkpt>
      <trkpt lat="47.30942" lon="6.03852">
        <ele>559</ele>
        <time>2021-10-13T09:43:56Z</time>
      </trkpt>
      <trkpt lat="47.30942" lon="6.03855">
        <ele>559.2</ele>
        <time>2021-10-13T09:43:57Z</time>
      </trkpt>
      <trkpt lat="47.30942" lon="6.03858">
        <ele>559.4</ele>
        <time>2021-10-13T09:43:58Z</time>
      </trkpt>
      <trkpt lat="47.30942" lon="6.03878">
        <ele>559.6</ele>
        <time>2021-10-13T09:44:03Z</time>
      </trkpt>
      <trkpt lat="47.30939" lon="6.03898">
        <ele>560</ele>
        <time>2021-10-13T09:44:08Z</time>
      </trkpt>
      <trkpt lat="47.30938" lon="6.03911">
        <ele>560</ele>
        <time>2021-10-13T09:44:11Z</time>
      </trkpt>
      <trkpt lat="47.30935" lon="6.03945">
        <ele>560.4</ele>
        <time>2021-10-13T09:44:18Z</time>
      </trkpt>
      <trkpt lat="47.30932" lon="6.03969">
        <ele>561</ele>
        <time>2021-10-13T09:44:24Z</time>
      </trkpt>
      <trkpt lat="47.30931" lon="6.03974">
        <ele>561.2</ele>
        <time>2021-10-13T09:44:25Z</time>
      </trkpt>
      <trkpt lat="47.30932" lon="6.03977">
        <ele>561.2</ele>
        <time>2021-10-13T09:44:26Z</time>
      </trkpt>
      <trkpt lat="47.30932" lon="6.03981">
        <ele>561.2</ele>
        <time>2021-10-13T09:44:27Z</time>
      </trkpt>
      <trkpt lat="47.30932" lon="6.03984">
        <ele>561.2</ele>
        <time>2021-10-13T09:44:28Z</time>
      </trkpt>
      <trkpt lat="47.30932" lon="6.03989">
        <ele>561.4</ele>
        <time>2021-10-13T09:44:29Z</time>
      </trkpt>
      <trkpt lat="47.30932" lon="6.03991">
        <ele>561.4</ele>
        <time>2021-10-13T09:44:30Z</time>
      </trkpt>
      <trkpt lat="47.30931" lon="6.03998">
        <ele>561.4</ele>
        <time>2021-10-13T09:44:32Z</time>
      </trkpt>
      <trkpt lat="47.30929" lon="6.04022">
        <ele>561.8</ele>
        <time>2021-10-13T09:44:38Z</time>
      </trkpt>
      <trkpt lat="47.30927" lon="6.04036">
        <ele>561.8</ele>
        <time>2021-10-13T09:44:42Z</time>
      </trkpt>
      <trkpt lat="47.30927" lon="6.04039">
        <ele>561.8</ele>
        <time>2021-10-13T09:44:43Z</time>
      </trkpt>
      <trkpt lat="47.30927" lon="6.04043">
        <ele>562</ele>
        <time>2021-10-13T09:44:44Z</time>
      </trkpt>
      <trkpt lat="47.30928" lon="6.04056">
        <ele>562.2</ele>
        <time>2021-10-13T09:44:47Z</time>
      </trkpt>
      <trkpt lat="47.30928" lon="6.04059">
        <ele>562.2</ele>
        <time>2021-10-13T09:44:48Z</time>
      </trkpt>
      <trkpt lat="47.30927" lon="6.04062">
        <ele>562.2</ele>
        <time>2021-10-13T09:44:49Z</time>
      </trkpt>
      <trkpt lat="47.30927" lon="6.04065">
        <ele>562.4</ele>
        <time>2021-10-13T09:44:50Z</time>
      </trkpt>
      <trkpt lat="47.30927" lon="6.0407">
        <ele>562.4</ele>
        <time>2021-10-13T09:44:51Z</time>
      </trkpt>
      <trkpt lat="47.30926" lon="6.04079">
        <ele>562.4</ele>
        <time>2021-10-13T09:44:53Z</time>
      </trkpt>
      <trkpt lat="47.30926" lon="6.04117">
        <ele>562.8</ele>
        <time>2021-10-13T09:45:01Z</time>
      </trkpt>
      <trkpt lat="47.30925" lon="6.04136">
        <ele>563</ele>
        <time>2021-10-13T09:45:05Z</time>
      </trkpt>
      <trkpt lat="47.30926" lon="6.04142">
        <ele>563</ele>
        <time>2021-10-13T09:45:06Z</time>
      </trkpt>
      <trkpt lat="47.30927" lon="6.04146">
        <ele>563.2</ele>
        <time>2021-10-13T09:45:07Z</time>
      </trkpt>
      <trkpt lat="47.30927" lon="6.04151">
        <ele>563.4</ele>
        <time>2021-10-13T09:45:08Z</time>
      </trkpt>
      <trkpt lat="47.30927" lon="6.04155">
        <ele>563.6</ele>
        <time>2021-10-13T09:45:09Z</time>
      </trkpt>
      <trkpt lat="47.30929" lon="6.04174">
        <ele>563.8</ele>
        <time>2021-10-13T09:45:13Z</time>
      </trkpt>
      <trkpt lat="47.30931" lon="6.04193">
        <ele>564.2</ele>
        <time>2021-10-13T09:45:18Z</time>
      </trkpt>
      <trkpt lat="47.30932" lon="6.04201">
        <ele>564.4</ele>
        <time>2021-10-13T09:45:20Z</time>
      </trkpt>
      <trkpt lat="47.30933" lon="6.04206">
        <ele>564.4</ele>
        <time>2021-10-13T09:45:21Z</time>
      </trkpt>
      <trkpt lat="47.30933" lon="6.04209">
        <ele>564.4</ele>
        <time>2021-10-13T09:45:22Z</time>
      </trkpt>
      <trkpt lat="47.30933" lon="6.04213">
        <ele>564.4</ele>
        <time>2021-10-13T09:45:23Z</time>
      </trkpt>
      <trkpt lat="47.30934" lon="6.04216">
        <ele>564.6</ele>
        <time>2021-10-13T09:45:24Z</time>
      </trkpt>
      <trkpt lat="47.30936" lon="6.04226">
        <ele>564.8</ele>
        <time>2021-10-13T09:45:26Z</time>
      </trkpt>
      <trkpt lat="47.30936" lon="6.04229">
        <ele>564.8</ele>
        <time>2021-10-13T09:45:27Z</time>
      </trkpt>
      <trkpt lat="47.30937" lon="6.04238">
        <ele>565.2</ele>
        <time>2021-10-13T09:45:29Z</time>
      </trkpt>
      <trkpt lat="47.30938" lon="6.04245">
        <ele>565.2</ele>
        <time>2021-10-13T09:45:31Z</time>
      </trkpt>
      <trkpt lat="47.3094" lon="6.04265">
        <ele>565.8</ele>
        <time>2021-10-13T09:45:36Z</time>
      </trkpt>
      <trkpt lat="47.30942" lon="6.04273">
        <ele>566</ele>
        <time>2021-10-13T09:45:38Z</time>
      </trkpt>
      <trkpt lat="47.30944" lon="6.04278">
        <ele>566</ele>
        <time>2021-10-13T09:45:39Z</time>
      </trkpt>
      <trkpt lat="47.30945" lon="6.04282">
        <ele>566</ele>
        <time>2021-10-13T09:45:40Z</time>
      </trkpt>
      <trkpt lat="47.30948" lon="6.04298">
        <ele>566.2</ele>
        <time>2021-10-13T09:45:44Z</time>
      </trkpt>
      <trkpt lat="47.30949" lon="6.04301">
        <ele>566.4</ele>
        <time>2021-10-13T09:45:45Z</time>
      </trkpt>
      <trkpt lat="47.3095" lon="6.04304">
        <ele>566.6</ele>
        <time>2021-10-13T09:45:46Z</time>
      </trkpt>
      <trkpt lat="47.30951" lon="6.04308">
        <ele>566.8</ele>
        <time>2021-10-13T09:45:47Z</time>
      </trkpt>
      <trkpt lat="47.30951" lon="6.04313">
        <ele>567</ele>
        <time>2021-10-13T09:45:48Z</time>
      </trkpt>
      <trkpt lat="47.30952" lon="6.04317">
        <ele>567</ele>
        <time>2021-10-13T09:45:49Z</time>
      </trkpt>
      <trkpt lat="47.30954" lon="6.0432">
        <ele>567</ele>
        <time>2021-10-13T09:45:50Z</time>
      </trkpt>
      <trkpt lat="47.30954" lon="6.04323">
        <ele>567</ele>
        <time>2021-10-13T09:45:51Z</time>
      </trkpt>
      <trkpt lat="47.30956" lon="6.04326">
        <ele>567.2</ele>
        <time>2021-10-13T09:45:52Z</time>
      </trkpt>
      <trkpt lat="47.30957" lon="6.0433">
        <ele>567.4</ele>
        <time>2021-10-13T09:45:53Z</time>
      </trkpt>
      <trkpt lat="47.30964" lon="6.04348">
        <ele>568.2</ele>
        <time>2021-10-13T09:45:58Z</time>
      </trkpt>
      <trkpt lat="47.30966" lon="6.04351">
        <ele>568.4</ele>
        <time>2021-10-13T09:45:59Z</time>
      </trkpt>
      <trkpt lat="47.30967" lon="6.04354">
        <ele>568.4</ele>
        <time>2021-10-13T09:46:00Z</time>
      </trkpt>
      <trkpt lat="47.30968" lon="6.04357">
        <ele>568.6</ele>
        <time>2021-10-13T09:46:01Z</time>
      </trkpt>
      <trkpt lat="47.3097" lon="6.04359">
        <ele>568.6</ele>
        <time>2021-10-13T09:46:02Z</time>
      </trkpt>
      <trkpt lat="47.30972" lon="6.04363">
        <ele>568.8</ele>
        <time>2021-10-13T09:46:03Z</time>
      </trkpt>
      <trkpt lat="47.30973" lon="6.04366">
        <ele>568.8</ele>
        <time>2021-10-13T09:46:04Z</time>
      </trkpt>
      <trkpt lat="47.30975" lon="6.04368">
        <ele>569</ele>
        <time>2021-10-13T09:46:05Z</time>
      </trkpt>
      <trkpt lat="47.30976" lon="6.04371">
        <ele>569.2</ele>
        <time>2021-10-13T09:46:06Z</time>
      </trkpt>
      <trkpt lat="47.30978" lon="6.04374">
        <ele>569.4</ele>
        <time>2021-10-13T09:46:07Z</time>
      </trkpt>
      <trkpt lat="47.3098" lon="6.04379">
        <ele>569.4</ele>
        <time>2021-10-13T09:46:08Z</time>
      </trkpt>
      <trkpt lat="47.30982" lon="6.04384">
        <ele>569.4</ele>
        <time>2021-10-13T09:46:09Z</time>
      </trkpt>
      <trkpt lat="47.30983" lon="6.04388">
        <ele>569.6</ele>
        <time>2021-10-13T09:46:10Z</time>
      </trkpt>
      <trkpt lat="47.30984" lon="6.04391">
        <ele>569.6</ele>
        <time>2021-10-13T09:46:11Z</time>
      </trkpt>
      <trkpt lat="47.30986" lon="6.04396">
        <ele>569.8</ele>
        <time>2021-10-13T09:46:12Z</time>
      </trkpt>
      <trkpt lat="47.30988" lon="6.04399">
        <ele>569.8</ele>
        <time>2021-10-13T09:46:13Z</time>
      </trkpt>
      <trkpt lat="47.30989" lon="6.04402">
        <ele>570</ele>
        <time>2021-10-13T09:46:14Z</time>
      </trkpt>
      <trkpt lat="47.3099" lon="6.04405">
        <ele>570</ele>
        <time>2021-10-13T09:46:15Z</time>
      </trkpt>
      <trkpt lat="47.3099" lon="6.04409">
        <ele>570.4</ele>
        <time>2021-10-13T09:46:16Z</time>
      </trkpt>
      <trkpt lat="47.30992" lon="6.04413">
        <ele>570.4</ele>
        <time>2021-10-13T09:46:17Z</time>
      </trkpt>
      <trkpt lat="47.30994" lon="6.04417">
        <ele>570.6</ele>
        <time>2021-10-13T09:46:18Z</time>
      </trkpt>
      <trkpt lat="47.30997" lon="6.04421">
        <ele>570.6</ele>
        <time>2021-10-13T09:46:19Z</time>
      </trkpt>
      <trkpt lat="47.30999" lon="6.04424">
        <ele>570.6</ele>
        <time>2021-10-13T09:46:20Z</time>
      </trkpt>
      <trkpt lat="47.31001" lon="6.04427">
        <ele>570.6</ele>
        <time>2021-10-13T09:46:21Z</time>
      </trkpt>
      <trkpt lat="47.31004" lon="6.0443">
        <ele>570.6</ele>
        <time>2021-10-13T09:46:22Z</time>
      </trkpt>
      <trkpt lat="47.31005" lon="6.04434">
        <ele>570.6</ele>
        <time>2021-10-13T09:46:23Z</time>
      </trkpt>
      <trkpt lat="47.31007" lon="6.04436">
        <ele>570.8</ele>
        <time>2021-10-13T09:46:24Z</time>
      </trkpt>
      <trkpt lat="47.31008" lon="6.04439">
        <ele>570.8</ele>
        <time>2021-10-13T09:46:25Z</time>
      </trkpt>
      <trkpt lat="47.3101" lon="6.04442">
        <ele>570.8</ele>
        <time>2021-10-13T09:46:26Z</time>
      </trkpt>
      <trkpt lat="47.31012" lon="6.04446">
        <ele>570.8</ele>
        <time>2021-10-13T09:46:27Z</time>
      </trkpt>
      <trkpt lat="47.31013" lon="6.04449">
        <ele>571</ele>
        <time>2021-10-13T09:46:28Z</time>
      </trkpt>
      <trkpt lat="47.31014" lon="6.04451">
        <ele>571.2</ele>
        <time>2021-10-13T09:46:29Z</time>
      </trkpt>
      <trkpt lat="47.31016" lon="6.04453">
        <ele>571.2</ele>
        <time>2021-10-13T09:46:30Z</time>
      </trkpt>
      <trkpt lat="47.31018" lon="6.04456">
        <ele>571.4</ele>
        <time>2021-10-13T09:46:31Z</time>
      </trkpt>
      <trkpt lat="47.31019" lon="6.0446">
        <ele>571.4</ele>
        <time>2021-10-13T09:46:32Z</time>
      </trkpt>
      <trkpt lat="47.31025" lon="6.04468">
        <ele>571.6</ele>
        <time>2021-10-13T09:46:35Z</time>
      </trkpt>
      <trkpt lat="47.3103" lon="6.04476">
        <ele>571.8</ele>
        <time>2021-10-13T09:46:38Z</time>
      </trkpt>
      <trkpt lat="47.31036" lon="6.04484">
        <ele>571.8</ele>
        <time>2021-10-13T09:46:41Z</time>
      </trkpt>
      <trkpt lat="47.3105" lon="6.04507">
        <ele>571.8</ele>
        <time>2021-10-13T09:46:46Z</time>
      </trkpt>
      <trkpt lat="47.31056" lon="6.04515">
        <ele>571.8</ele>
        <time>2021-10-13T09:46:48Z</time>
      </trkpt>
      <trkpt lat="47.31058" lon="6.04518">
        <ele>571.8</ele>
        <time>2021-10-13T09:46:49Z</time>
      </trkpt>
      <trkpt lat="47.31064" lon="6.04526">
        <ele>571.8</ele>
        <time>2021-10-13T09:46:51Z</time>
      </trkpt>
      <trkpt lat="47.31088" lon="6.04566">
        <ele>571.2</ele>
        <time>2021-10-13T09:46:58Z</time>
      </trkpt>
      <trkpt lat="47.31099" lon="6.04592">
        <ele>570.6</ele>
        <time>2021-10-13T09:47:01Z</time>
      </trkpt>
      <trkpt lat="47.31105" lon="6.04607">
        <ele>570.4</ele>
        <time>2021-10-13T09:47:03Z</time>
      </trkpt>
      <trkpt lat="47.3111" lon="6.04619">
        <ele>570.4</ele>
        <time>2021-10-13T09:47:04Z</time>
      </trkpt>
      <trkpt lat="47.31123" lon="6.04652">
        <ele>569.6</ele>
        <time>2021-10-13T09:47:08Z</time>
      </trkpt>
      <trkpt lat="47.31133" lon="6.0468">
        <ele>568.8</ele>
        <time>2021-10-13T09:47:11Z</time>
      </trkpt>
      <trkpt lat="47.31136" lon="6.04688">
        <ele>568.2</ele>
        <time>2021-10-13T09:47:12Z</time>
      </trkpt>
      <trkpt lat="47.31153" lon="6.04728">
        <ele>566.8</ele>
        <time>2021-10-13T09:47:16Z</time>
      </trkpt>
      <trkpt lat="47.31166" lon="6.04761">
        <ele>565.6</ele>
        <time>2021-10-13T09:47:19Z</time>
      </trkpt>
      <trkpt lat="47.3117" lon="6.04769">
        <ele>565</ele>
        <time>2021-10-13T09:47:20Z</time>
      </trkpt>
      <trkpt lat="47.31174" lon="6.04778">
        <ele>564.2</ele>
        <time>2021-10-13T09:47:21Z</time>
      </trkpt>
      <trkpt lat="47.31178" lon="6.04788">
        <ele>564</ele>
        <time>2021-10-13T09:47:22Z</time>
      </trkpt>
      <trkpt lat="47.31185" lon="6.0481">
        <ele>563</ele>
        <time>2021-10-13T09:47:24Z</time>
      </trkpt>
      <trkpt lat="47.31188" lon="6.04821">
        <ele>562.6</ele>
        <time>2021-10-13T09:47:25Z</time>
      </trkpt>
      <trkpt lat="47.31192" lon="6.0484">
        <ele>561.8</ele>
        <time>2021-10-13T09:47:27Z</time>
      </trkpt>
      <trkpt lat="47.31195" lon="6.04851">
        <ele>561.6</ele>
        <time>2021-10-13T09:47:28Z</time>
      </trkpt>
      <trkpt lat="47.31203" lon="6.04885">
        <ele>560.6</ele>
        <time>2021-10-13T09:47:31Z</time>
      </trkpt>
      <trkpt lat="47.3121" lon="6.04919">
        <ele>559.6</ele>
        <time>2021-10-13T09:47:34Z</time>
      </trkpt>
      <trkpt lat="47.31212" lon="6.04927">
        <ele>559.2</ele>
        <time>2021-10-13T09:47:35Z</time>
      </trkpt>
      <trkpt lat="47.31214" lon="6.04937">
        <ele>559</ele>
        <time>2021-10-13T09:47:36Z</time>
      </trkpt>
      <trkpt lat="47.31216" lon="6.04947">
        <ele>559</ele>
        <time>2021-10-13T09:47:37Z</time>
      </trkpt>
      <trkpt lat="47.31217" lon="6.04956">
        <ele>559</ele>
        <time>2021-10-13T09:47:38Z</time>
      </trkpt>
      <trkpt lat="47.31219" lon="6.04962">
        <ele>558.8</ele>
        <time>2021-10-13T09:47:39Z</time>
      </trkpt>
      <trkpt lat="47.31221" lon="6.04969">
        <ele>559</ele>
        <time>2021-10-13T09:47:40Z</time>
      </trkpt>
      <trkpt lat="47.31224" lon="6.04977">
        <ele>559</ele>
        <time>2021-10-13T09:47:41Z</time>
      </trkpt>
      <trkpt lat="47.31226" lon="6.04985">
        <ele>559.2</ele>
        <time>2021-10-13T09:47:42Z</time>
      </trkpt>
      <trkpt lat="47.31228" lon="6.04991">
        <ele>559.2</ele>
        <time>2021-10-13T09:47:43Z</time>
      </trkpt>
      <trkpt lat="47.3123" lon="6.04996">
        <ele>559.4</ele>
        <time>2021-10-13T09:47:44Z</time>
      </trkpt>
      <trkpt lat="47.31232" lon="6.05001">
        <ele>559.6</ele>
        <time>2021-10-13T09:47:45Z</time>
      </trkpt>
      <trkpt lat="47.31234" lon="6.05006">
        <ele>560</ele>
        <time>2021-10-13T09:47:46Z</time>
      </trkpt>
      <trkpt lat="47.31236" lon="6.05011">
        <ele>560.2</ele>
        <time>2021-10-13T09:47:47Z</time>
      </trkpt>
      <trkpt lat="47.31238" lon="6.05016">
        <ele>560.4</ele>
        <time>2021-10-13T09:47:48Z</time>
      </trkpt>
      <trkpt lat="47.3124" lon="6.05019">
        <ele>560.6</ele>
        <time>2021-10-13T09:47:49Z</time>
      </trkpt>
      <trkpt lat="47.31242" lon="6.05023">
        <ele>560.8</ele>
        <time>2021-10-13T09:47:50Z</time>
      </trkpt>
      <trkpt lat="47.31244" lon="6.05029">
        <ele>561.2</ele>
        <time>2021-10-13T09:47:51Z</time>
      </trkpt>
      <trkpt lat="47.31248" lon="6.05039">
        <ele>561.8</ele>
        <time>2021-10-13T09:47:53Z</time>
      </trkpt>
      <trkpt lat="47.3125" lon="6.05042">
        <ele>562</ele>
        <time>2021-10-13T09:47:54Z</time>
      </trkpt>
      <trkpt lat="47.31251" lon="6.05047">
        <ele>562.4</ele>
        <time>2021-10-13T09:47:55Z</time>
      </trkpt>
      <trkpt lat="47.31253" lon="6.05053">
        <ele>562.6</ele>
        <time>2021-10-13T09:47:56Z</time>
      </trkpt>
      <trkpt lat="47.31255" lon="6.05059">
        <ele>563</ele>
        <time>2021-10-13T09:47:57Z</time>
      </trkpt>
      <trkpt lat="47.31256" lon="6.05062">
        <ele>563</ele>
        <time>2021-10-13T09:47:58Z</time>
      </trkpt>
      <trkpt lat="47.31262" lon="6.05078">
        <ele>563.6</ele>
        <time>2021-10-13T09:48:01Z</time>
      </trkpt>
      <trkpt lat="47.31266" lon="6.05086">
        <ele>564.2</ele>
        <time>2021-10-13T09:48:03Z</time>
      </trkpt>
      <trkpt lat="47.31268" lon="6.05091">
        <ele>564.6</ele>
        <time>2021-10-13T09:48:04Z</time>
      </trkpt>
      <trkpt lat="47.3127" lon="6.05096">
        <ele>564.6</ele>
        <time>2021-10-13T09:48:05Z</time>
      </trkpt>
      <trkpt lat="47.31272" lon="6.05102">
        <ele>564.8</ele>
        <time>2021-10-13T09:48:06Z</time>
      </trkpt>
      <trkpt lat="47.31274" lon="6.05106">
        <ele>564.8</ele>
        <time>2021-10-13T09:48:07Z</time>
      </trkpt>
      <trkpt lat="47.31275" lon="6.0511">
        <ele>565</ele>
        <time>2021-10-13T09:48:08Z</time>
      </trkpt>
      <trkpt lat="47.31277" lon="6.05115">
        <ele>565</ele>
        <time>2021-10-13T09:48:09Z</time>
      </trkpt>
      <trkpt lat="47.31279" lon="6.05121">
        <ele>565.2</ele>
        <time>2021-10-13T09:48:10Z</time>
      </trkpt>
      <trkpt lat="47.31281" lon="6.05125">
        <ele>565.4</ele>
        <time>2021-10-13T09:48:11Z</time>
      </trkpt>
      <trkpt lat="47.31282" lon="6.05129">
        <ele>565.6</ele>
        <time>2021-10-13T09:48:12Z</time>
      </trkpt>
      <trkpt lat="47.31284" lon="6.05133">
        <ele>565.6</ele>
        <time>2021-10-13T09:48:13Z</time>
      </trkpt>
      <trkpt lat="47.31286" lon="6.05137">
        <ele>565.8</ele>
        <time>2021-10-13T09:48:14Z</time>
      </trkpt>
      <trkpt lat="47.31288" lon="6.05142">
        <ele>565.8</ele>
        <time>2021-10-13T09:48:15Z</time>
      </trkpt>
      <trkpt lat="47.3129" lon="6.05147">
        <ele>565.8</ele>
        <time>2021-10-13T09:48:16Z</time>
      </trkpt>
      <trkpt lat="47.31292" lon="6.0515">
        <ele>566</ele>
        <time>2021-10-13T09:48:17Z</time>
      </trkpt>
      <trkpt lat="47.31294" lon="6.05154">
        <ele>566.2</ele>
        <time>2021-10-13T09:48:18Z</time>
      </trkpt>
      <trkpt lat="47.31296" lon="6.05157">
        <ele>566.2</ele>
        <time>2021-10-13T09:48:19Z</time>
      </trkpt>
      <trkpt lat="47.31298" lon="6.05162">
        <ele>566.2</ele>
        <time>2021-10-13T09:48:20Z</time>
      </trkpt>
      <trkpt lat="47.313" lon="6.05165">
        <ele>566.2</ele>
        <time>2021-10-13T09:48:21Z</time>
      </trkpt>
      <trkpt lat="47.31302" lon="6.05168">
        <ele>566.4</ele>
        <time>2021-10-13T09:48:22Z</time>
      </trkpt>
      <trkpt lat="47.31304" lon="6.05171">
        <ele>566.6</ele>
        <time>2021-10-13T09:48:23Z</time>
      </trkpt>
      <trkpt lat="47.31306" lon="6.05176">
        <ele>566.8</ele>
        <time>2021-10-13T09:48:24Z</time>
      </trkpt>
      <trkpt lat="47.31308" lon="6.05178">
        <ele>567</ele>
        <time>2021-10-13T09:48:25Z</time>
      </trkpt>
      <trkpt lat="47.3131" lon="6.05182">
        <ele>567</ele>
        <time>2021-10-13T09:48:26Z</time>
      </trkpt>
      <trkpt lat="47.31312" lon="6.05185">
        <ele>567.4</ele>
        <time>2021-10-13T09:48:27Z</time>
      </trkpt>
      <trkpt lat="47.31314" lon="6.05188">
        <ele>567.4</ele>
        <time>2021-10-13T09:48:28Z</time>
      </trkpt>
      <trkpt lat="47.31315" lon="6.05192">
        <ele>567.6</ele>
        <time>2021-10-13T09:48:29Z</time>
      </trkpt>
      <trkpt lat="47.31317" lon="6.05196">
        <ele>567.8</ele>
        <time>2021-10-13T09:48:30Z</time>
      </trkpt>
      <trkpt lat="47.3132" lon="6.05199">
        <ele>568</ele>
        <time>2021-10-13T09:48:31Z</time>
      </trkpt>
      <trkpt lat="47.31321" lon="6.05202">
        <ele>568.2</ele>
        <time>2021-10-13T09:48:32Z</time>
      </trkpt>
      <trkpt lat="47.31323" lon="6.05205">
        <ele>568.2</ele>
        <time>2021-10-13T09:48:33Z</time>
      </trkpt>
      <trkpt lat="47.31326" lon="6.05208">
        <ele>568.4</ele>
        <time>2021-10-13T09:48:34Z</time>
      </trkpt>
      <trkpt lat="47.31328" lon="6.05212">
        <ele>568.6</ele>
        <time>2021-10-13T09:48:35Z</time>
      </trkpt>
      <trkpt lat="47.3133" lon="6.05215">
        <ele>568.8</ele>
        <time>2021-10-13T09:48:36Z</time>
      </trkpt>
      <trkpt lat="47.31331" lon="6.05218">
        <ele>569</ele>
        <time>2021-10-13T09:48:37Z</time>
      </trkpt>
      <trkpt lat="47.31334" lon="6.05222">
        <ele>569.2</ele>
        <time>2021-10-13T09:48:38Z</time>
      </trkpt>
      <trkpt lat="47.31335" lon="6.05225">
        <ele>569.4</ele>
        <time>2021-10-13T09:48:39Z</time>
      </trkpt>
      <trkpt lat="47.31337" lon="6.05229">
        <ele>569.6</ele>
        <time>2021-10-13T09:48:40Z</time>
      </trkpt>
      <trkpt lat="47.31339" lon="6.05232">
        <ele>569.6</ele>
        <time>2021-10-13T09:48:41Z</time>
      </trkpt>
      <trkpt lat="47.31341" lon="6.05235">
        <ele>569.8</ele>
        <time>2021-10-13T09:48:42Z</time>
      </trkpt>
      <trkpt lat="47.31343" lon="6.05239">
        <ele>569.8</ele>
        <time>2021-10-13T09:48:43Z</time>
      </trkpt>
      <trkpt lat="47.31345" lon="6.05241">
        <ele>570</ele>
        <time>2021-10-13T09:48:44Z</time>
      </trkpt>
      <trkpt lat="47.31347" lon="6.05244">
        <ele>570.2</ele>
        <time>2021-10-13T09:48:45Z</time>
      </trkpt>
      <trkpt lat="47.31348" lon="6.05247">
        <ele>570.2</ele>
        <time>2021-10-13T09:48:46Z</time>
      </trkpt>
      <trkpt lat="47.3135" lon="6.0525">
        <ele>570.2</ele>
        <time>2021-10-13T09:48:47Z</time>
      </trkpt>
      <trkpt lat="47.31352" lon="6.05253">
        <ele>570.4</ele>
        <time>2021-10-13T09:48:48Z</time>
      </trkpt>
      <trkpt lat="47.31355" lon="6.05255">
        <ele>570.6</ele>
        <time>2021-10-13T09:48:49Z</time>
      </trkpt>
      <trkpt lat="47.31358" lon="6.05259">
        <ele>570.6</ele>
        <time>2021-10-13T09:48:50Z</time>
      </trkpt>
      <trkpt lat="47.31359" lon="6.05261">
        <ele>570.8</ele>
        <time>2021-10-13T09:48:51Z</time>
      </trkpt>
      <trkpt lat="47.31361" lon="6.05264">
        <ele>571</ele>
        <time>2021-10-13T09:48:52Z</time>
      </trkpt>
      <trkpt lat="47.31363" lon="6.05267">
        <ele>571.2</ele>
        <time>2021-10-13T09:48:53Z</time>
      </trkpt>
      <trkpt lat="47.31367" lon="6.05271">
        <ele>571.4</ele>
        <time>2021-10-13T09:48:54Z</time>
      </trkpt>
      <trkpt lat="47.3137" lon="6.05275">
        <ele>571.6</ele>
        <time>2021-10-13T09:48:55Z</time>
      </trkpt>
      <trkpt lat="47.31372" lon="6.05279">
        <ele>571.8</ele>
        <time>2021-10-13T09:48:56Z</time>
      </trkpt>
      <trkpt lat="47.31375" lon="6.05283">
        <ele>572.2</ele>
        <time>2021-10-13T09:48:57Z</time>
      </trkpt>
      <trkpt lat="47.31377" lon="6.05288">
        <ele>572.4</ele>
        <time>2021-10-13T09:48:58Z</time>
      </trkpt>
      <trkpt lat="47.3138" lon="6.05293">
        <ele>572.6</ele>
        <time>2021-10-13T09:48:59Z</time>
      </trkpt>
      <trkpt lat="47.31382" lon="6.05297">
        <ele>572.8</ele>
        <time>2021-10-13T09:49:00Z</time>
      </trkpt>
      <trkpt lat="47.31384" lon="6.053">
        <ele>573</ele>
        <time>2021-10-13T09:49:01Z</time>
      </trkpt>
      <trkpt lat="47.31387" lon="6.05304">
        <ele>573.2</ele>
        <time>2021-10-13T09:49:02Z</time>
      </trkpt>
      <trkpt lat="47.31389" lon="6.05306">
        <ele>573.2</ele>
        <time>2021-10-13T09:49:03Z</time>
      </trkpt>
      <trkpt lat="47.31392" lon="6.0531">
        <ele>573.2</ele>
        <time>2021-10-13T09:49:04Z</time>
      </trkpt>
      <trkpt lat="47.31395" lon="6.05312">
        <ele>573.4</ele>
        <time>2021-10-13T09:49:05Z</time>
      </trkpt>
      <trkpt lat="47.31398" lon="6.05315">
        <ele>573.6</ele>
        <time>2021-10-13T09:49:06Z</time>
      </trkpt>
      <trkpt lat="47.314" lon="6.05318">
        <ele>573.6</ele>
        <time>2021-10-13T09:49:07Z</time>
      </trkpt>
      <trkpt lat="47.31402" lon="6.05321">
        <ele>573.8</ele>
        <time>2021-10-13T09:49:08Z</time>
      </trkpt>
      <trkpt lat="47.31404" lon="6.05324">
        <ele>573.8</ele>
        <time>2021-10-13T09:49:09Z</time>
      </trkpt>
      <trkpt lat="47.31405" lon="6.05327">
        <ele>574</ele>
        <time>2021-10-13T09:49:10Z</time>
      </trkpt>
      <trkpt lat="47.31406" lon="6.05329">
        <ele>574.4</ele>
        <time>2021-10-13T09:49:11Z</time>
      </trkpt>
      <trkpt lat="47.31408" lon="6.05332">
        <ele>574.6</ele>
        <time>2021-10-13T09:49:12Z</time>
      </trkpt>
      <trkpt lat="47.3141" lon="6.05335">
        <ele>574.8</ele>
        <time>2021-10-13T09:49:13Z</time>
      </trkpt>
      <trkpt lat="47.31411" lon="6.05337">
        <ele>575</ele>
        <time>2021-10-13T09:49:14Z</time>
      </trkpt>
      <trkpt lat="47.31413" lon="6.05338">
        <ele>575</ele>
        <time>2021-10-13T09:49:15Z</time>
      </trkpt>
      <trkpt lat="47.31414" lon="6.05341">
        <ele>575.2</ele>
        <time>2021-10-13T09:49:16Z</time>
      </trkpt>
      <trkpt lat="47.31416" lon="6.05343">
        <ele>575.4</ele>
        <time>2021-10-13T09:49:17Z</time>
      </trkpt>
      <trkpt lat="47.31417" lon="6.05345">
        <ele>575.4</ele>
        <time>2021-10-13T09:49:18Z</time>
      </trkpt>
      <trkpt lat="47.31419" lon="6.05347">
        <ele>575.6</ele>
        <time>2021-10-13T09:49:19Z</time>
      </trkpt>
      <trkpt lat="47.3142" lon="6.05349">
        <ele>576</ele>
        <time>2021-10-13T09:49:20Z</time>
      </trkpt>
      <trkpt lat="47.31423" lon="6.05352">
        <ele>576.2</ele>
        <time>2021-10-13T09:49:21Z</time>
      </trkpt>
      <trkpt lat="47.31424" lon="6.05354">
        <ele>576.4</ele>
        <time>2021-10-13T09:49:22Z</time>
      </trkpt>
      <trkpt lat="47.31427" lon="6.05357">
        <ele>576.4</ele>
        <time>2021-10-13T09:49:23Z</time>
      </trkpt>
      <trkpt lat="47.31429" lon="6.05359">
        <ele>576.8</ele>
        <time>2021-10-13T09:49:24Z</time>
      </trkpt>
      <trkpt lat="47.31431" lon="6.05362">
        <ele>577.2</ele>
        <time>2021-10-13T09:49:25Z</time>
      </trkpt>
      <trkpt lat="47.31433" lon="6.05365">
        <ele>577.2</ele>
        <time>2021-10-13T09:49:26Z</time>
      </trkpt>
      <trkpt lat="47.31435" lon="6.05367">
        <ele>577.6</ele>
        <time>2021-10-13T09:49:27Z</time>
      </trkpt>
      <trkpt lat="47.31437" lon="6.0537">
        <ele>577.6</ele>
        <time>2021-10-13T09:49:28Z</time>
      </trkpt>
      <trkpt lat="47.31439" lon="6.05373">
        <ele>577.8</ele>
        <time>2021-10-13T09:49:29Z</time>
      </trkpt>
      <trkpt lat="47.31441" lon="6.05376">
        <ele>578</ele>
        <time>2021-10-13T09:49:30Z</time>
      </trkpt>
      <trkpt lat="47.31442" lon="6.05378">
        <ele>578.2</ele>
        <time>2021-10-13T09:49:31Z</time>
      </trkpt>
      <trkpt lat="47.31444" lon="6.05381">
        <ele>578.4</ele>
        <time>2021-10-13T09:49:32Z</time>
      </trkpt>
      <trkpt lat="47.31446" lon="6.05383">
        <ele>578.4</ele>
        <time>2021-10-13T09:49:33Z</time>
      </trkpt>
      <trkpt lat="47.31447" lon="6.05386">
        <ele>578.6</ele>
        <time>2021-10-13T09:49:34Z</time>
      </trkpt>
      <trkpt lat="47.3145" lon="6.05388">
        <ele>578.8</ele>
        <time>2021-10-13T09:49:35Z</time>
      </trkpt>
      <trkpt lat="47.31451" lon="6.0539">
        <ele>579.2</ele>
        <time>2021-10-13T09:49:36Z</time>
      </trkpt>
      <trkpt lat="47.31453" lon="6.05393">
        <ele>579.4</ele>
        <time>2021-10-13T09:49:37Z</time>
      </trkpt>
      <trkpt lat="47.31454" lon="6.05395">
        <ele>579.8</ele>
        <time>2021-10-13T09:49:38Z</time>
      </trkpt>
      <trkpt lat="47.31455" lon="6.05397">
        <ele>579.8</ele>
        <time>2021-10-13T09:49:39Z</time>
      </trkpt>
      <trkpt lat="47.31457" lon="6.05399">
        <ele>580</ele>
        <time>2021-10-13T09:49:40Z</time>
      </trkpt>
      <trkpt lat="47.31458" lon="6.05401">
        <ele>580.2</ele>
        <time>2021-10-13T09:49:41Z</time>
      </trkpt>
      <trkpt lat="47.31459" lon="6.05403">
        <ele>580.4</ele>
        <time>2021-10-13T09:49:42Z</time>
      </trkpt>
      <trkpt lat="47.31461" lon="6.05405">
        <ele>580.8</ele>
        <time>2021-10-13T09:49:43Z</time>
      </trkpt>
      <trkpt lat="47.31463" lon="6.05408">
        <ele>581</ele>
        <time>2021-10-13T09:49:44Z</time>
      </trkpt>
      <trkpt lat="47.31466" lon="6.05411">
        <ele>581.2</ele>
        <time>2021-10-13T09:49:45Z</time>
      </trkpt>
      <trkpt lat="47.31467" lon="6.05413">
        <ele>581.6</ele>
        <time>2021-10-13T09:49:46Z</time>
      </trkpt>
      <trkpt lat="47.31469" lon="6.05415">
        <ele>581.8</ele>
        <time>2021-10-13T09:49:47Z</time>
      </trkpt>
      <trkpt lat="47.3147" lon="6.05417">
        <ele>581.8</ele>
        <time>2021-10-13T09:49:48Z</time>
      </trkpt>
      <trkpt lat="47.31472" lon="6.05419">
        <ele>582</ele>
        <time>2021-10-13T09:49:49Z</time>
      </trkpt>
      <trkpt lat="47.31474" lon="6.05421">
        <ele>582.2</ele>
        <time>2021-10-13T09:49:50Z</time>
      </trkpt>
      <trkpt lat="47.31475" lon="6.05423">
        <ele>582.2</ele>
        <time>2021-10-13T09:49:51Z</time>
      </trkpt>
      <trkpt lat="47.31477" lon="6.05425">
        <ele>582.4</ele>
        <time>2021-10-13T09:49:52Z</time>
      </trkpt>
      <trkpt lat="47.31479" lon="6.05428">
        <ele>582.6</ele>
        <time>2021-10-13T09:49:53Z</time>
      </trkpt>
      <trkpt lat="47.31481" lon="6.0543">
        <ele>582.6</ele>
        <time>2021-10-13T09:49:54Z</time>
      </trkpt>
      <trkpt lat="47.31483" lon="6.05433">
        <ele>582.8</ele>
        <time>2021-10-13T09:49:55Z</time>
      </trkpt>
      <trkpt lat="47.31485" lon="6.05436">
        <ele>583</ele>
        <time>2021-10-13T09:49:56Z</time>
      </trkpt>
      <trkpt lat="47.31486" lon="6.05438">
        <ele>583.2</ele>
        <time>2021-10-13T09:49:57Z</time>
      </trkpt>
      <trkpt lat="47.31488" lon="6.0544">
        <ele>583.2</ele>
        <time>2021-10-13T09:49:58Z</time>
      </trkpt>
      <trkpt lat="47.3149" lon="6.05442">
        <ele>583.2</ele>
        <time>2021-10-13T09:49:59Z</time>
      </trkpt>
      <trkpt lat="47.3149" lon="6.05444">
        <ele>583.4</ele>
        <time>2021-10-13T09:50:00Z</time>
      </trkpt>
      <trkpt lat="47.31492" lon="6.05446">
        <ele>583.6</ele>
        <time>2021-10-13T09:50:01Z</time>
      </trkpt>
      <trkpt lat="47.31493" lon="6.05448">
        <ele>583.8</ele>
        <time>2021-10-13T09:50:02Z</time>
      </trkpt>
      <trkpt lat="47.31494" lon="6.0545">
        <ele>583.8</ele>
        <time>2021-10-13T09:50:03Z</time>
      </trkpt>
      <trkpt lat="47.31495" lon="6.05452">
        <ele>584.2</ele>
        <time>2021-10-13T09:50:04Z</time>
      </trkpt>
      <trkpt lat="47.31497" lon="6.05454">
        <ele>584.2</ele>
        <time>2021-10-13T09:50:05Z</time>
      </trkpt>
      <trkpt lat="47.31499" lon="6.05457">
        <ele>584.6</ele>
        <time>2021-10-13T09:50:06Z</time>
      </trkpt>
      <trkpt lat="47.31501" lon="6.05459">
        <ele>584.8</ele>
        <time>2021-10-13T09:50:07Z</time>
      </trkpt>
      <trkpt lat="47.31502" lon="6.0546">
        <ele>584.8</ele>
        <time>2021-10-13T09:50:08Z</time>
      </trkpt>
      <trkpt lat="47.31504" lon="6.05462">
        <ele>585</ele>
        <time>2021-10-13T09:50:09Z</time>
      </trkpt>
      <trkpt lat="47.31505" lon="6.05464">
        <ele>585.2</ele>
        <time>2021-10-13T09:50:10Z</time>
      </trkpt>
      <trkpt lat="47.31507" lon="6.05467">
        <ele>585.2</ele>
        <time>2021-10-13T09:50:11Z</time>
      </trkpt>
      <trkpt lat="47.31509" lon="6.0547">
        <ele>585.4</ele>
        <time>2021-10-13T09:50:12Z</time>
      </trkpt>
      <trkpt lat="47.3151" lon="6.05472">
        <ele>585.8</ele>
        <time>2021-10-13T09:50:13Z</time>
      </trkpt>
      <trkpt lat="47.31513" lon="6.05474">
        <ele>585.8</ele>
        <time>2021-10-13T09:50:14Z</time>
      </trkpt>
      <trkpt lat="47.31514" lon="6.05476">
        <ele>586.2</ele>
        <time>2021-10-13T09:50:15Z</time>
      </trkpt>
      <trkpt lat="47.31515" lon="6.05478">
        <ele>586.2</ele>
        <time>2021-10-13T09:50:16Z</time>
      </trkpt>
      <trkpt lat="47.31516" lon="6.0548">
        <ele>586.4</ele>
        <time>2021-10-13T09:50:17Z</time>
      </trkpt>
      <trkpt lat="47.31517" lon="6.05482">
        <ele>586.4</ele>
        <time>2021-10-13T09:50:18Z</time>
      </trkpt>
      <trkpt lat="47.31518" lon="6.05483">
        <ele>586.8</ele>
        <time>2021-10-13T09:50:19Z</time>
      </trkpt>
      <trkpt lat="47.31519" lon="6.05486">
        <ele>587</ele>
        <time>2021-10-13T09:50:20Z</time>
      </trkpt>
      <trkpt lat="47.31521" lon="6.05488">
        <ele>587.2</ele>
        <time>2021-10-13T09:50:21Z</time>
      </trkpt>
      <trkpt lat="47.31522" lon="6.0549">
        <ele>587.2</ele>
        <time>2021-10-13T09:50:22Z</time>
      </trkpt>
      <trkpt lat="47.31523" lon="6.05492">
        <ele>587.6</ele>
        <time>2021-10-13T09:50:23Z</time>
      </trkpt>
      <trkpt lat="47.31525" lon="6.05494">
        <ele>587.6</ele>
        <time>2021-10-13T09:50:24Z</time>
      </trkpt>
      <trkpt lat="47.31527" lon="6.05496">
        <ele>587.8</ele>
        <time>2021-10-13T09:50:25Z</time>
      </trkpt>
      <trkpt lat="47.31529" lon="6.05498">
        <ele>588</ele>
        <time>2021-10-13T09:50:26Z</time>
      </trkpt>
      <trkpt lat="47.3153" lon="6.05501">
        <ele>588</ele>
        <time>2021-10-13T09:50:27Z</time>
      </trkpt>
      <trkpt lat="47.31531" lon="6.05502">
        <ele>588.2</ele>
        <time>2021-10-13T09:50:28Z</time>
      </trkpt>
      <trkpt lat="47.31532" lon="6.05503">
        <ele>588.4</ele>
        <time>2021-10-13T09:50:29Z</time>
      </trkpt>
      <trkpt lat="47.31533" lon="6.05505">
        <ele>588.4</ele>
        <time>2021-10-13T09:50:30Z</time>
      </trkpt>
      <trkpt lat="47.31534" lon="6.05506">
        <ele>588.6</ele>
        <time>2021-10-13T09:50:31Z</time>
      </trkpt>
      <trkpt lat="47.31536" lon="6.05509">
        <ele>588.8</ele>
        <time>2021-10-13T09:50:32Z</time>
      </trkpt>
      <trkpt lat="47.31538" lon="6.05512">
        <ele>589</ele>
        <time>2021-10-13T09:50:33Z</time>
      </trkpt>
      <trkpt lat="47.31541" lon="6.05514">
        <ele>589.2</ele>
        <time>2021-10-13T09:50:34Z</time>
      </trkpt>
      <trkpt lat="47.31542" lon="6.05516">
        <ele>589.4</ele>
        <time>2021-10-13T09:50:35Z</time>
      </trkpt>
      <trkpt lat="47.31544" lon="6.05519">
        <ele>589.6</ele>
        <time>2021-10-13T09:50:36Z</time>
      </trkpt>
      <trkpt lat="47.31546" lon="6.05521">
        <ele>589.8</ele>
        <time>2021-10-13T09:50:37Z</time>
      </trkpt>
      <trkpt lat="47.31548" lon="6.05523">
        <ele>590.2</ele>
        <time>2021-10-13T09:50:38Z</time>
      </trkpt>
      <trkpt lat="47.3155" lon="6.05525">
        <ele>590.4</ele>
        <time>2021-10-13T09:50:39Z</time>
      </trkpt>
      <trkpt lat="47.31553" lon="6.05528">
        <ele>590.6</ele>
        <time>2021-10-13T09:50:40Z</time>
      </trkpt>
      <trkpt lat="47.31555" lon="6.0553">
        <ele>590.8</ele>
        <time>2021-10-13T09:50:41Z</time>
      </trkpt>
      <trkpt lat="47.31558" lon="6.05533">
        <ele>591</ele>
        <time>2021-10-13T09:50:42Z</time>
      </trkpt>
      <trkpt lat="47.3156" lon="6.05535">
        <ele>591.2</ele>
        <time>2021-10-13T09:50:43Z</time>
      </trkpt>
      <trkpt lat="47.31563" lon="6.05536">
        <ele>591.4</ele>
        <time>2021-10-13T09:50:44Z</time>
      </trkpt>
      <trkpt lat="47.31565" lon="6.05538">
        <ele>591.6</ele>
        <time>2021-10-13T09:50:45Z</time>
      </trkpt>
      <trkpt lat="47.31568" lon="6.0554">
        <ele>591.8</ele>
        <time>2021-10-13T09:50:46Z</time>
      </trkpt>
      <trkpt lat="47.31569" lon="6.05542">
        <ele>592</ele>
        <time>2021-10-13T09:50:47Z</time>
      </trkpt>
      <trkpt lat="47.31571" lon="6.05544">
        <ele>592.2</ele>
        <time>2021-10-13T09:50:48Z</time>
      </trkpt>
      <trkpt lat="47.31573" lon="6.05546">
        <ele>592.4</ele>
        <time>2021-10-13T09:50:49Z</time>
      </trkpt>
      <trkpt lat="47.31574" lon="6.05548">
        <ele>592.4</ele>
        <time>2021-10-13T09:50:50Z</time>
      </trkpt>
      <trkpt lat="47.31576" lon="6.05549">
        <ele>592.6</ele>
        <time>2021-10-13T09:50:51Z</time>
      </trkpt>
      <trkpt lat="47.31578" lon="6.05551">
        <ele>592.6</ele>
        <time>2021-10-13T09:50:52Z</time>
      </trkpt>
      <trkpt lat="47.3158" lon="6.05552">
        <ele>592.8</ele>
        <time>2021-10-13T09:50:53Z</time>
      </trkpt>
      <trkpt lat="47.31583" lon="6.05555">
        <ele>592.8</ele>
        <time>2021-10-13T09:50:54Z</time>
      </trkpt>
      <trkpt lat="47.31585" lon="6.05556">
        <ele>593</ele>
        <time>2021-10-13T09:50:55Z</time>
      </trkpt>
      <trkpt lat="47.31587" lon="6.05558">
        <ele>593.2</ele>
        <time>2021-10-13T09:50:56Z</time>
      </trkpt>
      <trkpt lat="47.3159" lon="6.0556">
        <ele>593.4</ele>
        <time>2021-10-13T09:50:57Z</time>
      </trkpt>
      <trkpt lat="47.31593" lon="6.05563">
        <ele>593.8</ele>
        <time>2021-10-13T09:50:58Z</time>
      </trkpt>
      <trkpt lat="47.31594" lon="6.05564">
        <ele>593.8</ele>
        <time>2021-10-13T09:50:59Z</time>
      </trkpt>
      <trkpt lat="47.31596" lon="6.05567">
        <ele>594</ele>
        <time>2021-10-13T09:51:00Z</time>
      </trkpt>
      <trkpt lat="47.31598" lon="6.05569">
        <ele>594.2</ele>
        <time>2021-10-13T09:51:01Z</time>
      </trkpt>
      <trkpt lat="47.31599" lon="6.05571">
        <ele>594.4</ele>
        <time>2021-10-13T09:51:02Z</time>
      </trkpt>
      <trkpt lat="47.31601" lon="6.05573">
        <ele>594.4</ele>
        <time>2021-10-13T09:51:03Z</time>
      </trkpt>
      <trkpt lat="47.31603" lon="6.05574">
        <ele>594.6</ele>
        <time>2021-10-13T09:51:04Z</time>
      </trkpt>
      <trkpt lat="47.31605" lon="6.05577">
        <ele>594.6</ele>
        <time>2021-10-13T09:51:05Z</time>
      </trkpt>
      <trkpt lat="47.31606" lon="6.05578">
        <ele>594.8</ele>
        <time>2021-10-13T09:51:06Z</time>
      </trkpt>
      <trkpt lat="47.31608" lon="6.0558">
        <ele>594.8</ele>
        <time>2021-10-13T09:51:07Z</time>
      </trkpt>
      <trkpt lat="47.31609" lon="6.05583">
        <ele>595</ele>
        <time>2021-10-13T09:51:08Z</time>
      </trkpt>
      <trkpt lat="47.31611" lon="6.05585">
        <ele>595.2</ele>
        <time>2021-10-13T09:51:09Z</time>
      </trkpt>
      <trkpt lat="47.31614" lon="6.05588">
        <ele>595.2</ele>
        <time>2021-10-13T09:51:10Z</time>
      </trkpt>
      <trkpt lat="47.31616" lon="6.05591">
        <ele>595.6</ele>
        <time>2021-10-13T09:51:11Z</time>
      </trkpt>
      <trkpt lat="47.31618" lon="6.05593">
        <ele>595.6</ele>
        <time>2021-10-13T09:51:12Z</time>
      </trkpt>
      <trkpt lat="47.3162" lon="6.05596">
        <ele>595.8</ele>
        <time>2021-10-13T09:51:13Z</time>
      </trkpt>
      <trkpt lat="47.31622" lon="6.056">
        <ele>595.8</ele>
        <time>2021-10-13T09:51:14Z</time>
      </trkpt>
      <trkpt lat="47.31625" lon="6.05604">
        <ele>596</ele>
        <time>2021-10-13T09:51:15Z</time>
      </trkpt>
      <trkpt lat="47.31627" lon="6.05608">
        <ele>596</ele>
        <time>2021-10-13T09:51:16Z</time>
      </trkpt>
      <trkpt lat="47.31631" lon="6.05614">
        <ele>596</ele>
        <time>2021-10-13T09:51:17Z</time>
      </trkpt>
      <trkpt lat="47.31633" lon="6.05617">
        <ele>596</ele>
        <time>2021-10-13T09:51:18Z</time>
      </trkpt>
      <trkpt lat="47.31635" lon="6.05621">
        <ele>596</ele>
        <time>2021-10-13T09:51:19Z</time>
      </trkpt>
      <trkpt lat="47.31638" lon="6.05625">
        <ele>596</ele>
        <time>2021-10-13T09:51:20Z</time>
      </trkpt>
      <trkpt lat="47.3164" lon="6.05629">
        <ele>595.8</ele>
        <time>2021-10-13T09:51:21Z</time>
      </trkpt>
      <trkpt lat="47.31643" lon="6.05633">
        <ele>595.8</ele>
        <time>2021-10-13T09:51:22Z</time>
      </trkpt>
      <trkpt lat="47.31646" lon="6.05638">
        <ele>595.8</ele>
        <time>2021-10-13T09:51:23Z</time>
      </trkpt>
      <trkpt lat="47.31648" lon="6.05642">
        <ele>595.8</ele>
        <time>2021-10-13T09:51:24Z</time>
      </trkpt>
      <trkpt lat="47.31651" lon="6.05647">
        <ele>595.8</ele>
        <time>2021-10-13T09:51:25Z</time>
      </trkpt>
      <trkpt lat="47.31652" lon="6.05651">
        <ele>595.8</ele>
        <time>2021-10-13T09:51:26Z</time>
      </trkpt>
      <trkpt lat="47.31658" lon="6.0566">
        <ele>595.6</ele>
        <time>2021-10-13T09:51:28Z</time>
      </trkpt>
      <trkpt lat="47.31673" lon="6.05688">
        <ele>595.6</ele>
        <time>2021-10-13T09:51:34Z</time>
      </trkpt>
      <trkpt lat="47.31685" lon="6.05713">
        <ele>595.8</ele>
        <time>2021-10-13T09:51:39Z</time>
      </trkpt>
      <trkpt lat="47.31687" lon="6.05716">
        <ele>595.8</ele>
        <time>2021-10-13T09:51:40Z</time>
      </trkpt>
      <trkpt lat="47.31689" lon="6.0572">
        <ele>596.4</ele>
        <time>2021-10-13T09:51:41Z</time>
      </trkpt>
      <trkpt lat="47.31691" lon="6.05723">
        <ele>596.6</ele>
        <time>2021-10-13T09:51:42Z</time>
      </trkpt>
      <trkpt lat="47.31693" lon="6.05727">
        <ele>596.8</ele>
        <time>2021-10-13T09:51:43Z</time>
      </trkpt>
      <trkpt lat="47.31696" lon="6.05731">
        <ele>597</ele>
        <time>2021-10-13T09:51:44Z</time>
      </trkpt>
      <trkpt lat="47.31696" lon="6.05733">
        <ele>597.2</ele>
        <time>2021-10-13T09:51:45Z</time>
      </trkpt>
      <trkpt lat="47.31699" lon="6.05739">
        <ele>597.4</ele>
        <time>2021-10-13T09:51:47Z</time>
      </trkpt>
      <trkpt lat="47.31701" lon="6.05742">
        <ele>597.4</ele>
        <time>2021-10-13T09:51:48Z</time>
      </trkpt>
      <trkpt lat="47.31703" lon="6.05745">
        <ele>597.4</ele>
        <time>2021-10-13T09:51:49Z</time>
      </trkpt>
      <trkpt lat="47.31704" lon="6.05748">
        <ele>597.6</ele>
        <time>2021-10-13T09:51:50Z</time>
      </trkpt>
      <trkpt lat="47.31706" lon="6.05751">
        <ele>597.8</ele>
        <time>2021-10-13T09:51:51Z</time>
      </trkpt>
      <trkpt lat="47.31707" lon="6.05754">
        <ele>598</ele>
        <time>2021-10-13T09:51:52Z</time>
      </trkpt>
      <trkpt lat="47.3171" lon="6.0576">
        <ele>598.2</ele>
        <time>2021-10-13T09:51:54Z</time>
      </trkpt>
      <trkpt lat="47.31712" lon="6.05763">
        <ele>598.4</ele>
        <time>2021-10-13T09:51:55Z</time>
      </trkpt>
      <trkpt lat="47.31714" lon="6.05766">
        <ele>598.8</ele>
        <time>2021-10-13T09:51:56Z</time>
      </trkpt>
      <trkpt lat="47.31718" lon="6.05772">
        <ele>599.2</ele>
        <time>2021-10-13T09:51:58Z</time>
      </trkpt>
      <trkpt lat="47.3172" lon="6.05775">
        <ele>599.2</ele>
        <time>2021-10-13T09:51:59Z</time>
      </trkpt>
      <trkpt lat="47.31722" lon="6.05779">
        <ele>599.6</ele>
        <time>2021-10-13T09:52:00Z</time>
      </trkpt>
      <trkpt lat="47.31723" lon="6.05781">
        <ele>599.6</ele>
        <time>2021-10-13T09:52:01Z</time>
      </trkpt>
      <trkpt lat="47.31725" lon="6.05784">
        <ele>599.8</ele>
        <time>2021-10-13T09:52:02Z</time>
      </trkpt>
      <trkpt lat="47.31726" lon="6.05787">
        <ele>600</ele>
        <time>2021-10-13T09:52:03Z</time>
      </trkpt>
      <trkpt lat="47.31727" lon="6.0579">
        <ele>600.2</ele>
        <time>2021-10-13T09:52:04Z</time>
      </trkpt>
      <trkpt lat="47.31729" lon="6.05793">
        <ele>600.4</ele>
        <time>2021-10-13T09:52:05Z</time>
      </trkpt>
      <trkpt lat="47.3173" lon="6.05796">
        <ele>600.6</ele>
        <time>2021-10-13T09:52:06Z</time>
      </trkpt>
      <trkpt lat="47.31731" lon="6.058">
        <ele>600.8</ele>
        <time>2021-10-13T09:52:07Z</time>
      </trkpt>
      <trkpt lat="47.31733" lon="6.05803">
        <ele>600.8</ele>
        <time>2021-10-13T09:52:08Z</time>
      </trkpt>
      <trkpt lat="47.31734" lon="6.05807">
        <ele>601</ele>
        <time>2021-10-13T09:52:09Z</time>
      </trkpt>
      <trkpt lat="47.31735" lon="6.0581">
        <ele>601.2</ele>
        <time>2021-10-13T09:52:10Z</time>
      </trkpt>
      <trkpt lat="47.31737" lon="6.05814">
        <ele>601.4</ele>
        <time>2021-10-13T09:52:11Z</time>
      </trkpt>
      <trkpt lat="47.31738" lon="6.05818">
        <ele>601.4</ele>
        <time>2021-10-13T09:52:12Z</time>
      </trkpt>
      <trkpt lat="47.3174" lon="6.05821">
        <ele>601.8</ele>
        <time>2021-10-13T09:52:13Z</time>
      </trkpt>
      <trkpt lat="47.31742" lon="6.05824">
        <ele>602</ele>
        <time>2021-10-13T09:52:14Z</time>
      </trkpt>
      <trkpt lat="47.31743" lon="6.05827">
        <ele>602.2</ele>
        <time>2021-10-13T09:52:15Z</time>
      </trkpt>
      <trkpt lat="47.31744" lon="6.0583">
        <ele>602.4</ele>
        <time>2021-10-13T09:52:16Z</time>
      </trkpt>
      <trkpt lat="47.31746" lon="6.05834">
        <ele>602.6</ele>
        <time>2021-10-13T09:52:17Z</time>
      </trkpt>
      <trkpt lat="47.31748" lon="6.05837">
        <ele>602.6</ele>
        <time>2021-10-13T09:52:18Z</time>
      </trkpt>
      <trkpt lat="47.3175" lon="6.05841">
        <ele>602.8</ele>
        <time>2021-10-13T09:52:19Z</time>
      </trkpt>
      <trkpt lat="47.31751" lon="6.05845">
        <ele>602.8</ele>
        <time>2021-10-13T09:52:20Z</time>
      </trkpt>
      <trkpt lat="47.31752" lon="6.05849">
        <ele>603</ele>
        <time>2021-10-13T09:52:21Z</time>
      </trkpt>
      <trkpt lat="47.31754" lon="6.05852">
        <ele>603.2</ele>
        <time>2021-10-13T09:52:22Z</time>
      </trkpt>
      <trkpt lat="47.31757" lon="6.05856">
        <ele>603.2</ele>
        <time>2021-10-13T09:52:23Z</time>
      </trkpt>
      <trkpt lat="47.3176" lon="6.05861">
        <ele>603.4</ele>
        <time>2021-10-13T09:52:24Z</time>
      </trkpt>
      <trkpt lat="47.31762" lon="6.05865">
        <ele>603.4</ele>
        <time>2021-10-13T09:52:25Z</time>
      </trkpt>
      <trkpt lat="47.31764" lon="6.05868">
        <ele>603.6</ele>
        <time>2021-10-13T09:52:26Z</time>
      </trkpt>
      <trkpt lat="47.31767" lon="6.05872">
        <ele>603.8</ele>
        <time>2021-10-13T09:52:27Z</time>
      </trkpt>
      <trkpt lat="47.31769" lon="6.05875">
        <ele>603.8</ele>
        <time>2021-10-13T09:52:28Z</time>
      </trkpt>
      <trkpt lat="47.3177" lon="6.05878">
        <ele>603.8</ele>
        <time>2021-10-13T09:52:29Z</time>
      </trkpt>
      <trkpt lat="47.31772" lon="6.05883">
        <ele>604</ele>
        <time>2021-10-13T09:52:30Z</time>
      </trkpt>
      <trkpt lat="47.31774" lon="6.05885">
        <ele>604.2</ele>
        <time>2021-10-13T09:52:31Z</time>
      </trkpt>
      <trkpt lat="47.31776" lon="6.05888">
        <ele>604.4</ele>
        <time>2021-10-13T09:52:32Z</time>
      </trkpt>
      <trkpt lat="47.31779" lon="6.0589">
        <ele>604.4</ele>
        <time>2021-10-13T09:52:33Z</time>
      </trkpt>
      <trkpt lat="47.31782" lon="6.05893">
        <ele>604.6</ele>
        <time>2021-10-13T09:52:34Z</time>
      </trkpt>
      <trkpt lat="47.31785" lon="6.05895">
        <ele>604.6</ele>
        <time>2021-10-13T09:52:35Z</time>
      </trkpt>
      <trkpt lat="47.31788" lon="6.05897">
        <ele>604.8</ele>
        <time>2021-10-13T09:52:36Z</time>
      </trkpt>
      <trkpt lat="47.31791" lon="6.05899">
        <ele>605.4</ele>
        <time>2021-10-13T09:52:37Z</time>
      </trkpt>
      <trkpt lat="47.31795" lon="6.05901">
        <ele>605.6</ele>
        <time>2021-10-13T09:52:38Z</time>
      </trkpt>
      <trkpt lat="47.31798" lon="6.05902">
        <ele>605.8</ele>
        <time>2021-10-13T09:52:39Z</time>
      </trkpt>
      <trkpt lat="47.31801" lon="6.05904">
        <ele>606</ele>
        <time>2021-10-13T09:52:40Z</time>
      </trkpt>
      <trkpt lat="47.31804" lon="6.05906">
        <ele>606</ele>
        <time>2021-10-13T09:52:41Z</time>
      </trkpt>
      <trkpt lat="47.31807" lon="6.05908">
        <ele>606.2</ele>
        <time>2021-10-13T09:52:42Z</time>
      </trkpt>
      <trkpt lat="47.31811" lon="6.05909">
        <ele>606.4</ele>
        <time>2021-10-13T09:52:43Z</time>
      </trkpt>
      <trkpt lat="47.31814" lon="6.05912">
        <ele>606.4</ele>
        <time>2021-10-13T09:52:44Z</time>
      </trkpt>
      <trkpt lat="47.31818" lon="6.05914">
        <ele>606.8</ele>
        <time>2021-10-13T09:52:45Z</time>
      </trkpt>
      <trkpt lat="47.31821" lon="6.05916">
        <ele>606.8</ele>
        <time>2021-10-13T09:52:46Z</time>
      </trkpt>
      <trkpt lat="47.31824" lon="6.05918">
        <ele>607</ele>
        <time>2021-10-13T09:52:47Z</time>
      </trkpt>
      <trkpt lat="47.31827" lon="6.05922">
        <ele>607.2</ele>
        <time>2021-10-13T09:52:48Z</time>
      </trkpt>
      <trkpt lat="47.31829" lon="6.05924">
        <ele>607.4</ele>
        <time>2021-10-13T09:52:49Z</time>
      </trkpt>
      <trkpt lat="47.31832" lon="6.05928">
        <ele>607.6</ele>
        <time>2021-10-13T09:52:50Z</time>
      </trkpt>
      <trkpt lat="47.31836" lon="6.05932">
        <ele>607.8</ele>
        <time>2021-10-13T09:52:51Z</time>
      </trkpt>
      <trkpt lat="47.31838" lon="6.05935">
        <ele>608</ele>
        <time>2021-10-13T09:52:52Z</time>
      </trkpt>
      <trkpt lat="47.31841" lon="6.05939">
        <ele>608</ele>
        <time>2021-10-13T09:52:53Z</time>
      </trkpt>
      <trkpt lat="47.31844" lon="6.05944">
        <ele>608.4</ele>
        <time>2021-10-13T09:52:54Z</time>
      </trkpt>
      <trkpt lat="47.31846" lon="6.05948">
        <ele>608.6</ele>
        <time>2021-10-13T09:52:55Z</time>
      </trkpt>
      <trkpt lat="47.31848" lon="6.05954">
        <ele>608.8</ele>
        <time>2021-10-13T09:52:56Z</time>
      </trkpt>
      <trkpt lat="47.31848" lon="6.05958">
        <ele>609</ele>
        <time>2021-10-13T09:52:57Z</time>
      </trkpt>
      <trkpt lat="47.31849" lon="6.05962">
        <ele>609.2</ele>
        <time>2021-10-13T09:52:58Z</time>
      </trkpt>
      <trkpt lat="47.3185" lon="6.05966">
        <ele>609.2</ele>
        <time>2021-10-13T09:52:59Z</time>
      </trkpt>
      <trkpt lat="47.31853" lon="6.05968">
        <ele>609.6</ele>
        <time>2021-10-13T09:53:00Z</time>
      </trkpt>
      <trkpt lat="47.31856" lon="6.0597">
        <ele>610</ele>
        <time>2021-10-13T09:53:01Z</time>
      </trkpt>
      <trkpt lat="47.31859" lon="6.05969">
        <ele>610.8</ele>
        <time>2021-10-13T09:53:02Z</time>
      </trkpt>
      <trkpt lat="47.31862" lon="6.05969">
        <ele>611</ele>
        <time>2021-10-13T09:53:03Z</time>
      </trkpt>
      <trkpt lat="47.31865" lon="6.05968">
        <ele>611.2</ele>
        <time>2021-10-13T09:53:04Z</time>
      </trkpt>
      <trkpt lat="47.31868" lon="6.05968">
        <ele>611.4</ele>
        <time>2021-10-13T09:53:05Z</time>
      </trkpt>
      <trkpt lat="47.3187" lon="6.0597">
        <ele>611.6</ele>
        <time>2021-10-13T09:53:06Z</time>
      </trkpt>
      <trkpt lat="47.31874" lon="6.05972">
        <ele>611.8</ele>
        <time>2021-10-13T09:53:07Z</time>
      </trkpt>
      <trkpt lat="47.31876" lon="6.05973">
        <ele>611.8</ele>
        <time>2021-10-13T09:53:08Z</time>
      </trkpt>
      <trkpt lat="47.31878" lon="6.05974">
        <ele>612</ele>
        <time>2021-10-13T09:53:09Z</time>
      </trkpt>
      <trkpt lat="47.31852" lon="6.05905">
        <ele>577.4</ele>
      </trkpt>
      <trkpt lat="47.3182" lon="6.05892">
        <ele>585.1</ele>
      </trkpt>
      <trkpt lat="47.31759" lon="6.05868">
        <ele>589.8</ele>
      </trkpt>
      <trkpt lat="47.31705" lon="6.05815">
        <ele>586</ele>
      </trkpt>
      <trkpt lat="47.31648" lon="6.05806">
        <ele>586.1</ele>
      </trkpt>
      <trkpt lat="47.31595" lon="6.05789">
        <ele>580.6</ele>
      </trkpt>
      <trkpt lat="47.31557" lon="6.05815">
        <ele>573.6</ele>
      </trkpt>
      <trkpt lat="47.31546" lon="6.05792">
        <ele>572.3</ele>
      </trkpt>
      <trkpt lat="47.31527" lon="6.0577">
        <ele>570</ele>
      </trkpt>
      <trkpt lat="47.31489" lon="6.0574">
        <ele>565.3</ele>
      </trkpt>
      <trkpt lat="47.31484" lon="6.05737">
        <ele>564.5</ele>
      </trkpt>
      <trkpt lat="47.31468" lon="6.05712">
        <ele>562.8</ele>
      </trkpt>
      <trkpt lat="47.31374" lon="6.05609">
        <ele>549.8</ele>
      </trkpt>
      <trkpt lat="47.31333" lon="6.05555">
        <ele>544</ele>
      </trkpt>
      <trkpt lat="47.31306" lon="6.0551">
        <ele>540.8</ele>
      </trkpt>
      <trkpt lat="47.31273" lon="6.05471">
        <ele>535.7</ele>
      </trkpt>
      <trkpt lat="47.31265" lon="6.05459">
        <ele>534.6</ele>
      </trkpt>
      <trkpt lat="47.31261" lon="6.05452">
        <ele>534.2</ele>
      </trkpt>
      <trkpt lat="47.31234" lon="6.05412">
        <ele>531.2</ele>
      </trkpt>
      <trkpt lat="47.31231" lon="6.05409">
        <ele>530.9</ele>
      </trkpt>
      <trkpt lat="47.31225" lon="6.05403">
        <ele>530.2</ele>
      </trkpt>
      <trkpt lat="47.31197" lon="6.05384">
        <ele>525.4</ele>
      </trkpt>
      <trkpt lat="47.31162" lon="6.05354">
        <ele>518.1</ele>
      </trkpt>
      <trkpt lat="47.3114" lon="6.05329">
        <ele>514</ele>
      </trkpt>
      <trkpt lat="47.31133" lon="6.05321">
        <ele>513</ele>
      </trkpt>
      <trkpt lat="47.31119" lon="6.05305">
        <ele>511.1</ele>
      </trkpt>
      <trkpt lat="47.31111" lon="6.05295">
        <ele>510</ele>
      </trkpt>
      <trkpt lat="47.31073" lon="6.0523">
        <ele>504.7</ele>
      </trkpt>
      <trkpt lat="47.31067" lon="6.05216">
        <ele>503.4</ele>
      </trkpt>
      <trkpt lat="47.31048" lon="6.05173">
        <ele>499.1</ele>
      </trkpt>
      <trkpt lat="47.31044" lon="6.05163">
        <ele>498.3</ele>
      </trkpt>
      <trkpt lat="47.31021" lon="6.05103">
        <ele>494.9</ele>
      </trkpt>
      <trkpt lat="47.31014" lon="6.05093">
        <ele>493.4</ele>
      </trkpt>
      <trkpt lat="47.30993" lon="6.05076">
        <ele>488.8</ele>
      </trkpt>
      <trkpt lat="47.30974" lon="6.05058">
        <ele>485.5</ele>
      </trkpt>
      <trkpt lat="47.3094" lon="6.05015">
        <ele>480</ele>
      </trkpt>
      <trkpt lat="47.30895" lon="6.04961">
        <ele>473.3</ele>
      </trkpt>
      <trkpt lat="47.30863" lon="6.04927">
        <ele>468.5</ele>
      </trkpt>
      <trkpt lat="47.30863" lon="6.04936">
        <ele>467.6</ele>
      </trkpt>
      <trkpt lat="47.30863" lon="6.04939">
        <ele>467.3</ele>
      </trkpt>
      <trkpt lat="47.30863" lon="6.04936">
        <ele>467.6</ele>
      </trkpt>
      <trkpt lat="47.30863" lon="6.04927">
        <ele>468.5</ele>
      </trkpt>
      <trkpt lat="47.30857" lon="6.04913">
        <ele>468.2</ele>
      </trkpt>
      <trkpt lat="47.3085" lon="6.04887">
        <ele>468</ele>
      </trkpt>
      <trkpt lat="47.30843" lon="6.04849">
        <ele>468.5</ele>
      </trkpt>
      <trkpt lat="47.30839" lon="6.04826">
        <ele>469.1</ele>
      </trkpt>
      <trkpt lat="47.30834" lon="6.04803">
        <ele>470.1</ele>
      </trkpt>
      <trkpt lat="47.30833" lon="6.04797">
        <ele>470.4</ele>
      </trkpt>
      <trkpt lat="47.30827" lon="6.04734">
        <ele>475</ele>
      </trkpt>
      <trkpt lat="47.3082" lon="6.04711">
        <ele>475.6</ele>
      </trkpt>
      <trkpt lat="47.30809" lon="6.0466">
        <ele>478.3</ele>
      </trkpt>
      <trkpt lat="47.30805" lon="6.04649">
        <ele>478.3</ele>
      </trkpt>
      <trkpt lat="47.3077" lon="6.0459">
        <ele>473.2</ele>
      </trkpt>
      <trkpt lat="47.30759" lon="6.04544">
        <ele>474.5</ele>
      </trkpt>
      <trkpt lat="47.30759" lon="6.04544">
        <ele>474.5</ele>
      </trkpt>
      <trkpt lat="47.30747" lon="6.04497">
        <ele>475.1</ele>
      </trkpt>
      <trkpt lat="47.30743" lon="6.04465">
        <ele>476.6</ele>
      </trkpt>
      <trkpt lat="47.30735" lon="6.04422">
        <ele>477.2</ele>
      </trkpt>
      <trkpt lat="47.30719" lon="6.04354">
        <ele>475.8</ele>
      </trkpt>
      <trkpt lat="47.30708" lon="6.04231">
        <ele>479.3</ele>
      </trkpt>
      <trkpt lat="47.30706" lon="6.0416">
        <ele>481.8</ele>
      </trkpt>
      <trkpt lat="47.30702" lon="6.04141">
        <ele>480.9</ele>
      </trkpt>
      <trkpt lat="47.3069" lon="6.04096">
        <ele>477.4</ele>
      </trkpt>
      <trkpt lat="47.30668" lon="6.04004">
        <ele>472.3</ele>
      </trkpt>
      <trkpt lat="47.30666" lon="6.04001">
        <ele>471.7</ele>
      </trkpt>
      <trkpt lat="47.3066" lon="6.03984">
        <ele>470.3</ele>
      </trkpt>
      <trkpt lat="47.30642" lon="6.03913">
        <ele>466.4</ele>
      </trkpt>
      <trkpt lat="47.30638" lon="6.03879">
        <ele>466.6</ele>
      </trkpt>
      <trkpt lat="47.30634" lon="6.03808">
        <ele>468.7</ele>
      </trkpt>
      <trkpt lat="47.30637" lon="6.03737">
        <ele>472.7</ele>
      </trkpt>
      <trkpt lat="47.30611" lon="6.03676">
        <ele>470</ele>
      </trkpt>
      <trkpt lat="47.30607" lon="6.03667">
        <ele>469.5</ele>
      </trkpt>
      <trkpt lat="47.3059" lon="6.03563">
        <ele>473.4</ele>
      </trkpt>
      <trkpt lat="47.30587" lon="6.03554">
        <ele>473.4</ele>
      </trkpt>
      <trkpt lat="47.30561" lon="6.03464">
        <ele>472.9</ele>
      </trkpt>
      <trkpt lat="47.30543" lon="6.03392">
        <ele>471.7</ele>
      </trkpt>
      <trkpt lat="47.30537" lon="6.03384">
        <ele>470.6</ele>
      </trkpt>
      <trkpt lat="47.30527" lon="6.03358">
        <ele>469.4</ele>
      </trkpt>
      <trkpt lat="47.3052" lon="6.03339">
        <ele>468.8</ele>
      </trkpt>
      <trkpt lat="47.30507" lon="6.03319">
        <ele>467.7</ele>
      </trkpt>
      <trkpt lat="47.30493" lon="6.03295">
        <ele>467</ele>
      </trkpt>
      <trkpt lat="47.30466" lon="6.03264">
        <ele>463.2</ele>
      </trkpt>
      <trkpt lat="47.30461" lon="6.03262">
        <ele>462.1</ele>
      </trkpt>
      <trkpt lat="47.30454" lon="6.03268">
        <ele>459.8</ele>
      </trkpt>
      <trkpt lat="47.30443" lon="6.03259">
        <ele>457.8</ele>
      </trkpt>
      <trkpt lat="47.3043" lon="6.03233">
        <ele>456.5</ele>
      </trkpt>
      <trkpt lat="47.30421" lon="6.03204">
        <ele>456.3</ele>
      </trkpt>
      <trkpt lat="47.30403" lon="6.03147">
        <ele>457.5</ele>
      </trkpt>
      <trkpt lat="47.30394" lon="6.03095">
        <ele>461.7</ele>
      </trkpt>
      <trkpt lat="47.30389" lon="6.03082">
        <ele>462.5</ele>
      </trkpt>
      <trkpt lat="47.30381" lon="6.03077">
        <ele>461.9</ele>
      </trkpt>
      <trkpt lat="47.30375" lon="6.0308">
        <ele>460.8</ele>
      </trkpt>
      <trkpt lat="47.30349" lon="6.03073">
        <ele>458.4</ele>
      </trkpt>
      <trkpt lat="47.30342" lon="6.03066">
        <ele>458.5</ele>
      </trkpt>
      <trkpt lat="47.30332" lon="6.03047">
        <ele>460.1</ele>
      </trkpt>
      <trkpt lat="47.30309" lon="6.03022">
        <ele>461.8</ele>
      </trkpt>
      <trkpt lat="47.30307" lon="6.03017">
        <ele>462.4</ele>
      </trkpt>
      <trkpt lat="47.30298" lon="6.02995">
        <ele>465.2</ele>
      </trkpt>
      <trkpt lat="47.30293" lon="6.02988">
        <ele>466</ele>
      </trkpt>
      <trkpt lat="47.30268" lon="6.0298">
        <ele>465.7</ele>
      </trkpt>
      <trkpt lat="47.30243" lon="6.0299">
        <ele>461.9</ele>
      </trkpt>
      <trkpt lat="47.30229" lon="6.02991">
        <ele>460</ele>
      </trkpt>
      <trkpt lat="47.30209" lon="6.02992">
        <ele>457.4</ele>
      </trkpt>
      <trkpt lat="47.30201" lon="6.02988">
        <ele>457</ele>
      </trkpt>
      <trkpt lat="47.30195" lon="6.02981">
        <ele>457.4</ele>
      </trkpt>
      <trkpt lat="47.30186" lon="6.02969">
        <ele>458</ele>
      </trkpt>
      <trkpt lat="47.30164" lon="6.02945">
        <ele>458.4</ele>
      </trkpt>
      <trkpt lat="47.30152" lon="6.02926">
        <ele>458.7</ele>
      </trkpt>
      <trkpt lat="47.3014" lon="6.0292">
        <ele>457.1</ele>
      </trkpt>
      <trkpt lat="47.30134" lon="6.02914">
        <ele>456.6</ele>
      </trkpt>
      <trkpt lat="47.30115" lon="6.02882">
        <ele>455.7</ele>
      </trkpt>
      <trkpt lat="47.30087" lon="6.02818">
        <ele>455</ele>
      </trkpt>
      <trkpt lat="47.30082" lon="6.028">
        <ele>455</ele>
      </trkpt>
      <trkpt lat="47.30078" lon="6.0278">
        <ele>455.4</ele>
      </trkpt>
      <trkpt lat="47.30062" lon="6.02732">
        <ele>454.2</ele>
      </trkpt>
      <trkpt lat="47.30039" lon="6.02659">
        <ele>452.9</ele>
      </trkpt>
      <trkpt lat="47.30028" lon="6.02618">
        <ele>453.3</ele>
      </trkpt>
      <trkpt lat="47.3002" lon="6.02592">
        <ele>453.1</ele>
      </trkpt>
      <trkpt lat="47.30011" lon="6.02574">
        <ele>451.7</ele>
      </trkpt>
      <trkpt lat="47.30001" lon="6.02551">
        <ele>450.2</ele>
      </trkpt>
      <trkpt lat="47.29998" lon="6.02539">
        <ele>450</ele>
      </trkpt>
      <trkpt lat="47.29991" lon="6.02511">
        <ele>449.2</ele>
      </trkpt>
      <trkpt lat="47.29986" lon="6.02474">
        <ele>449.7</ele>
      </trkpt>
      <trkpt lat="47.29974" lon="6.02435">
        <ele>448.1</ele>
      </trkpt>
      <trkpt lat="47.2996" lon="6.02376">
        <ele>446.5</ele>
      </trkpt>
      <trkpt lat="47.29952" lon="6.02353">
        <ele>445</ele>
      </trkpt>
      <trkpt lat="47.29926" lon="6.02297">
        <ele>439.6</ele>
      </trkpt>
      <trkpt lat="47.29911" lon="6.02252">
        <ele>437.1</ele>
      </trkpt>
      <trkpt lat="47.29904" lon="6.02215">
        <ele>437.4</ele>
      </trkpt>
      <trkpt lat="47.29887" lon="6.0218">
        <ele>434.2</ele>
      </trkpt>
      <trkpt lat="47.29879" lon="6.0216">
        <ele>432.8</ele>
      </trkpt>
      <trkpt lat="47.29854" lon="6.021">
        <ele>430</ele>
      </trkpt>
      <trkpt lat="47.29831" lon="6.02053">
        <ele>427.5</ele>
      </trkpt>
      <trkpt lat="47.29816" lon="6.02033">
        <ele>424.9</ele>
      </trkpt>
      <trkpt lat="47.29798" lon="6.02004">
        <ele>422.7</ele>
      </trkpt>
      <trkpt lat="47.29795" lon="6.02">
        <ele>422.3</ele>
      </trkpt>
      <trkpt lat="47.29786" lon="6.01979">
        <ele>420.4</ele>
      </trkpt>
      <trkpt lat="47.2978" lon="6.01971">
        <ele>419.2</ele>
      </trkpt>
      <trkpt lat="47.29762" lon="6.0196">
        <ele>415.5</ele>
      </trkpt>
      <trkpt lat="47.29737" lon="6.0194">
        <ele>411.3</ele>
      </trkpt>
      <trkpt lat="47.29707" lon="6.01907">
        <ele>406.2</ele>
      </trkpt>
      <trkpt lat="47.29695" lon="6.01899">
        <ele>403.4</ele>
      </trkpt>
      <trkpt lat="47.29672" lon="6.01891">
        <ele>398.8</ele>
      </trkpt>
      <trkpt lat="47.29664" lon="6.01891">
        <ele>397.3</ele>
      </trkpt>
      <trkpt lat="47.29634" lon="6.019">
        <ele>392.3</ele>
      </trkpt>
      <trkpt lat="47.29611" lon="6.01896">
        <ele>388.1</ele>
      </trkpt>
      <trkpt lat="47.29585" lon="6.01885">
        <ele>383.7</ele>
      </trkpt>
      <trkpt lat="47.29571" lon="6.01874">
        <ele>381.4</ele>
      </trkpt>
      <trkpt lat="47.29568" lon="6.01872">
        <ele>380.9</ele>
      </trkpt>
      <trkpt lat="47.29566" lon="6.01864">
        <ele>380.7</ele>
      </trkpt>
      <trkpt lat="47.29565" lon="6.01844">
        <ele>380.9</ele>
      </trkpt>
      <trkpt lat="47.29574" lon="6.01784">
        <ele>380.4</ele>
      </trkpt>
      <trkpt lat="47.29576" lon="6.0175">
        <ele>379.2</ele>
      </trkpt>
      <trkpt lat="47.29571" lon="6.01728">
        <ele>378.1</ele>
      </trkpt>
      <trkpt lat="47.29565" lon="6.01713">
        <ele>377.1</ele>
      </trkpt>
      <trkpt lat="47.29555" lon="6.01699">
        <ele>375.7</ele>
      </trkpt>
      <trkpt lat="47.29549" lon="6.01693">
        <ele>374.9</ele>
      </trkpt>
      <trkpt lat="47.29521" lon="6.01668">
        <ele>371.3</ele>
      </trkpt>
      <trkpt lat="47.29475" lon="6.0164">
        <ele>366.8</ele>
      </trkpt>
      <trkpt lat="47.29461" lon="6.01626">
        <ele>365.7</ele>
      </trkpt>
      <trkpt lat="47.29432" lon="6.01586">
        <ele>363.7</ele>
      </trkpt>
      <trkpt lat="47.29402" lon="6.01566">
        <ele>363.4</ele>
      </trkpt>
      <trkpt lat="47.29387" lon="6.01562">
        <ele>362.8</ele>
      </trkpt>
      <trkpt lat="47.29379" lon="6.01561">
        <ele>362.5</ele>
      </trkpt>
      <trkpt lat="47.29347" lon="6.01556">
        <ele>361</ele>
      </trkpt>
      <trkpt lat="47.29326" lon="6.01556">
        <ele>359.9</ele>
      </trkpt>
      <trkpt lat="47.29295" lon="6.01559">
        <ele>357.9</ele>
      </trkpt>
      <trkpt lat="47.29269" lon="6.01569">
        <ele>356.2</ele>
      </trkpt>
      <trkpt lat="47.29257" lon="6.01571">
        <ele>355.4</ele>
      </trkpt>
      <trkpt lat="47.29241" lon="6.0157">
        <ele>354.3</ele>
      </trkpt>
      <trkpt lat="47.29232" lon="6.01567">
        <ele>353.6</ele>
      </trkpt>
      <trkpt lat="47.29215" lon="6.01556">
        <ele>352.5</ele>
      </trkpt>
      <trkpt lat="47.29189" lon="6.01537">
        <ele>351.1</ele>
      </trkpt>
      <trkpt lat="47.29154" lon="6.01507">
        <ele>349.8</ele>
      </trkpt>
      <trkpt lat="47.29121" lon="6.01475">
        <ele>348.6</ele>
      </trkpt>
      <trkpt lat="47.29116" lon="6.0147">
        <ele>348.5</ele>
      </trkpt>
      <trkpt lat="47.29107" lon="6.01458">
        <ele>348.7</ele>
      </trkpt>
      <trkpt lat="47.29087" lon="6.01432">
        <ele>349.9</ele>
      </trkpt>
      <trkpt lat="47.29079" lon="6.01414">
        <ele>351</ele>
      </trkpt>
      <trkpt lat="47.29074" lon="6.01404">
        <ele>351.6</ele>
      </trkpt>
      <trkpt lat="47.29051" lon="6.01314">
        <ele>357</ele>
      </trkpt>
      <trkpt lat="47.29044" lon="6.01293">
        <ele>357.9</ele>
      </trkpt>
      <trkpt lat="47.29034" lon="6.01275">
        <ele>358.3</ele>
      </trkpt>
      <trkpt lat="47.29027" lon="6.01264">
        <ele>358.5</ele>
      </trkpt>
      <trkpt lat="47.29034" lon="6.01275">
        <ele>358.3</ele>
      </trkpt>
      <trkpt lat="47.29026" lon="6.01271">
        <ele>357.8</ele>
      </trkpt>
      <trkpt lat="47.29012" lon="6.01269">
        <ele>356.6</ele>
      </trkpt>
      <trkpt lat="47.29001" lon="6.01271">
        <ele>355.3</ele>
      </trkpt>
      <trkpt lat="47.28996" lon="6.01273">
        <ele>354.9</ele>
      </trkpt>
      <trkpt lat="47.2899" lon="6.01276">
        <ele>354.4</ele>
      </trkpt>
      <trkpt lat="47.28984" lon="6.01284">
        <ele>353.5</ele>
      </trkpt>
      <trkpt lat="47.28982" lon="6.01296">
        <ele>352.4</ele>
      </trkpt>
      <trkpt lat="47.28983" lon="6.01332">
        <ele>349.3</ele>
      </trkpt>
      <trkpt lat="47.28979" lon="6.01347">
        <ele>348.4</ele>
      </trkpt>
      <trkpt lat="47.28971" lon="6.01362">
        <ele>347.4</ele>
      </trkpt>
      <trkpt lat="47.28953" lon="6.01398">
        <ele>345.1</ele>
      </trkpt>
      <trkpt lat="47.28943" lon="6.01414">
        <ele>344.1</ele>
      </trkpt>
      <trkpt lat="47.28931" lon="6.01423">
        <ele>343</ele>
      </trkpt>
      <trkpt lat="47.28922" lon="6.01425">
        <ele>342.5</ele>
      </trkpt>
      <trkpt lat="47.2892" lon="6.01425">
        <ele>342.4</ele>
      </trkpt>
      <trkpt lat="47.28915" lon="6.01424">
        <ele>342.2</ele>
      </trkpt>
      <trkpt lat="47.28902" lon="6.01417">
        <ele>341.2</ele>
      </trkpt>
      <trkpt lat="47.28895" lon="6.0141">
        <ele>340.8</ele>
      </trkpt>
      <trkpt lat="47.28866" lon="6.01368">
        <ele>340.8</ele>
      </trkpt>
      <trkpt lat="47.2882" lon="6.01324">
        <ele>340.3</ele>
      </trkpt>
      <trkpt lat="47.28806" lon="6.01307">
        <ele>339.5</ele>
      </trkpt>
      <trkpt lat="47.28796" lon="6.01289">
        <ele>339.8</ele>
      </trkpt>
      <trkpt lat="47.28767" lon="6.01248">
        <ele>340.7</ele>
      </trkpt>
      <trkpt lat="47.28755" lon="6.01235">
        <ele>340.8</ele>
      </trkpt>
      <trkpt lat="47.28744" lon="6.01226">
        <ele>340.5</ele>
      </trkpt>
      <trkpt lat="47.28729" lon="6.01219">
        <ele>339</ele>
      </trkpt>
      <trkpt lat="47.28707" lon="6.01213">
        <ele>336.3</ele>
      </trkpt>
      <trkpt lat="47.28682" lon="6.01205">
        <ele>333.5</ele>
      </trkpt>
      <trkpt lat="47.28655" lon="6.01202">
        <ele>330</ele>
      </trkpt>
      <trkpt lat="47.28635" lon="6.01204">
        <ele>327.3</ele>
      </trkpt>
      <trkpt lat="47.28606" lon="6.01219">
        <ele>322.1</ele>
      </trkpt>
      <trkpt lat="47.28602" lon="6.01224">
        <ele>321.2</ele>
      </trkpt>
      <trkpt lat="47.28589" lon="6.01259">
        <ele>316.6</ele>
      </trkpt>
      <trkpt lat="47.28559" lon="6.01222">
        <ele>320.3</ele>
      </trkpt>
      <trkpt lat="47.28554" lon="6.01217">
        <ele>320.8</ele>
      </trkpt>
      <trkpt lat="47.28572" lon="6.01221">
        <ele>319.9</ele>
      </trkpt>
      <trkpt lat="47.28572" lon="6.0122">
        <ele>319.9</ele>
      </trkpt>
      <trkpt lat="47.28573" lon="6.01217">
        <ele>320.1</ele>
      </trkpt>
      <trkpt lat="47.28586" lon="6.01211">
        <ele>320.6</ele>
      </trkpt>
      <trkpt lat="47.28586" lon="6.01211">
        <ele>320.6</ele>
      </trkpt>
      <trkpt lat="47.28573" lon="6.01217">
        <ele>320.1</ele>
      </trkpt>
      <trkpt lat="47.28572" lon="6.0122">
        <ele>319.9</ele>
      </trkpt>
      <trkpt lat="47.28572" lon="6.01221">
        <ele>319.9</ele>
      </trkpt>
      <trkpt lat="47.28554" lon="6.01217">
        <ele>320.8</ele>
      </trkpt>
      <trkpt lat="47.28559" lon="6.01222">
        <ele>320.3</ele>
      </trkpt>
      <trkpt lat="47.28589" lon="6.01259">
        <ele>316.6</ele>
      </trkpt>
      <trkpt lat="47.28595" lon="6.01266">
        <ele>316.3</ele>
      </trkpt>
      <trkpt lat="47.28628" lon="6.01292">
        <ele>315.6</ele>
      </trkpt>
      <trkpt lat="47.28675" lon="6.01335">
        <ele>313.2</ele>
      </trkpt>
      <trkpt lat="47.28683" lon="6.01339">
        <ele>314.1</ele>
      </trkpt>
      <trkpt lat="47.28699" lon="6.01352">
        <ele>315.4</ele>
      </trkpt>
      <trkpt lat="47.28753" lon="6.01416">
        <ele>316.7</ele>
      </trkpt>
      <trkpt lat="47.28763" lon="6.01445">
        <ele>317.7</ele>
      </trkpt>
      <trkpt lat="47.28775" lon="6.01478">
        <ele>318.3</ele>
      </trkpt>
      <trkpt lat="47.28799" lon="6.01534">
        <ele>318.3</ele>
      </trkpt>
      <trkpt lat="47.28831" lon="6.01583">
        <ele>316</ele>
      </trkpt>
      <trkpt lat="47.28835" lon="6.01589">
        <ele>316.1</ele>
      </trkpt>
      <trkpt lat="47.2886" lon="6.01611">
        <ele>318.2</ele>
      </trkpt>
      <trkpt lat="47.28885" lon="6.01624">
        <ele>319.9</ele>
      </trkpt>
      <trkpt lat="47.28921" lon="6.01656">
        <ele>320.3</ele>
      </trkpt>
      <trkpt lat="47.28954" lon="6.01687">
        <ele>321.4</ele>
      </trkpt>
      <trkpt lat="47.28963" lon="6.01696">
        <ele>321.8</ele>
      </trkpt>
      <trkpt lat="47.29009" lon="6.01759">
        <ele>322.4</ele>
      </trkpt>
      <trkpt lat="47.29012" lon="6.01763">
        <ele>322.5</ele>
      </trkpt>
      <trkpt lat="47.29049" lon="6.01803">
        <ele>323.1</ele>
      </trkpt>
      <trkpt lat="47.29056" lon="6.01807">
        <ele>323.3</ele>
      </trkpt>
      <trkpt lat="47.29058" lon="6.01808">
        <ele>323.3</ele>
      </trkpt>
      <trkpt lat="47.29072" lon="6.01826">
        <ele>323</ele>
      </trkpt>
      <trkpt lat="47.29077" lon="6.01836">
        <ele>322.7</ele>
      </trkpt>
      <trkpt lat="47.29094" lon="6.0189">
        <ele>323.1</ele>
      </trkpt>
      <trkpt lat="47.29107" lon="6.01909">
        <ele>324.3</ele>
      </trkpt>
      <trkpt lat="47.29113" lon="6.01918">
        <ele>324.9</ele>
      </trkpt>
      <trkpt lat="47.29134" lon="6.01949">
        <ele>326.4</ele>
      </trkpt>
      <trkpt lat="47.29141" lon="6.0196">
        <ele>326.9</ele>
      </trkpt>
      <trkpt lat="47.29147" lon="6.01968">
        <ele>327.2</ele>
      </trkpt>
      <trkpt lat="47.29159" lon="6.01988">
        <ele>327.7</ele>
      </trkpt>
      <trkpt lat="47.29208" lon="6.02024">
        <ele>330.1</ele>
      </trkpt>
      <trkpt lat="47.29218" lon="6.02036">
        <ele>330.3</ele>
      </trkpt>
      <trkpt lat="47.29223" lon="6.02049">
        <ele>330.2</ele>
      </trkpt>
      <trkpt lat="47.29225" lon="6.02068">
        <ele>329.8</ele>
      </trkpt>
      <trkpt lat="47.29223" lon="6.02076">
        <ele>329.5</ele>
      </trkpt>
      <trkpt lat="47.29202" lon="6.02094">
        <ele>329</ele>
      </trkpt>
      <trkpt lat="47.29159" lon="6.02111">
        <ele>327.4</ele>
      </trkpt>
      <trkpt lat="47.29144" lon="6.02121">
        <ele>326.5</ele>
      </trkpt>
      <trkpt lat="47.29124" lon="6.02145">
        <ele>325.6</ele>
      </trkpt>
      <trkpt lat="47.29106" lon="6.02175">
        <ele>325</ele>
      </trkpt>
      <trkpt lat="47.29105" lon="6.02181">
        <ele>324.8</ele>
      </trkpt>
      <trkpt lat="47.29105" lon="6.02189">
        <ele>324.7</ele>
      </trkpt>
      <trkpt lat="47.29101" lon="6.02194">
        <ele>324.5</ele>
      </trkpt>
      <trkpt lat="47.29106" lon="6.02213">
        <ele>324.4</ele>
      </trkpt>
      <trkpt lat="47.29106" lon="6.02244">
        <ele>323.9</ele>
      </trkpt>
      <trkpt lat="47.29108" lon="6.0226">
        <ele>324.2</ele>
      </trkpt>
      <trkpt lat="47.29118" lon="6.02302">
        <ele>325.9</ele>
      </trkpt>
      <trkpt lat="47.2912" lon="6.02319">
        <ele>326.6</ele>
      </trkpt>
      <trkpt lat="47.29117" lon="6.02336">
        <ele>327.1</ele>
      </trkpt>
      <trkpt lat="47.29109" lon="6.02353">
        <ele>328.6</ele>
      </trkpt>
      <trkpt lat="47.29081" lon="6.02389">
        <ele>331.9</ele>
      </trkpt>
      <trkpt lat="47.29061" lon="6.02402">
        <ele>332.4</ele>
      </trkpt>
      <trkpt lat="47.29012" lon="6.0242">
        <ele>331.2</ele>
      </trkpt>
      <trkpt lat="47.28983" lon="6.02437">
        <ele>331.2</ele>
      </trkpt>
      <trkpt lat="47.28975" lon="6.02444">
        <ele>331.6</ele>
      </trkpt>
      <trkpt lat="47.28957" lon="6.02473">
        <ele>333.9</ele>
      </trkpt>
      <trkpt lat="47.28946" lon="6.02484">
        <ele>334.6</ele>
      </trkpt>
      <trkpt lat="47.28936" lon="6.02489">
        <ele>334.6</ele>
      </trkpt>
      <trkpt lat="47.28918" lon="6.02491">
        <ele>334</ele>
      </trkpt>
      <trkpt lat="47.28898" lon="6.02493">
        <ele>334.3</ele>
      </trkpt>
      <trkpt lat="47.28871" lon="6.025">
        <ele>335</ele>
      </trkpt>
      <trkpt lat="47.28851" lon="6.02501">
        <ele>335</ele>
      </trkpt>
      <trkpt lat="47.28834" lon="6.02498">
        <ele>334.9</ele>
      </trkpt>
      <trkpt lat="47.28828" lon="6.02495">
        <ele>334.9</ele>
      </trkpt>
      <trkpt lat="47.28817" lon="6.0249">
        <ele>334.9</ele>
      </trkpt>
      <trkpt lat="47.28801" lon="6.02469">
        <ele>334.4</ele>
      </trkpt>
      <trkpt lat="47.28794" lon="6.02464">
        <ele>334.4</ele>
      </trkpt>
      <trkpt lat="47.28775" lon="6.0246">
        <ele>334.8</ele>
      </trkpt>
      <trkpt lat="47.28764" lon="6.02461">
        <ele>335.2</ele>
      </trkpt>
      <trkpt lat="47.28703" lon="6.0248">
        <ele>338.1</ele>
      </trkpt>
      <trkpt lat="47.28664" lon="6.02499">
        <ele>341.1</ele>
      </trkpt>
      <trkpt lat="47.28628" lon="6.02511">
        <ele>343.8</ele>
      </trkpt>
      <trkpt lat="47.28606" lon="6.02521">
        <ele>345.9</ele>
      </trkpt>
      <trkpt lat="47.28594" lon="6.02524">
        <ele>346.9</ele>
      </trkpt>
      <trkpt lat="47.28565" lon="6.02523">
        <ele>349.6</ele>
      </trkpt>
      <trkpt lat="47.28533" lon="6.02518">
        <ele>352.6</ele>
      </trkpt>
      <trkpt lat="47.2851" lon="6.02513">
        <ele>354.7</ele>
      </trkpt>
      <trkpt lat="47.28423" lon="6.02511">
        <ele>361.2</ele>
      </trkpt>
      <trkpt lat="47.2841" lon="6.02513">
        <ele>362.1</ele>
      </trkpt>
      <trkpt lat="47.28375" lon="6.02534">
        <ele>365.2</ele>
      </trkpt>
      <trkpt lat="47.28336" lon="6.02551">
        <ele>368.7</ele>
      </trkpt>
      <trkpt lat="47.28323" lon="6.02554">
        <ele>369.4</ele>
      </trkpt>
      <trkpt lat="47.28315" lon="6.02553">
        <ele>369.5</ele>
      </trkpt>
      <trkpt lat="47.28303" lon="6.02552">
        <ele>369.7</ele>
      </trkpt>
      <trkpt lat="47.28272" lon="6.02544">
        <ele>370</ele>
      </trkpt>
      <trkpt lat="47.28259" lon="6.02541">
        <ele>370.2</ele>
      </trkpt>
      <trkpt lat="47.28239" lon="6.02539">
        <ele>369.3</ele>
      </trkpt>
      <trkpt lat="47.28226" lon="6.02538">
        <ele>367.9</ele>
      </trkpt>
      <trkpt lat="47.28188" lon="6.02543">
        <ele>364.2</ele>
      </trkpt>
      <trkpt lat="47.28179" lon="6.02548">
        <ele>363.4</ele>
      </trkpt>
      <trkpt lat="47.28173" lon="6.02554">
        <ele>363</ele>
      </trkpt>
      <trkpt lat="47.28159" lon="6.02583">
        <ele>362</ele>
      </trkpt>
      <trkpt lat="47.28153" lon="6.026">
        <ele>362</ele>
      </trkpt>
      <trkpt lat="47.28133" lon="6.02637">
        <ele>361.4</ele>
      </trkpt>
      <trkpt lat="47.28112" lon="6.02663">
        <ele>360.2</ele>
      </trkpt>
      <trkpt lat="47.28104" lon="6.02683">
        <ele>359.7</ele>
      </trkpt>
      <trkpt lat="47.28086" lon="6.02745">
        <ele>359.1</ele>
      </trkpt>
      <trkpt lat="47.28079" lon="6.02762">
        <ele>358.4</ele>
      </trkpt>
      <trkpt lat="47.28059" lon="6.02799">
        <ele>357.2</ele>
      </trkpt>
      <trkpt lat="47.28054" lon="6.02806">
        <ele>357.1</ele>
      </trkpt>
      <trkpt lat="47.28023" lon="6.02851">
        <ele>357.7</ele>
      </trkpt>
      <trkpt lat="47.27987" lon="6.02986">
        <ele>357.1</ele>
      </trkpt>
      <trkpt lat="47.27983" lon="6.03014">
        <ele>356.2</ele>
      </trkpt>
      <trkpt lat="47.27984" lon="6.03049">
        <ele>355.3</ele>
      </trkpt>
      <trkpt lat="47.27992" lon="6.03086">
        <ele>354.1</ele>
      </trkpt>
      <trkpt lat="47.27993" lon="6.03092">
        <ele>354</ele>
      </trkpt>
      <trkpt lat="47.27998" lon="6.03097">
        <ele>353.7</ele>
      </trkpt>
      <trkpt lat="47.27993" lon="6.03092">
        <ele>354</ele>
      </trkpt>
      <trkpt lat="47.27984" lon="6.03114">
        <ele>353.8</ele>
      </trkpt>
      <trkpt lat="47.27964" lon="6.03158">
        <ele>353.8</ele>
      </trkpt>
      <trkpt lat="47.27957" lon="6.03177">
        <ele>353.5</ele>
      </trkpt>
      <trkpt lat="47.27955" lon="6.03183">
        <ele>353.3</ele>
      </trkpt>
      <trkpt lat="47.27938" lon="6.03188">
        <ele>354.1</ele>
      </trkpt>
      <trkpt lat="47.2793" lon="6.03187">
        <ele>354.7</ele>
      </trkpt>
      <trkpt lat="47.27916" lon="6.03179">
        <ele>355.8</ele>
      </trkpt>
      <trkpt lat="47.27892" lon="6.03181">
        <ele>357.5</ele>
      </trkpt>
      <trkpt lat="47.27884" lon="6.03179">
        <ele>358.1</ele>
      </trkpt>
      <trkpt lat="47.2786" lon="6.03169">
        <ele>360</ele>
      </trkpt>
      <trkpt lat="47.27848" lon="6.03164">
        <ele>360.9</ele>
      </trkpt>
      <trkpt lat="47.27791" lon="6.0314">
        <ele>363.4</ele>
      </trkpt>
      <trkpt lat="47.2774" lon="6.03135">
        <ele>364.8</ele>
      </trkpt>
      <trkpt lat="47.27703" lon="6.03137">
        <ele>365.5</ele>
      </trkpt>
      <trkpt lat="47.27689" lon="6.03137">
        <ele>365.7</ele>
      </trkpt>
      <trkpt lat="47.27683" lon="6.0314">
        <ele>366.1</ele>
      </trkpt>
      <trkpt lat="47.27667" lon="6.03161">
        <ele>368.4</ele>
      </trkpt>
      <trkpt lat="47.27653" lon="6.03174">
        <ele>369.1</ele>
      </trkpt>
      <trkpt lat="47.2764" lon="6.03173">
        <ele>369</ele>
      </trkpt>
      <trkpt lat="47.27624" lon="6.03174">
        <ele>368.9</ele>
      </trkpt>
      <trkpt lat="47.27619" lon="6.03175">
        <ele>368.9</ele>
      </trkpt>
      <trkpt lat="47.27555" lon="6.03168">
        <ele>367.4</ele>
      </trkpt>
      <trkpt lat="47.27492" lon="6.03157">
        <ele>365.4</ele>
      </trkpt>
      <trkpt lat="47.27488" lon="6.03155">
        <ele>365.3</ele>
      </trkpt>
      <trkpt lat="47.27477" lon="6.0315">
        <ele>365.1</ele>
      </trkpt>
      <trkpt lat="47.27429" lon="6.03125">
        <ele>364.3</ele>
      </trkpt>
      <trkpt lat="47.27363" lon="6.0309">
        <ele>363.4</ele>
      </trkpt>
      <trkpt lat="47.27327" lon="6.03069">
        <ele>363.4</ele>
      </trkpt>
      <trkpt lat="47.27311" lon="6.03058">
        <ele>362.8</ele>
      </trkpt>
      <trkpt lat="47.273" lon="6.03057">
        <ele>362.5</ele>
      </trkpt>
      <trkpt lat="47.27292" lon="6.03061">
        <ele>362.3</ele>
      </trkpt>
      <trkpt lat="47.27291" lon="6.03058">
        <ele>362.3</ele>
      </trkpt>
      <trkpt lat="47.27286" lon="6.03054">
        <ele>362.2</ele>
      </trkpt>
      <trkpt lat="47.27281" lon="6.03054">
        <ele>362.1</ele>
      </trkpt>
      <trkpt lat="47.27279" lon="6.03057">
        <ele>362</ele>
      </trkpt>
      <trkpt lat="47.27278" lon="6.03059">
        <ele>361.9</ele>
      </trkpt>
      <trkpt lat="47.27277" lon="6.0306">
        <ele>361.9</ele>
      </trkpt>
      <trkpt lat="47.27276" lon="6.03067">
        <ele>361.7</ele>
      </trkpt>
      <trkpt lat="47.27279" lon="6.03074">
        <ele>361.6</ele>
      </trkpt>
      <trkpt lat="47.27281" lon="6.03076">
        <ele>361.6</ele>
      </trkpt>
      <trkpt lat="47.27283" lon="6.03077">
        <ele>361.7</ele>
      </trkpt>
      <trkpt lat="47.27288" lon="6.03076">
        <ele>361.9</ele>
      </trkpt>
      <trkpt lat="47.2729" lon="6.03074">
        <ele>362</ele>
      </trkpt>
      <trkpt lat="47.27291" lon="6.03072">
        <ele>362.1</ele>
      </trkpt>
      <trkpt lat="47.27292" lon="6.03065">
        <ele>362.2</ele>
      </trkpt>
      <trkpt lat="47.27292" lon="6.03061">
        <ele>362.3</ele>
      </trkpt>
      <trkpt lat="47.27291" lon="6.03058">
        <ele>362.3</ele>
      </trkpt>
      <trkpt lat="47.27286" lon="6.03054">
        <ele>362.2</ele>
      </trkpt>
      <trkpt lat="47.27281" lon="6.03054">
        <ele>362.1</ele>
      </trkpt>
      <trkpt lat="47.27279" lon="6.03057">
        <ele>362</ele>
      </trkpt>
      <trkpt lat="47.27257" lon="6.03018">
        <ele>363.1</ele>
      </trkpt>
      <trkpt lat="47.27243" lon="6.02994">
        <ele>363.1</ele>
      </trkpt>
      <trkpt lat="47.27209" lon="6.02941">
        <ele>359.9</ele>
      </trkpt>
      <trkpt lat="47.27178" lon="6.02899">
        <ele>359.3</ele>
      </trkpt>
      <trkpt lat="47.27159" lon="6.02884">
        <ele>359.5</ele>
      </trkpt>
      <trkpt lat="47.27093" lon="6.02832">
        <ele>361.3</ele>
      </trkpt>
      <trkpt lat="47.27061" lon="6.02803">
        <ele>360.6</ele>
      </trkpt>
      <trkpt lat="47.27057" lon="6.02801">
        <ele>360.4</ele>
      </trkpt>
      <trkpt lat="47.27047" lon="6.02796">
        <ele>360.1</ele>
      </trkpt>
      <trkpt lat="47.27041" lon="6.02793">
        <ele>359.9</ele>
      </trkpt>
      <trkpt lat="47.27026" lon="6.02793">
        <ele>359</ele>
      </trkpt>
      <trkpt lat="47.27011" lon="6.02796">
        <ele>357.8</ele>
      </trkpt>
      <trkpt lat="47.26994" lon="6.02803">
        <ele>356.1</ele>
      </trkpt>
      <trkpt lat="47.2698" lon="6.02808">
        <ele>354.6</ele>
      </trkpt>
      <trkpt lat="47.26965" lon="6.02812">
        <ele>353.2</ele>
      </trkpt>
      <trkpt lat="47.26954" lon="6.02813">
        <ele>352.3</ele>
      </trkpt>
      <trkpt lat="47.26936" lon="6.02813">
        <ele>350.9</ele>
      </trkpt>
      <trkpt lat="47.26911" lon="6.02812">
        <ele>349.4</ele>
      </trkpt>
      <trkpt lat="47.26899" lon="6.02811">
        <ele>349.2</ele>
      </trkpt>
      <trkpt lat="47.26884" lon="6.02809">
        <ele>348.9</ele>
      </trkpt>
      <trkpt lat="47.2688" lon="6.02808">
        <ele>348.8</ele>
      </trkpt>
      <trkpt lat="47.26837" lon="6.02798">
        <ele>347.2</ele>
      </trkpt>
      <trkpt lat="47.26808" lon="6.02792">
        <ele>346.7</ele>
      </trkpt>
      <trkpt lat="47.26777" lon="6.02784">
        <ele>346.1</ele>
      </trkpt>
      <trkpt lat="47.26725" lon="6.02771">
        <ele>343.2</ele>
      </trkpt>
      <trkpt lat="47.26666" lon="6.02753">
        <ele>339</ele>
      </trkpt>
      <trkpt lat="47.26659" lon="6.02751">
        <ele>338.7</ele>
      </trkpt>
      <trkpt lat="47.26643" lon="6.02746">
        <ele>337.9</ele>
      </trkpt>
      <trkpt lat="47.26637" lon="6.02744">
        <ele>337.6</ele>
      </trkpt>
      <trkpt lat="47.26622" lon="6.0274">
        <ele>337</ele>
      </trkpt>
      <trkpt lat="47.26617" lon="6.02738">
        <ele>336.7</ele>
      </trkpt>
      <trkpt lat="47.26594" lon="6.02733">
        <ele>335.9</ele>
      </trkpt>
      <trkpt lat="47.26592" lon="6.02732">
        <ele>335.8</ele>
      </trkpt>
      <trkpt lat="47.26566" lon="6.02728">
        <ele>335.1</ele>
      </trkpt>
      <trkpt lat="47.26536" lon="6.02727">
        <ele>334.4</ele>
      </trkpt>
      <trkpt lat="47.26495" lon="6.02735">
        <ele>334.1</ele>
      </trkpt>
      <trkpt lat="47.2648" lon="6.02737">
        <ele>334.2</ele>
      </trkpt>
      <trkpt lat="47.2647" lon="6.02738">
        <ele>334.2</ele>
      </trkpt>
      <trkpt lat="47.26445" lon="6.0274">
        <ele>334.3</ele>
      </trkpt>
      <trkpt lat="47.26437" lon="6.02741">
        <ele>334.4</ele>
      </trkpt>
      <trkpt lat="47.26385" lon="6.02746">
        <ele>334.8</ele>
      </trkpt>
      <trkpt lat="47.26384" lon="6.02746">
        <ele>334.8</ele>
      </trkpt>
      <trkpt lat="47.26354" lon="6.02749">
        <ele>335</ele>
      </trkpt>
      <trkpt lat="47.26316" lon="6.02753">
        <ele>334.4</ele>
      </trkpt>
      <trkpt lat="47.2631" lon="6.02754">
        <ele>334.2</ele>
      </trkpt>
      <trkpt lat="47.26299" lon="6.02754">
        <ele>333.8</ele>
      </trkpt>
      <trkpt lat="47.2628" lon="6.02754">
        <ele>333.1</ele>
      </trkpt>
      <trkpt lat="47.26261" lon="6.02754">
        <ele>332.4</ele>
      </trkpt>
      <trkpt lat="47.26256" lon="6.02754">
        <ele>332.2</ele>
      </trkpt>
      <trkpt lat="47.26242" lon="6.02752">
        <ele>331.8</ele>
      </trkpt>
      <trkpt lat="47.26228" lon="6.0275">
        <ele>331.5</ele>
      </trkpt>
      <trkpt lat="47.26211" lon="6.02747">
        <ele>331</ele>
      </trkpt>
      <trkpt lat="47.26201" lon="6.02748">
        <ele>330.8</ele>
      </trkpt>
      <trkpt lat="47.26176" lon="6.02747">
        <ele>330.2</ele>
      </trkpt>
      <trkpt lat="47.26139" lon="6.02749">
        <ele>330.3</ele>
      </trkpt>
      <trkpt lat="47.26106" lon="6.0275">
        <ele>330.7</ele>
      </trkpt>
      <trkpt lat="47.26076" lon="6.02749">
        <ele>330.8</ele>
      </trkpt>
      <trkpt lat="47.26075" lon="6.02749">
        <ele>330.8</ele>
      </trkpt>
      <trkpt lat="47.26067" lon="6.02748">
        <ele>330.6</ele>
      </trkpt>
      <trkpt lat="47.26064" lon="6.02747">
        <ele>330.5</ele>
      </trkpt>
      <trkpt lat="47.26056" lon="6.02742">
        <ele>330.2</ele>
      </trkpt>
      <trkpt lat="47.26056" lon="6.02738">
        <ele>330.2</ele>
      </trkpt>
      <trkpt lat="47.26053" lon="6.02727">
        <ele>330</ele>
      </trkpt>
      <trkpt lat="47.26051" lon="6.02725">
        <ele>329.9</ele>
      </trkpt>
      <trkpt lat="47.26049" lon="6.02724">
        <ele>329.9</ele>
      </trkpt>
      <trkpt lat="47.26046" lon="6.02724">
        <ele>329.8</ele>
      </trkpt>
      <trkpt lat="47.26044" lon="6.02725">
        <ele>329.8</ele>
      </trkpt>
      <trkpt lat="47.26041" lon="6.02715">
        <ele>329.6</ele>
      </trkpt>
      <trkpt lat="47.26002" lon="6.02607">
        <ele>325.9</ele>
      </trkpt>
      <trkpt lat="47.25993" lon="6.02577">
        <ele>325</ele>
      </trkpt>
      <trkpt lat="47.2598" lon="6.02524">
        <ele>325.6</ele>
      </trkpt>
      <trkpt lat="47.25979" lon="6.02517">
        <ele>325.7</ele>
      </trkpt>
      <trkpt lat="47.25961" lon="6.02442">
        <ele>324.8</ele>
      </trkpt>
      <trkpt lat="47.25956" lon="6.0242">
        <ele>324.4</ele>
      </trkpt>
      <trkpt lat="47.25951" lon="6.02404">
        <ele>324.3</ele>
      </trkpt>
      <trkpt lat="47.25943" lon="6.02388">
        <ele>324.1</ele>
      </trkpt>
      <trkpt lat="47.25916" lon="6.02349">
        <ele>322.8</ele>
      </trkpt>
      <trkpt lat="47.25874" lon="6.02313">
        <ele>320.4</ele>
      </trkpt>
      <trkpt lat="47.2587" lon="6.0231">
        <ele>320.2</ele>
      </trkpt>
      <trkpt lat="47.25853" lon="6.02298">
        <ele>319</ele>
      </trkpt>
      <trkpt lat="47.25834" lon="6.02289">
        <ele>317.6</ele>
      </trkpt>
      <trkpt lat="47.25818" lon="6.02284">
        <ele>317</ele>
      </trkpt>
      <trkpt lat="47.25808" lon="6.0228">
        <ele>316.6</ele>
      </trkpt>
      <trkpt lat="47.258" lon="6.02277">
        <ele>316.2</ele>
      </trkpt>
      <trkpt lat="47.25797" lon="6.02276">
        <ele>316.1</ele>
      </trkpt>
      <trkpt lat="47.25788" lon="6.02273">
        <ele>315.6</ele>
      </trkpt>
      <trkpt lat="47.25774" lon="6.0227">
        <ele>314.9</ele>
      </trkpt>
      <trkpt lat="47.25766" lon="6.02267">
        <ele>314.4</ele>
      </trkpt>
      <trkpt lat="47.25755" lon="6.02264">
        <ele>313.8</ele>
      </trkpt>
      <trkpt lat="47.25745" lon="6.02261">
        <ele>313.4</ele>
      </trkpt>
      <trkpt lat="47.25713" lon="6.02251">
        <ele>313.5</ele>
      </trkpt>
      <trkpt lat="47.25706" lon="6.02248">
        <ele>313.6</ele>
      </trkpt>
      <trkpt lat="47.25696" lon="6.02242">
        <ele>314</ele>
      </trkpt>
      <trkpt lat="47.2568" lon="6.02231">
        <ele>314.6</ele>
      </trkpt>
      <trkpt lat="47.25677" lon="6.02228">
        <ele>314.7</ele>
      </trkpt>
      <trkpt lat="47.25665" lon="6.02214">
        <ele>315.2</ele>
      </trkpt>
      <trkpt lat="47.25658" lon="6.02207">
        <ele>315.1</ele>
      </trkpt>
      <trkpt lat="47.25649" lon="6.022">
        <ele>315</ele>
      </trkpt>
      <trkpt lat="47.25615" lon="6.02184">
        <ele>314.3</ele>
      </trkpt>
      <trkpt lat="47.25608" lon="6.02183">
        <ele>314</ele>
      </trkpt>
      <trkpt lat="47.25589" lon="6.02179">
        <ele>313.5</ele>
      </trkpt>
      <trkpt lat="47.25571" lon="6.02175">
        <ele>312.5</ele>
      </trkpt>
      <trkpt lat="47.25566" lon="6.02174">
        <ele>312.1</ele>
      </trkpt>
      <trkpt lat="47.25561" lon="6.02173">
        <ele>311.8</ele>
      </trkpt>
      <trkpt lat="47.25557" lon="6.02187">
        <ele>310.7</ele>
      </trkpt>
      <trkpt lat="47.25549" lon="6.02211">
        <ele>308.9</ele>
      </trkpt>
      <trkpt lat="47.25532" lon="6.02265">
        <ele>305.9</ele>
      </trkpt>
      <trkpt lat="47.25526" lon="6.02286">
        <ele>305.6</ele>
      </trkpt>
      <trkpt lat="47.25522" lon="6.02298">
        <ele>305.3</ele>
      </trkpt>
      <trkpt lat="47.2552" lon="6.02306">
        <ele>305.2</ele>
      </trkpt>
      <trkpt lat="47.25519" lon="6.02309">
        <ele>305.1</ele>
      </trkpt>
      <trkpt lat="47.25517" lon="6.02315">
        <ele>305</ele>
      </trkpt>
      <trkpt lat="47.25511" lon="6.02333">
        <ele>304.7</ele>
      </trkpt>
      <trkpt lat="47.255" lon="6.02362">
        <ele>304.3</ele>
      </trkpt>
      <trkpt lat="47.25482" lon="6.02392">
        <ele>303.4</ele>
      </trkpt>
      <trkpt lat="47.25463" lon="6.02421">
        <ele>302.4</ele>
      </trkpt>
      <trkpt lat="47.25453" lon="6.02437">
        <ele>302</ele>
      </trkpt>
      <trkpt lat="47.2545" lon="6.02441">
        <ele>301.9</ele>
      </trkpt>
      <trkpt lat="47.25446" lon="6.02447">
        <ele>301.7</ele>
      </trkpt>
      <trkpt lat="47.25441" lon="6.02455">
        <ele>301.5</ele>
      </trkpt>
      <trkpt lat="47.25425" lon="6.02477">
        <ele>301</ele>
      </trkpt>
      <trkpt lat="47.25414" lon="6.02488">
        <ele>300.5</ele>
      </trkpt>
      <trkpt lat="47.25404" lon="6.02495">
        <ele>299.7</ele>
      </trkpt>
      <trkpt lat="47.25401" lon="6.02497">
        <ele>299.4</ele>
      </trkpt>
      <trkpt lat="47.25384" lon="6.02509">
        <ele>298.1</ele>
      </trkpt>
      <trkpt lat="47.25371" lon="6.02523">
        <ele>297.4</ele>
      </trkpt>
      <trkpt lat="47.25368" lon="6.02525">
        <ele>297.2</ele>
      </trkpt>
      <trkpt lat="47.25365" lon="6.0253">
        <ele>297.2</ele>
      </trkpt>
      <trkpt lat="47.25355" lon="6.02548">
        <ele>297.2</ele>
      </trkpt>
      <trkpt lat="47.25351" lon="6.02556">
        <ele>297.3</ele>
      </trkpt>
      <trkpt lat="47.25346" lon="6.02563">
        <ele>297.4</ele>
      </trkpt>
      <trkpt lat="47.25339" lon="6.02574">
        <ele>297.7</ele>
      </trkpt>
      <trkpt lat="47.25338" lon="6.02574">
        <ele>297.6</ele>
      </trkpt>
      <trkpt lat="47.25332" lon="6.02582">
        <ele>297.8</ele>
      </trkpt>
      <trkpt lat="47.25328" lon="6.02585">
        <ele>297.5</ele>
      </trkpt>
      <trkpt lat="47.25324" lon="6.02589">
        <ele>297.2</ele>
      </trkpt>
      <trkpt lat="47.25314" lon="6.02593">
        <ele>296.3</ele>
      </trkpt>
      <trkpt lat="47.2529" lon="6.026">
        <ele>294.2</ele>
      </trkpt>
      <trkpt lat="47.25268" lon="6.02605">
        <ele>292.4</ele>
      </trkpt>
      <trkpt lat="47.25265" lon="6.02606">
        <ele>292.2</ele>
      </trkpt>
      <trkpt lat="47.25231" lon="6.02618">
        <ele>290.7</ele>
      </trkpt>
      <trkpt lat="47.25219" lon="6.02622">
        <ele>290.5</ele>
      </trkpt>
      <trkpt lat="47.25211" lon="6.02624">
        <ele>290.3</ele>
      </trkpt>
      <trkpt lat="47.25207" lon="6.02626">
        <ele>290.2</ele>
      </trkpt>
      <trkpt lat="47.25204" lon="6.02623">
        <ele>290.1</ele>
      </trkpt>
      <trkpt lat="47.25204" lon="6.02621">
        <ele>290</ele>
      </trkpt>
      <trkpt lat="47.25185" lon="6.02591">
        <ele>288.6</ele>
      </trkpt>
      <trkpt lat="47.25179" lon="6.02578">
        <ele>288.2</ele>
      </trkpt>
      <trkpt lat="47.25176" lon="6.02573">
        <ele>288</ele>
      </trkpt>
      <trkpt lat="47.25172" lon="6.02569">
        <ele>287.9</ele>
      </trkpt>
      <trkpt lat="47.25168" lon="6.02566">
        <ele>287.8</ele>
      </trkpt>
      <trkpt lat="47.25166" lon="6.02565">
        <ele>287.7</ele>
      </trkpt>
      <trkpt lat="47.25157" lon="6.02565">
        <ele>287.3</ele>
      </trkpt>
      <trkpt lat="47.25147" lon="6.02564">
        <ele>286.7</ele>
      </trkpt>
      <trkpt lat="47.25135" lon="6.02563">
        <ele>286</ele>
      </trkpt>
      <trkpt lat="47.25131" lon="6.02562">
        <ele>285.8</ele>
      </trkpt>
      <trkpt lat="47.25026" lon="6.02552">
        <ele>280.4</ele>
      </trkpt>
      <trkpt lat="47.25018" lon="6.02551">
        <ele>279.9</ele>
      </trkpt>
      <trkpt lat="47.25012" lon="6.02552">
        <ele>279.6</ele>
      </trkpt>
      <trkpt lat="47.25008" lon="6.02557">
        <ele>279.4</ele>
      </trkpt>
      <trkpt lat="47.25007" lon="6.02602">
        <ele>279.6</ele>
      </trkpt>
      <trkpt lat="47.25009" lon="6.02631">
        <ele>279.9</ele>
      </trkpt>
      <trkpt lat="47.24982" lon="6.0266">
        <ele>279.3</ele>
      </trkpt>
      <trkpt lat="47.24965" lon="6.02676">
        <ele>278.7</ele>
      </trkpt>
      <trkpt lat="47.24959" lon="6.02682">
        <ele>278.5</ele>
      </trkpt>
      <trkpt lat="47.24941" lon="6.02688">
        <ele>277.9</ele>
      </trkpt>
      <trkpt lat="47.24912" lon="6.02691">
        <ele>276.7</ele>
      </trkpt>
      <trkpt lat="47.24888" lon="6.02696">
        <ele>275.2</ele>
      </trkpt>
      <trkpt lat="47.24865" lon="6.02592">
        <ele>275.7</ele>
      </trkpt>
      <trkpt lat="47.24836" lon="6.02599">
        <ele>273.8</ele>
      </trkpt>
      <trkpt lat="47.24823" lon="6.02607">
        <ele>272.5</ele>
      </trkpt>
      <trkpt lat="47.24819" lon="6.02608">
        <ele>272.2</ele>
      </trkpt>
      <trkpt lat="47.24784" lon="6.02496">
        <ele>273.6</ele>
      </trkpt>
      <trkpt lat="47.24741" lon="6.02538">
        <ele>268.6</ele>
      </trkpt>
      <trkpt lat="47.24712" lon="6.02489">
        <ele>271.1</ele>
      </trkpt>
      <trkpt lat="47.24677" lon="6.02524">
        <ele>268.7</ele>
      </trkpt>
    </trkseg>
  </trk>
</gpx>